
Distance (Route):
Temperature : 15.0°C
Humidity : 79.1%
Pressure : 966.5hPa| Receiver | Frames | First received | Last received |
|---|---|---|---|
| DM0DOS-11 | 709 | 2026-09-04 21:49:57 | 2026-09-04 23:49:43 |
| BIOWL1-15 | 485 | 2026-09-04 21:54:17 | 2026-09-04 23:48:14 |
| DL1XH1-15 | 214 | 2026-09-04 22:26:02 | 2026-09-04 23:26:42 |
| DB0UT-7 | 172 | 2026-09-04 21:47:09 | 2026-09-04 23:51:07 |
| DL1XH-west | 128 | 2026-09-04 22:28:27 | 2026-09-04 23:25:57 |
| AA1-15 | 74 | 2026-09-04 23:01:23 | 2026-09-04 23:16:54 |
| GOEST3-10 | 31 | 2026-09-04 22:42:44 | 2026-09-04 23:16:17 |
| NBG1-10 | 5 | 2026-09-04 22:40:56 | 2026-09-04 23:27:00 |
| DO3MHA-12 | 4 | 2026-09-04 22:57:45 | 2026-09-04 23:00:47 |
| DO3MHA-11 | 2 | 2026-09-04 22:45:32 | 2026-09-04 22:46:33 |
| Receiver | Date | Latitude | Longitude | Direction | Speed | Altitude | Climb | Temperature | Humidity | Pressure | Voltage | Killtimer | Uptime | BKT | XDATA |
|---|---|---|---|---|---|---|---|---|---|---|---|---|---|---|---|
| DB0UT-7 | 2026-09-04 23:51:07 | 50.80849 | 7.35208 | 122° | 35km/h | 447m | -4.9m/s | 15.0°C | 79.1% | 966.5hPa | 4.7V | 00:00:00 | 02:14:35 | 00:00:00 | |
| DB0UT-7 | 2026-09-04 23:51:01 | 50.80875 | 7.35139 | 123° | 38km/h | 477m | -4.8m/s | 14.8°C | 78.2% | 963.1hPa | 4.7V | 00:00:00 | 00:00:00 | 00:00:00 | |
| DB0UT-7 | 2026-09-04 23:50:54 | 50.80910 | 7.35051 | 122° | 38km/h | 511m | -5.2m/s | 14.5°C | 79.2% | 959.1hPa | 4.7V | 00:00:00 | 02:14:22 | 00:00:00 | |
| DB0UT-7 | 2026-09-04 23:50:49 | 50.80935 | 7.34985 | 120° | 38km/h | 536m | -5.2m/s | 14.4°C | 78.7% | 956.3hPa | 4.7V | 00:00:00 | 00:00:00 | 00:00:00 | |
| DB0UT-7 | 2026-09-04 23:50:44 | 50.80959 | 7.34917 | 121° | 40km/h | 562m | -5.1m/s | 14.3°C | 78.2% | 953.4hPa | 4.7V | 00:00:00 | 02:14:12 | 00:00:00 | |
| DB0UT-7 | 2026-09-04 23:50:39 | 50.80983 | 7.34848 | 120° | 40km/h | 588m | -5.1m/s | 14.0°C | 78.6% | 950.5hPa | 4.7V | 00:00:00 | 00:00:00 | 00:00:00 | |
| DB0UT-7 | 2026-09-04 23:50:34 | 50.81008 | 7.34779 | 120° | 40km/h | 614m | -5.1m/s | 13.8°C | 79.5% | 947.6hPa | 4.7V | 00:00:00 | 02:14:02 | 00:00:00 | |
| DB0UT-7 | 2026-09-04 23:50:29 | 50.81034 | 7.34709 | 120° | 40km/h | 640m | -5.1m/s | 13.6°C | 79.0% | 944.7hPa | 4.7V | 00:00:00 | 00:00:00 | 00:00:00 | |
| DB0UT-7 | 2026-09-04 23:50:24 | 50.81060 | 7.34639 | 120° | 40km/h | 666m | -5.2m/s | 13.3°C | 79.0% | 941.7hPa | 4.7V | 00:00:00 | 02:13:52 | 00:00:00 | |
| DB0UT-7 | 2026-09-04 23:50:19 | 50.81086 | 7.34569 | 121° | 40km/h | 692m | -5.1m/s | 13.1°C | 79.9% | 938.8hPa | 4.7V | 00:00:00 | 00:00:00 | 00:00:00 | |
| DB0UT-7 | 2026-09-04 23:50:14 | 50.81113 | 7.34498 | 122° | 40km/h | 718m | -5.1m/s | 12.8°C | 81.0% | 935.9hPa | 4.7V | 00:00:00 | 02:13:42 | 00:00:00 | |
| DB0UT-7 | 2026-09-04 23:50:09 | 50.81140 | 7.34430 | 122° | 40km/h | 744m | -5.0m/s | 12.6°C | 83.2% | 933.0hPa | 4.7V | 00:00:00 | 00:00:00 | 00:00:00 | |
| DB0UT-7 | 2026-09-04 23:50:04 | 50.81166 | 7.34359 | 120° | 40km/h | 769m | -5.0m/s | 12.3°C | 84.7% | 930.2hPa | 4.7V | 00:00:00 | 02:13:32 | 00:00:00 | |
| DB0UT-7 | 2026-09-04 23:49:59 | 50.81192 | 7.34289 | 119° | 40km/h | 794m | -5.0m/s | 12.1°C | 85.7% | 927.4hPa | 4.7V | 00:00:00 | 00:00:00 | 00:00:00 | |
| DB0UT-7 | 2026-09-04 23:49:54 | 50.81217 | 7.34218 | 119° | 40km/h | 819m | -5.1m/s | 11.8°C | 87.0% | 924.7hPa | 4.7V | 00:00:00 | 02:13:22 | 00:00:00 | |
| DB0UT-7 | 2026-09-04 23:49:49 | 50.81241 | 7.34145 | 117° | 42km/h | 845m | -5.0m/s | 11.6°C | 88.0% | 921.9hPa | 4.7V | 00:00:00 | 00:00:00 | 00:00:00 | |
| DB0UT-7 | 2026-09-04 23:49:44 | 50.81264 | 7.34071 | 116° | 42km/h | 870m | -5.1m/s | 11.4°C | 90.2% | 919.1hPa | 4.6V | 00:00:00 | 02:13:12 | 00:00:00 | |
| DM0DOS-11 | 2026-09-04 23:49:43 | 50.81277 | 7.34026 | 114° | 44km/h | 885m | -5.2m/s | 11.4°C | 90.9% | 917.4hPa | 4.6V | 00:00:00 | 02:13:09 | 00:00:00 | |
| DB0UT-7 | 2026-09-04 23:49:39 | 50.81286 | 7.33995 | 114° | 44km/h | 896m | -5.0m/s | 11.3°C | 91.0% | 916.3hPa | 4.5V | 00:00:00 | 00:00:00 | 00:00:00 | |
| DB0UT-7 | 2026-09-04 23:49:34 | 50.81308 | 7.33918 | 113° | 44km/h | 921m | -5.3m/s | 11.0°C | 91.5% | 913.4hPa | 4.5V | 00:00:00 | 02:13:02 | 00:00:00 | |
| DM0DOS-11 | 2026-09-04 23:49:32 | 50.81330 | 7.33837 | 113° | 46km/h | 947m | -5.1m/s | 10.8°C | 91.4% | 910.7hPa | 4.6V | 00:00:00 | 02:12:57 | 00:00:00 | |
| DB0UT-7 | 2026-09-04 23:49:29 | 50.81330 | 7.33837 | 116° | 46km/h | 947m | -5.3m/s | 10.8°C | 91.4% | 910.7hPa | 4.6V | 00:00:00 | 00:00:00 | 00:00:00 | |
| DM0DOS-11 | 2026-09-04 23:49:27 | 50.81348 | 7.33771 | 113° | 46km/h | 968m | -5.1m/s | 10.8°C | 91.1% | 908.4hPa | 4.6V | 00:00:00 | 02:12:53 | 00:00:00 | |
| DM0DOS-11 | 2026-09-04 23:49:27 | 50.81366 | 7.33704 | 111° | 46km/h | 989m | -5m/s | 10.6°C | 91.4% | 906.3hPa | 4.6V | 00:00:00 | 02:12:49 | 00:00:00 | |
| DB0UT-7 | 2026-09-04 23:49:24 | 50.81353 | 7.33754 | 114° | 46km/h | 974m | -4.9m/s | 10.7°C | 91.2% | 907.8hPa | 4.6V | 00:00:00 | 02:12:52 | 00:00:00 | |
| DM0DOS-11 | 2026-09-04 23:49:22 | 50.81371 | 7.33687 | 113° | 46km/h | 994m | -5m/s | 10.6°C | 91.4% | 905.7hPa | 4.6V | 00:00:00 | 02:12:48 | 00:00:00 | |
| DM0DOS-11 | 2026-09-04 23:49:22 | 50.81379 | 7.33653 | 111° | 47km/h | 1004m | -4.9m/s | 10.5°C | 91.2% | 904.6hPa | 4.6V | 00:00:00 | 02:12:46 | 00:00:00 | |
| DB0UT-7 | 2026-09-04 23:49:19 | 50.81375 | 7.33670 | 112° | 46km/h | 999m | -4.9m/s | 10.5°C | 91.4% | 905.1hPa | 4.5V | 00:00:00 | 00:00:00 | 00:00:00 | |
| DM0DOS-11 | 2026-09-04 23:49:16 | 50.81409 | 7.33534 | 112° | 47km/h | 1039m | -4.9m/s | 10.3°C | 91% | 900.9hPa | 4.6V | 00:00:00 | 02:12:39 | 00:00:00 | |
| DB0UT-7 | 2026-09-04 23:49:11 | 50.81409 | 7.33534 | 113° | 49km/h | 1039m | -4.9m/s | 10.2°C | 91.0% | 900.8hPa | 4.6V | 00:00:00 | 02:12:39 | 00:00:00 | |
| DM0DOS-11 | 2026-09-04 23:49:11 | 50.81419 | 7.33499 | 111° | 49km/h | 1049m | -4.8m/s | 10.2°C | 90.9% | 899.8hPa | 4.6V | 00:00:00 | 02:12:37 | 00:00:00 | |
| DB0UT-7 | 2026-09-04 23:49:01 | 50.81453 | 7.33354 | 110° | 51km/h | 1089m | -4.6m/s | 9.9°C | 89.4% | 895.5hPa | 4.6V | 00:00:00 | 00:00:00 | 00:00:00 | |
| DM0DOS-11 | 2026-09-04 23:49:00 | 50.81462 | 7.33317 | 109° | 49km/h | 1098m | -4.8m/s | 9.9°C | 88.9% | 894.5hPa | 4.6V | 00:00:00 | 02:12:27 | 00:00:00 | |
| DM0DOS-11 | 2026-09-04 23:49:00 | 50.81470 | 7.33281 | 108° | 49km/h | 1108m | -4.7m/s | 9.9°C | 88.6% | 893.4hPa | 4.6V | 00:00:00 | 02:12:25 | 00:00:00 | |
| DM0DOS-11 | 2026-09-04 23:49:00 | 50.81478 | 7.33244 | 109° | 51km/h | 1117m | -4.8m/s | 9.8°C | 88.2% | 892.4hPa | 4.6V | 00:00:00 | 02:12:23 | 00:00:00 | |
| DM0DOS-11 | 2026-09-04 23:48:55 | 50.81486 | 7.33206 | 108° | 51km/h | 1127m | -4.7m/s | 9.8°C | 88% | 891.3hPa | 4.6V | 00:00:00 | 02:12:21 | 00:00:00 | |
| DM0DOS-11 | 2026-09-04 23:48:55 | 50.81495 | 7.33167 | 108° | 51km/h | 1136m | -4.9m/s | 9.7°C | 88.2% | 890.3hPa | 4.6V | 00:00:00 | 02:12:19 | 00:00:00 | |
| DB0UT-7 | 2026-09-04 23:48:51 | 50.81495 | 7.33167 | 109° | 53km/h | 1136m | -4.8m/s | 9.6°C | 88.2% | 890.3hPa | 4.5V | 00:00:00 | 02:12:19 | 00:00:00 | |
| DM0DOS-11 | 2026-09-04 23:48:50 | 50.81503 | 7.33128 | 108° | 53km/h | 1146m | -4.8m/s | 9.6°C | 88.1% | 889.3hPa | 4.6V | 00:00:00 | 02:12:17 | 00:00:00 | |
| DM0DOS-11 | 2026-09-04 23:48:50 | 50.81511 | 7.33089 | 108° | 53km/h | 1156m | -4.6m/s | 9.5°C | 88.2% | 888.3hPa | 4.6V | 00:00:00 | 02:12:15 | 00:00:00 | |
| DM0DOS-11 | 2026-09-04 23:48:50 | 50.81519 | 7.33049 | 108° | 53km/h | 1165m | -4.8m/s | 9.4°C | 88% | 887.2hPa | 4.6V | 00:00:00 | 02:12:13 | 00:00:00 | |
| DM0DOS-11 | 2026-09-04 23:48:45 | 50.81528 | 7.33008 | 109° | 55km/h | 1175m | -4.6m/s | 9.4°C | 87% | 886.2hPa | 4.6V | 00:00:00 | 02:12:11 | 00:00:00 | |
| DM0DOS-11 | 2026-09-04 23:48:45 | 50.81536 | 7.32967 | 106° | 55km/h | 1184m | -4.8m/s | 9.4°C | 86.7% | 885.2hPa | 4.6V | 00:00:00 | 02:12:09 | 00:00:00 | |
| DB0UT-7 | 2026-09-04 23:48:41 | 50.81536 | 7.32967 | 107° | 55km/h | 1184m | -4.7m/s | 9.3°C | 86.7% | 885.2hPa | 4.6V | 00:00:00 | 00:00:00 | 00:00:00 | |
| DM0DOS-11 | 2026-09-04 23:48:40 | 50.81544 | 7.32925 | 106° | 55km/h | 1194m | -4.6m/s | 9.4°C | 87.5% | 884.2hPa | 4.6V | 00:00:00 | 02:12:07 | 00:00:00 | |
| DM0DOS-11 | 2026-09-04 23:48:40 | 50.81552 | 7.32884 | 104° | 55km/h | 1203m | -4.8m/s | 9.4°C | 88.4% | 883.2hPa | 4.6V | 00:00:00 | 02:12:05 | 00:00:00 | |
| DM0DOS-11 | 2026-09-04 23:48:40 | 50.81559 | 7.32842 | 104° | 55km/h | 1212m | -4.9m/s | 9.3°C | 89.1% | 882.1hPa | 4.6V | 00:00:00 | 02:12:03 | 00:00:00 | |
| DM0DOS-11 | 2026-09-04 23:48:35 | 50.81566 | 7.32800 | 106° | 55km/h | 1222m | -4.8m/s | 9.3°C | 89.2% | 881.1hPa | 4.6V | 00:00:00 | 02:12:01 | 00:00:00 | |
| DM0DOS-11 | 2026-09-04 23:48:35 | 50.81573 | 7.32758 | 104° | 55km/h | 1232m | -4.7m/s | 9.2°C | 89.2% | 880.1hPa | 4.6V | 00:00:00 | 02:11:59 | 00:00:00 | |
| DB0UT-7 | 2026-09-04 23:48:31 | 50.81573 | 7.32758 | 105° | 57km/h | 1232m | -4.7m/s | 9.2°C | 89.2% | 880.0hPa | 4.6V | 00:00:00 | 02:11:59 | 00:00:00 | |
| DM0DOS-11 | 2026-09-04 23:48:30 | 50.81581 | 7.32716 | 104° | 57km/h | 1241m | -4.9m/s | 9.2°C | 88.9% | 879.1hPa | 4.6V | 00:00:00 | 02:11:57 | 00:00:00 | |
| DM0DOS-11 | 2026-09-04 23:48:30 | 50.81588 | 7.32673 | 104° | 57km/h | 1251m | -4.8m/s | 9.1°C | 88.5% | 878hPa | 4.6V | 00:00:00 | 02:11:55 | 00:00:00 | |
| DM0DOS-11 | 2026-09-04 23:48:25 | 50.81598 | 7.32608 | 105° | 57km/h | 1266m | -4.6m/s | 9.1°C | 87.5% | 876.5hPa | 4.6V | 00:00:00 | 02:11:52 | 00:00:00 | |
| DM0DOS-11 | 2026-09-04 23:48:25 | 50.81618 | 7.32499 | 106° | 58km/h | 1289m | -4.9m/s | 9°C | 86.6% | 874hPa | 4.6V | 00:00:00 | 02:11:47 | 00:00:00 | |
| DB0UT-7 | 2026-09-04 23:48:21 | 50.81610 | 7.32543 | 107° | 58km/h | 1280m | -4.7m/s | 9.0°C | 86.9% | 875.0hPa | 4.5V | 00:00:00 | 00:00:00 | 00:00:00 | |
| DM0DOS-11 | 2026-09-04 23:48:20 | 50.81635 | 7.32411 | 108° | 58km/h | 1309m | -4.7m/s | 8.9°C | 84.9% | 871.9hPa | 4.6V | 00:00:00 | 02:11:43 | 00:00:00 | |
| DM0DOS-11 | 2026-09-04 23:48:14 | 50.81644 | 7.32367 | 108° | 58km/h | 1318m | -4.9m/s | 9°C | 80.5% | 870.9hPa | 4.6V | 00:00:00 | 02:11:41 | 00:00:00 | |
| DM0DOS-11 | 2026-09-04 23:48:14 | 50.81653 | 7.32323 | 107° | 60km/h | 1328m | -4.8m/s | 8.9°C | 79% | 869.9hPa | 4.6V | 00:00:00 | 02:11:39 | 00:00:00 | |
| DM0DOS-11 | 2026-09-04 23:48:14 | 50.81667 | 7.32255 | 106° | 60km/h | 1342m | -4.8m/s | 8.9°C | 76.5% | 868.4hPa | 4.6V | 00:00:00 | 02:11:36 | 00:00:00 | |
| BIOWL1-15 | 2026-09-04 23:48:14 | 50.81681 | 7.32186 | 106° | 60km/h | 1357m | -4.8m/s | 8.8°C | 75.9% | 866.9hPa | 4.6V | 00:00:00 | 00:00:00 | 00:00:00 | |
| DB0UT-7 | 2026-09-04 23:48:11 | 50.81653 | 7.32323 | 108° | 60km/h | 1328m | -4.8m/s | 8.9°C | 79.0% | 869.9hPa | 4.6V | 00:00:00 | 02:11:39 | 00:00:00 | |
| DM0DOS-11 | 2026-09-04 23:48:09 | 50.81672 | 7.32232 | 107° | 62km/h | 1347m | -4.8m/s | 8.8°C | 76.2% | 867.9hPa | 4.6V | 00:00:00 | 02:11:35 | 00:00:00 | |
| DM0DOS-11 | 2026-09-04 23:48:09 | 50.81681 | 7.32186 | 107° | 62km/h | 1357m | -4.7m/s | 8.8°C | 75.9% | 866.9hPa | 4.6V | 00:00:00 | 02:11:33 | 00:00:00 | |
| DM0DOS-11 | 2026-09-04 23:48:03 | 50.81702 | 7.32068 | 105° | 62km/h | 1381m | -4.7m/s | 8.7°C | 76.5% | 864.4hPa | 4.5V | 00:00:00 | 02:11:28 | 00:00:00 | |
| BIOWL1-15 | 2026-09-04 23:48:02 | 50.81702 | 7.32068 | 104° | 62km/h | 1381m | -4.8m/s | 8.7°C | 76.5% | 864.4hPa | 4.5V | 00:00:00 | 00:00:00 | 00:00:00 | |
| DB0UT-7 | 2026-09-04 23:48:01 | 50.81698 | 7.32092 | 106° | 62km/h | 1376m | -4.7m/s | 8.6°C | 76.2% | 864.9hPa | 4.5V | 00:00:00 | 00:00:00 | 00:00:00 | |
| DM0DOS-11 | 2026-09-04 23:47:52 | 50.81748 | 7.31749 | 99° | 60km/h | 1443m | -5m/s | 8.7°C | 71.2% | 858hPa | 4.5V | 00:00:00 | 02:11:15 | 00:00:00 | |
| BIOWL1-15 | 2026-09-04 23:47:51 | 50.81750 | 7.31725 | 99° | 60km/h | 1448m | -5m/s | 8.7°C | 71.9% | 857.5hPa | 4.5V | 00:00:00 | 00:00:00 | 00:00:00 | |
| BIOWL1-15 | 2026-09-04 23:47:50 | 50.81753 | 7.31701 | 99° | 60km/h | 1453m | -5m/s | 8.6°C | 72.7% | 857hPa | 4.5V | 00:00:00 | 00:00:00 | 00:00:00 | |
| BIOWL1-15 | 2026-09-04 23:47:43 | 50.81760 | 7.31629 | 99° | 60km/h | 1468m | -5m/s | 8.5°C | 74.3% | 855.5hPa | 4.5V | 00:00:00 | 00:00:00 | 00:00:00 | |
| BIOWL1-15 | 2026-09-04 23:47:42 | 50.81762 | 7.31606 | 97° | 60km/h | 1473m | -5m/s | 8.5°C | 74.9% | 854.9hPa | 4.5V | 00:00:00 | 00:00:00 | 00:00:00 | |
| BIOWL1-15 | 2026-09-04 23:47:41 | 50.81766 | 7.31557 | 97° | 60km/h | 1482m | -5m/s | 8.5°C | 77.1% | 853.9hPa | 4.5V | 00:00:00 | 00:00:00 | 00:00:00 | |
| DM0DOS-11 | 2026-09-04 23:47:41 | 50.81771 | 7.31485 | 95° | 58km/h | 1497m | -4.9m/s | 8.4°C | 78.6% | 852.4hPa | 4.5V | 00:00:00 | 02:11:04 | 00:00:00 | |
| BIOWL1-15 | 2026-09-04 23:47:38 | 50.81770 | 7.31509 | 94° | 60km/h | 1492m | -5m/s | 8.4°C | 78.1% | 852.9hPa | 4.5V | 00:00:00 | 00:00:00 | 00:00:00 | |
| BIOWL1-15 | 2026-09-04 23:47:37 | 50.81771 | 7.31485 | 96° | 60km/h | 1497m | -5m/s | 8.4°C | 78.7% | 852.5hPa | 4.5V | 00:00:00 | 00:00:00 | 00:00:00 | |
| BIOWL1-15 | 2026-09-04 23:47:36 | 50.81772 | 7.31461 | 96° | 60km/h | 1502m | -5m/s | 8.4°C | 79.7% | 851.9hPa | 4.5V | 00:00:00 | 00:00:00 | 00:00:00 | |
| DM0DOS-11 | 2026-09-04 23:47:35 | 50.81776 | 7.31390 | 94° | 60km/h | 1517m | -4.8m/s | 8.2°C | 81.4% | 850.4hPa | 4.5V | 00:00:00 | 02:11:00 | 00:00:00 | |
| DM0DOS-11 | 2026-09-04 23:47:35 | 50.81780 | 7.31319 | 92° | 60km/h | 1531m | -5m/s | 8.2°C | 83.7% | 848.9hPa | 4.5V | 00:00:00 | 02:10:57 | 00:00:00 | |
| BIOWL1-15 | 2026-09-04 23:47:34 | 50.81776 | 7.31390 | 94° | 58km/h | 1517m | -5m/s | 8.2°C | 81.4% | 850.4hPa | 4.5V | 00:00:00 | 00:00:00 | 00:00:00 | |
| BIOWL1-15 | 2026-09-04 23:47:34 | 50.81778 | 7.31367 | 94° | 58km/h | 1522m | -4m/s | 8.2°C | 81.9% | 849.9hPa | 4.5V | 00:00:00 | 00:00:00 | 00:00:00 | |
| BIOWL1-15 | 2026-09-04 23:47:30 | 50.81781 | 7.31296 | 94° | 60km/h | 1536m | -5m/s | 8.1°C | 84.3% | 848.4hPa | 4.5V | 00:00:00 | 00:00:00 | 00:00:00 | |
| DM0DOS-11 | 2026-09-04 23:47:29 | 50.81782 | 7.31272 | 92° | 60km/h | 1541m | -5m/s | 8.1°C | 84.5% | 847.9hPa | 4.5V | 00:00:00 | 02:10:55 | 00:00:00 | |
| DM0DOS-11 | 2026-09-04 23:47:29 | 50.81784 | 7.31224 | 94° | 60km/h | 1551m | -4.9m/s | 8°C | 85.5% | 846.9hPa | 4.5V | 00:00:00 | 02:10:53 | 00:00:00 | |
| BIOWL1-15 | 2026-09-04 23:47:27 | 50.81783 | 7.31248 | 94° | 60km/h | 1546m | -5m/s | 8.1°C | 85% | 847.4hPa | 4.5V | 00:00:00 | 00:00:00 | 00:00:00 | |
| BIOWL1-15 | 2026-09-04 23:47:25 | 50.81785 | 7.31200 | 94° | 60km/h | 1556m | -5m/s | 8°C | 85.8% | 846.4hPa | 4.5V | 00:00:00 | 00:00:00 | 00:00:00 | |
| DM0DOS-11 | 2026-09-04 23:47:24 | 50.81786 | 7.31176 | 92° | 60km/h | 1561m | -4.8m/s | 7.9°C | 85.9% | 845.9hPa | 4.5V | 00:00:00 | 02:10:51 | 00:00:00 | |
| DM0DOS-11 | 2026-09-04 23:47:24 | 50.81787 | 7.31128 | 92° | 60km/h | 1571m | -4.7m/s | 7.8°C | 86% | 844.9hPa | 4.5V | 00:00:00 | 02:10:49 | 00:00:00 | |
| DM0DOS-11 | 2026-09-04 23:47:24 | 50.81789 | 7.31080 | 90° | 60km/h | 1580m | -5m/s | 7.8°C | 86.4% | 843.9hPa | 4.5V | 00:00:00 | 02:10:47 | 00:00:00 | |
| BIOWL1-15 | 2026-09-04 23:47:23 | 50.81787 | 7.31152 | 93° | 60km/h | 1566m | -5m/s | 7.9°C | 86% | 845.4hPa | 4.5V | 00:00:00 | 00:00:00 | 00:00:00 | |
| BIOWL1-15 | 2026-09-04 23:47:22 | 50.81787 | 7.31128 | 93° | 60km/h | 1571m | -4m/s | 7.8°C | 86.1% | 844.9hPa | 4.5V | 00:00:00 | 00:00:00 | 00:00:00 | |
| BIOWL1-15 | 2026-09-04 23:47:21 | 50.81788 | 7.31104 | 91° | 60km/h | 1575m | -5m/s | 7.8°C | 86.2% | 844.4hPa | 4.5V | 00:00:00 | 00:00:00 | 00:00:00 | |
| BIOWL1-15 | 2026-09-04 23:47:20 | 50.81789 | 7.31055 | 91° | 60km/h | 1585m | -5m/s | 7.7°C | 86.7% | 843.4hPa | 4.5V | 00:00:00 | 00:00:00 | 00:00:00 | |
| DM0DOS-11 | 2026-09-04 23:47:19 | 50.81789 | 7.31006 | 91° | 60km/h | 1595m | -4.9m/s | 7.7°C | 87.5% | 842.4hPa | 4.5V | 00:00:00 | 02:10:44 | 00:00:00 | |
| DM0DOS-11 | 2026-09-04 23:47:19 | 50.81789 | 7.30957 | 90° | 60km/h | 1605m | -4.9m/s | 7.6°C | 88.2% | 841.4hPa | 4.5V | 00:00:00 | 02:10:42 | 00:00:00 | |
| BIOWL1-15 | 2026-09-04 23:47:19 | 50.81789 | 7.31031 | 91° | 60km/h | 1590m | -4.8m/s | 7.7°C | 87.2% | 842.9hPa | 4.5V | 00:00:00 | 00:00:00 | 00:00:00 | |
| DM0DOS-11 | 2026-09-04 23:47:14 | 50.81790 | 7.30908 | 90° | 62km/h | 1615m | -4.8m/s | 7.6°C | 89% | 840.4hPa | 4.5V | 00:00:00 | 02:10:40 | 00:00:00 | |
| DM0DOS-11 | 2026-09-04 23:47:14 | 50.81790 | 7.30860 | 90° | 62km/h | 1624m | -5m/s | 7.5°C | 89.4% | 839.4hPa | 4.5V | 00:00:00 | 02:10:38 | 00:00:00 | |
| DB0UT-7 | 2026-09-04 23:47:11 | 50.81790 | 7.30884 | 91° | 62km/h | 1619m | -5.0m/s | 7.5°C | 89.2% | 839.9hPa | 4.5V | 00:00:00 | 02:10:39 | 00:00:00 | |
| DM0DOS-11 | 2026-09-04 23:47:09 | 50.81789 | 7.30811 | 89° | 62km/h | 1634m | -5m/s | 7.4°C | 89.5% | 838.5hPa | 4.5V | 00:00:00 | 02:10:36 | 00:00:00 | |
| DM0DOS-11 | 2026-09-04 23:47:04 | 50.81787 | 7.30612 | 88° | 64km/h | 1674m | -5m/s | 7.1°C | 89.7% | 834.6hPa | 4.5V | 00:00:00 | 02:10:28 | 00:00:00 | |
| DB0UT-7 | 2026-09-04 23:47:01 | 50.81787 | 7.30638 | 91° | 64km/h | 1669m | -5.0m/s | 7.1°C | 89.6% | 835.0hPa | 4.5V | 00:00:00 | 00:00:00 | 00:00:00 | |
| DM0DOS-11 | 2026-09-04 23:46:59 | 50.81787 | 7.30562 | 88° | 64km/h | 1684m | -5m/s | 7.1°C | 90% | 833.6hPa | 4.5V | 00:00:00 | 02:10:26 | 00:00:00 | |
| DM0DOS-11 | 2026-09-04 23:46:59 | 50.81787 | 7.30511 | 90° | 66km/h | 1694m | -5m/s | 7.1°C | 89.6% | 832.6hPa | 4.5V | 00:00:00 | 02:10:24 | 00:00:00 | |
| DM0DOS-11 | 2026-09-04 23:46:59 | 50.81786 | 7.30460 | 87° | 66km/h | 1704m | -5.1m/s | 6.9°C | 89% | 831.6hPa | 4.5V | 00:00:00 | 02:10:22 | 00:00:00 | |
| DM0DOS-11 | 2026-09-04 23:46:54 | 50.81785 | 7.30407 | 88° | 66km/h | 1714m | -5.2m/s | 6.9°C | 88.9% | 830.7hPa | 4.5V | 00:00:00 | 02:10:20 | 00:00:00 | |
| DM0DOS-11 | 2026-09-04 23:46:54 | 50.81784 | 7.30354 | 87° | 66km/h | 1724m | -5.3m/s | 6.8°C | 88.7% | 829.7hPa | 4.5V | 00:00:00 | 02:10:18 | 00:00:00 | |
| BIOWL1-15 | 2026-09-04 23:46:53 | 50.81783 | 7.30302 | 89° | 66km/h | 1735m | -5m/s | 6.8°C | 88.3% | 828.7hPa | 4.5V | 00:00:00 | 00:00:00 | 00:00:00 | |
| DB0UT-7 | 2026-09-04 23:46:51 | 50.81785 | 7.30380 | 89° | 66km/h | 1719m | -5.2m/s | 6.8°C | 88.9% | 830.2hPa | 4.5V | 00:00:00 | 02:10:19 | 00:00:00 | |
| DM0DOS-11 | 2026-09-04 23:46:49 | 50.81782 | 7.30249 | 87° | 66km/h | 1745m | -5.3m/s | 6.8°C | 87.5% | 827.7hPa | 4.5V | 00:00:00 | 02:10:14 | 00:00:00 | |
| DM0DOS-11 | 2026-09-04 23:46:49 | 50.81781 | 7.30196 | 90° | 66km/h | 1755m | -5.5m/s | 6.8°C | 86.5% | 826.7hPa | 4.5V | 00:00:00 | 02:10:12 | 00:00:00 | |
| BIOWL1-15 | 2026-09-04 23:46:48 | 50.81783 | 7.30275 | 89° | 66km/h | 1740m | -5m/s | 6.8°C | 88% | 828.2hPa | 4.5V | 00:00:00 | 00:00:00 | 00:00:00 | |
| BIOWL1-15 | 2026-09-04 23:46:46 | 50.81780 | 7.30143 | 89° | 66km/h | 1765m | -6m/s | 6.7°C | 86.3% | 825.7hPa | 4.5V | 00:00:00 | 00:00:00 | 00:00:00 | |
| BIOWL1-15 | 2026-09-04 23:46:45 | 50.81779 | 7.30090 | 90° | 66km/h | 1776m | -5m/s | 6.7°C | 86.3% | 824.7hPa | 4.5V | 00:00:00 | 00:00:00 | 00:00:00 | |
| DM0DOS-11 | 2026-09-04 23:46:44 | 50.81780 | 7.30143 | 88° | 66km/h | 1765m | -5.8m/s | 6.7°C | 86.2% | 825.7hPa | 4.5V | 00:00:00 | 02:10:10 | 00:00:00 | |
| DM0DOS-11 | 2026-09-04 23:46:44 | 50.81779 | 7.30090 | 90° | 66km/h | 1776m | -6m/s | 6.7°C | 86.2% | 824.7hPa | 4.5V | 00:00:00 | 02:10:08 | 00:00:00 | |
| DB0UT-7 | 2026-09-04 23:46:41 | 50.81780 | 7.30116 | 89° | 68km/h | 1771m | -5.8m/s | 6.6°C | 86.4% | 825.1hPa | 4.5V | 00:00:00 | 00:00:00 | 00:00:00 | |
| DM0DOS-11 | 2026-09-04 23:46:39 | 50.81779 | 7.30037 | 88° | 68km/h | 1786m | -6.8m/s | 6.6°C | 86.1% | 823.7hPa | 4.5V | 00:00:00 | 02:10:06 | 00:00:00 | |
| DM0DOS-11 | 2026-09-04 23:46:39 | 50.81779 | 7.29930 | 90° | 69km/h | 1813m | -7.3m/s | 6.5°C | 85.1% | 820.9hPa | 4.5V | 00:00:00 | 02:10:02 | 00:00:00 | |
| BIOWL1-15 | 2026-09-04 23:46:39 | 50.81779 | 7.30037 | 89° | 66km/h | 1786m | -5m/s | 6.6°C | 86.2% | 823.7hPa | 4.5V | 00:00:00 | 00:00:00 | 00:00:00 | |
| BIOWL1-15 | 2026-09-04 23:46:37 | 50.81779 | 7.29849 | 89° | 69km/h | 1837m | -8m/s | 6.3°C | 84.9% | 818.6hPa | 4.5V | 00:00:00 | 00:00:00 | 00:00:00 | |
| BIOWL1-15 | 2026-09-04 23:46:37 | 50.81778 | 7.29767 | 90° | 68km/h | 1861m | -8m/s | 6.2°C | 83.4% | 816.1hPa | 4.4V | 00:00:00 | 00:00:00 | 00:00:00 | |
| DM0DOS-11 | 2026-09-04 23:46:34 | 50.81779 | 7.29876 | 90° | 69km/h | 1828m | -7.2m/s | 6.4°C | 85.4% | 819.5hPa | 4.5V | 00:00:00 | 02:10:00 | 00:00:00 | |
| DB0UT-7 | 2026-09-04 23:46:31 | 50.81779 | 7.29849 | 89° | 69km/h | 1837m | -7.7m/s | 6.3°C | 84.9% | 818.5hPa | 4.4V | 00:00:00 | 02:09:59 | 00:00:00 | |
| BIOWL1-15 | 2026-09-04 23:46:31 | 50.81779 | 7.29712 | 90° | 68km/h | 1877m | -7m/s | 6.1°C | 82% | 814.5hPa | 4.4V | 00:00:00 | 00:00:00 | 00:00:00 | |
| DM0DOS-11 | 2026-09-04 23:46:24 | 50.81781 | 7.29603 | 93° | 73km/h | 1905m | -6.8m/s | 6.1°C | 77.5% | 811.6hPa | 4.4V | 00:00:00 | 02:09:50 | 00:00:00 | |
| BIOWL1-15 | 2026-09-04 23:46:22 | 50.81783 | 7.29518 | 94° | 71km/h | 1926m | -8m/s | 6.2°C | 72.4% | 809.6hPa | 4.4V | 00:00:00 | 00:00:00 | 00:00:00 | |
| BIOWL1-15 | 2026-09-04 23:46:15 | 50.81795 | 7.29284 | 96° | 73km/h | 1983m | -6m/s | 6.4°C | 54.5% | 803.9hPa | 4.4V | 00:00:00 | 00:00:00 | 00:00:00 | |
| DM0DOS-11 | 2026-09-04 23:46:14 | 50.81795 | 7.29284 | 95° | 73km/h | 1983m | -6.6m/s | 6.4°C | 54.5% | 803.9hPa | 4.4V | 00:00:00 | 02:09:39 | 00:00:00 | |
| DM0DOS-11 | 2026-09-04 23:46:14 | 50.81799 | 7.29225 | 96° | 73km/h | 1996m | -6.8m/s | 6.6°C | 43.3% | 802.6hPa | 4.4V | 00:00:00 | 02:09:37 | 00:00:00 | |
| BIOWL1-15 | 2026-09-04 23:46:12 | 50.81804 | 7.29166 | 98° | 75km/h | 2010m | -6m/s | 6.9°C | 27% | 801.3hPa | 4.4V | 00:00:00 | 00:00:00 | 00:00:00 | |
| DB0UT-7 | 2026-09-04 23:46:11 | 50.81795 | 7.29284 | 96° | 73km/h | 1983m | -6.6m/s | 6.4°C | 54.5% | 803.9hPa | 4.4V | 00:00:00 | 02:09:39 | 00:00:00 | |
| DM0DOS-11 | 2026-09-04 23:46:09 | 50.81812 | 7.29078 | 98° | 73km/h | 2030m | -6.8m/s | 6.9°C | 23.8% | 799.3hPa | 4.4V | 00:00:00 | 02:09:32 | 00:00:00 | |
| DM0DOS-11 | 2026-09-04 23:46:04 | 50.81826 | 7.28932 | 99° | 73km/h | 2064m | -6.8m/s | 6.7°C | 21.6% | 796hPa | 4.4V | 00:00:00 | 02:09:27 | 00:00:00 | |
| BIOWL1-15 | 2026-09-04 23:45:59 | 50.81835 | 7.28845 | 101° | 73km/h | 2085m | -6m/s | 6.6°C | 20.8% | 793.9hPa | 4.4V | 00:00:00 | 00:00:00 | 00:00:00 | |
| DM0DOS-11 | 2026-09-04 23:45:59 | 50.81842 | 7.28787 | 99° | 73km/h | 2098m | -6.8m/s | 6.5°C | 19.8% | 792.6hPa | 4.4V | 00:00:00 | 02:09:22 | 00:00:00 | |
| DM0DOS-11 | 2026-09-04 23:45:54 | 50.81857 | 7.28642 | 99° | 73km/h | 2132m | -6.6m/s | 6.2°C | 18.7% | 789.4hPa | 4.4V | 00:00:00 | 02:09:17 | 00:00:00 | |
| DM0DOS-11 | 2026-09-04 23:45:49 | 50.81871 | 7.28497 | 98° | 73km/h | 2165m | -6.7m/s | 6°C | 18% | 786.2hPa | 4.4V | 00:00:00 | 02:09:12 | 00:00:00 | |
| BIOWL1-15 | 2026-09-04 23:45:47 | 50.81866 | 7.28555 | 98° | 73km/h | 2152m | -6.5m/s | 6.1°C | 18.3% | 787.5hPa | 4.4V | 00:00:00 | 00:00:00 | 00:00:00 | |
| DB0UT-7 | 2026-09-04 23:45:41 | 50.81878 | 7.28409 | 98° | 77km/h | 2185m | -6.6m/s | 5.9°C | 17.2% | 784.3hPa | 4.4V | 00:00:00 | 02:09:09 | 00:00:00 | |
| DM0DOS-11 | 2026-09-04 23:45:39 | 50.81892 | 7.28201 | 95° | 75km/h | 2232m | -6.6m/s | 6.3°C | 16.3% | 779.9hPa | 4.4V | 00:00:00 | 02:09:02 | 00:00:00 | |
| BIOWL1-15 | 2026-09-04 23:45:36 | 50.81902 | 7.28052 | 96° | 77km/h | 2265m | -7m/s | 6.1°C | 17.7% | 776.7hPa | 4.4V | 00:00:00 | 00:00:00 | 00:00:00 | |
| DM0DOS-11 | 2026-09-04 23:45:34 | 50.81902 | 7.28052 | 94° | 77km/h | 2265m | -6.7m/s | 6.1°C | 17.6% | 776.7hPa | 4.4V | 00:00:00 | 02:08:57 | 00:00:00 | |
| DM0DOS-11 | 2026-09-04 23:45:29 | 50.81911 | 7.27899 | 96° | 78km/h | 2298m | -6.7m/s | 6°C | 19.1% | 773.6hPa | 4.4V | 00:00:00 | 02:08:52 | 00:00:00 | |
| BIOWL1-15 | 2026-09-04 23:45:25 | 50.81916 | 7.27837 | 96° | 80km/h | 2312m | -6.7m/s | 5.8°C | 20.1% | 772.3hPa | 4.4V | 00:00:00 | 00:00:00 | 00:00:00 | |
| DM0DOS-11 | 2026-09-04 23:45:24 | 50.81922 | 7.27742 | 95° | 80km/h | 2331m | -6.8m/s | 5.7°C | 22.8% | 770.4hPa | 4.4V | 00:00:00 | 02:08:47 | 00:00:00 | |
| DB0UT-7 | 2026-09-04 23:45:21 | 50.81918 | 7.27806 | 96° | 80km/h | 2318m | -6.7m/s | 5.7°C | 20.7% | 771.7hPa | 4.4V | 00:00:00 | 00:00:00 | 00:00:00 | |
| DM0DOS-11 | 2026-09-04 23:45:19 | 50.81933 | 7.27582 | 95° | 80km/h | 2365m | -6.8m/s | 5.4°C | 30.2% | 767.3hPa | 4.4V | 00:00:00 | 02:08:42 | 00:00:00 | |
| DM0DOS-11 | 2026-09-04 23:45:14 | 50.81946 | 7.27355 | 94° | 80km/h | 2413m | -6.6m/s | 4.9°C | 36.3% | 762.8hPa | 4.4V | 00:00:00 | 02:08:35 | 00:00:00 | |
| DM0DOS-11 | 2026-09-04 23:45:09 | 50.81955 | 7.27193 | 95° | 80km/h | 2447m | -6.5m/s | 4.6°C | 39.7% | 759.6hPa | 4.4V | 00:00:00 | 02:08:30 | 00:00:00 | |
| BIOWL1-15 | 2026-09-04 23:45:06 | 50.81960 | 7.27097 | 95° | 80km/h | 2466m | -7m/s | 4.4°C | 41.4% | 757.8hPa | 4.3V | 00:00:00 | 00:00:00 | 00:00:00 | |
| DM0DOS-11 | 2026-09-04 23:45:02 | 50.81963 | 7.27033 | 92° | 78km/h | 2480m | -6.7m/s | 4.3°C | 42.2% | 756.5hPa | 4.3V | 00:00:00 | 02:08:25 | 00:00:00 | |
| DB0UT-7 | 2026-09-04 23:45:01 | 50.81957 | 7.27161 | 95° | 78km/h | 2453m | -6.7m/s | 4.5°C | 40.3% | 759.0hPa | 4.3V | 00:00:00 | 02:08:29 | 00:00:00 | |
| DM0DOS-11 | 2026-09-04 23:44:52 | 50.81973 | 7.26717 | 93° | 78km/h | 2549m | -7m/s | 3.7°C | 45% | 750.1hPa | 4.3V | 00:00:00 | 02:08:15 | 00:00:00 | |
| BIOWL1-15 | 2026-09-04 23:44:51 | 50.81974 | 7.26685 | 92° | 78km/h | 2556m | -7m/s | 3.6°C | 45.6% | 749.5hPa | 4.3V | 00:00:00 | 00:00:00 | 00:00:00 | |
| DM0DOS-11 | 2026-09-04 23:44:47 | 50.81978 | 7.26559 | 93° | 80km/h | 2584m | -6.9m/s | 3.4°C | 46.2% | 746.9hPa | 4.3V | 00:00:00 | 02:08:10 | 00:00:00 | |
| DM0DOS-11 | 2026-09-04 23:44:42 | 50.81982 | 7.26366 | 92° | 78km/h | 2625m | -7.1m/s | 3°C | 47.7% | 743.2hPa | 4.3V | 00:00:00 | 02:08:04 | 00:00:00 | |
| BIOWL1-15 | 2026-09-04 23:44:39 | 50.81983 | 7.26334 | 91° | 78km/h | 2632m | -7.2m/s | 2.9°C | 47.8% | 742.5hPa | 4.3V | 00:00:00 | 00:00:00 | 00:00:00 | |
| DM0DOS-11 | 2026-09-04 23:44:37 | 50.81984 | 7.26208 | 91° | 78km/h | 2661m | -7m/s | 2.7°C | 49% | 739.9hPa | 4.3V | 00:00:00 | 02:07:59 | 00:00:00 | |
| DM0DOS-11 | 2026-09-04 23:44:31 | 50.81989 | 7.26020 | 92° | 77km/h | 2703m | -7m/s | 2.9°C | 49.3% | 736.1hPa | 4.3V | 00:00:00 | 02:07:53 | 00:00:00 | |
| DM0DOS-11 | 2026-09-04 23:44:26 | 50.81994 | 7.25868 | 93° | 75km/h | 2738m | -7m/s | 2.7°C | 49.5% | 732.9hPa | 4.3V | 00:00:00 | 02:07:48 | 00:00:00 | |
| DB0UT-7 | 2026-09-04 23:44:21 | 50.81993 | 7.25898 | 94° | 75km/h | 2731m | -6.9m/s | 2.7°C | 49.5% | 733.5hPa | 4.3V | 00:00:00 | 02:07:49 | 00:00:00 | |
| DM0DOS-11 | 2026-09-04 23:44:15 | 50.82006 | 7.25565 | 94° | 75km/h | 2807m | -7m/s | 2.2°C | 49.8% | 726.6hPa | 4.3V | 00:00:00 | 02:07:38 | 00:00:00 | |
| BIOWL1-15 | 2026-09-04 23:44:15 | 50.82011 | 7.25475 | 94° | 75km/h | 2828m | -7m/s | 2°C | 49.9% | 724.7hPa | 4.3V | 00:00:00 | 00:00:00 | 00:00:00 | |
| DM0DOS-11 | 2026-09-04 23:44:10 | 50.82014 | 7.25415 | 94° | 75km/h | 2842m | -7m/s | 1.9°C | 50% | 723.5hPa | 4.3V | 00:00:00 | 02:07:33 | 00:00:00 | |
| DM0DOS-11 | 2026-09-04 23:44:05 | 50.82021 | 7.25267 | 94° | 75km/h | 2877m | -7m/s | 1.6°C | 49.8% | 720.4hPa | 4.3V | 00:00:00 | 02:07:28 | 00:00:00 | |
| DB0UT-7 | 2026-09-04 23:44:01 | 50.82019 | 7.25297 | 95° | 73km/h | 2870m | -6.9m/s | 1.6°C | 49.7% | 721.0hPa | 4.3V | 00:00:00 | 00:00:00 | 00:00:00 | |
| DM0DOS-11 | 2026-09-04 23:44:00 | 50.82029 | 7.25118 | 94° | 75km/h | 2912m | -7m/s | 1.3°C | 49.8% | 717.2hPa | 4.3V | 00:00:00 | 02:07:23 | 00:00:00 | |
| BIOWL1-15 | 2026-09-04 23:43:59 | 50.82024 | 7.25207 | 95° | 75km/h | 2891m | -7m/s | 1.5°C | 49.9% | 719.1hPa | 4.3V | 00:00:00 | 00:00:00 | 00:00:00 | |
| DM0DOS-11 | 2026-09-04 23:43:55 | 50.82037 | 7.24969 | 95° | 73km/h | 2947m | -6.9m/s | 1°C | 49.5% | 714.2hPa | 4.3V | 00:00:00 | 02:07:18 | 00:00:00 | |
| DM0DOS-11 | 2026-09-04 23:43:50 | 50.82047 | 7.24824 | 95° | 73km/h | 2981m | -6.9m/s | 0.8°C | 48% | 711.1hPa | 4.3V | 00:00:00 | 02:07:13 | 00:00:00 | |
| BIOWL1-15 | 2026-09-04 23:43:47 | 50.82054 | 7.24737 | 98° | 71km/h | 3002m | -6.8m/s | 0.8°C | 46.8% | 709.3hPa | 4.3V | 00:00:00 | 00:00:00 | 00:00:00 | |
| DM0DOS-11 | 2026-09-04 23:43:45 | 50.82059 | 7.24680 | 99° | 73km/h | 3016m | -6.7m/s | 0.8°C | 46.7% | 708.1hPa | 4.3V | 00:00:00 | 02:07:08 | 00:00:00 | |
| DB0UT-7 | 2026-09-04 23:43:41 | 50.82057 | 7.24708 | 98° | 71km/h | 3009m | -6.7m/s | 0.7°C | 46.7% | 708.7hPa | 4.3V | 00:00:00 | 02:07:09 | 00:00:00 | |
| DM0DOS-11 | 2026-09-04 23:43:40 | 50.82072 | 7.24537 | 97° | 73km/h | 3050m | -6.9m/s | 0.5°C | 46.5% | 705.1hPa | 4.3V | 00:00:00 | 02:07:03 | 00:00:00 | |
| DM0DOS-11 | 2026-09-04 23:43:30 | 50.82104 | 7.24219 | 98° | 71km/h | 3125m | -6.8m/s | 0°C | 46.2% | 698.5hPa | 4.2V | 00:00:00 | 02:06:52 | 00:00:00 | |
| BIOWL1-15 | 2026-09-04 23:43:28 | 50.82095 | 7.24306 | 101° | 73km/h | 3105m | -6m/s | 0.2°C | 46.3% | 700.3hPa | 4.3V | 00:00:00 | 00:00:00 | 00:00:00 | |
| DM0DOS-11 | 2026-09-04 23:43:24 | 50.82119 | 7.24077 | 98° | 71km/h | 3159m | -6.9m/s | -0.2°C | 47.2% | 695.6hPa | 4.2V | 00:00:00 | 02:06:47 | 00:00:00 | |
| DM0DOS-11 | 2026-09-04 23:43:19 | 50.82133 | 7.23936 | 99° | 69km/h | 3194m | -6.8m/s | -0.5°C | 48.7% | 692.6hPa | 4.2V | 00:00:00 | 02:06:42 | 00:00:00 | |
| BIOWL1-15 | 2026-09-04 23:43:18 | 50.82136 | 7.23907 | 99° | 71km/h | 3201m | -6.5m/s | -0.6°C | 48.8% | 692hPa | 4.2V | 00:00:00 | 00:00:00 | 00:00:00 | |
| DM0DOS-11 | 2026-09-04 23:43:14 | 50.82147 | 7.23796 | 98° | 69km/h | 3228m | -6.8m/s | -0.7°C | 48.2% | 689.6hPa | 4.2V | 00:00:00 | 02:06:37 | 00:00:00 | |
| DB0UT-7 | 2026-09-04 23:43:11 | 50.82141 | 7.23851 | 99° | 69km/h | 3214m | -6.9m/s | -0.6°C | 48.5% | 690.8hPa | 4.2V | 00:00:00 | 00:00:00 | 00:00:00 | |
| DM0DOS-11 | 2026-09-04 23:43:09 | 50.82161 | 7.23659 | 98° | 69km/h | 3262m | -6.9m/s | -0.9°C | 48.7% | 686.7hPa | 4.2V | 00:00:00 | 02:06:32 | 00:00:00 | |
| BIOWL1-15 | 2026-09-04 23:43:05 | 50.82161 | 7.23659 | 99° | 69km/h | 3262m | -7m/s | -1°C | 48.7% | 686.7hPa | 4.2V | 00:00:00 | 00:00:00 | 00:00:00 | |
| DM0DOS-11 | 2026-09-04 23:43:04 | 50.82174 | 7.23524 | 98° | 69km/h | 3296m | -7m/s | -1.1°C | 48.2% | 683.8hPa | 4.2V | 00:00:00 | 02:06:27 | 00:00:00 | |
| DM0DOS-11 | 2026-09-04 23:42:59 | 50.82187 | 7.23386 | 98° | 69km/h | 3331m | -7m/s | -1.4°C | 48.5% | 680.8hPa | 4.2V | 00:00:00 | 02:06:22 | 00:00:00 | |
| BIOWL1-15 | 2026-09-04 23:42:54 | 50.82190 | 7.23359 | 99° | 69km/h | 3338m | -7m/s | -1.5°C | 48.7% | 680.2hPa | 4.2V | 00:00:00 | 00:00:00 | 00:00:00 | |
| DM0DOS-11 | 2026-09-04 23:42:54 | 50.82200 | 7.23250 | 98° | 69km/h | 3366m | -7.2m/s | -1.7°C | 49% | 677.8hPa | 4.2V | 00:00:00 | 02:06:17 | 00:00:00 | |
| DM0DOS-11 | 2026-09-04 23:42:48 | 50.82213 | 7.23113 | 98° | 69km/h | 3402m | -7m/s | -2°C | 49.2% | 674.8hPa | 4.2V | 00:00:00 | 02:06:12 | 00:00:00 | |
| DM0DOS-11 | 2026-09-04 23:42:43 | 50.82227 | 7.22975 | 98° | 71km/h | 3437m | -7.2m/s | -2.4°C | 48.7% | 671.8hPa | 4.2V | 00:00:00 | 02:06:07 | 00:00:00 | |
| BIOWL1-15 | 2026-09-04 23:42:42 | 50.82222 | 7.23030 | 98° | 69km/h | 3423m | -7m/s | -2.2°C | 49.2% | 673hPa | 4.2V | 00:00:00 | 00:00:00 | 00:00:00 | |
| DB0UT-7 | 2026-09-04 23:42:41 | 50.82221 | 7.23030 | 98° | 73km/h | 3423m | -7.1m/s | -2.2°C | 49.2% | 673.0hPa | 4.2V | 00:00:00 | 02:06:09 | 00:00:00 | |
| DM0DOS-11 | 2026-09-04 23:42:38 | 50.82243 | 7.22807 | 98° | 71km/h | 3480m | -7.3m/s | -2.8°C | 49% | 668.2hPa | 4.2V | 00:00:00 | 02:06:01 | 00:00:00 | |
| DM0DOS-11 | 2026-09-04 23:42:33 | 50.82257 | 7.22666 | 99° | 73km/h | 3516m | -7m/s | -3.1°C | 48.7% | 665.3hPa | 4.2V | 00:00:00 | 02:05:56 | 00:00:00 | |
| BIOWL1-15 | 2026-09-04 23:42:32 | 50.82249 | 7.22751 | 99° | 71km/h | 3495m | -7m/s | -2.9°C | 49.1% | 667hPa | 4.2V | 00:00:00 | 00:00:00 | 00:00:00 | |
| DM0DOS-11 | 2026-09-04 23:42:28 | 50.82273 | 7.22521 | 101° | 75km/h | 3551m | -7.2m/s | -3.4°C | 49.2% | 662.3hPa | 4.2V | 00:00:00 | 02:05:51 | 00:00:00 | |
| DM0DOS-11 | 2026-09-04 23:42:23 | 50.82291 | 7.22373 | 99° | 73km/h | 3586m | -7.9m/s | -3.5°C | 50.5% | 659.4hPa | 4.2V | 00:00:00 | 02:05:46 | 00:00:00 | |
| DM0DOS-11 | 2026-09-04 23:42:18 | 50.82312 | 7.22201 | 102° | 69km/h | 3636m | -7.2m/s | -3.8°C | 49% | 655.3hPa | 4.2V | 00:00:00 | 02:05:40 | 00:00:00 | |
| BIOWL1-15 | 2026-09-04 23:42:14 | 50.82309 | 7.22230 | 102° | 71km/h | 3628m | -8m/s | -3.8°C | 49.5% | 655.9hPa | 4.2V | 00:00:00 | 00:00:00 | 00:00:00 | |
| DM0DOS-11 | 2026-09-04 23:42:13 | 50.82328 | 7.22090 | 102° | 68km/h | 3665m | -7.2m/s | -4°C | 48.5% | 652.8hPa | 4.2V | 00:00:00 | 02:05:36 | 00:00:00 | |
| DB0UT-7 | 2026-09-04 23:42:11 | 50.82316 | 7.22173 | 103° | 66km/h | 3643m | -7.3m/s | -3.7°C | 48.7% | 654.6hPa | 4.2V | 00:00:00 | 00:00:00 | 00:00:00 | |
| DM0DOS-11 | 2026-09-04 23:42:07 | 50.82350 | 7.21930 | 102° | 66km/h | 3709m | -7.1m/s | -4.1°C | 49% | 649.2hPa | 4.2V | 00:00:00 | 02:05:30 | 00:00:00 | |
| DM0DOS-11 | 2026-09-04 23:42:02 | 50.82367 | 7.21799 | 100° | 66km/h | 3745m | -7m/s | -4.5°C | 49.7% | 646.3hPa | 4.2V | 00:00:00 | 02:05:25 | 00:00:00 | |
| BIOWL1-15 | 2026-09-04 23:41:58 | 50.82392 | 7.21590 | 99° | 66km/h | 3800m | -7m/s | -5°C | 51.4% | 641.7hPa | 4.2V | 00:00:00 | 00:00:00 | 00:00:00 | |
| DM0DOS-11 | 2026-09-04 23:41:57 | 50.82383 | 7.21669 | 100° | 66km/h | 3780m | -6.8m/s | -4.8°C | 50.8% | 643.4hPa | 4.2V | 00:00:00 | 02:05:20 | 00:00:00 | |
| DM0DOS-11 | 2026-09-04 23:41:52 | 50.82398 | 7.21538 | 101° | 66km/h | 3814m | -7.1m/s | -5.1°C | 51.6% | 640.5hPa | 4.2V | 00:00:00 | 02:05:15 | 00:00:00 | |
| DM0DOS-11 | 2026-09-04 23:41:47 | 50.82414 | 7.21408 | 101° | 66km/h | 3849m | -6.8m/s | -5.4°C | 52.3% | 637.8hPa | 4.1V | 00:00:00 | 02:05:10 | 00:00:00 | |
| BIOWL1-15 | 2026-09-04 23:41:43 | 50.82414 | 7.21408 | 102° | 66km/h | 3849m | -7m/s | -5.4°C | 52.4% | 637.8hPa | 4.1V | 00:00:00 | 00:00:00 | 00:00:00 | |
| DB0UT-7 | 2026-09-04 23:41:41 | 50.82418 | 7.21382 | 101° | 64km/h | 3856m | -6.7m/s | -5.4°C | 52.5% | 637.2hPa | 4.1V | 00:00:00 | 02:05:09 | 00:00:00 | |
| DM0DOS-11 | 2026-09-04 23:41:37 | 50.82447 | 7.21150 | 101° | 66km/h | 3917m | -6.5m/s | -6°C | 53.7% | 632.3hPa | 4.1V | 00:00:00 | 02:05:00 | 00:00:00 | |
| BIOWL1-15 | 2026-09-04 23:41:32 | 50.82450 | 7.21125 | 100° | 66km/h | 3923m | -6.5m/s | -6.1°C | 53.9% | 631.8hPa | 4.1V | 00:00:00 | 00:00:00 | 00:00:00 | |
| DM0DOS-11 | 2026-09-04 23:41:27 | 50.82478 | 7.20895 | 102° | 64km/h | 3983m | -6.7m/s | -6.7°C | 55% | 627hPa | 4.1V | 00:00:00 | 02:04:50 | 00:00:00 | |
| DM0DOS-11 | 2026-09-04 23:41:22 | 50.82496 | 7.20770 | 103° | 64km/h | 4016m | -6.8m/s | -6.9°C | 55.3% | 624.3hPa | 4.1V | 00:00:00 | 02:04:45 | 00:00:00 | |
| BIOWL1-15 | 2026-09-04 23:41:21 | 50.82486 | 7.20845 | 102° | 64km/h | 3996m | -7m/s | -6.8°C | 55.1% | 625.9hPa | 4.1V | 00:00:00 | 00:00:00 | 00:00:00 | |
| DM0DOS-11 | 2026-09-04 23:41:17 | 50.82516 | 7.20647 | 106° | 64km/h | 4050m | -6.7m/s | -7.2°C | 55.2% | 621.6hPa | 4.1V | 00:00:00 | 02:04:40 | 00:00:00 | |
| DM0DOS-11 | 2026-09-04 23:41:12 | 50.82543 | 7.20501 | 106° | 64km/h | 4090m | -6.9m/s | -7.4°C | 54% | 618.4hPa | 4.1V | 00:00:00 | 02:04:34 | 00:00:00 | |
| BIOWL1-15 | 2026-09-04 23:41:11 | 50.82525 | 7.20598 | 107° | 62km/h | 4063m | -7m/s | -7.3°C | 55.1% | 620.5hPa | 4.1V | 00:00:00 | 00:00:00 | 00:00:00 | |
| DM0DOS-11 | 2026-09-04 23:41:07 | 50.82567 | 7.20381 | 109° | 64km/h | 4124m | -6.9m/s | -7.5°C | 52.5% | 615.6hPa | 4.1V | 00:00:00 | 02:04:29 | 00:00:00 | |
| DM0DOS-11 | 2026-09-04 23:41:01 | 50.82599 | 7.20234 | 109° | 64km/h | 4165m | -7m/s | -7.8°C | 51% | 612.4hPa | 4.1V | 00:00:00 | 02:04:23 | 00:00:00 | |
| BIOWL1-15 | 2026-09-04 23:40:59 | 50.82588 | 7.20283 | 109° | 64km/h | 4152m | -6.8m/s | -7.7°C | 51.3% | 613.5hPa | 4.1V | 00:00:00 | 00:00:00 | 00:00:00 | |
| DM0DOS-11 | 2026-09-04 23:40:56 | 50.82626 | 7.20111 | 108° | 66km/h | 4200m | -6.9m/s | -8°C | 50.7% | 609.7hPa | 4.1V | 00:00:00 | 02:04:18 | 00:00:00 | |
| BIOWL1-15 | 2026-09-04 23:40:45 | 50.82672 | 7.19916 | 112° | 64km/h | 4255m | -8m/s | -8.5°C | 49.6% | 605.3hPa | 4.1V | 00:00:00 | 00:00:00 | 00:00:00 | |
| DM0DOS-11 | 2026-09-04 23:40:45 | 50.82684 | 7.19868 | 112° | 64km/h | 4270m | -7m/s | -8.6°C | 48.7% | 604.2hPa | 4.1V | 00:00:00 | 02:04:08 | 00:00:00 | |
| DB0UT-7 | 2026-09-04 23:40:41 | 50.82678 | 7.19892 | 112° | 62km/h | 4263m | -7.0m/s | -8.5°C | 49.2% | 604.7hPa | 4.0V | 00:00:00 | 02:04:09 | 00:00:00 | |
| DM0DOS-11 | 2026-09-04 23:40:40 | 50.82715 | 7.19750 | 112° | 62km/h | 4305m | -7.1m/s | -8.6°C | 47% | 601.5hPa | 4.1V | 00:00:00 | 02:04:03 | 00:00:00 | |
| DM0DOS-11 | 2026-09-04 23:40:35 | 50.82747 | 7.19635 | 114° | 62km/h | 4340m | -7.3m/s | -8.8°C | 46.2% | 598.7hPa | 4.1V | 00:00:00 | 02:03:58 | 00:00:00 | |
| BIOWL1-15 | 2026-09-04 23:40:30 | 50.82760 | 7.19590 | 116° | 62km/h | 4355m | -7m/s | -8.9°C | 45.8% | 597.6hPa | 4.1V | 00:00:00 | 00:00:00 | 00:00:00 | |
| DM0DOS-11 | 2026-09-04 23:40:30 | 50.82781 | 7.19523 | 116° | 60km/h | 4376m | -7.1m/s | -9°C | 45% | 596hPa | 4.1V | 00:00:00 | 02:03:53 | 00:00:00 | |
| DM0DOS-11 | 2026-09-04 23:40:25 | 50.82816 | 7.19414 | 118° | 60km/h | 4412m | -7m/s | -9.1°C | 43% | 593.3hPa | 4.1V | 00:00:00 | 02:03:48 | 00:00:00 | |
| DM0DOS-11 | 2026-09-04 23:40:20 | 50.82863 | 7.19287 | 121° | 62km/h | 4454m | -7m/s | -9.1°C | 39.5% | 590hPa | 4.1V | 00:00:00 | 02:03:42 | 00:00:00 | |
| BIOWL1-15 | 2026-09-04 23:40:17 | 50.82930 | 7.19121 | 124° | 62km/h | 4510m | -7m/s | -9.3°C | 35.7% | 585.8hPa | 4.1V | 00:00:00 | 00:00:00 | 00:00:00 | |
| DM0DOS-11 | 2026-09-04 23:40:15 | 50.82904 | 7.19183 | 123° | 62km/h | 4489m | -7m/s | -9.1°C | 36.5% | 587.4hPa | 4.1V | 00:00:00 | 02:03:37 | 00:00:00 | |
| DB0UT-7 | 2026-09-04 23:40:11 | 50.82887 | 7.19225 | 123° | 62km/h | 4475m | -6.9m/s | -9.0°C | 37.5% | 588.4hPa | 4.1V | 00:00:00 | 00:00:00 | 00:00:00 | |
| DM0DOS-11 | 2026-09-04 23:40:09 | 50.82948 | 7.19079 | 123° | 62km/h | 4524m | -6.8m/s | -9.3°C | 34.8% | 584.7hPa | 4.1V | 00:00:00 | 02:03:32 | 00:00:00 | |
| BIOWL1-15 | 2026-09-04 23:40:05 | 50.83038 | 7.18875 | 126° | 62km/h | 4593m | -7m/s | -9.8°C | 33.3% | 579.4hPa | 4.1V | 00:00:00 | 00:00:00 | 00:00:00 | |
| DM0DOS-11 | 2026-09-04 23:40:04 | 50.82993 | 7.18976 | 124° | 62km/h | 4558m | -7m/s | -9.6°C | 34% | 582.1hPa | 4.1V | 00:00:00 | 02:03:27 | 00:00:00 | |
| DM0DOS-11 | 2026-09-04 23:39:59 | 50.83038 | 7.18875 | 126° | 62km/h | 4593m | -6.9m/s | -9.8°C | 33.2% | 579.4hPa | 4.1V | 00:00:00 | 02:03:22 | 00:00:00 | |
| BIOWL1-15 | 2026-09-04 23:39:51 | 50.83084 | 7.18774 | 125° | 62km/h | 4627m | -7m/s | -10.1°C | 33.5% | 576.8hPa | 4.1V | 00:00:00 | 00:00:00 | 00:00:00 | |
| DM0DOS-11 | 2026-09-04 23:39:49 | 50.83128 | 7.18672 | 123° | 62km/h | 4662m | -7.3m/s | -10.3°C | 35.2% | 574.2hPa | 4V | 00:00:00 | 02:03:12 | 00:00:00 | |
| DM0DOS-11 | 2026-09-04 23:39:44 | 50.83169 | 7.18567 | 119° | 62km/h | 4698m | -7.4m/s | -10.2°C | 39.5% | 571.5hPa | 4V | 00:00:00 | 02:03:07 | 00:00:00 | |
| BIOWL1-15 | 2026-09-04 23:39:40 | 50.83215 | 7.18411 | 110° | 64km/h | 4751m | -7.7m/s | -9.8°C | 49.3% | 567.6hPa | 4V | 00:00:00 | 00:00:00 | 00:00:00 | |
| DM0DOS-11 | 2026-09-04 23:39:39 | 50.83203 | 7.18457 | 112° | 64km/h | 4735m | -7.8m/s | -9.9°C | 46.5% | 568.8hPa | 4V | 00:00:00 | 02:03:02 | 00:00:00 | |
| DM0DOS-11 | 2026-09-04 23:39:34 | 50.83232 | 7.18338 | 107° | 68km/h | 4774m | -7.5m/s | -9.9°C | 52.2% | 565.9hPa | 4V | 00:00:00 | 02:02:57 | 00:00:00 | |
| DM0DOS-11 | 2026-09-04 23:39:29 | 50.83255 | 7.18209 | 104° | 69km/h | 4812m | -7.5m/s | -10.1°C | 55.8% | 563.2hPa | 4V | 00:00:00 | 02:02:52 | 00:00:00 | |
| BIOWL1-15 | 2026-09-04 23:39:29 | 50.83246 | 7.18261 | 106° | 68km/h | 4796m | -8m/s | -9.9°C | 54.9% | 564.2hPa | 4V | 00:00:00 | 00:00:00 | 00:00:00 | |
| DM0DOS-11 | 2026-09-04 23:39:24 | 50.83275 | 7.18076 | 102° | 71km/h | 4850m | -7.4m/s | -10.4°C | 56.7% | 560.4hPa | 4V | 00:00:00 | 02:02:47 | 00:00:00 | |
| DM0DOS-11 | 2026-09-04 23:39:18 | 50.83294 | 7.17937 | 102° | 73km/h | 4887m | -7.1m/s | -10.8°C | 58.5% | 557.8hPa | 4V | 00:00:00 | 02:02:42 | 00:00:00 | |
| BIOWL1-15 | 2026-09-04 23:39:18 | 50.83287 | 7.17993 | 102° | 71km/h | 4872m | -8m/s | -10.6°C | 57.8% | 558.9hPa | 4V | 00:00:00 | 00:00:00 | 00:00:00 | |
| DM0DOS-11 | 2026-09-04 23:39:13 | 50.83311 | 7.17796 | 98° | 73km/h | 4922m | -7.5m/s | -11.1°C | 62% | 555.2hPa | 4V | 00:00:00 | 02:02:37 | 00:00:00 | |
| BIOWL1-15 | 2026-09-04 23:39:04 | 50.83334 | 7.17560 | 99° | 75km/h | 4982m | -8m/s | -11.3°C | 68.2% | 550.9hPa | 4V | 00:00:00 | 00:00:00 | 00:00:00 | |
| DM0DOS-11 | 2026-09-04 23:39:01 | 50.83340 | 7.17500 | 98° | 77km/h | 4997m | -7.6m/s | -11.4°C | 69% | 549.8hPa | 4V | 00:00:00 | 02:02:27 | 00:00:00 | |
| DM0DOS-11 | 2026-09-04 23:38:54 | 50.83361 | 7.17191 | 95° | 82km/h | 5073m | -7.5m/s | -11.9°C | 72.7% | 544.4hPa | 4V | 00:00:00 | 02:02:17 | 00:00:00 | |
| BIOWL1-15 | 2026-09-04 23:38:51 | 50.83365 | 7.17126 | 94° | 80km/h | 5088m | -7m/s | -12°C | 72.9% | 543.4hPa | 4V | 00:00:00 | 00:00:00 | 00:00:00 | |
| DM0DOS-11 | 2026-09-04 23:38:44 | 50.83380 | 7.16864 | 94° | 86km/h | 5147m | -7.7m/s | -12.5°C | 74% | 539.1hPa | 4V | 00:00:00 | 02:02:07 | 00:00:00 | |
| BIOWL1-15 | 2026-09-04 23:38:39 | 50.83385 | 7.16657 | 92° | 89km/h | 5193m | -7m/s | -12.8°C | 72.9% | 535.9hPa | 4V | 00:00:00 | 00:00:00 | 00:00:00 | |
| BIOWL1-15 | 2026-09-04 23:38:29 | 50.83389 | 7.16476 | 91° | 93km/h | 5229m | -7.7m/s | -12.7°C | 71.6% | 533.4hPa | 4V | 00:00:00 | 00:00:00 | 00:00:00 | |
| DM0DOS-11 | 2026-09-04 23:38:23 | 50.83392 | 7.16136 | 90° | 99km/h | 5298m | -7.8m/s | -13.1°C | 67% | 528.5hPa | 4V | 00:00:00 | 02:01:47 | 00:00:00 | |
| BIOWL1-15 | 2026-09-04 23:38:18 | 50.83395 | 7.15861 | 92° | 99km/h | 5352m | -8m/s | -13.2°C | 60% | 524.8hPa | 4V | 00:00:00 | 00:00:00 | 00:00:00 | |
| DM0DOS-11 | 2026-09-04 23:38:11 | 50.83397 | 7.15742 | 90° | 104km/h | 5375m | -7.7m/s | -13.3°C | 56% | 523.3hPa | 4V | 00:00:00 | 02:01:37 | 00:00:00 | |
| BIOWL1-15 | 2026-09-04 23:38:06 | 50.83398 | 7.15578 | 91° | 102km/h | 5406m | -7m/s | -13.4°C | 50.4% | 521.2hPa | 4V | 00:00:00 | 00:00:00 | 00:00:00 | |
| DM0DOS-11 | 2026-09-04 23:38:04 | 50.83397 | 7.15324 | 88° | 110km/h | 5452m | -7.7m/s | -13.2°C | 36.2% | 518.1hPa | 4V | 00:00:00 | 02:01:27 | 00:00:00 | |
| BIOWL1-15 | 2026-09-04 23:38:00 | 50.83394 | 7.15059 | 88° | 111km/h | 5498m | -8m/s | -12.7°C | 22.1% | 515hPa | 4V | 00:00:00 | 00:00:00 | 00:00:00 | |
| DM0DOS-11 | 2026-09-04 23:37:54 | 50.83391 | 7.14879 | 89° | 117km/h | 5528m | -7.7m/s | -12.6°C | 16.2% | 512.9hPa | 4V | 00:00:00 | 02:01:17 | 00:00:00 | |
| DM0DOS-11 | 2026-09-04 23:37:44 | 50.83380 | 7.14401 | 87° | 120km/h | 5605m | -8m/s | -12.2°C | 3.8% | 507.7hPa | 4V | 00:00:00 | 02:01:07 | 00:00:00 | |
| DB0UT-7 | 2026-09-04 23:37:41 | 50.83383 | 7.14499 | 87° | 119km/h | 5589m | -8.0m/s | -12.4°C | 6.0% | 508.7hPa | 4.0V | 00:00:00 | 02:01:09 | 00:00:00 | |
| DM0DOS-11 | 2026-09-04 23:37:34 | 50.83366 | 7.13917 | 88° | 119km/h | 5685m | -8m/s | -12.3°C | 2% | 502.5hPa | 4V | 00:00:00 | 02:00:57 | 00:00:00 | |
| BIOWL1-15 | 2026-09-04 23:37:29 | 50.83365 | 7.13869 | 88° | 119km/h | 5693m | -8m/s | -12.4°C | 2% | 502hPa | 4V | 00:00:00 | 00:00:00 | 00:00:00 | |
| DM0DOS-11 | 2026-09-04 23:37:22 | 50.83359 | 7.13445 | 90° | 117km/h | 5766m | -8.4m/s | -13°C | 2% | 497.2hPa | 4V | 00:00:00 | 02:00:47 | 00:00:00 | |
| BIOWL1-15 | 2026-09-04 23:37:22 | 50.83359 | 7.13210 | 90° | 117km/h | 5808m | -8.5m/s | -13.3°C | 1.9% | 494.5hPa | 4V | 00:00:00 | 00:00:00 | 00:00:00 | |
| DM0DOS-11 | 2026-09-04 23:37:11 | 50.83361 | 7.12976 | 92° | 119km/h | 5849m | -8.4m/s | -13.6°C | 1.9% | 491.9hPa | 4V | 00:00:00 | 02:00:37 | 00:00:00 | |
| BIOWL1-15 | 2026-09-04 23:37:07 | 50.83364 | 7.12833 | 91° | 120km/h | 5874m | -8.3m/s | -13.8°C | 1.9% | 490.3hPa | 4V | 00:00:00 | 00:00:00 | 00:00:00 | |
| DM0DOS-11 | 2026-09-04 23:37:04 | 50.83369 | 7.12496 | 92° | 120km/h | 5932m | -8.4m/s | -14°C | 1.9% | 486.6hPa | 4V | 00:00:00 | 02:00:27 | 00:00:00 | |
| BIOWL1-15 | 2026-09-04 23:36:57 | 50.83372 | 7.12351 | 91° | 120km/h | 5957m | -9m/s | -14.1°C | 1.9% | 485hPa | 4V | 00:00:00 | 00:00:00 | 00:00:00 | |
| DM0DOS-11 | 2026-09-04 23:36:54 | 50.83374 | 7.11964 | 90° | 120km/h | 6024m | -8.4m/s | -14.6°C | 2% | 480.7hPa | 4V | 00:00:00 | 02:00:16 | 00:00:00 | |
| BIOWL1-15 | 2026-09-04 23:36:45 | 50.83374 | 7.11720 | 91° | 120km/h | 6066m | -8.5m/s | -14.8°C | 2% | 478hPa | 4V | 00:00:00 | 00:00:00 | 00:00:00 | |
| DM0DOS-11 | 2026-09-04 23:36:41 | 50.83375 | 7.11525 | 90° | 120km/h | 6099m | -8.7m/s | -15.1°C | 2% | 475.9hPa | 4V | 00:00:00 | 02:00:07 | 00:00:00 | |
| DM0DOS-11 | 2026-09-04 23:36:34 | 50.83379 | 7.11038 | 90° | 120km/h | 6185m | -8.6m/s | -15.8°C | 2.2% | 470.5hPa | 3.9V | 00:00:00 | 01:59:57 | 00:00:00 | |
| BIOWL1-15 | 2026-09-04 23:36:31 | 50.83378 | 7.11087 | 91° | 120km/h | 6177m | -8.5m/s | -15.8°C | 2.3% | 471.1hPa | 3.9V | 00:00:00 | 00:00:00 | 00:00:00 | |
| DM0DOS-11 | 2026-09-04 23:36:20 | 50.83382 | 7.10553 | 90° | 122km/h | 6271m | -8.3m/s | -16.4°C | 2.5% | 465.1hPa | 3.9V | 00:00:00 | 01:59:47 | 00:00:00 | |
| BIOWL1-15 | 2026-09-04 23:36:18 | 50.83383 | 7.10454 | 90° | 122km/h | 6287m | -9m/s | -16.5°C | 2.5% | 464.1hPa | 3.9V | 00:00:00 | 00:00:00 | 00:00:00 | |
| DB0UT-7 | 2026-09-04 23:36:11 | 50.83382 | 7.10159 | 89° | 126km/h | 6338m | -8.1m/s | -16.8°C | 2.7% | 460.9hPa | 3.9V | 00:00:00 | 00:00:00 | 00:00:00 | |
| DM0DOS-11 | 2026-09-04 23:36:10 | 50.83381 | 7.10060 | 87° | 122km/h | 6354m | -8.3m/s | -16.9°C | 2.7% | 459.9hPa | 3.9V | 00:00:00 | 01:59:37 | 00:00:00 | |
| BIOWL1-15 | 2026-09-04 23:36:08 | 50.83362 | 7.09523 | 86° | 122km/h | 6444m | -8.5m/s | -17.5°C | 2.9% | 454.4hPa | 3.9V | 00:00:00 | 00:00:00 | 00:00:00 | |
| DM0DOS-11 | 2026-09-04 23:36:04 | 50.83364 | 7.09571 | 86° | 122km/h | 6436m | -8.4m/s | -17.5°C | 2.8% | 454.9hPa | 3.9V | 00:00:00 | 01:59:27 | 00:00:00 | |
| BIOWL1-15 | 2026-09-04 23:35:57 | 50.83353 | 7.09326 | 87° | 122km/h | 6478m | -8m/s | -17.8°C | 3% | 452.4hPa | 3.9V | 00:00:00 | 00:00:00 | 00:00:00 | |
| DM0DOS-11 | 2026-09-04 23:35:54 | 50.83344 | 7.09077 | 86° | 128km/h | 6521m | -8.5m/s | -18.2°C | 3% | 449.8hPa | 3.9V | 00:00:00 | 01:59:17 | 00:00:00 | |
| DM0DOS-11 | 2026-09-04 23:35:44 | 50.83324 | 7.08558 | 86° | 135km/h | 6607m | -8.4m/s | -18.4°C | 3% | 444.8hPa | 3.9V | 00:00:00 | 01:59:07 | 00:00:00 | |
| BIOWL1-15 | 2026-09-04 23:35:25 | 50.83290 | 7.07731 | 86° | 141km/h | 6734m | -9m/s | -19.3°C | 3.2% | 437.2hPa | 3.9V | 00:00:00 | 00:00:00 | 00:00:00 | |
| DM0DOS-11 | 2026-09-04 23:35:21 | 50.83278 | 7.07448 | 85° | 144km/h | 6777m | -8.8m/s | -19.5°C | 3.2% | 434.7hPa | 3.9V | 00:00:00 | 01:58:47 | 00:00:00 | |
| BIOWL1-15 | 2026-09-04 23:35:13 | 50.83260 | 7.07045 | 87° | 144km/h | 6838m | -8.5m/s | -19.8°C | 3.4% | 431.1hPa | 3.9V | 00:00:00 | 00:00:00 | 00:00:00 | |
| DB0UT-7 | 2026-09-04 23:35:11 | 50.83258 | 7.06986 | 87° | 144km/h | 6846m | -8.7m/s | -19.8°C | 3.3% | 430.6hPa | 3.9V | 00:00:00 | 00:00:00 | 00:00:00 | |
| DM0DOS-11 | 2026-09-04 23:35:10 | 50.83253 | 7.06870 | 85° | 144km/h | 6864m | -8.5m/s | -19.9°C | 3.3% | 429.6hPa | 3.9V | 00:00:00 | 01:58:37 | 00:00:00 | |
| DM0DOS-11 | 2026-09-04 23:35:01 | 50.83231 | 7.06292 | 86° | 144km/h | 6949m | -8.6m/s | -20.4°C | 3.6% | 424.6hPa | 3.9V | 00:00:00 | 01:58:27 | 00:00:00 | |
| BIOWL1-15 | 2026-09-04 23:34:59 | 50.83229 | 7.06234 | 87° | 144km/h | 6958m | -8.3m/s | -20.4°C | 3.7% | 424.1hPa | 3.9V | 00:00:00 | 00:00:00 | 00:00:00 | |
| DM0DOS-11 | 2026-09-04 23:34:50 | 50.83213 | 7.05713 | 87° | 142km/h | 7036m | -8.6m/s | -20.7°C | 4% | 419.6hPa | 3.9V | 00:00:00 | 01:58:17 | 00:00:00 | |
| BIOWL1-15 | 2026-09-04 23:34:46 | 50.83202 | 7.05258 | 89° | 141km/h | 7106m | -8.7m/s | -21°C | 4.8% | 415.6hPa | 3.9V | 00:00:00 | 00:00:00 | 00:00:00 | |
| DB0UT-7 | 2026-09-04 23:34:41 | 50.83202 | 7.05258 | 89° | 142km/h | 7106m | -8.7m/s | -21.0°C | 4.7% | 415.6hPa | 3.9V | 00:00:00 | 01:58:09 | 00:00:00 | |
| DM0DOS-11 | 2026-09-04 23:34:40 | 50.83200 | 7.05145 | 88° | 141km/h | 7123m | -8.8m/s | -21°C | 5% | 414.6hPa | 3.9V | 00:00:00 | 01:58:07 | 00:00:00 | |
| DM0DOS-11 | 2026-09-04 23:34:31 | 50.83199 | 7.04578 | 91° | 142km/h | 7212m | -9.1m/s | -21.6°C | 6% | 409.7hPa | 3.9V | 00:00:00 | 01:57:57 | 00:00:00 | |
| BIOWL1-15 | 2026-09-04 23:34:24 | 50.83203 | 7.04237 | 91° | 142km/h | 7267m | -9.2m/s | -22.1°C | 6.4% | 406.6hPa | 3.9V | 00:00:00 | 00:00:00 | 00:00:00 | |
| DM0DOS-11 | 2026-09-04 23:34:21 | 50.83206 | 7.04009 | 91° | 144km/h | 7304m | -9.3m/s | -22.5°C | 6.6% | 404.6hPa | 3.9V | 00:00:00 | 01:57:47 | 00:00:00 | |
| DM0DOS-11 | 2026-09-04 23:34:11 | 50.83217 | 7.03428 | 92° | 144km/h | 7398m | -9.4m/s | -23.1°C | 7.5% | 399.4hPa | 3.9V | 00:00:00 | 01:57:37 | 00:00:00 | |
| BIOWL1-15 | 2026-09-04 23:34:08 | 50.83220 | 7.03312 | 92° | 144km/h | 7417m | -9m/s | -23.2°C | 7.7% | 398.4hPa | 3.9V | 00:00:00 | 00:00:00 | 00:00:00 | |
| DM0DOS-11 | 2026-09-04 23:34:01 | 50.83234 | 7.02846 | 92° | 146km/h | 7491m | -9.4m/s | -23.9°C | 8.3% | 394.3hPa | 3.9V | 00:00:00 | 01:57:27 | 00:00:00 | |
| BIOWL1-15 | 2026-09-04 23:33:57 | 50.83242 | 7.02553 | 93° | 146km/h | 7538m | -9m/s | -24.3°C | 8.9% | 391.7hPa | 3.9V | 00:00:00 | 00:00:00 | 00:00:00 | |
| DM0DOS-11 | 2026-09-04 23:33:51 | 50.83250 | 7.02262 | 91° | 144km/h | 7585m | -9.6m/s | -24.7°C | 9.5% | 389.2hPa | 3.9V | 00:00:00 | 01:57:17 | 00:00:00 | |
| BIOWL1-15 | 2026-09-04 23:33:44 | 50.83257 | 7.01913 | 91° | 146km/h | 7642m | -9.5m/s | -25.2°C | 10.4% | 386.1hPa | 3.9V | 00:00:00 | 00:00:00 | 00:00:00 | |
| DM0DOS-11 | 2026-09-04 23:33:41 | 50.83260 | 7.01680 | 90° | 144km/h | 7680m | -9.6m/s | -25.5°C | 11% | 384.1hPa | 3.9V | 00:00:00 | 01:57:07 | 00:00:00 | |
| DM0DOS-11 | 2026-09-04 23:33:34 | 50.83261 | 7.01098 | 89° | 146km/h | 7775m | -9.6m/s | -26.3°C | 13.1% | 379.1hPa | 3.9V | 00:00:00 | 01:56:57 | 00:00:00 | |
| BIOWL1-15 | 2026-09-04 23:33:31 | 50.83260 | 7.01039 | 89° | 144km/h | 7785m | -9m/s | -26.4°C | 13.4% | 378.6hPa | 3.9V | 00:00:00 | 00:00:00 | 00:00:00 | |
| DM0DOS-11 | 2026-09-04 23:33:21 | 50.83252 | 7.00513 | 87° | 146km/h | 7871m | -9.6m/s | -27°C | 16.2% | 374.1hPa | 3.9V | 00:00:00 | 01:56:47 | 00:00:00 | |
| BIOWL1-15 | 2026-09-04 23:33:19 | 50.83247 | 7.00337 | 86° | 144km/h | 7900m | -9m/s | -27.2°C | 17.4% | 372.6hPa | 3.9V | 00:00:00 | 00:00:00 | 00:00:00 | |
| DM0DOS-11 | 2026-09-04 23:33:11 | 50.83226 | 6.99928 | 84° | 150km/h | 7967m | -9.5m/s | -27.5°C | 20.8% | 369.1hPa | 3.9V | 00:00:00 | 01:56:37 | 00:00:00 | |
| BIOWL1-15 | 2026-09-04 23:33:06 | 50.83210 | 6.99691 | 84° | 153km/h | 8005m | -9.7m/s | -27.6°C | 23.5% | 367.1hPa | 3.9V | 00:00:00 | 00:00:00 | 00:00:00 | |
| DM0DOS-11 | 2026-09-04 23:33:01 | 50.83186 | 6.99321 | 83° | 161km/h | 8062m | -9.9m/s | -27.8°C | 28% | 364.2hPa | 3.9V | 00:00:00 | 01:56:27 | 00:00:00 | |
| DM0DOS-11 | 2026-09-04 23:32:51 | 50.83144 | 6.98676 | 84° | 168km/h | 8160m | -9.7m/s | -28.4°C | 36% | 359.3hPa | 3.9V | 00:00:00 | 01:56:17 | 00:00:00 | |
| BIOWL1-15 | 2026-09-04 23:32:51 | 50.83147 | 6.98742 | 85° | 166km/h | 8151m | -9.5m/s | -28.4°C | 35.2% | 359.8hPa | 3.9V | 00:00:00 | 00:00:00 | 00:00:00 | |
| DM0DOS-11 | 2026-09-04 23:32:41 | 50.83109 | 6.98002 | 85° | 172km/h | 8256m | -9.9m/s | -29°C | 44% | 354.5hPa | 3.9V | 00:00:00 | 01:56:07 | 00:00:00 | |
| BIOWL1-15 | 2026-09-04 23:32:39 | 50.83100 | 6.97798 | 86° | 172km/h | 8285m | -10.5m/s | -29.3°C | 46.7% | 353.1hPa | 3.9V | 00:00:00 | 00:00:00 | 00:00:00 | |
| BIOWL1-15 | 2026-09-04 23:32:27 | 50.83054 | 6.96666 | 86° | 181km/h | 8444m | -10.5m/s | -30.5°C | 60.8% | 345.3hPa | 3.9V | 00:00:00 | 00:00:00 | 00:00:00 | |
| DM0DOS-11 | 2026-09-04 23:32:21 | 50.83051 | 6.96593 | 85° | 181km/h | 8455m | -9.9m/s | -30.5°C | 61.2% | 344.9hPa | 3.9V | 00:00:00 | 01:55:47 | 00:00:00 | |
| BIOWL1-15 | 2026-09-04 23:32:13 | 50.83024 | 6.96089 | 85° | 181km/h | 8524m | -10m/s | -31°C | 62.3% | 341.5hPa | 3.9V | 00:00:00 | 00:00:00 | 00:00:00 | |
| DM0DOS-11 | 2026-09-04 23:32:11 | 50.83011 | 6.95871 | 83° | 181km/h | 8555m | -9.7m/s | -31.2°C | 62.2% | 340.1hPa | 3.8V | 00:00:00 | 01:55:37 | 00:00:00 | |
| BIOWL1-15 | 2026-09-04 23:32:02 | 50.82968 | 6.95293 | 82° | 181km/h | 8634m | -10m/s | -31.8°C | 61.3% | 336.4hPa | 3.8V | 00:00:00 | 00:00:00 | 00:00:00 | |
| DM0DOS-11 | 2026-09-04 23:32:01 | 50.82956 | 6.95148 | 81° | 181km/h | 8654m | -10m/s | -31.9°C | 60.8% | 335.4hPa | 3.8V | 00:00:00 | 01:55:27 | 00:00:00 | |
| DM0DOS-11 | 2026-09-04 23:31:51 | 50.82890 | 6.94430 | 81° | 183km/h | 8754m | -9.9m/s | -32.9°C | 57.2% | 330.7hPa | 3.8V | 00:00:00 | 01:55:17 | 00:00:00 | |
| BIOWL1-15 | 2026-09-04 23:31:48 | 50.82877 | 6.94285 | 82° | 183km/h | 8773m | -10m/s | -33.1°C | 56.3% | 329.8hPa | 3.9V | 00:00:00 | 00:00:00 | 00:00:00 | |
| DM0DOS-11 | 2026-09-04 23:31:41 | 50.82829 | 6.93705 | 81° | 181km/h | 8855m | -10.5m/s | -33.6°C | 50.3% | 326hPa | 3.8V | 00:00:00 | 01:55:07 | 00:00:00 | |
| BIOWL1-15 | 2026-09-04 23:31:37 | 50.82810 | 6.93488 | 82° | 183km/h | 8886m | -11m/s | -33.8°C | 48.1% | 324.6hPa | 3.8V | 00:00:00 | 00:00:00 | 00:00:00 | |
| DM0DOS-11 | 2026-09-04 23:31:31 | 50.82762 | 6.92986 | 80° | 181km/h | 8959m | -10.4m/s | -34.3°C | 44.2% | 321.2hPa | 3.8V | 00:00:00 | 01:54:57 | 00:00:00 | |
| BIOWL1-15 | 2026-09-04 23:31:26 | 50.82688 | 6.92272 | 80° | 181km/h | 9062m | -10.5m/s | -35.3°C | 38.8% | 316.6hPa | 3.8V | 00:00:00 | 00:00:00 | 00:00:00 | |
| DM0DOS-11 | 2026-09-04 23:31:21 | 50.82688 | 6.92272 | 80° | 179km/h | 9062m | -10.4m/s | -35.3°C | 38.7% | 316.6hPa | 3.8V | 00:00:00 | 01:54:47 | 00:00:00 | |
| DM0DOS-11 | 2026-09-04 23:31:11 | 50.82610 | 6.91561 | 79° | 177km/h | 9166m | -10.2m/s | -36.2°C | 31% | 311.9hPa | 3.8V | 00:00:00 | 01:54:37 | 00:00:00 | |
| BIOWL1-15 | 2026-09-04 23:31:09 | 50.82594 | 6.91419 | 80° | 179km/h | 9187m | -10m/s | -36.4°C | 29.7% | 311hPa | 3.8V | 00:00:00 | 00:00:00 | 00:00:00 | |
| BIOWL1-15 | 2026-09-04 23:30:56 | 50.82499 | 6.90577 | 80° | 177km/h | 9309m | -10.5m/s | -37.5°C | 21.6% | 305.6hPa | 3.7V | 00:00:00 | 00:00:00 | 00:00:00 | |
| DM0DOS-11 | 2026-09-04 23:30:54 | 50.82483 | 6.90437 | 79° | 177km/h | 9330m | -10.5m/s | -37.7°C | 20.1% | 304.6hPa | 3.7V | 00:00:00 | 01:54:21 | 00:00:00 | |
| DM0DOS-11 | 2026-09-04 23:30:48 | 50.82401 | 6.89738 | 79° | 179km/h | 9434m | -10.4m/s | -38.5°C | 15.3% | 300.1hPa | 3.6V | 00:00:00 | 01:54:11 | 00:00:00 | |
| BIOWL1-15 | 2026-09-04 23:30:46 | 50.82409 | 6.89808 | 79° | 179km/h | 9424m | -10m/s | -38.5°C | 15.6% | 300.6hPa | 3.6V | 00:00:00 | 00:00:00 | 00:00:00 | |
| BIOWL1-15 | 2026-09-04 23:30:37 | 50.82261 | 6.88685 | 77° | 179km/h | 9591m | -10m/s | -39.8°C | 11.2% | 293.5hPa | 3.5V | 00:00:00 | 00:00:00 | 00:00:00 | |
| DM0DOS-11 | 2026-09-04 23:30:34 | 50.82309 | 6.89036 | 77° | 179km/h | 9538m | -10.6m/s | -39.3°C | 12.6% | 295.7hPa | 3.5V | 00:00:00 | 01:54:01 | 00:00:00 | |
| BIOWL1-15 | 2026-09-04 23:30:18 | 50.82164 | 6.87919 | 80° | 175km/h | 9707m | -10m/s | -40.7°C | 8.5% | 288.6hPa | 3V | 00:00:00 | 00:00:00 | 00:00:00 | |
| DM0DOS-11 | 2026-09-04 23:30:18 | 50.82133 | 6.87642 | 80° | 173km/h | 9750m | -10.8m/s | -41°C | 8% | 286.8hPa | 3V | 00:00:00 | 01:53:41 | 00:00:00 | |
| BIOWL1-15 | 2026-09-04 23:30:07 | 50.82085 | 6.87160 | 82° | 172km/h | 9825m | -11m/s | -41.7°C | 7.5% | 283.6hPa | 3V | 00:00:00 | 00:00:00 | 00:00:00 | |
| DM0DOS-11 | 2026-09-04 23:30:05 | 50.82066 | 6.86955 | 81° | 170km/h | 9857m | -10.7m/s | -41.9°C | 7.2% | 282.3hPa | 3V | 00:00:00 | 01:53:31 | 00:00:00 | |
| DM0DOS-11 | 2026-09-04 23:29:58 | 50.82008 | 6.86284 | 82° | 162km/h | 9964m | -10.7m/s | -42.7°C | 7% | 277.9hPa | 3V | 00:00:00 | 01:53:21 | 00:00:00 | |
| BIOWL1-15 | 2026-09-04 23:29:56 | 50.82019 | 6.86416 | 82° | 166km/h | 9942m | -11m/s | -42.6°C | 7.1% | 278.8hPa | 3V | 00:00:00 | 00:00:00 | 00:00:00 | |
| DM0DOS-11 | 2026-09-04 23:29:48 | 50.81960 | 6.85640 | 84° | 161km/h | 10072m | -10.7m/s | -43.5°C | 6.7% | 273.5hPa | 3V | 00:00:00 | 01:53:11 | 00:00:00 | |
| BIOWL1-15 | 2026-09-04 23:29:43 | 50.81942 | 6.85319 | 85° | 161km/h | 10126m | -11m/s | -43.9°C | 6.8% | 271.4hPa | 3V | 00:00:00 | 00:00:00 | 00:00:00 | |
| DB0UT-7 | 2026-09-04 23:29:41 | 50.81952 | 6.85512 | 85° | 162km/h | 10093m | -10.9m/s | -43.6°C | 6.7% | 272.6hPa | 3V | 00:00:00 | 01:53:09 | 00:00:00 | |
| DM0DOS-11 | 2026-09-04 23:29:38 | 50.81923 | 6.84996 | 85° | 162km/h | 10180m | -11m/s | -44.3°C | 6.6% | 269.1hPa | 3V | 00:00:00 | 01:53:01 | 00:00:00 | |
| BIOWL1-15 | 2026-09-04 23:29:29 | 50.81908 | 6.84672 | 85° | 164km/h | 10236m | -10.7m/s | -44.8°C | 6.6% | 267hPa | 3V | 00:00:00 | 00:00:00 | 00:00:00 | |
| DM0DOS-11 | 2026-09-04 23:29:28 | 50.81892 | 6.84345 | 85° | 164km/h | 10290m | -11m/s | -45.2°C | 6.5% | 264.8hPa | 3V | 00:00:00 | 01:52:51 | 00:00:00 | |
| DM0DOS-11 | 2026-09-04 23:29:18 | 50.81863 | 6.83685 | 86° | 162km/h | 10401m | -11.1m/s | -46°C | 6.2% | 260.5hPa | 3V | 00:00:00 | 01:52:41 | 00:00:00 | |
| BIOWL1-15 | 2026-09-04 23:29:15 | 50.81853 | 6.83424 | 86° | 162km/h | 10445m | -11m/s | -46.4°C | 6.2% | 258.7hPa | 3V | 00:00:00 | 00:00:00 | 00:00:00 | |
| DM0DOS-11 | 2026-09-04 23:29:08 | 50.81837 | 6.83032 | 86° | 166km/h | 10512m | -11.1m/s | -47°C | 6% | 256.2hPa | 3.1V | 00:00:00 | 01:52:31 | 00:00:00 | |
| BIOWL1-15 | 2026-09-04 23:29:00 | 50.81821 | 6.82634 | 87° | 166km/h | 10579m | -11.3m/s | -47.6°C | 5.9% | 253.6hPa | 3.1V | 00:00:00 | 00:00:00 | 00:00:00 | |
| DM0DOS-11 | 2026-09-04 23:28:54 | 50.81811 | 6.82368 | 86° | 166km/h | 10624m | -11.1m/s | -48°C | 5.7% | 251.9hPa | 3.1V | 00:00:00 | 01:52:21 | 00:00:00 | |
| DM0DOS-11 | 2026-09-04 23:28:48 | 50.81791 | 6.81699 | 87° | 164km/h | 10735m | -11m/s | -48.9°C | 5.5% | 247.7hPa | 3.1V | 00:00:00 | 01:52:11 | 00:00:00 | |
| BIOWL1-15 | 2026-09-04 23:28:46 | 50.81795 | 6.81832 | 87° | 166km/h | 10713m | -11m/s | -48.7°C | 5.6% | 248.5hPa | 3.1V | 00:00:00 | 00:00:00 | 00:00:00 | |
| BIOWL1-15 | 2026-09-04 23:28:35 | 50.81769 | 6.81108 | 87° | 164km/h | 10834m | -11m/s | -49.4°C | 5.3% | 243.9hPa | 3.1V | 00:00:00 | 00:00:00 | 00:00:00 | |
| DM0DOS-11 | 2026-09-04 23:28:34 | 50.81767 | 6.81042 | 87° | 164km/h | 10845m | -11.2m/s | -49.5°C | 5.2% | 243.5hPa | 3.1V | 00:00:00 | 01:52:01 | 00:00:00 | |
| BIOWL1-15 | 2026-09-04 23:28:24 | 50.81740 | 6.80388 | 85° | 161km/h | 10956m | -11m/s | -50°C | 5% | 239.5hPa | 3.1V | 00:00:00 | 00:00:00 | 00:00:00 | |
| DM0DOS-11 | 2026-09-04 23:28:24 | 50.81740 | 6.80388 | 85° | 161km/h | 10956m | -11.1m/s | -50°C | 5% | 239.5hPa | 3.1V | 00:00:00 | 01:51:51 | 00:00:00 | |
| DM0DOS-11 | 2026-09-04 23:28:18 | 50.81697 | 6.79748 | 83° | 161km/h | 11068m | -11.2m/s | -51°C | 4.7% | 235.5hPa | 3.1V | 00:00:00 | 01:51:41 | 00:00:00 | |
| BIOWL1-15 | 2026-09-04 23:28:11 | 50.81683 | 6.79555 | 84° | 162km/h | 11101m | -12m/s | -51.3°C | 4.7% | 234.3hPa | 3.1V | 00:00:00 | 00:00:00 | 00:00:00 | |
| DM0DOS-11 | 2026-09-04 23:28:06 | 50.81651 | 6.79103 | 83° | 162km/h | 11182m | -11.4m/s | -52.1°C | 4.5% | 231.4hPa | 3.1V | 00:00:00 | 01:51:31 | 00:00:00 | |
| BIOWL1-15 | 2026-09-04 23:28:00 | 50.81611 | 6.78587 | 83° | 162km/h | 11273m | -12m/s | -52.9°C | 4.3% | 228.2hPa | 3.1V | 00:00:00 | 00:00:00 | 00:00:00 | |
| DM0DOS-11 | 2026-09-04 23:27:56 | 50.81601 | 6.78458 | 82° | 161km/h | 11296m | -11.6m/s | -53.1°C | 4.2% | 227.4hPa | 3.1V | 00:00:00 | 01:51:21 | 00:00:00 | |
| BIOWL1-15 | 2026-09-04 23:27:47 | 50.81554 | 6.77883 | 82° | 161km/h | 11401m | -11.5m/s | -53.6°C | 4% | 223.7hPa | 3.2V | 00:00:00 | 00:00:00 | 00:00:00 | |
| BIOWL1-15 | 2026-09-04 23:27:34 | 50.81459 | 6.76721 | 83° | 161km/h | 11613m | -12m/s | -55.1°C | 3.6% | 216.5hPa | 3.2V | 00:00:00 | 00:00:00 | 00:00:00 | |
| DM0DOS-11 | 2026-09-04 23:27:28 | 50.81444 | 6.76529 | 83° | 162km/h | 11649m | -12m/s | -55.4°C | 3.5% | 215.3hPa | 3.2V | 00:00:00 | 01:50:51 | 00:00:00 | |
| BIOWL1-15 | 2026-09-04 23:27:17 | 50.81410 | 6.76076 | 85° | 162km/h | 11733m | -12m/s | -56.1°C | 3.4% | 212.5hPa | 3.2V | 00:00:00 | 00:00:00 | 00:00:00 | |
| DM0DOS-11 | 2026-09-04 23:27:14 | 50.81398 | 6.75881 | 85° | 164km/h | 11770m | -12m/s | -56.2°C | 3.2% | 211.3hPa | 3.2V | 00:00:00 | 01:50:41 | 00:00:00 | |
| DB0UT-7 | 2026-09-04 23:27:11 | 50.81391 | 6.75750 | 85° | 168km/h | 11794m | -12.0m/s | -56.3°C | 3.2% | 210.5hPa | 3.2V | 00:00:00 | 00:00:00 | 00:00:00 | |
| DM0DOS-11 | 2026-09-04 23:27:08 | 50.81362 | 6.75223 | 84° | 166km/h | 11891m | -12.1m/s | -57.1°C | 3% | 207.4hPa | 3.2V | 00:00:00 | 01:50:31 | 00:00:00 | |
| BIOWL1-15 | 2026-09-04 23:27:07 | 50.81346 | 6.74958 | 85° | 166km/h | 11939m | -12.3m/s | -57.4°C | 3% | 205.8hPa | 3.2V | 00:00:00 | 00:00:00 | 00:00:00 | |
| NBG1-10 | 2026-09-04 23:27:00 | 50.81349 | 6.75025 | 85° | 124km/h | 11927m | -12.3m/s | -57.2°C | 3.0% | 206.1hPa | 3.2V | 00:00:00 | 01:50:28 | 00:00:00 | |
| DM0DOS-11 | 2026-09-04 23:26:54 | 50.81324 | 6.74557 | 85° | 172km/h | 12013m | -12.3m/s | -57.8°C | 2.8% | 203.4hPa | 3.2V | 00:00:00 | 01:50:21 | 00:00:00 | |
| BIOWL1-15 | 2026-09-04 23:26:48 | 50.81306 | 6.73728 | 90° | 173km/h | 12162m | -12.5m/s | -58.1°C | 2.6% | 198.7hPa | 3.2V | 00:00:00 | 00:00:00 | 00:00:00 | |
| DM0DOS-11 | 2026-09-04 23:26:48 | 50.81306 | 6.73867 | 90° | 172km/h | 12137m | -12.6m/s | -58.2°C | 2.5% | 199.5hPa | 3.2V | 00:00:00 | 01:50:11 | 00:00:00 | |
| DL1XH1-15 | 2026-09-04 23:26:42 | 50.81306 | 6.73728 | 90° | 164km/h | 12162m | -12.5m/s | -58.1°C | 2.5% | 198.7hPa | 3.2V | 00:00:00 | 01:50:09 | 00:00:00 | |
| BIOWL1-15 | 2026-09-04 23:26:36 | 50.81315 | 6.72992 | 91° | 161km/h | 12300m | -13m/s | -57°C | 2.4% | 194.5hPa | 3.3V | 00:00:00 | 00:00:00 | 00:00:00 | |
| DL1XH1-15 | 2026-09-04 23:26:35 | 50.81315 | 6.72862 | 88° | 162km/h | 12325m | -12.7m/s | -57°C | 2.3% | 193.7hPa | 3.3V | 00:00:00 | 01:49:56 | 00:00:00 | |
| DM0DOS-11 | 2026-09-04 23:26:34 | 50.81312 | 6.73187 | 91° | 162km/h | 12263m | -12.4m/s | -57.2°C | 2.3% | 195.6hPa | 3.3V | 00:00:00 | 01:50:01 | 00:00:00 | |
| DM0DOS-11 | 2026-09-04 23:26:29 | 50.81311 | 6.72540 | 88° | 162km/h | 12388m | -12.6m/s | -56.9°C | 2.2% | 191.8hPa | 3.3V | 00:00:00 | 01:49:51 | 00:00:00 | |
| BIOWL1-15 | 2026-09-04 23:26:21 | 50.81309 | 6.72345 | 88° | 164km/h | 12425m | -12.8m/s | -56.9°C | 2.3% | 190.7hPa | 3.3V | 00:00:00 | 00:00:00 | 00:00:00 | |
| BIOWL1-15 | 2026-09-04 23:26:11 | 50.81301 | 6.71696 | 90° | 153km/h | 12554m | -13m/s | -56.9°C | 2.2% | 186.9hPa | 3.3V | 00:00:00 | 00:00:00 | 00:00:00 | |
| DM0DOS-11 | 2026-09-04 23:26:06 | 50.81301 | 6.71269 | 89° | 153km/h | 12645m | -13m/s | -57°C | 2.2% | 184.3hPa | 3.3V | 00:00:00 | 01:49:31 | 00:00:00 | |
| BIOWL1-15 | 2026-09-04 23:26:00 | 50.81298 | 6.71023 | 89° | 157km/h | 12697m | -13m/s | -57.3°C | 2.1% | 182.8hPa | 3.3V | 00:00:00 | 00:00:00 | 00:00:00 | |
| DL1XH-west | 2026-09-04 23:25:57 | 50.81297 | 6.70834 | 0° | 0km/h | 12736m | 0m/s | -57.5°C | 2.1% | 181.7hPa | 3.3V | 00:00:00 | 00:00:00 | 00:00:00 | |
| BIOWL1-15 | 2026-09-04 23:25:48 | 50.81300 | 6.70294 | 92° | 142km/h | 12853m | -13m/s | -56.7°C | 2.1% | 178.4hPa | 3.3V | 00:00:00 | 00:00:00 | 00:00:00 | |
| DM0DOS-11 | 2026-09-04 23:25:46 | 50.81305 | 6.70066 | 93° | 139km/h | 12906m | -13.3m/s | -56°C | 2% | 176.9hPa | 3.3V | 00:00:00 | 01:49:11 | 00:00:00 | |
| DL1XH-west | 2026-09-04 23:25:45 | 50.81303 | 6.70123 | 0° | 0km/h | 12893m | 0m/s | -56.3°C | 2.1% | 177.3hPa | 3.3V | 00:00:00 | 00:00:00 | 00:00:00 | |
| BIOWL1-15 | 2026-09-04 23:25:37 | 50.81327 | 6.69677 | 96° | 135km/h | 12998m | -14m/s | -54.9°C | 2% | 174.4hPa | 3.3V | 00:00:00 | 00:00:00 | 00:00:00 | |
| DM0DOS-11 | 2026-09-04 23:25:36 | 50.81336 | 6.69517 | 94° | 128km/h | 13039m | -13.5m/s | -54.8°C | 2% | 173.3hPa | 3.3V | 00:00:00 | 01:49:01 | 00:00:00 | |
| DL1XH-west | 2026-09-04 23:25:34 | 50.81336 | 6.69517 | 0° | 0km/h | 13039m | 0m/s | -54.8°C | 2% | 173.3hPa | 3.3V | 00:00:00 | 00:00:00 | 00:00:00 | |
| BIOWL1-15 | 2026-09-04 23:25:26 | 50.81363 | 6.69014 | 94° | 122km/h | 13174m | -13m/s | -54.1°C | 2% | 169.7hPa | 3.3V | 00:00:00 | 00:00:00 | 00:00:00 | |
| DM0DOS-11 | 2026-09-04 23:25:26 | 50.81363 | 6.69014 | 94° | 120km/h | 13174m | -13.3m/s | -54.1°C | 2% | 169.7hPa | 3.3V | 00:00:00 | 01:48:51 | 00:00:00 | |
| DL1XH-west | 2026-09-04 23:25:23 | 50.81365 | 6.68965 | 0° | 0km/h | 13187m | 0m/s | -54.1°C | 2% | 169.4hPa | 3.3V | 00:00:00 | 00:00:00 | 00:00:00 | |
| DM0DOS-11 | 2026-09-04 23:25:16 | 50.81371 | 6.68533 | 87° | 124km/h | 13307m | -13.6m/s | -54.7°C | 2% | 166.2hPa | 3.4V | 00:00:00 | 01:48:41 | 00:00:00 | |
| BIOWL1-15 | 2026-09-04 23:25:14 | 50.81371 | 6.68533 | 88° | 122km/h | 13307m | -14m/s | -54.7°C | 2% | 166.2hPa | 3.4V | 00:00:00 | 00:00:00 | 00:00:00 | |
| DB0UT-7 | 2026-09-04 23:25:11 | 50.81369 | 6.68435 | 88° | 131km/h | 13334m | -13.6m/s | -54.8°C | 2.0% | 165.5hPa | 3.4V | 00:00:00 | 00:00:00 | 00:00:00 | |
| DM0DOS-11 | 2026-09-04 23:25:06 | 50.81356 | 6.68034 | 88° | 131km/h | 13443m | -13.7m/s | -55.4°C | 2% | 162.8hPa | 3.4V | 00:00:00 | 01:48:31 | 00:00:00 | |
| DL1XH-west | 2026-09-04 23:25:05 | 50.81357 | 6.68086 | 0° | 0km/h | 13429m | 0m/s | -55.4°C | 2% | 163.2hPa | 3.4V | 00:00:00 | 00:00:00 | 00:00:00 | |
| BIOWL1-15 | 2026-09-04 23:25:03 | 50.81353 | 6.67825 | 90° | 131km/h | 13498m | -13m/s | -55.4°C | 2% | 161.4hPa | 3.4V | 00:00:00 | 00:00:00 | 00:00:00 | |
| DL1XH1-15 | 2026-09-04 23:24:56 | 50.81356 | 6.67506 | 91° | 135km/h | 13579m | -14m/s | -55.2°C | 2% | 159.4hPa | 3.4V | 00:00:00 | 01:48:21 | 00:00:00 | |
| DL1XH-west | 2026-09-04 23:24:54 | 50.81356 | 6.67506 | 0° | 0km/h | 13579m | 0m/s | -55.2°C | 2% | 159.4hPa | 3.4V | 00:00:00 | 00:00:00 | 00:00:00 | |
| BIOWL1-15 | 2026-09-04 23:24:50 | 50.81359 | 6.67288 | 91° | 137km/h | 13635m | -14m/s | -55°C | 2% | 158hPa | 3.4V | 00:00:00 | 00:00:00 | 00:00:00 | |
| DM0DOS-11 | 2026-09-04 23:24:46 | 50.81359 | 6.66964 | 88° | 130km/h | 13718m | -13.9m/s | -55.2°C | 2% | 156hPa | 3.4V | 00:00:00 | 01:48:11 | 00:00:00 | |
| DL1XH-west | 2026-09-04 23:24:44 | 50.81359 | 6.66964 | 0° | 0km/h | 13718m | 0m/s | -55.2°C | 2% | 156hPa | 3.4V | 00:00:00 | 00:00:00 | 00:00:00 | |
| BIOWL1-15 | 2026-09-04 23:24:39 | 50.81348 | 6.66652 | 84° | 130km/h | 13801m | -14m/s | -55.5°C | 2% | 154hPa | 3.4V | 00:00:00 | 00:00:00 | 00:00:00 | |
| DM0DOS-11 | 2026-09-04 23:24:36 | 50.81335 | 6.66446 | 84° | 128km/h | 13857m | -14.3m/s | -55.2°C | 1.9% | 152.7hPa | 3.4V | 00:00:00 | 01:48:01 | 00:00:00 | |
| DL1XH-west | 2026-09-04 23:24:33 | 50.81332 | 6.66393 | 0° | 0km/h | 13871m | 0m/s | -55.1°C | 1.9% | 152.3hPa | 3.4V | 00:00:00 | 00:00:00 | 00:00:00 | |
| DM0DOS-11 | 2026-09-04 23:24:27 | 50.81309 | 6.65939 | 83° | 122km/h | 14000m | -14m/s | -55.3°C | 1.9% | 149.4hPa | 3.4V | 00:00:00 | 01:47:51 | 00:00:00 | |
| BIOWL1-15 | 2026-09-04 23:24:26 | 50.81305 | 6.65890 | 84° | 122km/h | 14014m | -14m/s | -55.3°C | 1.9% | 149.1hPa | 3.4V | 00:00:00 | 00:00:00 | 00:00:00 | |
| DL1XH-west | 2026-09-04 23:24:22 | 50.81302 | 6.65841 | 0° | 0km/h | 14028m | 0m/s | -55.3°C | 1.9% | 148.7hPa | 3.4V | 00:00:00 | 00:00:00 | 00:00:00 | |
| DL1XH1-15 | 2026-09-04 23:24:16 | 50.81284 | 6.65452 | 86° | 124km/h | 14141m | -14.2m/s | -55.7°C | 1.9% | 146.1hPa | 3.4V | 00:00:00 | 01:47:41 | 00:00:00 | |
| BIOWL1-15 | 2026-09-04 23:24:14 | 50.81279 | 6.65304 | 87° | 126km/h | 14184m | -14m/s | -56°C | 1.9% | 145.2hPa | 3.4V | 00:00:00 | 00:00:00 | 00:00:00 | |
| DB0UT-7 | 2026-09-04 23:24:11 | 50.81280 | 6.65353 | 88° | 119km/h | 14169m | -14.3m/s | -55.9°C | 1.9% | 145.4hPa | 3.4V | 00:00:00 | 00:00:00 | 00:00:00 | |
| DM0DOS-11 | 2026-09-04 23:24:08 | 50.81280 | 6.64952 | 93° | 124km/h | 14283m | -14.5m/s | -55.6°C | 1.9% | 142.9hPa | 3.4V | 00:00:00 | 01:47:31 | 00:00:00 | |
| DL1XH1-15 | 2026-09-04 23:24:02 | 50.81284 | 6.64852 | 94° | 124km/h | 14312m | -14.4m/s | -55.6°C | 1.9% | 142.3hPa | 3.4V | 00:00:00 | 01:47:29 | 00:00:00 | |
| BIOWL1-15 | 2026-09-04 23:24:01 | 50.81286 | 6.64802 | 95° | 124km/h | 14326m | -15m/s | -55.6°C | 1.9% | 142hPa | 3.4V | 00:00:00 | 00:00:00 | 00:00:00 | |
| DL1XH1-15 | 2026-09-04 23:23:56 | 50.81321 | 6.64359 | 99° | 113km/h | 14457m | -14.7m/s | -55.2°C | 1.9% | 139.1hPa | 3.4V | 00:00:00 | 01:47:19 | 00:00:00 | |
| DL1XH-west | 2026-09-04 23:23:54 | 50.81312 | 6.64455 | 0° | 0km/h | 14428m | 0m/s | -55.4°C | 1.9% | 139.8hPa | 3.4V | 00:00:00 | 00:00:00 | 00:00:00 | |
| BIOWL1-15 | 2026-09-04 23:23:49 | 50.81367 | 6.63915 | 98° | 104km/h | 14604m | -15m/s | -54.7°C | 1.8% | 136hPa | 3.4V | 00:00:00 | 00:00:00 | 00:00:00 | |
| DM0DOS-11 | 2026-09-04 23:23:48 | 50.81358 | 6.64001 | 100° | 106km/h | 14575m | -14.7m/s | -54.7°C | 1.7% | 136.6hPa | 3.4V | 00:00:00 | 01:47:11 | 00:00:00 | |
| DL1XH1-15 | 2026-09-04 23:23:43 | 50.81367 | 6.63915 | 98° | 102km/h | 14604m | -14.9m/s | -54.7°C | 1.7% | 136hPa | 3.4V | 00:00:00 | 01:47:09 | 00:00:00 | |
| DB0UT-7 | 2026-09-04 23:23:42 | 50.81367 | 6.63915 | 99° | 100km/h | 14604m | -14.9m/s | -54.7°C | 1.7% | 135.9hPa | 3.5V | 00:00:00 | 01:47:09 | 00:00:00 | |
| DM0DOS-11 | 2026-09-04 23:23:38 | 50.81389 | 6.63585 | 93° | 102km/h | 14723m | -14.8m/s | -54.8°C | 1.7% | 133.5hPa | 3.5V | 00:00:00 | 01:47:01 | 00:00:00 | |
| DL1XH-west | 2026-09-04 23:23:37 | 50.81383 | 6.63710 | 0° | 0km/h | 14678m | 0m/s | -54.8°C | 1.8% | 134.5hPa | 3.5V | 00:00:00 | 00:00:00 | 00:00:00 | |
| BIOWL1-15 | 2026-09-04 23:23:36 | 50.81389 | 6.63585 | 93° | 102km/h | 14723m | -14.7m/s | -54.8°C | 1.8% | 133.5hPa | 3.5V | 00:00:00 | 00:00:00 | 00:00:00 | |
| DL1XH1-15 | 2026-09-04 23:23:36 | 50.81392 | 6.63502 | 92° | 100km/h | 14752m | -15m/s | -54.7°C | 1.7% | 132.9hPa | 3.5V | 00:00:00 | 01:46:59 | 00:00:00 | |
| DM0DOS-11 | 2026-09-04 23:23:28 | 50.81385 | 6.63185 | 83° | 99km/h | 14872m | -15m/s | -54.2°C | 1.7% | 130.5hPa | 3.5V | 00:00:00 | 01:46:51 | 00:00:00 | |
| BIOWL1-15 | 2026-09-04 23:23:26 | 50.81390 | 6.63263 | 84° | 99km/h | 14842m | -15m/s | -54.1°C | 1.8% | 131.1hPa | 3.5V | 00:00:00 | 00:00:00 | 00:00:00 | |
| DL1XH1-15 | 2026-09-04 23:23:22 | 50.81379 | 6.63107 | 82° | 99km/h | 14902m | -15.1m/s | -54.4°C | 1.7% | 129.9hPa | 3.5V | 00:00:00 | 01:46:49 | 00:00:00 | |
| BIOWL1-15 | 2026-09-04 23:23:20 | 50.81356 | 6.62875 | 79° | 100km/h | 14992m | -16m/s | -55°C | 1.8% | 128.1hPa | 3.5V | 00:00:00 | 00:00:00 | 00:00:00 | |
| DM0DOS-11 | 2026-09-04 23:23:18 | 50.81346 | 6.62795 | 79° | 104km/h | 15023m | -15.3m/s | -55.2°C | 1.7% | 127.5hPa | 3.5V | 00:00:00 | 01:46:41 | 00:00:00 | |
| DL1XH-west | 2026-09-04 23:23:14 | 50.81346 | 6.62795 | 0° | 0km/h | 15023m | 0m/s | -55.2°C | 1.8% | 127.5hPa | 3.5V | 00:00:00 | 00:00:00 | 00:00:00 | |
| DB0UT-7 | 2026-09-04 23:23:11 | 50.81336 | 6.62714 | 81° | 100km/h | 15053m | -15.4m/s | -55.4°C | 1.7% | 126.8hPa | 3.5V | 00:00:00 | 00:00:00 | 00:00:00 | |
| DM0DOS-11 | 2026-09-04 23:23:07 | 50.81297 | 6.62332 | 81° | 106km/h | 15191m | -15.2m/s | -56°C | 1.7% | 124.2hPa | 3.5V | 00:00:00 | 01:46:30 | 00:00:00 | |
| BIOWL1-15 | 2026-09-04 23:23:06 | 50.81292 | 6.62288 | 81° | 110km/h | 15206m | -15m/s | -56°C | 1.8% | 124hPa | 3.5V | 00:00:00 | 00:00:00 | 00:00:00 | |
| DL1XH1-15 | 2026-09-04 23:23:02 | 50.81292 | 6.62288 | 81° | 104km/h | 15206m | -15.3m/s | -56°C | 1.7% | 124hPa | 3.5V | 00:00:00 | 01:46:29 | 00:00:00 | |
| DL1XH-west | 2026-09-04 23:23:00 | 50.81284 | 6.62202 | 0° | 0km/h | 15237m | 0m/s | -55.7°C | 1.8% | 123.4hPa | 3.5V | 00:00:00 | 00:00:00 | 00:00:00 | |
| DM0DOS-11 | 2026-09-04 23:22:57 | 50.81266 | 6.61915 | 85° | 93km/h | 15344m | -15.5m/s | -55.5°C | 1.7% | 121.3hPa | 3.5V | 00:00:00 | 01:46:20 | 00:00:00 | |
| DL1XH1-15 | 2026-09-04 23:22:56 | 50.81264 | 6.61878 | 83° | 93km/h | 15360m | -15.4m/s | -55.6°C | 1.7% | 121hPa | 3.5V | 00:00:00 | 01:46:19 | 00:00:00 | |
| BIOWL1-15 | 2026-09-04 23:22:55 | 50.81270 | 6.61992 | 86° | 99km/h | 15313m | -16m/s | -55.5°C | 1.8% | 121.9hPa | 3.5V | 00:00:00 | 00:00:00 | 00:00:00 | |
| DL1XH-west | 2026-09-04 23:22:48 | 50.81255 | 6.61732 | 0° | 0km/h | 15421m | 0m/s | -55.3°C | 1.8% | 119.9hPa | 3.5V | 00:00:00 | 00:00:00 | 00:00:00 | |
| DM0DOS-11 | 2026-09-04 23:22:47 | 50.81245 | 6.61546 | 85° | 97km/h | 15499m | -15.5m/s | -55.5°C | 1.7% | 118.5hPa | 3.5V | 00:00:00 | 01:46:10 | 00:00:00 | |
| BIOWL1-15 | 2026-09-04 23:22:44 | 50.81243 | 6.61509 | 85° | 95km/h | 15514m | -16m/s | -55.6°C | 1.8% | 118.2hPa | 3.5V | 00:00:00 | 00:00:00 | 00:00:00 | |
| DL1XH1-15 | 2026-09-04 23:22:42 | 50.81241 | 6.61471 | 83° | 99km/h | 15530m | -15.6m/s | -55.7°C | 1.7% | 117.9hPa | 3.5V | 00:00:00 | 01:46:08 | 00:00:00 | |
| DL1XH-west | 2026-09-04 23:22:38 | 50.81232 | 6.61355 | 0° | 0km/h | 15577m | 0m/s | -55.9°C | 1.8% | 117.1hPa | 3.5V | 00:00:00 | 00:00:00 | 00:00:00 | |
| DM0DOS-11 | 2026-09-04 23:22:37 | 50.81222 | 6.61151 | 87° | 100km/h | 15656m | -15.7m/s | -55.6°C | 1.7% | 115.6hPa | 3.5V | 00:00:00 | 01:46:00 | 00:00:00 | |
| DL1XH1-15 | 2026-09-04 23:22:35 | 50.81221 | 6.61068 | 90° | 95km/h | 15687m | -15.8m/s | -55.3°C | 1.7% | 115.1hPa | 3.5V | 00:00:00 | 01:45:58 | 00:00:00 | |
| BIOWL1-15 | 2026-09-04 23:22:32 | 50.81221 | 6.61110 | 90° | 104km/h | 15671m | -16m/s | -55.5°C | 1.8% | 115.4hPa | 3.5V | 00:00:00 | 00:00:00 | 00:00:00 | |
| DM0DOS-11 | 2026-09-04 23:22:27 | 50.81224 | 6.60757 | 90° | 88km/h | 15813m | -16.1m/s | -55.3°C | 1.7% | 112.9hPa | 3.5V | 00:00:00 | 01:45:50 | 00:00:00 | |
| DL1XH-west | 2026-09-04 23:22:27 | 50.81223 | 6.60905 | 0° | 0km/h | 15751m | 0m/s | -55.2°C | 1.8% | 114hPa | 3.5V | 00:00:00 | 00:00:00 | 00:00:00 | |
| BIOWL1-15 | 2026-09-04 23:22:20 | 50.81224 | 6.60546 | 91° | 89km/h | 15910m | -16m/s | -55°C | 1.8% | 111.2hPa | 3.5V | 00:00:00 | 00:00:00 | 00:00:00 | |
| DM0DOS-11 | 2026-09-04 23:22:13 | 50.81227 | 6.60405 | 94° | 80km/h | 15974m | -16.2m/s | -54.9°C | 1.7% | 110.1hPa | 3.5V | 00:00:00 | 01:45:40 | 00:00:00 | |
| DL1XH1-15 | 2026-09-04 23:22:13 | 50.81232 | 6.60275 | 93° | 75km/h | 16039m | -16.3m/s | -54.7°C | 1.6% | 109hPa | 3.5V | 00:00:00 | 01:45:36 | 00:00:00 | |
| DB0UT-7 | 2026-09-04 23:22:11 | 50.81229 | 6.60371 | 93° | 73km/h | 15990m | -16.3m/s | -54.8°C | 1.6% | 109.8hPa | 3.5V | 00:00:00 | 00:00:00 | 00:00:00 | |
| DM0DOS-11 | 2026-09-04 23:22:07 | 50.81237 | 6.60092 | 87° | 71km/h | 16137m | -16.6m/s | -54.3°C | 1.6% | 107.4hPa | 3.5V | 00:00:00 | 01:45:30 | 00:00:00 | |
| BIOWL1-15 | 2026-09-04 23:22:03 | 50.81237 | 6.60092 | 87° | 73km/h | 16137m | -16.5m/s | -54.3°C | 1.7% | 107.4hPa | 3.5V | 00:00:00 | 00:00:00 | 00:00:00 | |
| DM0DOS-11 | 2026-09-04 23:21:57 | 50.81213 | 6.59812 | 76° | 69km/h | 16303m | -17.1m/s | -54.6°C | 1.6% | 104.7hPa | 3.6V | 00:00:00 | 01:45:20 | 00:00:00 | |
| DL1XH-west | 2026-09-04 23:21:55 | 50.81221 | 6.59865 | 0° | 0km/h | 16269m | 0m/s | -54.8°C | 1.7% | 105.2hPa | 3.6V | 00:00:00 | 00:00:00 | 00:00:00 | |
| BIOWL1-15 | 2026-09-04 23:21:55 | 50.81213 | 6.59812 | 77° | 66km/h | 16303m | -17m/s | -54.6°C | 1.7% | 104.7hPa | 3.6V | 00:00:00 | 00:00:00 | 00:00:00 | |
| DL1XH1-15 | 2026-09-04 23:21:48 | 50.81190 | 6.59680 | 73° | 73km/h | 16388m | -17.3m/s | -54.6°C | 1.6% | 103.3hPa | 3.6V | 00:00:00 | 01:45:15 | 00:00:00 | |
| DM0DOS-11 | 2026-09-04 23:21:47 | 50.81169 | 6.59538 | 78° | 77km/h | 16474m | -17.2m/s | -54.8°C | 1.6% | 101.9hPa | 3.6V | 00:00:00 | 01:45:10 | 00:00:00 | |
| BIOWL1-15 | 2026-09-04 23:21:42 | 50.81165 | 6.59508 | 81° | 77km/h | 16491m | -17.2m/s | -54.8°C | 1.7% | 101.7hPa | 3.6V | 00:00:00 | 00:00:00 | 00:00:00 | |
| DL1XH1-15 | 2026-09-04 23:21:42 | 50.81153 | 6.59387 | 84° | 77km/h | 16560m | -17.4m/s | -54.5°C | 1.6% | 100.7hPa | 3.6V | 00:00:00 | 01:45:05 | 00:00:00 | |
| DL1XH-west | 2026-09-04 23:21:41 | 50.81162 | 6.59478 | 0° | 0km/h | 16508m | 0m/s | -54.8°C | 1.7% | 101.4hPa | 3.6V | 00:00:00 | 00:00:00 | 00:00:00 | |
| DM0DOS-11 | 2026-09-04 23:21:37 | 50.81143 | 6.59205 | 80° | 75km/h | 16664m | -17.6m/s | -54.4°C | 1.6% | 99.1hPa | 3.6V | 00:00:00 | 01:44:59 | 00:00:00 | |
| DL1XH-west | 2026-09-04 23:21:29 | 50.81134 | 6.59117 | 0° | 0km/h | 16717m | 0m/s | -54.5°C | 1.7% | 98.3hPa | 3.6V | 00:00:00 | 00:00:00 | 00:00:00 | |
| DL1XH1-15 | 2026-09-04 23:21:29 | 50.81131 | 6.59086 | 83° | 77km/h | 16734m | -17.5m/s | -54.5°C | 1.6% | 98hPa | 3.6V | 00:00:00 | 01:44:55 | 00:00:00 | |
| DM0DOS-11 | 2026-09-04 23:21:26 | 50.81125 | 6.58899 | 91° | 71km/h | 16839m | -17.6m/s | -54.4°C | 1.6% | 96.4hPa | 3.6V | 00:00:00 | 01:44:49 | 00:00:00 | |
| DL1XH1-15 | 2026-09-04 23:21:23 | 50.81124 | 6.58783 | 86° | 71km/h | 16909m | -17.7m/s | -54°C | 1.6% | 95.4hPa | 3.6V | 00:00:00 | 01:44:45 | 00:00:00 | |
| DL1XH-west | 2026-09-04 23:21:19 | 50.81125 | 6.58811 | 0° | 0km/h | 16892m | 0m/s | -54°C | 1.7% | 95.7hPa | 3.6V | 00:00:00 | 00:00:00 | 00:00:00 | |
| DM0DOS-11 | 2026-09-04 23:21:16 | 50.81112 | 6.58615 | 82° | 71km/h | 17015m | -18m/s | -54.4°C | 1.6% | 93.9hPa | 3.6V | 00:00:00 | 01:44:39 | 00:00:00 | |
| DL1XH1-15 | 2026-09-04 23:21:12 | 50.81100 | 6.58502 | 77° | 73km/h | 17087m | -17.9m/s | -54.6°C | 1.6% | 92.8hPa | 3.6V | 00:00:00 | 01:44:35 | 00:00:00 | |
| DL1XH-west | 2026-09-04 23:21:09 | 50.81104 | 6.58530 | 0° | 0km/h | 17070m | 0m/s | -54.5°C | 1.7% | 93.1hPa | 3.6V | 00:00:00 | 00:00:00 | 00:00:00 | |
| DM0DOS-11 | 2026-09-04 23:21:06 | 50.81073 | 6.58333 | 79° | 77km/h | 17194m | -18.2m/s | -54.6°C | 1.6% | 91.3hPa | 3.6V | 00:00:00 | 01:44:29 | 00:00:00 | |
| DL1XH1-15 | 2026-09-04 23:21:02 | 50.81063 | 6.58213 | 85° | 77km/h | 17266m | -18.5m/s | -54.3°C | 1.6% | 90.3hPa | 3.6V | 00:00:00 | 01:44:25 | 00:00:00 | |
| DL1XH-west | 2026-09-04 23:20:59 | 50.81065 | 6.58244 | 0° | 0km/h | 17248m | 0m/s | -54.4°C | 1.7% | 90.6hPa | 3.6V | 00:00:00 | 00:00:00 | 00:00:00 | |
| BIOWL1-15 | 2026-09-04 23:20:58 | 50.81063 | 6.58213 | 86° | 77km/h | 17266m | -19m/s | -54.3°C | 1.7% | 90.3hPa | 3.6V | 00:00:00 | 00:00:00 | 00:00:00 | |
| DM0DOS-11 | 2026-09-04 23:20:56 | 50.81055 | 6.58025 | 90° | 73km/h | 17377m | -18.6m/s | -54.5°C | 1.6% | 88.8hPa | 3.6V | 00:00:00 | 01:44:19 | 00:00:00 | |
| DL1XH1-15 | 2026-09-04 23:20:52 | 50.81058 | 6.57904 | 93° | 66km/h | 17451m | -18.7m/s | -54.5°C | 1.6% | 87.8hPa | 3.6V | 00:00:00 | 01:44:15 | 00:00:00 | |
| DL1XH-west | 2026-09-04 23:20:47 | 50.81059 | 6.57875 | 0° | 0km/h | 17470m | 0m/s | -54.4°C | 1.7% | 87.6hPa | 3.6V | 00:00:00 | 00:00:00 | 00:00:00 | |
| DM0DOS-11 | 2026-09-04 23:20:46 | 50.81072 | 6.57746 | 104° | 57km/h | 17563m | -18.9m/s | -53.7°C | 1.6% | 86.3hPa | 3.6V | 00:00:00 | 01:44:09 | 00:00:00 | |
| BIOWL1-15 | 2026-09-04 23:20:46 | 50.81060 | 6.57848 | 98° | 68km/h | 17488m | -19m/s | -54.3°C | 1.7% | 87.3hPa | 3.6V | 00:00:00 | 00:00:00 | 00:00:00 | |
| DB0UT-7 | 2026-09-04 23:20:41 | 50.81072 | 6.57746 | 105° | 53km/h | 17563m | -18.8m/s | -53.6°C | 1.6% | 86.3hPa | 3.6V | 00:00:00 | 01:44:09 | 00:00:00 | |
| DL1XH1-15 | 2026-09-04 23:20:38 | 50.81084 | 6.57656 | 101° | 51km/h | 17638m | -19m/s | -53.5°C | 1.6% | 85.4hPa | 3.6V | 00:00:00 | 01:44:05 | 00:00:00 | |
| DL1XH-west | 2026-09-04 23:20:37 | 50.81087 | 6.57635 | 0° | 0km/h | 17657m | 0m/s | -53.5°C | 1.7% | 85.1hPa | 3.6V | 00:00:00 | 00:00:00 | 00:00:00 | |
| DM0DOS-11 | 2026-09-04 23:20:36 | 50.81093 | 6.57535 | 90° | 49km/h | 17752m | -19.1m/s | -53.7°C | 1.6% | 83.9hPa | 3.6V | 00:00:00 | 01:43:59 | 00:00:00 | |
| DL1XH1-15 | 2026-09-04 23:20:32 | 50.81092 | 6.57458 | 84° | 53km/h | 17828m | -19.2m/s | -53.8°C | 1.6% | 82.9hPa | 3.6V | 00:00:00 | 01:43:55 | 00:00:00 | |
| BIOWL1-15 | 2026-09-04 23:20:32 | 50.81093 | 6.57535 | 90° | 47km/h | 17752m | -19m/s | -53.7°C | 1.7% | 83.9hPa | 3.6V | 00:00:00 | 00:00:00 | 00:00:00 | |
| DL1XH-west | 2026-09-04 23:20:26 | 50.81090 | 6.57416 | 0° | 0km/h | 17866m | 0m/s | -53.9°C | 1.7% | 82.5hPa | 3.6V | 00:00:00 | 00:00:00 | 00:00:00 | |
| BIOWL1-15 | 2026-09-04 23:20:22 | 50.81084 | 6.57328 | 83° | 58km/h | 17943m | -19.5m/s | -54°C | 1.7% | 81.5hPa | 3.6V | 00:00:00 | 00:00:00 | 00:00:00 | |
| DL1XH1-15 | 2026-09-04 23:20:18 | 50.81077 | 6.57235 | 82° | 55km/h | 18020m | -19.5m/s | -54°C | 1.6% | 80.5hPa | 3.6V | 00:00:00 | 01:43:45 | 00:00:00 | |
| DL1XH1-15 | 2026-09-04 23:20:12 | 50.81065 | 6.57030 | 84° | 42km/h | 18214m | -19.7m/s | -54.2°C | 1.6% | 78.2hPa | 3.6V | 00:00:00 | 01:43:35 | 00:00:00 | |
| BIOWL1-15 | 2026-09-04 23:20:10 | 50.81065 | 6.57030 | 83° | 44km/h | 18214m | -20m/s | -54.3°C | 1.7% | 78.2hPa | 3.6V | 00:00:00 | 00:00:00 | 00:00:00 | |
| DM0DOS-11 | 2026-09-04 23:20:06 | 50.81054 | 6.56933 | 74° | 42km/h | 18332m | -19.7m/s | -54.6°C | 1.7% | 76.8hPa | 3.6V | 00:00:00 | 01:43:29 | 00:00:00 | |
| DL1XH-west | 2026-09-04 23:20:05 | 50.81060 | 6.56979 | 0° | 0km/h | 18273m | 0m/s | -54.6°C | 1.7% | 77.5hPa | 3.6V | 00:00:00 | 00:00:00 | 00:00:00 | |
| BIOWL1-15 | 2026-09-04 23:19:59 | 50.81039 | 6.56853 | 77° | 46km/h | 18431m | -19m/s | -54.4°C | 1.8% | 75.7hPa | 3.6V | 00:00:00 | 00:00:00 | 00:00:00 | |
| DL1XH1-15 | 2026-09-04 23:19:58 | 50.81042 | 6.56870 | 74° | 47km/h | 18411m | -19.9m/s | -54.4°C | 1.7% | 75.9hPa | 3.6V | 00:00:00 | 01:43:25 | 00:00:00 | |
| DL1XH-west | 2026-09-04 23:19:55 | 50.81033 | 6.56817 | 0° | 0km/h | 18470m | 0m/s | -54.6°C | 1.8% | 75.2hPa | 3.6V | 00:00:00 | 00:00:00 | 00:00:00 | |
| DL1XH1-15 | 2026-09-04 23:19:52 | 50.81013 | 6.56681 | 78° | 55km/h | 18611m | -20.5m/s | -55.5°C | 1.7% | 73.6hPa | 3.6V | 00:00:00 | 01:43:15 | 00:00:00 | |
| BIOWL1-15 | 2026-09-04 23:19:47 | 50.81011 | 6.56659 | 82° | 57km/h | 18632m | -20.2m/s | -55.5°C | 1.8% | 73.4hPa | 3.6V | 00:00:00 | 00:00:00 | 00:00:00 | |
| DM0DOS-11 | 2026-09-04 23:19:46 | 50.81002 | 6.56547 | 85° | 53km/h | 18733m | -20.4m/s | -55.8°C | 1.7% | 72.2hPa | 3.6V | 00:00:00 | 01:43:09 | 00:00:00 | |
| DL1XH1-15 | 2026-09-04 23:19:41 | 50.80996 | 6.56441 | 85° | 51km/h | 18835m | -20.9m/s | -55.9°C | 1.7% | 71.1hPa | 3.6V | 00:00:00 | 01:43:04 | 00:00:00 | |
| DM0DOS-11 | 2026-09-04 23:19:36 | 50.80996 | 6.56340 | 93° | 49km/h | 18939m | -20.9m/s | -56.2°C | 1.7% | 70hPa | 3.6V | 00:00:00 | 01:42:59 | 00:00:00 | |
| DL1XH-west | 2026-09-04 23:19:35 | 50.80994 | 6.56400 | 0° | 0km/h | 18877m | 0m/s | -56°C | 1.8% | 70.7hPa | 3.6V | 00:00:00 | 00:00:00 | 00:00:00 | |
| BIOWL1-15 | 2026-09-04 23:19:33 | 50.80998 | 6.56301 | 90° | 49km/h | 18981m | -20.7m/s | -56.2°C | 1.8% | 69.6hPa | 3.6V | 00:00:00 | 00:00:00 | 00:00:00 | |
| DL1XH1-15 | 2026-09-04 23:19:31 | 50.80998 | 6.56241 | 86° | 51km/h | 19043m | -20.9m/s | -56.1°C | 1.7% | 68.9hPa | 3.7V | 00:00:00 | 01:42:54 | 00:00:00 | |
| DM0DOS-11 | 2026-09-04 23:19:26 | 50.80997 | 6.56138 | 91° | 49km/h | 19147m | -21.1m/s | -55.2°C | 1.7% | 67.8hPa | 3.7V | 00:00:00 | 01:42:49 | 00:00:00 | |
| BIOWL1-15 | 2026-09-04 23:19:25 | 50.80997 | 6.56158 | 90° | 51km/h | 19126m | -21m/s | -55.5°C | 1.7% | 68hPa | 3.7V | 00:00:00 | 00:00:00 | 00:00:00 | |
| DL1XH-west | 2026-09-04 23:19:24 | 50.80997 | 6.56179 | 0° | 0km/h | 19105m | 0m/s | -55.8°C | 1.7% | 68.2hPa | 3.7V | 00:00:00 | 00:00:00 | 00:00:00 | |
| DL1XH1-15 | 2026-09-04 23:19:21 | 50.80999 | 6.56037 | 96° | 42km/h | 19253m | -21.1m/s | -54.8°C | 1.6% | 66.7hPa | 3.7V | 00:00:00 | 01:42:44 | 00:00:00 | |
| DM0DOS-11 | 2026-09-04 23:19:16 | 50.81006 | 6.55950 | 96° | 38km/h | 19358m | -21.5m/s | -54.9°C | 1.6% | 65.7hPa | 3.7V | 00:00:00 | 01:42:39 | 00:00:00 | |
| BIOWL1-15 | 2026-09-04 23:19:12 | 50.81008 | 6.55891 | 85° | 37km/h | 19444m | -21m/s | -54.4°C | 1.7% | 64.8hPa | 3.7V | 00:00:00 | 00:00:00 | 00:00:00 | |
| DL1XH1-15 | 2026-09-04 23:19:11 | 50.81007 | 6.55876 | 82° | 42km/h | 19465m | -21.9m/s | -54.4°C | 1.6% | 64.6hPa | 3.7V | 00:00:00 | 01:42:34 | 00:00:00 | |
| DM0DOS-11 | 2026-09-04 23:19:06 | 50.81001 | 6.55796 | 84° | 49km/h | 19575m | -21.8m/s | -54.9°C | 1.6% | 63.5hPa | 3.7V | 00:00:00 | 01:42:29 | 00:00:00 | |
| DL1XH-west | 2026-09-04 23:19:03 | 50.81001 | 6.55796 | 0° | 0km/h | 19575m | 0m/s | -54.9°C | 1.7% | 63.5hPa | 3.7V | 00:00:00 | 00:00:00 | 00:00:00 | |
| DL1XH1-15 | 2026-09-04 23:19:01 | 50.81002 | 6.55697 | 100° | 49km/h | 19684m | -22.2m/s | -54.5°C | 1.6% | 62.5hPa | 3.7V | 00:00:00 | 01:42:24 | 00:00:00 | |
| BIOWL1-15 | 2026-09-04 23:18:59 | 50.80999 | 6.55738 | 93° | 51km/h | 19640m | -22m/s | -54.7°C | 1.7% | 62.9hPa | 3.7V | 00:00:00 | 00:00:00 | 00:00:00 | |
| DM0DOS-11 | 2026-09-04 23:18:56 | 50.81020 | 6.55598 | 111° | 46km/h | 19795m | -22m/s | -54.8°C | 1.6% | 61.5hPa | 3.7V | 00:00:00 | 01:42:19 | 00:00:00 | |
| DL1XH-west | 2026-09-04 23:18:51 | 50.81024 | 6.55580 | 0° | 0km/h | 19816m | 0m/s | -54.8°C | 1.7% | 61.2hPa | 3.7V | 00:00:00 | 00:00:00 | 00:00:00 | |
| DL1XH1-15 | 2026-09-04 23:18:51 | 50.81039 | 6.55512 | 100° | 38km/h | 19905m | -22.4m/s | -54.6°C | 1.6% | 60.4hPa | 3.7V | 00:00:00 | 01:42:14 | 00:00:00 | |
| BIOWL1-15 | 2026-09-04 23:18:48 | 50.81036 | 6.55528 | 101° | 40km/h | 19883m | -22.3m/s | -54.7°C | 1.7% | 60.6hPa | 3.7V | 00:00:00 | 00:00:00 | 00:00:00 | |
| DM0DOS-11 | 2026-09-04 23:18:46 | 50.81042 | 6.55431 | 90° | 35km/h | 20016m | -22.7m/s | -54°C | 1.6% | 59.4hPa | 3.7V | 00:00:00 | 01:42:09 | 00:00:00 | |
| DL1XH-west | 2026-09-04 23:18:41 | 50.81042 | 6.55415 | 0° | 0km/h | 20039m | 0m/s | -54°C | 1.7% | 59.2hPa | 3.7V | 00:00:00 | 00:00:00 | 00:00:00 | |
| DL1XH1-15 | 2026-09-04 23:18:41 | 50.81046 | 6.55356 | 99° | 27km/h | 20129m | -22.8m/s | -53.5°C | 1.6% | 58.4hPa | 3.7V | 00:00:00 | 01:42:04 | 00:00:00 | |
| BIOWL1-15 | 2026-09-04 23:18:39 | 50.81046 | 6.55356 | 100° | 27km/h | 20129m | -22m/s | -53.5°C | 1.7% | 58.4hPa | 3.7V | 00:00:00 | 00:00:00 | 00:00:00 | |
| DM0DOS-11 | 2026-09-04 23:18:36 | 50.81046 | 6.55310 | 71° | 29km/h | 20242m | -23.1m/s | -53.1°C | 1.6% | 57.4hPa | 3.7V | 00:00:00 | 01:41:59 | 00:00:00 | |
| DL1XH1-15 | 2026-09-04 23:18:31 | 50.81036 | 6.55255 | 75° | 35km/h | 20358m | -23.2m/s | -53°C | 1.6% | 56.4hPa | 3.7V | 00:00:00 | 01:41:54 | 00:00:00 | |
| DM0DOS-11 | 2026-09-04 23:18:24 | 50.81026 | 6.55183 | 85° | 31km/h | 20474m | -23.4m/s | -52.7°C | 1.6% | 55.5hPa | 3.7V | 00:00:00 | 01:41:49 | 00:00:00 | |
| BIOWL1-15 | 2026-09-04 23:18:24 | 50.81030 | 6.55212 | 81° | 37km/h | 20428m | -23m/s | -52.9°C | 1.7% | 55.9hPa | 3.7V | 00:00:00 | 00:00:00 | 00:00:00 | |
| DL1XH1-15 | 2026-09-04 23:18:21 | 50.81021 | 6.55122 | 70° | 31km/h | 20590m | -23.5m/s | -52.9°C | 1.6% | 54.5hPa | 3.7V | 00:00:00 | 01:41:44 | 00:00:00 | |
| DL1XH-west | 2026-09-04 23:18:21 | 50.81026 | 6.55169 | 0° | 0km/h | 20498m | 0m/s | -52.7°C | 1.7% | 55.3hPa | 3.7V | 00:00:00 | 00:00:00 | 00:00:00 | |
| BIOWL1-15 | 2026-09-04 23:18:20 | 50.81011 | 6.55078 | 72° | 33km/h | 20684m | -23m/s | -52.9°C | 1.7% | 53.7hPa | 3.7V | 00:00:00 | 00:00:00 | 00:00:00 | |
| DM0DOS-11 | 2026-09-04 23:18:16 | 50.81008 | 6.55066 | 74° | 37km/h | 20707m | -23.9m/s | -52.9°C | 1.6% | 53.5hPa | 3.7V | 00:00:00 | 01:41:39 | 00:00:00 | |
| DB0UT-7 | 2026-09-04 23:18:11 | 50.81008 | 6.55066 | 75° | 27km/h | 20707m | -23.9m/s | -52.9°C | 1.6% | 53.5hPa | 3.7V | 00:00:00 | 00:00:00 | 00:00:00 | |
| DM0DOS-11 | 2026-09-04 23:18:06 | 50.80988 | 6.54909 | 91° | 37km/h | 20947m | -24.2m/s | -52.3°C | 1.6% | 51.7hPa | 3.7V | 00:00:00 | 01:41:29 | 00:00:00 | |
| DL1XH1-15 | 2026-09-04 23:18:01 | 50.80994 | 6.54833 | 104° | 26km/h | 21068m | -24.6m/s | -51.7°C | 1.6% | 50.7hPa | 3.7V | 00:00:00 | 01:41:24 | 00:00:00 | |
| BIOWL1-15 | 2026-09-04 23:18:01 | 50.80988 | 6.54892 | 98° | 38km/h | 20971m | -24.3m/s | -52.2°C | 1.7% | 51.5hPa | 3.7V | 00:00:00 | 00:00:00 | 00:00:00 | |
| DM0DOS-11 | 2026-09-04 23:17:56 | 50.81005 | 6.54776 | 113° | 22km/h | 21190m | -24.8m/s | -51.5°C | 1.6% | 49.8hPa | 3.7V | 00:00:00 | 01:41:19 | 00:00:00 | |
| DL1XH-west | 2026-09-04 23:17:54 | 50.81000 | 6.54798 | 0° | 0km/h | 21141m | 0m/s | -51.6°C | 1.7% | 50.2hPa | 3.7V | 00:00:00 | 00:00:00 | 00:00:00 | |
| BIOWL1-15 | 2026-09-04 23:17:52 | 50.81012 | 6.54759 | 134° | 24km/h | 21240m | -25m/s | -51.4°C | 1.7% | 49.5hPa | 3.7V | 00:00:00 | 00:00:00 | 00:00:00 | |
| DL1XH1-15 | 2026-09-04 23:17:50 | 50.81028 | 6.54741 | 156° | 13km/h | 21338m | -25.1m/s | -51.2°C | 1.6% | 48.7hPa | 3.7V | 00:00:00 | 01:41:13 | 00:00:00 | |
| DM0DOS-11 | 2026-09-04 23:17:46 | 50.81037 | 6.54729 | 105° | 13km/h | 21438m | -25.1m/s | -51.1°C | 1.6% | 48hPa | 3.7V | 00:00:00 | 01:41:09 | 00:00:00 | |
| BIOWL1-15 | 2026-09-04 23:17:39 | 50.81040 | 6.54705 | 113° | 16km/h | 21563m | -25m/s | -51.6°C | 1.7% | 47.1hPa | 3.7V | 00:00:00 | 00:00:00 | 00:00:00 | |
| DL1XH1-15 | 2026-09-04 23:17:36 | 50.81041 | 6.54700 | 116° | 16km/h | 21588m | -25.4m/s | -51.6°C | 1.6% | 46.9hPa | 3.7V | 00:00:00 | 01:41:03 | 00:00:00 | |
| DM0DOS-11 | 2026-09-04 23:17:33 | 50.81052 | 6.54679 | 152° | 15km/h | 21688m | -26.1m/s | -51.7°C | 1.6% | 46.2hPa | 3.7V | 00:00:00 | 01:40:59 | 00:00:00 | |
| DL1XH1-15 | 2026-09-04 23:17:29 | 50.81070 | 6.54656 | 116° | 22km/h | 21871m | -26.5m/s | -52.2°C | 1.6% | 45hPa | 3.7V | 00:00:00 | 01:40:52 | 00:00:00 | |
| BIOWL1-15 | 2026-09-04 23:17:27 | 50.81066 | 6.54665 | 127° | 13km/h | 21818m | -27m/s | -52°C | 1.7% | 45.4hPa | 3.7V | 00:00:00 | 00:00:00 | 00:00:00 | |
| DM0DOS-11 | 2026-09-04 23:17:26 | 50.81077 | 6.54635 | 118° | 27km/h | 21950m | -26.6m/s | -52.5°C | 1.6% | 44.5hPa | 3.7V | 00:00:00 | 01:40:49 | 00:00:00 | |
| DL1XH1-15 | 2026-09-04 23:17:16 | 50.81110 | 6.54572 | 142° | 20km/h | 22136m | -26.9m/s | -52.5°C | 1.6% | 43.3hPa | 3.7V | 00:00:00 | 01:40:42 | 00:00:00 | |
| BIOWL1-15 | 2026-09-04 23:17:15 | 50.81121 | 6.54558 | 146° | 24km/h | 22189m | -26.7m/s | -52.6°C | 1.7% | 43hPa | 3.7V | 00:00:00 | 00:00:00 | 00:00:00 | |
| DM0DOS-11 | 2026-09-04 23:17:13 | 50.81126 | 6.54552 | 146° | 18km/h | 22215m | -27m/s | -52.6°C | 1.6% | 42.8hPa | 3.7V | 00:00:00 | 01:40:39 | 00:00:00 | |
| BIOWL1-15 | 2026-09-04 23:17:09 | 50.81152 | 6.54529 | 120° | 4km/h | 22458m | -27m/s | -52.6°C | 1.7% | 41.3hPa | 3.7V | 00:00:00 | 00:00:00 | 00:00:00 | |
| DL1XH1-15 | 2026-09-04 23:17:09 | 50.81151 | 6.54531 | 129° | 11km/h | 22404m | -27.3m/s | -52.5°C | 1.6% | 41.6hPa | 3.7V | 00:00:00 | 01:40:32 | 00:00:00 | |
| DL1XH-west | 2026-09-04 23:17:09 | 50.81141 | 6.54539 | 0° | 0km/h | 22296m | 0m/s | -52.5°C | 1.7% | 42.2hPa | 3.7V | 00:00:00 | 00:00:00 | 00:00:00 | |
| DM0DOS-11 | 2026-09-04 23:17:07 | 50.81153 | 6.54527 | 90° | 9km/h | 22485m | -27.4m/s | -52.7°C | 1.6% | 41.1hPa | 3.7V | 00:00:00 | 01:40:29 | 00:00:00 | |
| AA1-15 | 2026-09-04 23:16:54 | 50.81154 | 6.54492 | 0° | 0km/h | 22704m | 0m/s | -52.3°C | 1.7% | 39.8hPa | 3.7V | 00:00:00 | 00:00:00 | 00:00:00 | |
| DM0DOS-11 | 2026-09-04 23:16:53 | 50.81159 | 6.54478 | 116° | 13km/h | 22759m | -27.6m/s | -52.1°C | 1.6% | 39.5hPa | 3.7V | 00:00:00 | 01:40:19 | 00:00:00 | |
| BIOWL1-15 | 2026-09-04 23:16:52 | 50.81163 | 6.54462 | 109° | 11km/h | 22841m | -27.7m/s | -51.9°C | 1.7% | 39hPa | 3.7V | 00:00:00 | 00:00:00 | 00:00:00 | |
| DL1XH1-15 | 2026-09-04 23:16:52 | 50.81162 | 6.54466 | 111° | 11km/h | 22814m | -28.5m/s | -51.9°C | 1.6% | 39.1hPa | 3.7V | 00:00:00 | 01:40:17 | 00:00:00 | |
| DM0DOS-11 | 2026-09-04 23:16:46 | 50.81167 | 6.54441 | 36° | 11km/h | 23037m | -28.5m/s | -51.7°C | 1.6% | 37.9hPa | 3.7V | 00:00:00 | 01:40:09 | 00:00:00 | |
| AA1-15 | 2026-09-04 23:16:41 | 50.81163 | 6.54436 | 0° | 0km/h | 23094m | 0m/s | -51.7°C | 1.7% | 37.5hPa | 3.7V | 00:00:00 | 00:00:00 | 00:00:00 | |
| BIOWL1-15 | 2026-09-04 23:16:39 | 50.81162 | 6.54433 | 66° | 11km/h | 23122m | -28m/s | -51.7°C | 1.7% | 37.4hPa | 3.7V | 00:00:00 | 00:00:00 | 00:00:00 | |
| DL1XH1-15 | 2026-09-04 23:16:37 | 50.81164 | 6.54401 | 130° | 11km/h | 23294m | -29.5m/s | -51.6°C | 1.7% | 36.5hPa | 3.7V | 00:00:00 | 01:40:00 | 00:00:00 | |
| DM0DOS-11 | 2026-09-04 23:16:36 | 50.81165 | 6.54396 | 133° | 13km/h | 23323m | -29.4m/s | -51.6°C | 1.7% | 36.3hPa | 3.7V | 00:00:00 | 01:39:59 | 00:00:00 | |
| DL1XH-west | 2026-09-04 23:16:30 | 50.81171 | 6.54388 | 0° | 0km/h | 23381m | 0m/s | -51.7°C | 1.8% | 36hPa | 3.7V | 00:00:00 | 00:00:00 | 00:00:00 | |
| AA1-15 | 2026-09-04 23:16:30 | 50.81174 | 6.54385 | 0° | 0km/h | 23411m | 0m/s | -51.7°C | 1.8% | 35.8hPa | 3.7V | 00:00:00 | 00:00:00 | 00:00:00 | |
| BIOWL1-15 | 2026-09-04 23:16:29 | 50.81179 | 6.54382 | 157° | 9km/h | 23470m | -29.5m/s | -51.8°C | 1.8% | 35.5hPa | 3.7V | 00:00:00 | 00:00:00 | 00:00:00 | |
| DL1XH1-15 | 2026-09-04 23:16:27 | 50.81186 | 6.54377 | 117° | 11km/h | 23589m | -29.8m/s | -52°C | 1.7% | 34.9hPa | 3.7V | 00:00:00 | 01:39:50 | 00:00:00 | |
| DM0DOS-11 | 2026-09-04 23:16:23 | 50.81187 | 6.54374 | 113° | 13km/h | 23619m | -29.9m/s | -52.1°C | 1.7% | 34.8hPa | 3.7V | 00:00:00 | 01:39:49 | 00:00:00 | |
| DL1XH-west | 2026-09-04 23:16:20 | 50.81189 | 6.54368 | 0° | 0km/h | 23678m | 0m/s | -52.4°C | 1.8% | 34.5hPa | 3.7V | 00:00:00 | 00:00:00 | 00:00:00 | |
| BIOWL1-15 | 2026-09-04 23:16:18 | 50.81192 | 6.54358 | 117° | 16km/h | 23738m | -30m/s | -52.5°C | 1.8% | 34.1hPa | 3.7V | 00:00:00 | 00:00:00 | 00:00:00 | |
| GOEST3-10 | 2026-09-04 23:16:17 | 50.81192 | 6.54358 | 118° | 13km/h | 23738m | -30.7m/s | -52.4°C | 1.7% | 34.1hPa | 3.7V | 00:00:00 | 00:00:00 | 00:00:00 | |
| DL1XH1-15 | 2026-09-04 23:16:12 | 50.81202 | 6.54326 | 61° | 11km/h | 23919m | -27.9m/s | -52.6°C | 1.7% | 33.2hPa | 3.7V | 00:00:00 | 01:39:39 | 00:00:00 | |
| BIOWL1-15 | 2026-09-04 23:16:08 | 50.81197 | 6.54310 | 61° | 13km/h | 24041m | -31m/s | -52.6°C | 1.8% | 32.7hPa | 3.7V | 00:00:00 | 00:00:00 | 00:00:00 | |
| AA1-15 | 2026-09-04 23:16:04 | 50.81191 | 6.54284 | 0° | 0km/h | 24225m | 0m/s | -52.1°C | 1.8% | 31.8hPa | 3.7V | 00:00:00 | 00:00:00 | 00:00:00 | |
| DM0DOS-11 | 2026-09-04 23:16:03 | 50.81191 | 6.54284 | 67° | 9km/h | 24225m | -31.3m/s | -52.1°C | 1.7% | 31.8hPa | 3.7V | 00:00:00 | 01:39:29 | 00:00:00 | |
| BIOWL1-15 | 2026-09-04 23:15:57 | 50.81182 | 6.54274 | 28° | 11km/h | 24381m | -32m/s | -52.2°C | 1.8% | 31.1hPa | 3.7V | 00:00:00 | 00:00:00 | 00:00:00 | |
| DM0DOS-11 | 2026-09-04 23:15:56 | 50.81171 | 6.54262 | 45° | 9km/h | 24540m | -31.9m/s | -52.4°C | 1.7% | 30.3hPa | 3.7V | 00:00:00 | 01:39:19 | 00:00:00 | |
| AA1-15 | 2026-09-04 23:15:52 | 50.81171 | 6.54262 | 0° | 0km/h | 24540m | 0m/s | -52.4°C | 1.8% | 30.3hPa | 3.7V | 00:00:00 | 00:00:00 | 00:00:00 | |
| BIOWL1-15 | 2026-09-04 23:15:46 | 50.81159 | 6.54249 | 35° | 18km/h | 24732m | -32m/s | -52°C | 1.8% | 29.5hPa | 3.7V | 00:00:00 | 00:00:00 | 00:00:00 | |
| DM0DOS-11 | 2026-09-04 23:15:46 | 50.81148 | 6.54228 | 78° | 13km/h | 24861m | -33.1m/s | -51.8°C | 1.7% | 28.9hPa | 3.7V | 00:00:00 | 01:39:09 | 00:00:00 | |
| AA1-15 | 2026-09-04 23:15:42 | 50.81148 | 6.54228 | 0° | 0km/h | 24861m | 0m/s | -51.8°C | 1.8% | 28.9hPa | 3.7V | 00:00:00 | 00:00:00 | 00:00:00 | |
| DB0UT-7 | 2026-09-04 23:15:41 | 50.81148 | 6.54227 | 79° | 16km/h | 24861m | -33.0m/s | -51.7°C | 1.7% | 28.9hPa | 3.7V | 00:00:00 | 01:39:09 | 00:00:00 | |
| GOEST3-10 | 2026-09-04 23:15:39 | 50.81146 | 6.54216 | 94° | 13km/h | 24927m | -33.7m/s | -51.5°C | 1.6% | 28.6hPa | 3.7V | 00:00:00 | 01:39:07 | 00:00:00 | |
| DM0DOS-11 | 2026-09-04 23:15:35 | 50.81144 | 6.54190 | 53° | 16km/h | 25192m | -34m/s | -50.8°C | 1.6% | 27.6hPa | 3.7V | 00:00:00 | 01:38:59 | 00:00:00 | |
| BIOWL1-15 | 2026-09-04 23:15:32 | 50.81144 | 6.54190 | 54° | 11km/h | 25192m | -34m/s | -50.8°C | 1.7% | 27.6hPa | 3.7V | 00:00:00 | 00:00:00 | 00:00:00 | |
| AA1-15 | 2026-09-04 23:15:31 | 50.81142 | 6.54186 | 0° | 0km/h | 25226m | 0m/s | -50.8°C | 1.8% | 27.4hPa | 3.7V | 00:00:00 | 00:00:00 | 00:00:00 | |
| GOEST3-10 | 2026-09-04 23:15:30 | 50.81142 | 6.54186 | 56° | 15km/h | 25226m | -34.2m/s | -50.7°C | 1.7% | 27.4hPa | 3.7V | 00:00:00 | 00:00:00 | 00:00:00 | |
| DM0DOS-11 | 2026-09-04 23:15:22 | 50.81139 | 6.54115 | 116° | 24km/h | 25532m | -34.1m/s | -50°C | 1.7% | 26.3hPa | 3.7V | 00:00:00 | 01:38:49 | 00:00:00 | |
| BIOWL1-15 | 2026-09-04 23:15:21 | 50.81143 | 6.54104 | 129° | 20km/h | 25565m | -34.6m/s | -49.7°C | 1.8% | 26.1hPa | 3.7V | 00:00:00 | 00:00:00 | 00:00:00 | |
| DM0DOS-11 | 2026-09-04 23:15:17 | 50.81169 | 6.54053 | 146° | 18km/h | 25878m | -35.6m/s | -49.1°C | 1.7% | 25hPa | 3.7V | 00:00:00 | 01:38:39 | 00:00:00 | |
| AA1-15 | 2026-09-04 23:15:10 | 50.81176 | 6.54044 | 0° | 0km/h | 25949m | 0m/s | -48.9°C | 1.8% | 24.7hPa | 3.7V | 00:00:00 | 00:00:00 | 00:00:00 | |
| BIOWL1-15 | 2026-09-04 23:15:09 | 50.81186 | 6.54036 | 168° | 20km/h | 26020m | -35.5m/s | -48.6°C | 1.8% | 24.5hPa | 3.7V | 00:00:00 | 00:00:00 | 00:00:00 | |
| DM0DOS-11 | 2026-09-04 23:15:04 | 50.81211 | 6.54033 | 162° | 11km/h | 26237m | -37m/s | -48.4°C | 1.7% | 23.7hPa | 3.7V | 00:00:00 | 01:38:29 | 00:00:00 | |
| AA1-15 | 2026-09-04 23:14:59 | 50.81219 | 6.54030 | 0° | 0km/h | 26347m | 0m/s | -48.5°C | 1.8% | 23.4hPa | 3.7V | 00:00:00 | 00:00:00 | 00:00:00 | |
| BIOWL1-15 | 2026-09-04 23:14:58 | 50.81241 | 6.54017 | 154° | 18km/h | 26611m | -37.5m/s | -48.2°C | 1.8% | 22.5hPa | 3.7V | 00:00:00 | 00:00:00 | 00:00:00 | |
| DM0DOS-11 | 2026-09-04 23:14:52 | 50.81241 | 6.54017 | 152° | 18km/h | 26611m | -37.6m/s | -48.2°C | 1.7% | 22.5hPa | 3.7V | 00:00:00 | 01:38:19 | 00:00:00 | |
| AA1-15 | 2026-09-04 23:14:49 | 50.81254 | 6.54008 | 0° | 0km/h | 26724m | 0m/s | -47.9°C | 1.8% | 22.1hPa | 3.7V | 00:00:00 | 00:00:00 | 00:00:00 | |
| DM0DOS-11 | 2026-09-04 23:14:42 | 50.81284 | 6.54012 | 237° | 15km/h | 26987m | -36.1m/s | -47.4°C | 1.7% | 21.3hPa | 3.7V | 00:00:00 | 01:38:09 | 00:00:00 | |
| BIOWL1-15 | 2026-09-04 23:14:41 | 50.81286 | 6.54017 | 266° | 15km/h | 27023m | -36m/s | -47.4°C | 1.8% | 21.2hPa | 3.7V | 00:00:00 | 00:00:00 | 00:00:00 | |
| AA1-15 | 2026-09-04 23:14:37 | 50.81285 | 6.54042 | 0° | 0km/h | 27166m | 0m/s | -47.3°C | 1.8% | 20.8hPa | 3.7V | 00:00:00 | 00:00:00 | 00:00:00 | |
| DM0DOS-11 | 2026-09-04 23:14:32 | 50.81276 | 6.54066 | 294° | 9km/h | 27346m | -40.4m/s | -47°C | 1.7% | 20.2hPa | 3.7V | 00:00:00 | 01:37:59 | 00:00:00 | |
| BIOWL1-15 | 2026-09-04 23:14:29 | 50.81273 | 6.54077 | 296° | 11km/h | 27466m | -40m/s | -47.1°C | 1.8% | 19.9hPa | 3.7V | 00:00:00 | 00:00:00 | 00:00:00 | |
| AA1-15 | 2026-09-04 23:14:26 | 50.81268 | 6.54086 | 0° | 0km/h | 27588m | 0m/s | -47.3°C | 1.8% | 19.6hPa | 3.7V | 00:00:00 | 00:00:00 | 00:00:00 | |
| BIOWL1-15 | 2026-09-04 23:14:18 | 50.81262 | 6.54103 | 277° | 13km/h | 27933m | -44m/s | -47°C | 1.8% | 18.6hPa | 3.7V | 00:00:00 | 00:00:00 | 00:00:00 | |
| DM0DOS-11 | 2026-09-04 23:14:16 | 50.81258 | 6.54125 | 302° | 11km/h | 28194m | -33m/s | -46°C | 1.7% | 17.9hPa | 3.7V | 00:00:00 | 01:37:39 | 00:00:00 | |
| AA1-15 | 2026-09-04 23:14:16 | 50.81260 | 6.54114 | 0° | 0km/h | 28020m | 0m/s | -46.8°C | 1.8% | 18.4hPa | 3.7V | 00:00:00 | 00:00:00 | 00:00:00 | |
| BIOWL1-15 | 2026-09-04 23:14:07 | 50.81245 | 6.54124 | 84° | 13km/h | 28462m | 3m/s | -45.7°C | 1.9% | 17.3hPa | 3.7V | 00:00:00 | 00:00:00 | 00:00:00 | |
| AA1-15 | 2026-09-04 23:14:05 | 50.81246 | 6.54134 | 0° | 0km/h | 28440m | 0m/s | -45.7°C | 1.9% | 17.4hPa | 3.7V | 00:00:00 | 00:00:00 | 00:00:00 | |
| DM0DOS-11 | 2026-09-04 23:14:05 | 50.81244 | 6.54118 | 90° | 11km/h | 28459m | 6m/s | -45.7°C | 1.9% | 17.3hPa | 3.7V | 00:00:00 | 01:37:29 | 00:00:00 | |
| DM0DOS-11 | 2026-09-04 23:13:56 | 50.81257 | 6.54111 | 232° | 18km/h | 28404m | 6m/s | -46°C | 1.9% | 17.4hPa | 3.7V | 00:00:00 | 01:37:19 | 00:00:00 | |
| AA1-15 | 2026-09-04 23:13:54 | 50.81256 | 6.54118 | 0° | 0km/h | 28412m | 0m/s | -45.9°C | 1.9% | 17.4hPa | 3.7V | 00:00:00 | 00:00:00 | 00:00:00 | |
| BIOWL1-15 | 2026-09-04 23:13:52 | 50.81257 | 6.54111 | 233° | 13km/h | 28404m | 8m/s | -46°C | 1.9% | 17.4hPa | 3.7V | 00:00:00 | 00:00:00 | 00:00:00 | |
| AA1-15 | 2026-09-04 23:13:43 | 50.81262 | 6.54122 | 0° | 0km/h | 28352m | 0m/s | -46.3°C | 1.9% | 17.5hPa | 3.7V | 00:00:00 | 00:00:00 | 00:00:00 | |
| BIOWL1-15 | 2026-09-04 23:13:41 | 50.81259 | 6.54135 | 270° | 18km/h | 28341m | 5m/s | -46.4°C | 1.9% | 17.6hPa | 3.7V | 00:00:00 | 00:00:00 | 00:00:00 | |
| DM0DOS-11 | 2026-09-04 23:13:34 | 50.81246 | 6.54158 | 259° | 11km/h | 28292m | 5.6m/s | -46.8°C | 1.9% | 17.7hPa | 3.7V | 00:00:00 | 01:36:59 | 00:00:00 | |
| AA1-15 | 2026-09-04 23:13:33 | 50.81247 | 6.54151 | 0° | 0km/h | 28297m | 0m/s | -46.7°C | 2% | 17.7hPa | 3.7V | 00:00:00 | 00:00:00 | 00:00:00 | |
| BIOWL1-15 | 2026-09-04 23:13:30 | 50.81239 | 6.54174 | 317° | 22km/h | 28252m | 5m/s | -47.2°C | 2% | 17.8hPa | 3.7V | 00:00:00 | 00:00:00 | 00:00:00 | |
| DM0DOS-11 | 2026-09-04 23:13:23 | 50.81227 | 6.54191 | 67° | 16km/h | 28237m | 5.3m/s | -47.4°C | 2% | 17.8hPa | 3.7V | 00:00:00 | 01:36:49 | 00:00:00 | |
| AA1-15 | 2026-09-04 23:13:22 | 50.81227 | 6.54191 | 0° | 0km/h | 28237m | 0m/s | -47.4°C | 2% | 17.8hPa | 3.7V | 00:00:00 | 00:00:00 | 00:00:00 | |
| DM0DOS-11 | 2026-09-04 23:13:16 | 50.81221 | 6.54230 | 131° | 18km/h | 28177m | 5.1m/s | -47.8°C | 2% | 17.9hPa | 3.7V | 00:00:00 | 01:36:38 | 00:00:00 | |
| DL1XH1-15 | 2026-09-04 23:13:16 | 50.81223 | 6.54210 | 262° | 9km/h | 28203m | 5.5m/s | -47.6°C | 2% | 17.9hPa | 3.7V | 00:00:00 | 01:36:43 | 00:00:00 | |
| BIOWL1-15 | 2026-09-04 23:13:14 | 50.81218 | 6.54236 | 128° | 7km/h | 28196m | 6.3m/s | -47.7°C | 2% | 17.9hPa | 3.7V | 00:00:00 | 00:00:00 | 00:00:00 | |
| AA1-15 | 2026-09-04 23:13:12 | 50.81221 | 6.54230 | 0° | 0km/h | 28177m | 0m/s | -47.8°C | 2% | 17.9hPa | 3.7V | 00:00:00 | 00:00:00 | 00:00:00 | |
| BIOWL1-15 | 2026-09-04 23:13:10 | 50.81218 | 6.54284 | 76° | 5km/h | 28133m | 6m/s | -48°C | 2% | 18.1hPa | 3.7V | 00:00:00 | 00:00:00 | 00:00:00 | |
| DM0DOS-11 | 2026-09-04 23:13:05 | 50.81218 | 6.54279 | 316° | 9km/h | 28121m | 5.6m/s | -48.1°C | 2% | 18.1hPa | 3.7V | 00:00:00 | 01:36:28 | 00:00:00 | |
| AA1-15 | 2026-09-04 23:13:02 | 50.81218 | 6.54279 | 0° | 0km/h | 28121m | 0m/s | -48.1°C | 2% | 18.1hPa | 3.7V | 00:00:00 | 00:00:00 | 00:00:00 | |
| DM0DOS-11 | 2026-09-04 23:12:55 | 50.81209 | 6.54321 | 270° | 15km/h | 28066m | 6m/s | -48.2°C | 2% | 18.2hPa | 3.7V | 00:00:00 | 01:36:18 | 00:00:00 | |
| BIOWL1-15 | 2026-09-04 23:12:53 | 50.81222 | 6.54329 | 218° | 11km/h | 28042m | 6m/s | -48.3°C | 2% | 18.3hPa | 3.7V | 00:00:00 | 00:00:00 | 00:00:00 | |
| AA1-15 | 2026-09-04 23:12:51 | 50.81209 | 6.54321 | 0° | 0km/h | 28066m | 0m/s | -48.2°C | 2% | 18.2hPa | 3.7V | 00:00:00 | 00:00:00 | 00:00:00 | |
| DM0DOS-11 | 2026-09-04 23:12:45 | 50.81221 | 6.54349 | 182° | 9km/h | 28007m | 5.7m/s | -48.3°C | 2% | 18.4hPa | 3.7V | 00:00:00 | 01:36:08 | 00:00:00 | |
| DL1XH1-15 | 2026-09-04 23:12:43 | 50.81225 | 6.54350 | 227° | 7km/h | 27996m | 5.8m/s | -48.4°C | 2% | 18.4hPa | 3.7V | 00:00:00 | 01:36:06 | 00:00:00 | |
| BIOWL1-15 | 2026-09-04 23:12:42 | 50.81227 | 6.54352 | 246° | 11km/h | 27990m | 6m/s | -48.4°C | 2% | 18.4hPa | 3.7V | 00:00:00 | 00:00:00 | 00:00:00 | |
| AA1-15 | 2026-09-04 23:12:41 | 50.81221 | 6.54349 | 0° | 0km/h | 28007m | 0m/s | -48.4°C | 2% | 18.4hPa | 3.7V | 00:00:00 | 00:00:00 | 00:00:00 | |
| DM0DOS-11 | 2026-09-04 23:12:35 | 50.81236 | 6.54358 | 343° | 5km/h | 27949m | 5.7m/s | -48.5°C | 2% | 18.5hPa | 3.7V | 00:00:00 | 01:35:58 | 00:00:00 | |
| BIOWL1-15 | 2026-09-04 23:12:32 | 50.81236 | 6.54360 | 27° | 2km/h | 27955m | 6m/s | -48.5°C | 2.1% | 18.5hPa | 3.7V | 00:00:00 | 00:00:00 | 00:00:00 | |
| DL1XH1-15 | 2026-09-04 23:12:31 | 50.81232 | 6.54363 | 265° | 9km/h | 27932m | 5.8m/s | -48.5°C | 2% | 18.6hPa | 3.7V | 00:00:00 | 01:35:55 | 00:00:00 | |
| AA1-15 | 2026-09-04 23:12:31 | 50.81236 | 6.54358 | 0° | 0km/h | 27949m | 0m/s | -48.5°C | 2.1% | 18.5hPa | 3.7V | 00:00:00 | 00:00:00 | 00:00:00 | |
| DM0DOS-11 | 2026-09-04 23:12:25 | 50.81232 | 6.54370 | 240° | 4km/h | 27892m | 6m/s | -48.7°C | 2% | 18.6hPa | 3.7V | 00:00:00 | 01:35:48 | 00:00:00 | |
| BIOWL1-15 | 2026-09-04 23:12:21 | 50.81232 | 6.54370 | 337° | 7km/h | 27868m | 6m/s | -48.6°C | 2.1% | 18.7hPa | 3.7V | 00:00:00 | 00:00:00 | 00:00:00 | |
| AA1-15 | 2026-09-04 23:12:20 | 50.81232 | 6.54371 | 0° | 0km/h | 27885m | 0m/s | -48.7°C | 2.1% | 18.7hPa | 3.7V | 00:00:00 | 00:00:00 | 00:00:00 | |
| DL1XH1-15 | 2026-09-04 23:12:16 | 50.81229 | 6.54372 | 54° | 13km/h | 27857m | 5.8m/s | -48.6°C | 2% | 18.8hPa | 3.7V | 00:00:00 | 01:35:42 | 00:00:00 | |
| DM0DOS-11 | 2026-09-04 23:12:15 | 50.81231 | 6.54362 | 313° | 13km/h | 27835m | 6.3m/s | -48.6°C | 2% | 18.8hPa | 3.7V | 00:00:00 | 01:35:38 | 00:00:00 | |
| AA1-15 | 2026-09-04 23:12:10 | 50.81230 | 6.54363 | 0° | 0km/h | 27828m | 0m/s | -48.6°C | 2.1% | 18.8hPa | 3.7V | 00:00:00 | 00:00:00 | 00:00:00 | |
| BIOWL1-15 | 2026-09-04 23:12:09 | 50.81214 | 6.54379 | 55° | 11km/h | 27798m | 5m/s | -48.6°C | 2.1% | 18.9hPa | 3.7V | 00:00:00 | 00:00:00 | 00:00:00 | |
| DM0DOS-11 | 2026-09-04 23:12:05 | 50.81203 | 6.54376 | 326° | 16km/h | 27775m | 5.6m/s | -48.7°C | 2% | 18.9hPa | 3.7V | 00:00:00 | 01:35:28 | 00:00:00 | |
| AA1-15 | 2026-09-04 23:12:00 | 50.81197 | 6.54381 | 0° | 0km/h | 27770m | 0m/s | -48.7°C | 2.1% | 19hPa | 3.7V | 00:00:00 | 00:00:00 | 00:00:00 | |
| BIOWL1-15 | 2026-09-04 23:11:55 | 50.81191 | 6.54395 | 322° | 13km/h | 27742m | 7m/s | -48.6°C | 2.1% | 19.1hPa | 3.7V | 00:00:00 | 00:00:00 | 00:00:00 | |
| DM0DOS-11 | 2026-09-04 23:11:55 | 50.81172 | 6.54411 | 347° | 9km/h | 27717m | 5.7m/s | -48.6°C | 2% | 19.1hPa | 3.7V | 00:00:00 | 01:35:18 | 00:00:00 | |
| AA1-15 | 2026-09-04 23:11:50 | 50.81170 | 6.54412 | 0° | 0km/h | 27711m | 0m/s | -48.6°C | 2.1% | 19.1hPa | 3.7V | 00:00:00 | 00:00:00 | 00:00:00 | |
| DM0DOS-11 | 2026-09-04 23:11:45 | 50.81155 | 6.54437 | 330° | 20km/h | 27660m | 6m/s | -48.3°C | 2.2% | 19.3hPa | 3.7V | 00:00:00 | 01:35:08 | 00:00:00 | |
| BIOWL1-15 | 2026-09-04 23:11:45 | 50.81155 | 6.54437 | 326° | 27km/h | 27660m | 5.7m/s | -48.3°C | 2.2% | 19.3hPa | 3.7V | 00:00:00 | 00:00:00 | 00:00:00 | |
| AA1-15 | 2026-09-04 23:11:40 | 50.81149 | 6.54442 | 0° | 0km/h | 27653m | 0m/s | -48.3°C | 2.2% | 19.3hPa | 3.7V | 00:00:00 | 00:00:00 | 00:00:00 | |
| DM0DOS-11 | 2026-09-04 23:11:35 | 50.81131 | 6.54477 | 333° | 16km/h | 27601m | 5.7m/s | -48.1°C | 2.2% | 19.4hPa | 3.7V | 00:00:00 | 01:34:58 | 00:00:00 | |
| AA1-15 | 2026-09-04 23:11:29 | 50.81123 | 6.54484 | 0° | 0km/h | 27589m | 0m/s | -48.1°C | 2.2% | 19.5hPa | 3.7V | 00:00:00 | 00:00:00 | 00:00:00 | |
| BIOWL1-15 | 2026-09-04 23:11:28 | 50.81120 | 6.54522 | 293° | 11km/h | 27539m | 7m/s | -48.1°C | 2.2% | 19.6hPa | 3.7V | 00:00:00 | 00:00:00 | 00:00:00 | |
| DM0DOS-11 | 2026-09-04 23:11:25 | 50.81120 | 6.54522 | 292° | 16km/h | 27539m | 6m/s | -48.1°C | 2.2% | 19.6hPa | 3.7V | 00:00:00 | 01:34:47 | 00:00:00 | |
| AA1-15 | 2026-09-04 23:11:19 | 50.81119 | 6.54526 | 0° | 0km/h | 27532m | 0m/s | -48.1°C | 2.2% | 19.6hPa | 3.7V | 00:00:00 | 00:00:00 | 00:00:00 | |
| DM0DOS-11 | 2026-09-04 23:11:14 | 50.81110 | 6.54571 | 300° | 11km/h | 27480m | 5.4m/s | -48.1°C | 2.2% | 19.8hPa | 3.7V | 00:00:00 | 01:34:37 | 00:00:00 | |
| BIOWL1-15 | 2026-09-04 23:11:14 | 50.81110 | 6.54571 | 301° | 18km/h | 27480m | 5m/s | -48.1°C | 2.2% | 19.8hPa | 3.7V | 00:00:00 | 00:00:00 | 00:00:00 | |
| AA1-15 | 2026-09-04 23:11:09 | 50.81107 | 6.54577 | 0° | 0km/h | 27475m | 0m/s | -48.1°C | 2.2% | 19.8hPa | 3.7V | 00:00:00 | 00:00:00 | 00:00:00 | |
| DL1XH1-15 | 2026-09-04 23:11:06 | 50.81102 | 6.54589 | 307° | 16km/h | 27441m | 5.7m/s | -48.1°C | 2.2% | 19.9hPa | 3.7V | 00:00:00 | 01:34:30 | 00:00:00 | |
| DM0DOS-11 | 2026-09-04 23:11:04 | 50.81092 | 6.54612 | 279° | 9km/h | 27425m | 5.8m/s | -48°C | 2.2% | 19.9hPa | 3.7V | 00:00:00 | 01:34:27 | 00:00:00 | |
| BIOWL1-15 | 2026-09-04 23:10:59 | 50.81092 | 6.54616 | 186° | 4km/h | 27418m | 5m/s | -48°C | 2.3% | 19.9hPa | 3.7V | 00:00:00 | 00:00:00 | 00:00:00 | |
| AA1-15 | 2026-09-04 23:10:58 | 50.81093 | 6.54616 | 0° | 0km/h | 27413m | 0m/s | -48°C | 2.3% | 19.9hPa | 3.7V | 00:00:00 | 00:00:00 | 00:00:00 | |
| DL1XH1-15 | 2026-09-04 23:10:54 | 50.81082 | 6.54651 | 314° | 13km/h | 27368m | 5.6m/s | -48°C | 2.2% | 20.1hPa | 3.7V | 00:00:00 | 01:34:17 | 00:00:00 | |
| AA1-15 | 2026-09-04 23:10:48 | 50.81078 | 6.54661 | 0° | 0km/h | 27355m | 0m/s | -48.1°C | 2.3% | 20.1hPa | 3.7V | 00:00:00 | 00:00:00 | 00:00:00 | |
| DM0DOS-11 | 2026-09-04 23:10:42 | 50.81057 | 6.54710 | 300° | 15km/h | 27306m | 5.8m/s | -48.4°C | 2.2% | 20.2hPa | 3.7V | 00:00:00 | 01:34:06 | 00:00:00 | |
| AA1-15 | 2026-09-04 23:10:38 | 50.81054 | 6.54717 | 0° | 0km/h | 27300m | 0m/s | -48.4°C | 2.3% | 20.2hPa | 3.7V | 00:00:00 | 00:00:00 | 00:00:00 | |
| BIOWL1-15 | 2026-09-04 23:10:37 | 50.81054 | 6.54721 | 255° | 5km/h | 27294m | 6m/s | -48.4°C | 2.3% | 20.3hPa | 3.7V | 00:00:00 | 00:00:00 | 00:00:00 | |
| DL1XH1-15 | 2026-09-04 23:10:36 | 50.81044 | 6.54745 | 256° | 15km/h | 27266m | 5.8m/s | -48.3°C | 2.2% | 20.4hPa | 3.7V | 00:00:00 | 01:33:59 | 00:00:00 | |
| DM0DOS-11 | 2026-09-04 23:10:32 | 50.81043 | 6.54766 | 226° | 15km/h | 27248m | 5.5m/s | -48.2°C | 2.2% | 20.4hPa | 3.7V | 00:00:00 | 01:33:56 | 00:00:00 | |
| AA1-15 | 2026-09-04 23:10:27 | 50.81046 | 6.54775 | 0° | 0km/h | 27237m | 0m/s | -48.2°C | 2.3% | 20.4hPa | 3.7V | 00:00:00 | 00:00:00 | 00:00:00 | |
| BIOWL1-15 | 2026-09-04 23:10:26 | 50.81045 | 6.54779 | 318° | 16km/h | 27231m | 5m/s | -48.1°C | 2.3% | 20.4hPa | 3.7V | 00:00:00 | 00:00:00 | 00:00:00 | |
| DM0DOS-11 | 2026-09-04 23:10:22 | 50.81045 | 6.54817 | 272° | 20km/h | 27192m | 5.3m/s | -48.1°C | 2.3% | 20.6hPa | 3.7V | 00:00:00 | 01:33:46 | 00:00:00 | |
| BIOWL1-15 | 2026-09-04 23:10:16 | 50.81050 | 6.54846 | 142° | 2km/h | 27158m | 5m/s | -48.1°C | 2.4% | 20.6hPa | 3.7V | 00:00:00 | 00:00:00 | 00:00:00 | |
| AA1-15 | 2026-09-04 23:10:16 | 50.81044 | 6.54847 | 0° | 0km/h | 27178m | 0m/s | -48.1°C | 2.4% | 20.6hPa | 3.7V | 00:00:00 | 00:00:00 | 00:00:00 | |
| DM0DOS-11 | 2026-09-04 23:10:12 | 50.81055 | 6.54867 | 234° | 24km/h | 27136m | 5.5m/s | -48.1°C | 2.3% | 20.7hPa | 3.7V | 00:00:00 | 01:33:36 | 00:00:00 | |
| AA1-15 | 2026-09-04 23:10:06 | 50.81069 | 6.54893 | 0° | 0km/h | 27121m | 0m/s | -48.2°C | 2.4% | 20.8hPa | 3.7V | 00:00:00 | 00:00:00 | 00:00:00 | |
| BIOWL1-15 | 2026-09-04 23:10:05 | 50.81069 | 6.54904 | 276° | 7km/h | 27108m | 5m/s | -48.3°C | 2.4% | 20.8hPa | 3.7V | 00:00:00 | 00:00:00 | 00:00:00 | |
| DM0DOS-11 | 2026-09-04 23:10:02 | 50.81087 | 6.54925 | 219° | 26km/h | 27081m | 5.5m/s | -48.4°C | 2.3% | 20.9hPa | 3.7V | 00:00:00 | 01:33:26 | 00:00:00 | |
| AA1-15 | 2026-09-04 23:09:55 | 50.81104 | 6.54956 | 0° | 0km/h | 27060m | 0m/s | -48.5°C | 2.4% | 20.9hPa | 3.7V | 00:00:00 | 00:00:00 | 00:00:00 | |
| BIOWL1-15 | 2026-09-04 23:09:54 | 50.81108 | 6.54958 | 172° | 22km/h | 27053m | 6m/s | -48.5°C | 2.4% | 20.9hPa | 3.7V | 00:00:00 | 00:00:00 | 00:00:00 | |
| AA1-15 | 2026-09-04 23:09:45 | 50.81158 | 6.54960 | 0° | 0km/h | 27003m | 0m/s | -48.5°C | 2.5% | 21.1hPa | 3.7V | 00:00:00 | 00:00:00 | 00:00:00 | |
| BIOWL1-15 | 2026-09-04 23:09:43 | 50.81174 | 6.54961 | 210° | 22km/h | 26993m | 7m/s | -48.6°C | 2.5% | 21.1hPa | 3.7V | 00:00:00 | 00:00:00 | 00:00:00 | |
| DM0DOS-11 | 2026-09-04 23:09:42 | 50.81190 | 6.54972 | 149° | 22km/h | 26969m | 5.9m/s | -48.7°C | 2.5% | 21.2hPa | 3.7V | 00:00:00 | 01:33:06 | 00:00:00 | |
| BIOWL1-15 | 2026-09-04 23:09:37 | 50.81231 | 6.54949 | 170° | 20km/h | 26928m | 6m/s | -48.8°C | 2.5% | 21.3hPa | 3.7V | 00:00:00 | 00:00:00 | 00:00:00 | |
| AA1-15 | 2026-09-04 23:09:35 | 50.81210 | 6.54957 | 0° | 0km/h | 26946m | 0m/s | -48.7°C | 2.5% | 21.3hPa | 3.7V | 00:00:00 | 00:00:00 | 00:00:00 | |
| DM0DOS-11 | 2026-09-04 23:09:32 | 50.81243 | 6.54947 | 176° | 24km/h | 26910m | 5.4m/s | -48.9°C | 2.5% | 21.4hPa | 3.7V | 00:00:00 | 01:32:56 | 00:00:00 | |
| AA1-15 | 2026-09-04 23:09:24 | 50.81275 | 6.54922 | 0° | 0km/h | 26884m | 0m/s | -48.9°C | 2.5% | 21.4hPa | 3.7V | 00:00:00 | 00:00:00 | 00:00:00 | |
| BIOWL1-15 | 2026-09-04 23:09:21 | 50.81298 | 6.54912 | 135° | 24km/h | 26854m | 6m/s | -49°C | 2.5% | 21.5hPa | 3.7V | 00:00:00 | 00:00:00 | 00:00:00 | |
| AA1-15 | 2026-09-04 23:09:13 | 50.81330 | 6.54875 | 0° | 0km/h | 26820m | 0m/s | -49.1°C | 2.6% | 21.6hPa | 3.7V | 00:00:00 | 00:00:00 | 00:00:00 | |
| BIOWL1-15 | 2026-09-04 23:09:08 | 50.81383 | 6.54820 | 152° | 35km/h | 26758m | 4m/s | -49.2°C | 2.6% | 21.8hPa | 3.7V | 00:00:00 | 00:00:00 | 00:00:00 | |
| AA1-15 | 2026-09-04 23:09:03 | 50.81376 | 6.54828 | 0° | 0km/h | 26764m | 0m/s | -49.2°C | 2.6% | 21.8hPa | 3.7V | 00:00:00 | 00:00:00 | 00:00:00 | |
| DM0DOS-11 | 2026-09-04 23:08:59 | 50.81401 | 6.54809 | 190° | 13km/h | 26741m | 5.6m/s | -49.3°C | 2.5% | 21.9hPa | 3.7V | 00:00:00 | 01:32:26 | 00:00:00 | |
| BIOWL1-15 | 2026-09-04 23:08:56 | 50.81405 | 6.54804 | 119° | 22km/h | 26724m | 6m/s | -49.4°C | 2.6% | 21.9hPa | 3.7V | 00:00:00 | 00:00:00 | 00:00:00 | |
| DM0DOS-11 | 2026-09-04 23:08:52 | 50.81434 | 6.54765 | 158° | 18km/h | 26684m | 6m/s | -49.3°C | 2.5% | 22.1hPa | 3.7V | 00:00:00 | 01:32:16 | 00:00:00 | |
| AA1-15 | 2026-09-04 23:08:52 | 50.81422 | 6.54772 | 0° | 0km/h | 26701m | 0m/s | -49.4°C | 2.6% | 22hPa | 3.7V | 00:00:00 | 00:00:00 | 00:00:00 | |
| DM0DOS-11 | 2026-09-04 23:08:42 | 50.81474 | 6.54718 | 186° | 15km/h | 26626m | 6m/s | -49.2°C | 2.7% | 22.2hPa | 3.7V | 00:00:00 | 01:32:06 | 00:00:00 | |
| AA1-15 | 2026-09-04 23:08:41 | 50.81461 | 6.54728 | 0° | 0km/h | 26637m | 0m/s | -49.2°C | 2.7% | 22.2hPa | 3.7V | 00:00:00 | 00:00:00 | 00:00:00 | |
| BIOWL1-15 | 2026-09-04 23:08:34 | 50.81488 | 6.54722 | 139° | 26km/h | 26596m | 5.5m/s | -49.3°C | 2.7% | 22.3hPa | 3.7V | 00:00:00 | 00:00:00 | 00:00:00 | |
| AA1-15 | 2026-09-04 23:08:30 | 50.81505 | 6.54704 | 0° | 0km/h | 26573m | 0m/s | -49.2°C | 2.7% | 22.4hPa | 3.7V | 00:00:00 | 00:00:00 | 00:00:00 | |
| BIOWL1-15 | 2026-09-04 23:08:23 | 50.81523 | 6.54706 | 191° | 15km/h | 26531m | 5m/s | -49.1°C | 2.7% | 22.5hPa | 3.7V | 00:00:00 | 00:00:00 | 00:00:00 | |
| DM0DOS-11 | 2026-09-04 23:08:22 | 50.81546 | 6.54695 | 143° | 18km/h | 26507m | 5.6m/s | -49°C | 2.7% | 22.6hPa | 3.7V | 00:00:00 | 01:31:46 | 00:00:00 | |
| AA1-15 | 2026-09-04 23:08:18 | 50.81552 | 6.54688 | 0° | 0km/h | 26503m | 0m/s | -49°C | 2.7% | 22.6hPa | 3.7V | 00:00:00 | 00:00:00 | 00:00:00 | |
| BIOWL1-15 | 2026-09-04 23:08:18 | 50.81562 | 6.54694 | 151° | 37km/h | 26465m | 5m/s | -49.1°C | 2.7% | 22.8hPa | 3.7V | 00:00:00 | 00:00:00 | 00:00:00 | |
| GOEST3-10 | 2026-09-04 23:08:13 | 50.81554 | 6.54692 | 154° | 16km/h | 26479m | 5.9m/s | -49.1°C | 2.7% | 22.7hPa | 3.7V | 00:00:00 | 01:31:41 | 00:00:00 | |
| DB0UT-7 | 2026-09-04 23:08:11 | 50.81562 | 6.54694 | 157° | 15km/h | 26465m | 5.5m/s | -49.1°C | 2.7% | 22.7hPa | 3.7V | 00:00:00 | 00:00:00 | 00:00:00 | |
| DM0DOS-11 | 2026-09-04 23:08:09 | 50.81584 | 6.54672 | 121° | 13km/h | 26450m | 6m/s | -49.1°C | 2.7% | 22.8hPa | 3.7V | 00:00:00 | 01:31:36 | 00:00:00 | |
| AA1-15 | 2026-09-04 23:08:07 | 50.81586 | 6.54664 | 0° | 0km/h | 26437m | 0m/s | -49.1°C | 2.7% | 22.9hPa | 3.7V | 00:00:00 | 00:00:00 | 00:00:00 | |
| DM0DOS-11 | 2026-09-04 23:08:04 | 50.81610 | 6.54661 | 90° | 7km/h | 26390m | 6.1m/s | -49.2°C | 2.7% | 23hPa | 3.7V | 00:00:00 | 01:31:26 | 00:00:00 | |
| BIOWL1-15 | 2026-09-04 23:08:02 | 50.81610 | 6.54660 | 105° | 5km/h | 26384m | 6.5m/s | -49.2°C | 2.8% | 23hPa | 3.7V | 00:00:00 | 00:00:00 | 00:00:00 | |
| AA1-15 | 2026-09-04 23:07:56 | 50.81610 | 6.54655 | 0° | 0km/h | 26371m | 0m/s | -49.2°C | 2.8% | 23.1hPa | 3.7V | 00:00:00 | 00:00:00 | 00:00:00 | |
| DM0DOS-11 | 2026-09-04 23:07:53 | 50.81630 | 6.54637 | 159° | 11km/h | 26330m | 6.3m/s | -49°C | 2.7% | 23.2hPa | 3.7V | 00:00:00 | 01:31:16 | 00:00:00 | |
| AA1-15 | 2026-09-04 23:07:45 | 50.81635 | 6.54641 | 0° | 0km/h | 26306m | 0m/s | -48.9°C | 2.8% | 23.3hPa | 3.7V | 00:00:00 | 00:00:00 | 00:00:00 | |
| BIOWL1-15 | 2026-09-04 23:07:43 | 50.81639 | 6.54636 | 138° | 24km/h | 26292m | 6m/s | -48.9°C | 2.8% | 23.3hPa | 3.7V | 00:00:00 | 00:00:00 | 00:00:00 | |
| DM0DOS-11 | 2026-09-04 23:07:43 | 50.81654 | 6.54617 | 169° | 16km/h | 26268m | 6.2m/s | -48.8°C | 2.8% | 23.4hPa | 3.7V | 00:00:00 | 01:31:06 | 00:00:00 | |
| AA1-15 | 2026-09-04 23:07:35 | 50.81669 | 6.54615 | 0° | 0km/h | 26243m | 0m/s | -48.9°C | 2.9% | 23.5hPa | 3.7V | 00:00:00 | 00:00:00 | 00:00:00 | |
| BIOWL1-15 | 2026-09-04 23:07:33 | 50.81676 | 6.54620 | 151° | 22km/h | 26230m | 6m/s | -48.9°C | 2.9% | 23.5hPa | 3.7V | 00:00:00 | 00:00:00 | 00:00:00 | |
| DM0DOS-11 | 2026-09-04 23:07:32 | 50.81695 | 6.54603 | 147° | 20km/h | 26206m | 6.1m/s | -49°C | 2.8% | 23.6hPa | 3.7V | 00:00:00 | 01:30:56 | 00:00:00 | |
| DM0DOS-11 | 2026-09-04 23:07:22 | 50.81751 | 6.54590 | 178° | 26km/h | 26146m | 5.8m/s | -49°C | 2.8% | 23.8hPa | 3.7V | 00:00:00 | 01:30:46 | 00:00:00 | |
| BIOWL1-15 | 2026-09-04 23:07:21 | 50.81761 | 6.54589 | 164° | 33km/h | 26135m | 6.5m/s | -49°C | 2.9% | 23.8hPa | 3.7V | 00:00:00 | 00:00:00 | 00:00:00 | |
| AA1-15 | 2026-09-04 23:07:20 | 50.81747 | 6.54591 | 0° | 0km/h | 26152m | 0m/s | -49°C | 2.9% | 23.8hPa | 3.7V | 00:00:00 | 00:00:00 | 00:00:00 | |
| DM0DOS-11 | 2026-09-04 23:07:12 | 50.81816 | 6.54568 | 165° | 26km/h | 26087m | 6m/s | -49.1°C | 3% | 24hPa | 3.7V | 00:00:00 | 01:30:36 | 00:00:00 | |
| AA1-15 | 2026-09-04 23:07:09 | 50.81816 | 6.54568 | 0° | 0km/h | 26087m | 0m/s | -49.1°C | 3% | 24hPa | 3.7V | 00:00:00 | 00:00:00 | 00:00:00 | |
| BIOWL1-15 | 2026-09-04 23:07:07 | 50.81862 | 6.54525 | 148° | 20km/h | 26032m | 6m/s | -49°C | 3% | 24.2hPa | 3.7V | 00:00:00 | 00:00:00 | 00:00:00 | |
| DM0DOS-11 | 2026-09-04 23:07:02 | 50.81866 | 6.54521 | 156° | 24km/h | 26026m | 6m/s | -49°C | 3% | 24.2hPa | 3.7V | 00:00:00 | 01:30:26 | 00:00:00 | |
| AA1-15 | 2026-09-04 23:06:57 | 50.81879 | 6.54513 | 0° | 0km/h | 26013m | 0m/s | -49°C | 3% | 24.2hPa | 3.7V | 00:00:00 | 00:00:00 | 00:00:00 | |
| DL1XH1-15 | 2026-09-04 23:06:56 | 50.81891 | 6.54503 | 136° | 24km/h | 26003m | 5.8m/s | -49°C | 3% | 24.3hPa | 3.7V | 00:00:00 | 01:30:22 | 00:00:00 | |
| BIOWL1-15 | 2026-09-04 23:06:55 | 50.81896 | 6.54497 | 116° | 11km/h | 25990m | 4m/s | -49.1°C | 3% | 24.3hPa | 3.7V | 00:00:00 | 00:00:00 | 00:00:00 | |
| DM0DOS-11 | 2026-09-04 23:06:52 | 50.81911 | 6.54470 | 143° | 24km/h | 25967m | 5.9m/s | -49.3°C | 3% | 24.4hPa | 3.7V | 00:00:00 | 01:30:16 | 00:00:00 | |
| AA1-15 | 2026-09-04 23:06:46 | 50.81927 | 6.54453 | 0° | 0km/h | 25949m | 0m/s | -49.5°C | 3.1% | 24.5hPa | 3.7V | 00:00:00 | 00:00:00 | 00:00:00 | |
| BIOWL1-15 | 2026-09-04 23:06:43 | 50.81941 | 6.54409 | 121° | 20km/h | 25913m | 6m/s | -49.6°C | 3.1% | 24.6hPa | 3.7V | 00:00:00 | 00:00:00 | 00:00:00 | |
| DM0DOS-11 | 2026-09-04 23:06:42 | 50.81944 | 6.54402 | 140° | 20km/h | 25907m | 5.7m/s | -49.6°C | 3% | 24.6hPa | 3.7V | 00:00:00 | 01:30:06 | 00:00:00 | |
| DL1XH1-15 | 2026-09-04 23:06:41 | 50.81948 | 6.54397 | 109° | 24km/h | 25902m | 5.6m/s | -49.6°C | 3% | 24.6hPa | 3.7V | 00:00:00 | 01:30:05 | 00:00:00 | |
| AA1-15 | 2026-09-04 23:06:36 | 50.81956 | 6.54385 | 0° | 0km/h | 25889m | 0m/s | -49.7°C | 3.1% | 24.7hPa | 3.7V | 00:00:00 | 00:00:00 | 00:00:00 | |
| DM0DOS-11 | 2026-09-04 23:06:32 | 50.81955 | 6.54343 | 113° | 20km/h | 25849m | 5.8m/s | -49.9°C | 3% | 24.8hPa | 3.7V | 00:00:00 | 01:29:56 | 00:00:00 | |
| BIOWL1-15 | 2026-09-04 23:06:29 | 50.81965 | 6.54314 | 99° | 9km/h | 25825m | 5m/s | -49.8°C | 3.1% | 24.9hPa | 3.7V | 00:00:00 | 00:00:00 | 00:00:00 | |
| AA1-15 | 2026-09-04 23:06:24 | 50.81966 | 6.54311 | 0° | 0km/h | 25820m | 0m/s | -49.8°C | 3.1% | 24.9hPa | 3.7V | 00:00:00 | 00:00:00 | 00:00:00 | |
| DM0DOS-11 | 2026-09-04 23:06:22 | 50.81973 | 6.54274 | 97° | 15km/h | 25790m | 5.8m/s | -50°C | 3.1% | 25hPa | 3.7V | 00:00:00 | 01:29:46 | 00:00:00 | |
| BIOWL1-15 | 2026-09-04 23:06:19 | 50.81974 | 6.54265 | 126° | 18km/h | 25779m | 6m/s | -50°C | 3.2% | 25.1hPa | 3.7V | 00:00:00 | 00:00:00 | 00:00:00 | |
| GOEST3-10 | 2026-09-04 23:06:15 | 50.81976 | 6.54260 | 122° | 26km/h | 25772m | 5.7m/s | -50.0°C | 3.1% | 25.1hPa | 3.7V | 00:00:00 | 00:00:00 | 00:00:00 | |
| DM0DOS-11 | 2026-09-04 23:06:12 | 50.81991 | 6.54220 | 128° | 22km/h | 25731m | 5.8m/s | -50.1°C | 3.1% | 25.2hPa | 3.7V | 00:00:00 | 01:29:36 | 00:00:00 | |
| BIOWL1-15 | 2026-09-04 23:06:12 | 50.81995 | 6.54212 | 124° | 18km/h | 25725m | 5.8m/s | -50.1°C | 3.2% | 25.3hPa | 3.7V | 00:00:00 | 00:00:00 | 00:00:00 | |
| AA1-15 | 2026-09-04 23:06:11 | 50.81985 | 6.54235 | 0° | 0km/h | 25744m | 0m/s | -50.1°C | 3.2% | 25.2hPa | 3.7V | 00:00:00 | 00:00:00 | 00:00:00 | |
| DM0DOS-11 | 2026-09-04 23:06:02 | 50.82022 | 6.54149 | 110° | 33km/h | 25674m | 5.8m/s | -50.5°C | 3.1% | 25.4hPa | 3.7V | 00:00:00 | 01:29:26 | 00:00:00 | |
| AA1-15 | 2026-09-04 23:06:01 | 50.82018 | 6.54163 | 0° | 0km/h | 25685m | 0m/s | -50.4°C | 3.2% | 25.4hPa | 3.7V | 00:00:00 | 00:00:00 | 00:00:00 | |
| BIOWL1-15 | 2026-09-04 23:05:56 | 50.82032 | 6.54112 | 115° | 42km/h | 25656m | 5m/s | -50.5°C | 3.2% | 25.5hPa | 3.7V | 00:00:00 | 00:00:00 | 00:00:00 | |
| AA1-15 | 2026-09-04 23:05:50 | 50.82053 | 6.54048 | 0° | 0km/h | 25622m | 0m/s | -50.8°C | 3.3% | 25.6hPa | 3.7V | 00:00:00 | 00:00:00 | 00:00:00 | |
| BIOWL1-15 | 2026-09-04 23:05:45 | 50.82071 | 6.53940 | 112° | 37km/h | 25583m | 5m/s | -51.3°C | 3.3% | 25.8hPa | 3.7V | 00:00:00 | 00:00:00 | 00:00:00 | |
| DM0DOS-11 | 2026-09-04 23:05:42 | 50.82073 | 6.53903 | 68° | 33km/h | 25560m | 5.5m/s | -51.5°C | 3.2% | 25.9hPa | 3.7V | 00:00:00 | 01:29:06 | 00:00:00 | |
| AA1-15 | 2026-09-04 23:05:39 | 50.82073 | 6.53903 | 0° | 0km/h | 25560m | 0m/s | -51.5°C | 3.3% | 25.9hPa | 3.7V | 00:00:00 | 00:00:00 | 00:00:00 | |
| DL1XH1-15 | 2026-09-04 23:05:36 | 50.82071 | 6.53843 | 64° | 13km/h | 25539m | 5.6m/s | -51.6°C | 3.3% | 25.9hPa | 3.7V | 00:00:00 | 01:29:02 | 00:00:00 | |
| BIOWL1-15 | 2026-09-04 23:05:32 | 50.82068 | 6.53808 | 35° | 15km/h | 25521m | 5m/s | -51.7°C | 3.4% | 26hPa | 3.7V | 00:00:00 | 00:00:00 | 00:00:00 | |
| DM0DOS-11 | 2026-09-04 23:05:32 | 50.82063 | 6.53794 | 102° | 29km/h | 25505m | 5.6m/s | -51.8°C | 3.3% | 26.1hPa | 3.7V | 00:00:00 | 01:28:56 | 00:00:00 | |
| AA1-15 | 2026-09-04 23:05:28 | 50.82065 | 6.53784 | 0° | 0km/h | 25500m | 0m/s | -51.8°C | 3.4% | 26.1hPa | 3.7V | 00:00:00 | 00:00:00 | 00:00:00 | |
| BIOWL1-15 | 2026-09-04 23:05:22 | 50.82046 | 6.53706 | 64° | 15km/h | 25454m | 6m/s | -51.6°C | 3.4% | 26.3hPa | 3.7V | 00:00:00 | 00:00:00 | 00:00:00 | |
| AA1-15 | 2026-09-04 23:05:14 | 50.82030 | 6.53666 | 0° | 0km/h | 25419m | 0m/s | -51.5°C | 3.4% | 26.4hPa | 3.7V | 00:00:00 | 00:00:00 | 00:00:00 | |
| BIOWL1-15 | 2026-09-04 23:05:13 | 50.82012 | 6.53641 | 31° | 15km/h | 25396m | 6m/s | -51.5°C | 3.4% | 26.5hPa | 3.7V | 00:00:00 | 00:00:00 | 00:00:00 | |
| AA1-15 | 2026-09-04 23:05:02 | 50.81982 | 6.53605 | 0° | 0km/h | 25352m | 0m/s | -51.6°C | 3.5% | 26.7hPa | 3.7V | 00:00:00 | 00:00:00 | 00:00:00 | |
| BIOWL1-15 | 2026-09-04 23:05:01 | 50.81980 | 6.53601 | 108° | 13km/h | 25344m | 5m/s | -51.6°C | 3.5% | 26.7hPa | 3.7V | 00:00:00 | 00:00:00 | 00:00:00 | |
| DM0DOS-11 | 2026-09-04 23:04:52 | 50.81945 | 6.53568 | 4° | 9km/h | 25278m | 5.5m/s | -51.5°C | 3.5% | 26.9hPa | 3.7V | 00:00:00 | 01:28:16 | 00:00:00 | |
| AA1-15 | 2026-09-04 23:04:52 | 50.81948 | 6.53576 | 0° | 0km/h | 25294m | 0m/s | -51.6°C | 3.5% | 26.9hPa | 3.7V | 00:00:00 | 00:00:00 | 00:00:00 | |
| BIOWL1-15 | 2026-09-04 23:04:49 | 50.81945 | 6.53568 | 5° | 9km/h | 25278m | 5m/s | -51.5°C | 3.5% | 26.9hPa | 3.7V | 00:00:00 | 00:00:00 | 00:00:00 | |
| GOEST3-10 | 2026-09-04 23:04:46 | 50.81940 | 6.53567 | 29° | 11km/h | 25267m | 5.7m/s | -51.5°C | 3.5% | 27.0hPa | 3.7V | 00:00:00 | 01:28:14 | 00:00:00 | |
| DM0DOS-11 | 2026-09-04 23:04:42 | 50.81924 | 6.53561 | 94° | 13km/h | 25221m | 5.4m/s | -51.6°C | 3.5% | 27.2hPa | 3.7V | 00:00:00 | 01:28:06 | 00:00:00 | |
| AA1-15 | 2026-09-04 23:04:42 | 50.81927 | 6.53570 | 0° | 0km/h | 25239m | 0m/s | -51.6°C | 3.6% | 27.1hPa | 3.7V | 00:00:00 | 00:00:00 | 00:00:00 | |
| BIOWL1-15 | 2026-09-04 23:04:38 | 50.81922 | 6.53547 | 352° | 15km/h | 25205m | 6m/s | -51.7°C | 3.6% | 27.2hPa | 3.7V | 00:00:00 | 00:00:00 | 00:00:00 | |
| DL1XH1-15 | 2026-09-04 23:04:36 | 50.81918 | 6.53548 | 66° | 9km/h | 25199m | 5.5m/s | -51.7°C | 3.5% | 27.2hPa | 3.7V | 00:00:00 | 01:28:02 | 00:00:00 | |
| DM0DOS-11 | 2026-09-04 23:04:32 | 50.81916 | 6.53545 | 90° | 15km/h | 25166m | 5.7m/s | -51.8°C | 3.5% | 27.4hPa | 3.7V | 00:00:00 | 01:27:56 | 00:00:00 | |
| AA1-15 | 2026-09-04 23:04:31 | 50.81915 | 6.53549 | 0° | 0km/h | 25177m | 0m/s | -51.8°C | 3.6% | 27.4hPa | 3.7V | 00:00:00 | 00:00:00 | 00:00:00 | |
| BIOWL1-15 | 2026-09-04 23:04:26 | 50.81916 | 6.53520 | 71° | 18km/h | 25144m | 6m/s | -51.8°C | 3.7% | 27.5hPa | 3.7V | 00:00:00 | 00:00:00 | 00:00:00 | |
| DM0DOS-11 | 2026-09-04 23:04:22 | 50.81912 | 6.53505 | 137° | 16km/h | 25108m | 5.5m/s | -51.7°C | 3.6% | 27.6hPa | 3.7V | 00:00:00 | 01:27:46 | 00:00:00 | |
| AA1-15 | 2026-09-04 23:04:20 | 50.81908 | 6.53508 | 0° | 0km/h | 25114m | 0m/s | -51.7°C | 3.7% | 27.6hPa | 3.7V | 00:00:00 | 00:00:00 | 00:00:00 | |
| BIOWL1-15 | 2026-09-04 23:04:16 | 50.81916 | 6.53486 | 62° | 20km/h | 25091m | 6m/s | -51.7°C | 3.7% | 27.7hPa | 3.7V | 00:00:00 | 00:00:00 | 00:00:00 | |
| BIOWL1-15 | 2026-09-04 23:04:06 | 50.81916 | 6.53455 | 122° | 15km/h | 25035m | 6m/s | -51.9°C | 3.7% | 27.9hPa | 3.7V | 00:00:00 | 00:00:00 | 00:00:00 | |
| DM0DOS-11 | 2026-09-04 23:04:02 | 50.81912 | 6.53440 | 143° | 16km/h | 24997m | 5.2m/s | -51.9°C | 3.7% | 28.1hPa | 3.7V | 00:00:00 | 01:27:26 | 00:00:00 | |
| BIOWL1-15 | 2026-09-04 23:03:53 | 50.81910 | 6.53399 | 112° | 4km/h | 24960m | 5m/s | -51.9°C | 3.8% | 28.2hPa | 3.7V | 00:00:00 | 00:00:00 | 00:00:00 | |
| DM0DOS-11 | 2026-09-04 23:03:52 | 50.81908 | 6.53394 | 72° | 22km/h | 24945m | 5.2m/s | -52°C | 3.7% | 28.3hPa | 3.7V | 00:00:00 | 01:27:16 | 00:00:00 | |
| DM0DOS-11 | 2026-09-04 23:03:42 | 50.81887 | 6.53327 | 96° | 20km/h | 24891m | 5.2m/s | -52.4°C | 3.7% | 28.5hPa | 3.7V | 00:00:00 | 01:27:06 | 00:00:00 | |
| BIOWL1-15 | 2026-09-04 23:03:40 | 50.81885 | 6.53295 | 67° | 27km/h | 24870m | 5m/s | -52.6°C | 3.9% | 28.6hPa | 3.7V | 00:00:00 | 00:00:00 | 00:00:00 | |
| DM0DOS-11 | 2026-09-04 23:03:31 | 50.81871 | 6.53255 | 26° | 24km/h | 24838m | 5.4m/s | -52.8°C | 3.8% | 28.7hPa | 3.7V | 00:00:00 | 01:26:56 | 00:00:00 | |
| BIOWL1-15 | 2026-09-04 23:03:27 | 50.81850 | 6.53233 | 43° | 16km/h | 24816m | 5m/s | -52.9°C | 3.9% | 28.8hPa | 3.7V | 00:00:00 | 00:00:00 | 00:00:00 | |
| DM0DOS-11 | 2026-09-04 23:03:21 | 50.81830 | 6.53211 | 90° | 13km/h | 24784m | 5.4m/s | -52.9°C | 3.8% | 29hPa | 3.7V | 00:00:00 | 01:26:46 | 00:00:00 | |
| BIOWL1-15 | 2026-09-04 23:03:17 | 50.81829 | 6.53203 | 39° | 13km/h | 24774m | 6m/s | -52.9°C | 3.9% | 29hPa | 3.7V | 00:00:00 | 00:00:00 | 00:00:00 | |
| DM0DOS-11 | 2026-09-04 23:03:11 | 50.81802 | 6.53183 | 8° | 11km/h | 24729m | 5.4m/s | -52.9°C | 4% | 29.2hPa | 3.7V | 00:00:00 | 01:26:36 | 00:00:00 | |
| BIOWL1-15 | 2026-09-04 23:03:06 | 50.81793 | 6.53179 | 72° | 5km/h | 24712m | 5m/s | -52.9°C | 4% | 29.3hPa | 3.7V | 00:00:00 | 00:00:00 | 00:00:00 | |
| DL1XH1-15 | 2026-09-04 23:03:05 | 50.81789 | 6.53175 | 2° | 9km/h | 24696m | 5.5m/s | -52.9°C | 4% | 29.3hPa | 3.7V | 00:00:00 | 01:26:30 | 00:00:00 | |
| DM0DOS-11 | 2026-09-04 23:03:01 | 50.81784 | 6.53175 | 351° | 7km/h | 24674m | 5.5m/s | -53°C | 4% | 29.4hPa | 3.7V | 00:00:00 | 01:26:26 | 00:00:00 | |
| BIOWL1-15 | 2026-09-04 23:02:56 | 50.81778 | 6.53174 | 29° | 13km/h | 24657m | 5m/s | -53°C | 4.1% | 29.5hPa | 3.7V | 00:00:00 | 00:00:00 | 00:00:00 | |
| BIOWL1-15 | 2026-09-04 23:02:45 | 50.81776 | 6.53163 | 23° | 13km/h | 24596m | 6m/s | -53°C | 4.1% | 29.8hPa | 3.7V | 00:00:00 | 00:00:00 | 00:00:00 | |
| DM0DOS-11 | 2026-09-04 23:02:41 | 50.81763 | 6.53155 | 0° | 13km/h | 24562m | 5.6m/s | -53°C | 4% | 29.9hPa | 3.7V | 00:00:00 | 01:26:06 | 00:00:00 | |
| BIOWL1-15 | 2026-09-04 23:02:40 | 50.81749 | 6.53149 | 47° | 9km/h | 24534m | 5m/s | -52.8°C | 4.2% | 30.1hPa | 3.7V | 00:00:00 | 00:00:00 | 00:00:00 | |
| AA1-15 | 2026-09-04 23:02:32 | 50.81744 | 6.53144 | 0° | 0km/h | 24522m | 0m/s | -52.7°C | 4.2% | 30.1hPa | 3.7V | 00:00:00 | 00:00:00 | 00:00:00 | |
| DM0DOS-11 | 2026-09-04 23:02:30 | 50.81733 | 6.53140 | 355° | 5km/h | 24506m | 5.7m/s | -52.6°C | 4.1% | 30.1hPa | 3.7V | 00:00:00 | 01:25:56 | 00:00:00 | |
| BIOWL1-15 | 2026-09-04 23:02:23 | 50.81723 | 6.53136 | 19° | 5km/h | 24473m | 7m/s | -52.5°C | 4.2% | 30.3hPa | 3.7V | 00:00:00 | 00:00:00 | 00:00:00 | |
| DM0DOS-11 | 2026-09-04 23:02:20 | 50.81717 | 6.53137 | 1° | 16km/h | 24451m | 5.6m/s | -52.5°C | 4.2% | 30.4hPa | 3.7V | 00:00:00 | 01:25:46 | 00:00:00 | |
| AA1-15 | 2026-09-04 23:02:16 | 50.81699 | 6.53133 | 0° | 0km/h | 24434m | 0m/s | -52.5°C | 4.3% | 30.5hPa | 3.7V | 00:00:00 | 00:00:00 | 00:00:00 | |
| BIOWL1-15 | 2026-09-04 23:02:13 | 50.81689 | 6.53127 | 354° | 13km/h | 24401m | 6m/s | -52.3°C | 4.3% | 30.6hPa | 3.7V | 00:00:00 | 00:00:00 | 00:00:00 | |
| DB0UT-7 | 2026-09-04 23:02:11 | 50.81696 | 6.53128 | 5° | 9km/h | 24412m | 5.6m/s | -52.3°C | 4.2% | 30.5hPa | 3.7V | 00:00:00 | 00:00:00 | 00:00:00 | |
| DL1XH1-15 | 2026-09-04 23:02:10 | 50.81676 | 6.53130 | 19° | 7km/h | 24378m | 5.5m/s | -52.1°C | 4.2% | 30.8hPa | 3.7V | 00:00:00 | 01:25:33 | 00:00:00 | |
| DM0DOS-11 | 2026-09-04 23:02:09 | 50.81685 | 6.53128 | 352° | 11km/h | 24395m | 5.7m/s | -52.2°C | 4.2% | 30.6hPa | 3.7V | 00:00:00 | 01:25:36 | 00:00:00 | |
| AA1-15 | 2026-09-04 23:02:05 | 50.81666 | 6.53127 | 0° | 0km/h | 24362m | 0m/s | -52.1°C | 4.4% | 30.8hPa | 3.7V | 00:00:00 | 00:00:00 | 00:00:00 | |
| DM0DOS-11 | 2026-09-04 23:02:04 | 50.81665 | 6.53126 | 339° | 13km/h | 24339m | 5.7m/s | -52.1°C | 4.4% | 30.9hPa | 3.7V | 00:00:00 | 01:25:26 | 00:00:00 | |
| BIOWL1-15 | 2026-09-04 23:01:58 | 50.81649 | 6.53127 | 36° | 9km/h | 24311m | 6m/s | -52.2°C | 4.4% | 31hPa | 3.7V | 00:00:00 | 00:00:00 | 00:00:00 | |
| GOEST3-10 | 2026-09-04 23:01:55 | 50.81651 | 6.53129 | 45° | 7km/h | 24316m | 5.3m/s | -52.1°C | 4.4% | 31.0hPa | 3.7V | 00:00:00 | 00:00:00 | 00:00:00 | |
| DM0DOS-11 | 2026-09-04 23:01:51 | 50.81643 | 6.53123 | 175° | 7km/h | 24283m | 5.4m/s | -52.2°C | 4.4% | 31.2hPa | 3.7V | 00:00:00 | 01:25:16 | 00:00:00 | |
| DL1XH1-15 | 2026-09-04 23:01:51 | 50.81644 | 6.53123 | 51° | 11km/h | 24272m | 5.6m/s | -52.1°C | 4.4% | 31.2hPa | 3.7V | 00:00:00 | 01:25:14 | 00:00:00 | |
| AA1-15 | 2026-09-04 23:01:48 | 50.81644 | 6.53123 | 0° | 0km/h | 24278m | 0m/s | -52.2°C | 4.4% | 31.2hPa | 3.7V | 00:00:00 | 00:00:00 | 00:00:00 | |
| BIOWL1-15 | 2026-09-04 23:01:46 | 50.81633 | 6.53120 | 119° | 5km/h | 24251m | 6m/s | -52.2°C | 4.4% | 31.3hPa | 3.7V | 00:00:00 | 00:00:00 | 00:00:00 | |
| DB0UT-7 | 2026-09-04 23:01:42 | 50.81633 | 6.53118 | 146° | 11km/h | 24245m | 5.7m/s | -52.1°C | 4.5% | 31.3hPa | 3.7V | 00:00:00 | 01:25:09 | 00:00:00 | |
| DM0DOS-11 | 2026-09-04 23:01:41 | 50.81637 | 6.53113 | 15° | 7km/h | 24228m | 5.8m/s | -52.1°C | 4.5% | 31.4hPa | 3.7V | 00:00:00 | 01:25:06 | 00:00:00 | |
| AA1-15 | 2026-09-04 23:01:36 | 50.81634 | 6.53111 | 0° | 0km/h | 24210m | 0m/s | -52.2°C | 4.5% | 31.5hPa | 3.7V | 00:00:00 | 00:00:00 | 00:00:00 | |
| BIOWL1-15 | 2026-09-04 23:01:33 | 50.81641 | 6.53083 | 79° | 7km/h | 24166m | 6m/s | -52.2°C | 4.6% | 31.7hPa | 3.7V | 00:00:00 | 00:00:00 | 00:00:00 | |
| DM0DOS-11 | 2026-09-04 23:01:30 | 50.81639 | 6.53085 | 122° | 11km/h | 24171m | 5.6m/s | -52.2°C | 4.5% | 31.7hPa | 3.7V | 00:00:00 | 01:24:56 | 00:00:00 | |
| AA1-15 | 2026-09-04 23:01:23 | 50.81638 | 6.53063 | 0° | 0km/h | 24137m | 0m/s | -52.4°C | 4.6% | 31.8hPa | 3.7V | 00:00:00 | 00:00:00 | 00:00:00 | |
| DM0DOS-11 | 2026-09-04 23:01:20 | 50.81640 | 6.53042 | 80° | 11km/h | 24115m | 5.9m/s | -52.5°C | 4.5% | 31.9hPa | 3.7V | 00:00:00 | 01:24:46 | 00:00:00 | |
| BIOWL1-15 | 2026-09-04 23:01:17 | 50.81637 | 6.53015 | 138° | 15km/h | 24069m | 5m/s | -52.7°C | 4.6% | 32.2hPa | 3.7V | 00:00:00 | 00:00:00 | 00:00:00 | |
| BIOWL1-15 | 2026-09-04 23:01:05 | 50.81627 | 6.52996 | 31° | 5km/h | 24035m | 5m/s | -52.7°C | 4.7% | 32.3hPa | 3.7V | 00:00:00 | 00:00:00 | 00:00:00 | |
| DM0DOS-11 | 2026-09-04 23:01:00 | 50.81614 | 6.52971 | 90° | 9km/h | 24002m | 5.6m/s | -53°C | 4.6% | 32.5hPa | 3.7V | 00:00:00 | 01:24:26 | 00:00:00 | |
| BIOWL1-15 | 2026-09-04 23:00:54 | 50.81605 | 6.52959 | 151° | 5km/h | 23963m | 5m/s | -52.9°C | 4.8% | 32.7hPa | 3.7V | 00:00:00 | 00:00:00 | 00:00:00 | |
| DM0DOS-11 | 2026-09-04 23:00:50 | 50.81608 | 6.52951 | 74° | 16km/h | 23946m | 5.5m/s | -52.8°C | 4.7% | 32.8hPa | 3.7V | 00:00:00 | 01:24:16 | 00:00:00 | |
| DO3MHA-12 | 2026-09-04 23:00:47 | 50.81607 | 6.52945 | 77° | 18km/h | 23940m | 5.3m/s | -52.7°C | 4.7% | 32.7hPa | 3.7V | 00:00:00 | 01:24:15 | 00:00:00 | |
| DB0UT-7 | 2026-09-04 23:00:41 | 50.81609 | 6.52918 | 41° | 22km/h | 23906m | 5.1m/s | -52.8°C | 4.7% | 32.9hPa | 3.7V | 00:00:00 | 01:24:09 | 00:00:00 | |
| BIOWL1-15 | 2026-09-04 23:00:41 | 50.81605 | 6.52904 | 124° | 18km/h | 23893m | 7m/s | -52.9°C | 4.9% | 33hPa | 3.7V | 00:00:00 | 00:00:00 | 00:00:00 | |
| DM0DOS-11 | 2026-09-04 23:00:40 | 50.81605 | 6.52904 | 124° | 22km/h | 23893m | 6m/s | -52.9°C | 4.9% | 33hPa | 3.7V | 00:00:00 | 01:24:06 | 00:00:00 | |
| BIOWL1-15 | 2026-09-04 23:00:29 | 50.81656 | 6.52828 | 116° | 20km/h | 23814m | 5m/s | -52.7°C | 4.9% | 33.4hPa | 3.7V | 00:00:00 | 00:00:00 | 00:00:00 | |
| GOEST3-10 | 2026-09-04 23:00:22 | 50.81662 | 6.52814 | 143° | 20km/h | 23803m | 5.6m/s | -52.6°C | 4.9% | 33.4hPa | 3.7V | 00:00:00 | 00:00:00 | 00:00:00 | |
| DM0DOS-11 | 2026-09-04 23:00:20 | 50.81678 | 6.52789 | 131° | 20km/h | 23781m | 5.8m/s | -52.6°C | 5% | 33.6hPa | 3.7V | 00:00:00 | 01:23:46 | 00:00:00 | |
| BIOWL1-15 | 2026-09-04 23:00:16 | 50.81699 | 6.52745 | 94° | 22km/h | 23741m | 6m/s | -52.6°C | 5% | 33.8hPa | 3.7V | 00:00:00 | 00:00:00 | 00:00:00 | |
| DB0UT-7 | 2026-09-04 23:00:11 | 50.81699 | 6.52745 | 94° | 15km/h | 23741m | 5.7m/s | -52.6°C | 5.0% | 33.7hPa | 3.7V | 00:00:00 | 00:00:00 | 00:00:00 | |
| DM0DOS-11 | 2026-09-04 23:00:10 | 50.81704 | 6.52726 | 147° | 16km/h | 23724m | 5.8m/s | -52.6°C | 5% | 33.8hPa | 3.7V | 00:00:00 | 01:23:36 | 00:00:00 | |
| BIOWL1-15 | 2026-09-04 23:00:01 | 50.81725 | 6.52685 | 63° | 16km/h | 23678m | 5m/s | -52.6°C | 5.1% | 34.1hPa | 3.7V | 00:00:00 | 00:00:00 | 00:00:00 | |
| DM0DOS-11 | 2026-09-04 23:00:00 | 50.81723 | 6.52675 | 137° | 13km/h | 23668m | 5.6m/s | -52.5°C | 5% | 34.1hPa | 3.7V | 00:00:00 | 01:23:26 | 00:00:00 | |
| BIOWL1-15 | 2026-09-04 22:59:51 | 50.81742 | 6.52633 | 109° | 4km/h | 23593m | 6m/s | -52.1°C | 5.2% | 34.5hPa | 3.7V | 00:00:00 | 00:00:00 | 00:00:00 | |
| GOEST3-10 | 2026-09-04 22:59:51 | 50.81735 | 6.52642 | 143° | 15km/h | 23631m | 5.6m/s | -52.2°C | 5.1% | 34.3hPa | 3.7V | 00:00:00 | 00:00:00 | 00:00:00 | |
| DM0DOS-11 | 2026-09-04 22:59:50 | 50.81741 | 6.52639 | 191° | 9km/h | 23613m | 5.3m/s | -52.2°C | 5.1% | 34.4hPa | 3.7V | 00:00:00 | 01:23:16 | 00:00:00 | |
| DB0UT-7 | 2026-09-04 22:59:41 | 50.81749 | 6.52630 | 159° | 15km/h | 23575m | 5.6m/s | -52.0°C | 5.1% | 34.5hPa | 3.7V | 00:00:00 | 01:23:09 | 00:00:00 | |
| DM0DOS-11 | 2026-09-04 22:59:40 | 50.81758 | 6.52619 | 152° | 13km/h | 23558m | 5.6m/s | -52°C | 5.2% | 34.7hPa | 3.7V | 00:00:00 | 01:23:06 | 00:00:00 | |
| BIOWL1-15 | 2026-09-04 22:59:36 | 50.81767 | 6.52619 | 206° | 9km/h | 23541m | 6m/s | -52°C | 5.3% | 34.8hPa | 3.7V | 00:00:00 | 00:00:00 | 00:00:00 | |
| DL1XH1-15 | 2026-09-04 22:59:26 | 50.81806 | 6.52614 | 155° | 18km/h | 23475m | 5.1m/s | -51.9°C | 5.4% | 35.1hPa | 3.7V | 00:00:00 | 01:22:51 | 00:00:00 | |
| BIOWL1-15 | 2026-09-04 22:59:25 | 50.81805 | 6.52612 | 239° | 5km/h | 23480m | 5m/s | -51.9°C | 5.4% | 35.1hPa | 3.7V | 00:00:00 | 00:00:00 | 00:00:00 | |
| DM0DOS-11 | 2026-09-04 22:59:20 | 50.81826 | 6.52603 | 181° | 20km/h | 23447m | 4.8m/s | -52°C | 5.5% | 35.2hPa | 3.7V | 00:00:00 | 01:22:46 | 00:00:00 | |
| DO3MHA-12 | 2026-09-04 22:59:18 | 50.81826 | 6.52603 | 182° | 16km/h | 23447m | 4.7m/s | -52.0°C | 5.5% | 35.2hPa | 3.7V | 00:00:00 | 01:22:46 | 00:00:00 | |
| DL1XH1-15 | 2026-09-04 22:59:15 | 50.81844 | 6.52598 | 75° | 13km/h | 23422m | 5.2m/s | -52°C | 5.5% | 35.4hPa | 3.7V | 00:00:00 | 01:22:41 | 00:00:00 | |
| BIOWL1-15 | 2026-09-04 22:59:14 | 50.81846 | 6.52595 | 175° | 22km/h | 23412m | 4.5m/s | -52.1°C | 5.5% | 35.4hPa | 3.7V | 00:00:00 | 00:00:00 | 00:00:00 | |
| DB0UT-7 | 2026-09-04 22:59:11 | 50.81846 | 6.52595 | 179° | 15km/h | 23412m | 5.0m/s | -52.0°C | 5.5% | 35.4hPa | 3.7V | 00:00:00 | 00:00:00 | 00:00:00 | |
| DM0DOS-11 | 2026-09-04 22:59:10 | 50.81863 | 6.52589 | 139° | 18km/h | 23397m | 5m/s | -52.1°C | 5.5% | 35.5hPa | 3.7V | 00:00:00 | 01:22:36 | 00:00:00 | |
| BIOWL1-15 | 2026-09-04 22:59:06 | 50.81878 | 6.52563 | 159° | 7km/h | 23370m | 4m/s | -52.1°C | 5.6% | 35.7hPa | 3.7V | 00:00:00 | 00:00:00 | 00:00:00 | |
| DO3MHA-12 | 2026-09-04 22:59:02 | 50.81880 | 6.52561 | 91° | 13km/h | 23366m | 5.4m/s | -52.0°C | 5.5% | 35.6hPa | 3.7V | 00:00:00 | 01:22:30 | 00:00:00 | |
| DM0DOS-11 | 2026-09-04 22:58:59 | 50.81882 | 6.52540 | 136° | 15km/h | 23345m | 5.7m/s | -52.1°C | 5.5% | 35.8hPa | 3.7V | 00:00:00 | 01:22:26 | 00:00:00 | |
| BIOWL1-15 | 2026-09-04 22:58:54 | 50.81893 | 6.52522 | 106° | 13km/h | 23317m | 5.3m/s | -52.1°C | 5.6% | 36hPa | 3.7V | 00:00:00 | 00:00:00 | 00:00:00 | |
| DM0DOS-11 | 2026-09-04 22:58:49 | 50.81898 | 6.52490 | 104° | 15km/h | 23289m | 5.2m/s | -52.2°C | 5.5% | 36.1hPa | 3.7V | 00:00:00 | 01:22:16 | 00:00:00 | |
| DL1XH1-15 | 2026-09-04 22:58:47 | 50.81906 | 6.52470 | 78° | 15km/h | 23257m | 5.4m/s | -52.4°C | 5.6% | 36.3hPa | 3.7V | 00:00:00 | 01:22:10 | 00:00:00 | |
| BIOWL1-15 | 2026-09-04 22:58:43 | 50.81906 | 6.52470 | 75° | 16km/h | 23257m | 6m/s | -52.5°C | 5.7% | 36.3hPa | 3.7V | 00:00:00 | 00:00:00 | 00:00:00 | |
| DB0UT-7 | 2026-09-04 22:58:41 | 50.81905 | 6.52463 | 82° | 9km/h | 23251m | 5.0m/s | -52.4°C | 5.7% | 36.2hPa | 3.7V | 00:00:00 | 01:22:09 | 00:00:00 | |
| DM0DOS-11 | 2026-09-04 22:58:39 | 50.81903 | 6.52442 | 99° | 9km/h | 23236m | 5.3m/s | -52.5°C | 5.7% | 36.4hPa | 3.7V | 00:00:00 | 01:22:06 | 00:00:00 | |
| BIOWL1-15 | 2026-09-04 22:58:32 | 50.81897 | 6.52415 | 50° | 15km/h | 23187m | 5m/s | -52.5°C | 5.8% | 36.6hPa | 3.7V | 00:00:00 | 00:00:00 | 00:00:00 | |
| DM0DOS-11 | 2026-09-04 22:58:29 | 50.81894 | 6.52411 | 55° | 9km/h | 23182m | 5.5m/s | -52.5°C | 5.7% | 36.7hPa | 3.7V | 00:00:00 | 01:21:56 | 00:00:00 | |
| DL1XH1-15 | 2026-09-04 22:58:24 | 50.81883 | 6.52393 | 354° | 7km/h | 23132m | 5.3m/s | -52.4°C | 5.9% | 36.9hPa | 3.7V | 00:00:00 | 01:21:47 | 00:00:00 | |
| BIOWL1-15 | 2026-09-04 22:58:20 | 50.81874 | 6.52383 | 90° | 0km/h | 23099m | 5m/s | -52.4°C | 5.9% | 37.1hPa | 3.7V | 00:00:00 | 00:00:00 | 00:00:00 | |
| DM0DOS-11 | 2026-09-04 22:58:19 | 50.81882 | 6.52398 | 313° | 9km/h | 23127m | 5.3m/s | -52.4°C | 5.9% | 37hPa | 3.7V | 00:00:00 | 01:21:46 | 00:00:00 | |
| DL1XH1-15 | 2026-09-04 22:58:12 | 50.81869 | 6.52384 | 270° | 7km/h | 23069m | 5.6m/s | -52.5°C | 6% | 37.3hPa | 3.7V | 00:00:00 | 01:21:35 | 00:00:00 | |
| BIOWL1-15 | 2026-09-04 22:58:09 | 50.81870 | 6.52385 | 20° | 5km/h | 23074m | 5m/s | -52.5°C | 6% | 37.3hPa | 3.7V | 00:00:00 | 00:00:00 | 00:00:00 | |
| DM0DOS-11 | 2026-09-04 22:58:09 | 50.81870 | 6.52385 | 20° | 5km/h | 23074m | 5.5m/s | -52.5°C | 6% | 37.2hPa | 3.7V | 00:00:00 | 01:21:36 | 00:00:00 | |
| DL1XH1-15 | 2026-09-04 22:58:02 | 50.81881 | 6.52369 | 186° | 11km/h | 23015m | 5.3m/s | -52.6°C | 6% | 37.6hPa | 3.7V | 00:00:00 | 01:21:25 | 00:00:00 | |
| DL1XH-west | 2026-09-04 22:58:00 | 50.81876 | 6.52367 | 0° | 0km/h | 23024m | 0m/s | -52.6°C | 6% | 37.5hPa | 3.7V | 00:00:00 | 00:00:00 | 00:00:00 | |
| DM0DOS-11 | 2026-09-04 22:57:59 | 50.81879 | 6.52368 | 201° | 11km/h | 23019m | 5.1m/s | -52.6°C | 6% | 37.5hPa | 3.7V | 00:00:00 | 01:21:26 | 00:00:00 | |
| BIOWL1-15 | 2026-09-04 22:57:58 | 50.81881 | 6.52369 | 186° | 7km/h | 23015m | 5m/s | -52.6°C | 6.1% | 37.6hPa | 3.7V | 00:00:00 | 00:00:00 | 00:00:00 | |
| BIOWL1-15 | 2026-09-04 22:57:47 | 50.81908 | 6.52333 | 116° | 4km/h | 22941m | 6m/s | -52.6°C | 6.2% | 38hPa | 3.7V | 00:00:00 | 00:00:00 | 00:00:00 | |
| DL1XH1-15 | 2026-09-04 22:57:47 | 50.81904 | 6.52325 | 206° | 11km/h | 22955m | 5.2m/s | -52.6°C | 6.1% | 37.9hPa | 3.7V | 00:00:00 | 01:21:14 | 00:00:00 | |
| DO3MHA-12 | 2026-09-04 22:57:45 | 50.81906 | 6.52326 | 101° | 35km/h | 22949m | 5.2m/s | -52.6°C | 6.1% | 37.9hPa | 3.7V | 00:00:00 | 01:21:13 | 00:00:00 | |
| DB0UT-7 | 2026-09-04 22:57:41 | 50.81908 | 6.52325 | 83° | 16km/h | 22929m | 5.2m/s | -52.5°C | 6.1% | 38.0hPa | 3.7V | 00:00:00 | 01:21:09 | 00:00:00 | |
| DM0DOS-11 | 2026-09-04 22:57:39 | 50.81909 | 6.52302 | 164° | 9km/h | 22913m | 5.1m/s | -52.5°C | 6.1% | 38.1hPa | 3.7V | 00:00:00 | 01:21:06 | 00:00:00 | |
| DL1XH1-15 | 2026-09-04 22:57:37 | 50.81914 | 6.52304 | 7° | 13km/h | 22897m | 5m/s | -52.5°C | 6.2% | 38.2hPa | 3.7V | 00:00:00 | 01:21:03 | 00:00:00 | |
| BIOWL1-15 | 2026-09-04 22:57:33 | 50.81910 | 6.52297 | 120° | 13km/h | 22878m | 6m/s | -52.4°C | 6.3% | 38.4hPa | 3.7V | 00:00:00 | 00:00:00 | 00:00:00 | |
| DL1XH1-15 | 2026-09-04 22:57:25 | 50.81925 | 6.52255 | 96° | 18km/h | 22835m | 5.2m/s | -52.6°C | 6.2% | 38.6hPa | 3.7V | 00:00:00 | 01:20:51 | 00:00:00 | |
| BIOWL1-15 | 2026-09-04 22:57:25 | 50.81926 | 6.52253 | 90° | 9km/h | 22830m | 7m/s | -52.7°C | 6.4% | 38.6hPa | 3.7V | 00:00:00 | 00:00:00 | 00:00:00 | |
| DL1XH1-15 | 2026-09-04 22:57:15 | 50.81948 | 6.52170 | 131° | 18km/h | 22777m | 5.2m/s | -53.2°C | 6.3% | 38.9hPa | 3.7V | 00:00:00 | 01:20:40 | 00:00:00 | |
| BIOWL1-15 | 2026-09-04 22:57:12 | 50.81951 | 6.52165 | 131° | 16km/h | 22772m | 5m/s | -53.3°C | 6.4% | 39hPa | 3.7V | 00:00:00 | 00:00:00 | 00:00:00 | |
| DB0UT-7 | 2026-09-04 22:57:11 | 50.81951 | 6.52165 | 131° | 15km/h | 22772m | 5.2m/s | -53.2°C | 6.3% | 38.9hPa | 3.7V | 00:00:00 | 00:00:00 | 00:00:00 | |
| DM0DOS-11 | 2026-09-04 22:57:09 | 50.81955 | 6.52147 | 99° | 20km/h | 22757m | 5.4m/s | -53.3°C | 6.5% | 39hPa | 3.7V | 00:00:00 | 01:20:36 | 00:00:00 | |
| DL1XH1-15 | 2026-09-04 22:57:02 | 50.81965 | 6.52083 | 88° | 11km/h | 22714m | 5.3m/s | -53.3°C | 6.5% | 39.3hPa | 3.7V | 00:00:00 | 01:20:28 | 00:00:00 | |
| BIOWL1-15 | 2026-09-04 22:57:02 | 50.81963 | 6.52087 | 97° | 13km/h | 22720m | 5.4m/s | -53.3°C | 6.6% | 39.3hPa | 3.7V | 00:00:00 | 00:00:00 | 00:00:00 | |
| DM0DOS-11 | 2026-09-04 22:56:59 | 50.81967 | 6.52076 | 66° | 16km/h | 22703m | 5.2m/s | -53.2°C | 6.5% | 39.4hPa | 3.7V | 00:00:00 | 01:20:26 | 00:00:00 | |
| DM0DOS-11 | 2026-09-04 22:56:49 | 50.81971 | 6.52024 | 70° | 9km/h | 22651m | 5.1m/s | -53.4°C | 6.5% | 39.7hPa | 3.7V | 00:00:00 | 01:20:16 | 00:00:00 | |
| BIOWL1-15 | 2026-09-04 22:56:49 | 50.81971 | 6.52024 | 70° | 4km/h | 22651m | 4m/s | -53.4°C | 6.6% | 39.7hPa | 3.7V | 00:00:00 | 00:00:00 | 00:00:00 | |
| BIOWL1-15 | 2026-09-04 22:56:41 | 50.81968 | 6.51997 | 347° | 2km/h | 22598m | 5m/s | -53.7°C | 6.7% | 40hPa | 3.7V | 00:00:00 | 00:00:00 | 00:00:00 | |
| DM0DOS-11 | 2026-09-04 22:56:39 | 50.81968 | 6.51997 | 346° | 7km/h | 22598m | 5.2m/s | -53.7°C | 6.6% | 40hPa | 3.7V | 00:00:00 | 01:20:06 | 00:00:00 | |
| DL1XH1-15 | 2026-09-04 22:56:35 | 50.81963 | 6.51984 | 227° | 7km/h | 22556m | 5.5m/s | -53.5°C | 6.7% | 40.2hPa | 3.7V | 00:00:00 | 01:19:58 | 00:00:00 | |
| BIOWL1-15 | 2026-09-04 22:56:32 | 50.81968 | 6.51991 | 44° | 4km/h | 22540m | 6m/s | -53.4°C | 6.8% | 40.3hPa | 3.7V | 00:00:00 | 00:00:00 | 00:00:00 | |
| DM0DOS-11 | 2026-09-04 22:56:29 | 50.81968 | 6.51990 | 315° | 7km/h | 22545m | 5.4m/s | -53.4°C | 6.7% | 40.3hPa | 3.7V | 00:00:00 | 01:19:56 | 00:00:00 | |
| DL1XH1-15 | 2026-09-04 22:56:24 | 50.81973 | 6.51970 | 226° | 11km/h | 22497m | 5.6m/s | -53.1°C | 6.8% | 40.6hPa | 3.7V | 00:00:00 | 01:19:47 | 00:00:00 | |
| DM0DOS-11 | 2026-09-04 22:56:19 | 50.81974 | 6.51972 | 210° | 11km/h | 22490m | 5.2m/s | -53.1°C | 6.8% | 40.6hPa | 3.7V | 00:00:00 | 01:19:46 | 00:00:00 | |
| BIOWL1-15 | 2026-09-04 22:56:18 | 50.81981 | 6.51977 | 107° | 5km/h | 22475m | 6m/s | -53.1°C | 7% | 40.7hPa | 3.7V | 00:00:00 | 00:00:00 | 00:00:00 | |
| DM0DOS-11 | 2026-09-04 22:56:13 | 50.81994 | 6.51955 | 180° | 11km/h | 22436m | 5.6m/s | -53°C | 7% | 41hPa | 3.7V | 00:00:00 | 01:19:36 | 00:00:00 | |
| DB0UT-7 | 2026-09-04 22:56:11 | 50.81986 | 6.51963 | 147° | 20km/h | 22452m | 5.4m/s | -53.0°C | 7.0% | 40.8hPa | 3.7V | 00:00:00 | 00:00:00 | 00:00:00 | |
| DL1XH1-15 | 2026-09-04 22:56:10 | 50.81993 | 6.51956 | 139° | 13km/h | 22441m | 5.3m/s | -53°C | 7% | 40.9hPa | 3.7V | 00:00:00 | 01:19:37 | 00:00:00 | |
| BIOWL1-15 | 2026-09-04 22:56:08 | 50.82001 | 6.51956 | 173° | 16km/h | 22419m | 5m/s | -53.1°C | 7.1% | 41.1hPa | 3.7V | 00:00:00 | 00:00:00 | 00:00:00 | |
| DL1XH1-15 | 2026-09-04 22:56:02 | 50.82016 | 6.51939 | 176° | 22km/h | 22387m | 5.3m/s | -53.1°C | 7% | 41.3hPa | 3.7V | 00:00:00 | 01:19:27 | 00:00:00 | |
| DM0DOS-11 | 2026-09-04 22:55:59 | 50.82021 | 6.51939 | 180° | 22km/h | 22381m | 5.6m/s | -53.1°C | 7% | 41.3hPa | 3.7V | 00:00:00 | 01:19:26 | 00:00:00 | |
| BIOWL1-15 | 2026-09-04 22:55:57 | 50.82041 | 6.51929 | 151° | 26km/h | 22360m | 7m/s | -53.1°C | 7.2% | 41.4hPa | 3.7V | 00:00:00 | 00:00:00 | 00:00:00 | |
| DM0DOS-11 | 2026-09-04 22:55:53 | 50.82067 | 6.51905 | 159° | 26km/h | 22326m | 5.2m/s | -53°C | 7.1% | 41.6hPa | 3.7V | 00:00:00 | 01:19:16 | 00:00:00 | |
| DL1XH1-15 | 2026-09-04 22:55:50 | 50.82072 | 6.51902 | 155° | 27km/h | 22320m | 5.1m/s | -53°C | 7.1% | 41.7hPa | 3.7V | 00:00:00 | 01:19:15 | 00:00:00 | |
| BIOWL1-15 | 2026-09-04 22:55:45 | 50.82090 | 6.51887 | 128° | 26km/h | 22305m | 4.5m/s | -53°C | 7.3% | 41.8hPa | 3.7V | 00:00:00 | 00:00:00 | 00:00:00 | |
| DM0DOS-11 | 2026-09-04 22:55:43 | 50.82126 | 6.51852 | 146° | 29km/h | 22274m | 5.3m/s | -52.9°C | 7.2% | 42hPa | 3.7V | 00:00:00 | 01:19:06 | 00:00:00 | |
| DB0UT-7 | 2026-09-04 22:55:41 | 50.82104 | 6.51864 | 159° | 33km/h | 22290m | 5.3m/s | -52.9°C | 7.2% | 41.8hPa | 3.7V | 00:00:00 | 01:19:09 | 00:00:00 | |
| DL1XH1-15 | 2026-09-04 22:55:37 | 50.82148 | 6.51822 | 152° | 35km/h | 22253m | 5.4m/s | -52.8°C | 7.2% | 42.1hPa | 3.7V | 00:00:00 | 01:19:02 | 00:00:00 | |
| DL1XH-west | 2026-09-04 22:55:37 | 50.82136 | 6.51839 | 0° | 0km/h | 22264m | 0m/s | -52.8°C | 7.3% | 42hPa | 3.7V | 00:00:00 | 00:00:00 | 00:00:00 | |
| BIOWL1-15 | 2026-09-04 22:55:36 | 50.82157 | 6.51814 | 158° | 38km/h | 22247m | 4m/s | -52.8°C | 7.4% | 42.1hPa | 3.7V | 00:00:00 | 00:00:00 | 00:00:00 | |
| DM0DOS-11 | 2026-09-04 22:55:33 | 50.82202 | 6.51769 | 152° | 38km/h | 22210m | 5.2m/s | -52.6°C | 7.5% | 42.4hPa | 3.7V | 00:00:00 | 01:18:54 | 00:00:00 | |
| DL1XH1-15 | 2026-09-04 22:55:26 | 50.82222 | 6.51751 | 141° | 33km/h | 22200m | 5.4m/s | -52.6°C | 7.5% | 42.4hPa | 3.7V | 00:00:00 | 01:18:52 | 00:00:00 | |
| BIOWL1-15 | 2026-09-04 22:55:23 | 50.82236 | 6.51731 | 140° | 33km/h | 22190m | 6m/s | -52.5°C | 7.5% | 42.5hPa | 3.7V | 00:00:00 | 00:00:00 | 00:00:00 | |
| DM0DOS-11 | 2026-09-04 22:55:21 | 50.82268 | 6.51694 | 140° | 38km/h | 22158m | 5.5m/s | -52.5°C | 7.5% | 42.7hPa | 3.7V | 00:00:00 | 01:18:44 | 00:00:00 | |
| DL1XH1-15 | 2026-09-04 22:55:15 | 50.82285 | 6.51675 | 149° | 37km/h | 22146m | 5.2m/s | -52.5°C | 7.5% | 42.8hPa | 3.7V | 00:00:00 | 01:18:42 | 00:00:00 | |
| BIOWL1-15 | 2026-09-04 22:55:13 | 50.82306 | 6.51655 | 140° | 35km/h | 22136m | 6m/s | -52.5°C | 7.6% | 42.8hPa | 3.7V | 00:00:00 | 00:00:00 | 00:00:00 | |
| DM0DOS-11 | 2026-09-04 22:55:11 | 50.82335 | 6.51608 | 132° | 38km/h | 22104m | 5.5m/s | -52.7°C | 7.6% | 43hPa | 3.7V | 00:00:00 | 01:18:34 | 00:00:00 | |
| DB0UT-7 | 2026-09-04 22:55:11 | 50.82312 | 6.51646 | 130° | 35km/h | 22130m | 5.3m/s | -52.5°C | 7.5% | 42.8hPa | 3.7V | 00:00:00 | 00:00:00 | 00:00:00 | |
| DL1XH1-15 | 2026-09-04 22:55:09 | 50.82347 | 6.51587 | 130° | 40km/h | 22092m | 5.1m/s | -52.8°C | 7.6% | 43.1hPa | 3.7V | 00:00:00 | 01:18:32 | 00:00:00 | |
| DL1XH-west | 2026-09-04 22:55:02 | 50.82370 | 6.51551 | 0° | 0km/h | 22076m | 0m/s | -52.8°C | 7.7% | 43.2hPa | 3.7V | 00:00:00 | 00:00:00 | 00:00:00 | |
| DM0DOS-11 | 2026-09-04 22:55:01 | 50.82420 | 6.51436 | 137° | 35km/h | 22028m | 5.3m/s | -52.8°C | 7.8% | 43.5hPa | 3.7V | 00:00:00 | 01:18:20 | 00:00:00 | |
| BIOWL1-15 | 2026-09-04 22:54:56 | 50.82427 | 6.51426 | 129° | 31km/h | 22023m | 5.3m/s | -52.8°C | 7.9% | 43.6hPa | 3.7V | 00:00:00 | 00:00:00 | 00:00:00 | |
| DL1XH1-15 | 2026-09-04 22:54:56 | 50.82403 | 6.51463 | 134° | 33km/h | 22040m | 5.4m/s | -52.8°C | 7.8% | 43.5hPa | 3.7V | 00:00:00 | 01:18:22 | 00:00:00 | |
| DM0DOS-11 | 2026-09-04 22:54:47 | 50.82449 | 6.51356 | 92° | 31km/h | 21990m | 5.4m/s | -52.9°C | 8% | 43.8hPa | 3.7V | 00:00:00 | 01:18:13 | 00:00:00 | |
| DL1XH1-15 | 2026-09-04 22:54:45 | 50.82451 | 6.51333 | 115° | 18km/h | 21980m | 5.4m/s | -52.8°C | 8% | 43.8hPa | 3.7V | 00:00:00 | 01:18:11 | 00:00:00 | |
| BIOWL1-15 | 2026-09-04 22:54:42 | 50.82462 | 6.51310 | 141° | 35km/h | 21968m | 5m/s | -52.8°C | 8% | 43.9hPa | 3.7V | 00:00:00 | 00:00:00 | 00:00:00 | |
| DB0UT-7 | 2026-09-04 22:54:41 | 50.82462 | 6.51310 | 141° | 20km/h | 21968m | 5.3m/s | -52.7°C | 8.0% | 43.9hPa | 3.7V | 00:00:00 | 01:18:09 | 00:00:00 | |
| DM0DOS-11 | 2026-09-04 22:54:40 | 50.82482 | 6.51251 | 90° | 24km/h | 21936m | 5.4m/s | -52.7°C | 8% | 44.1hPa | 3.7V | 00:00:00 | 01:18:03 | 00:00:00 | |
| BIOWL1-15 | 2026-09-04 22:54:31 | 50.82493 | 6.51213 | 147° | 31km/h | 21908m | 4m/s | -52.6°C | 8.1% | 44.3hPa | 3.7V | 00:00:00 | 00:00:00 | 00:00:00 | |
| BIOWL1-15 | 2026-09-04 22:54:21 | 50.82515 | 6.51131 | 126° | 15km/h | 21850m | 5.5m/s | -52.4°C | 8.2% | 44.7hPa | 3.7V | 00:00:00 | 00:00:00 | 00:00:00 | |
| DM0DOS-11 | 2026-09-04 22:54:20 | 50.82523 | 6.51104 | 90° | 13km/h | 21829m | 5.4m/s | -52.3°C | 8.1% | 44.8hPa | 3.7V | 00:00:00 | 01:17:43 | 00:00:00 | |
| DL1XH1-15 | 2026-09-04 22:54:20 | 50.82523 | 6.51098 | 135° | 16km/h | 21823m | 5.5m/s | -52.3°C | 8.1% | 44.9hPa | 3.7V | 00:00:00 | 01:17:42 | 00:00:00 | |
| GOEST3-10 | 2026-09-04 22:54:13 | 50.82523 | 6.51094 | 135° | 24km/h | 21818m | 5.3m/s | -52.2°C | 8.1% | 44.9hPa | 3.7V | 00:00:00 | 01:17:41 | 00:00:00 | |
| DB0UT-7 | 2026-09-04 22:54:11 | 50.82526 | 6.51090 | 154° | 18km/h | 21807m | 5.4m/s | -52.2°C | 8.1% | 45.0hPa | 3.7V | 00:00:00 | 00:00:00 | 00:00:00 | |
| DM0DOS-11 | 2026-09-04 22:54:09 | 50.82547 | 6.51070 | 123° | 18km/h | 21775m | 5.4m/s | -52.2°C | 8.1% | 45.2hPa | 3.7V | 00:00:00 | 01:17:33 | 00:00:00 | |
| BIOWL1-15 | 2026-09-04 22:54:09 | 50.82541 | 6.51080 | 143° | 11km/h | 21790m | 5m/s | -52.2°C | 8.3% | 45.1hPa | 3.7V | 00:00:00 | 00:00:00 | 00:00:00 | |
| DM0DOS-11 | 2026-09-04 22:53:59 | 50.82586 | 6.51026 | 122° | 16km/h | 21722m | 4.9m/s | -52.4°C | 8.3% | 45.5hPa | 3.7V | 00:00:00 | 01:17:23 | 00:00:00 | |
| BIOWL1-15 | 2026-09-04 22:53:59 | 50.82584 | 6.51033 | 119° | 18km/h | 21727m | 5m/s | -52.4°C | 8.4% | 45.5hPa | 3.7V | 00:00:00 | 00:00:00 | 00:00:00 | |
| DL1XH-west | 2026-09-04 22:53:54 | 50.82590 | 6.51017 | 0° | 0km/h | 21713m | 0m/s | -52.5°C | 8.4% | 45.6hPa | 3.7V | 00:00:00 | 00:00:00 | 00:00:00 | |
| DL1XH1-15 | 2026-09-04 22:53:53 | 50.82592 | 6.51012 | 125° | 20km/h | 21707m | 4.9m/s | -52.5°C | 8.3% | 45.7hPa | 3.7V | 00:00:00 | 01:17:20 | 00:00:00 | |
| DM0DOS-11 | 2026-09-04 22:53:47 | 50.82616 | 6.50971 | 96° | 20km/h | 21672m | 5.1m/s | -52.6°C | 8.3% | 45.9hPa | 3.7V | 00:00:00 | 01:17:13 | 00:00:00 | |
| BIOWL1-15 | 2026-09-04 22:53:46 | 50.82616 | 6.50971 | 92° | 26km/h | 21672m | 5m/s | -52.6°C | 8.4% | 45.9hPa | 3.7V | 00:00:00 | 00:00:00 | 00:00:00 | |
| DL1XH1-15 | 2026-09-04 22:53:42 | 50.82615 | 6.50937 | 109° | 15km/h | 21652m | 5.1m/s | -52.5°C | 8.3% | 46hPa | 3.7V | 00:00:00 | 01:17:09 | 00:00:00 | |
| DL1XH-west | 2026-09-04 22:53:41 | 50.82616 | 6.50932 | 0° | 0km/h | 21647m | 0m/s | -52.5°C | 8.4% | 46.1hPa | 3.7V | 00:00:00 | 00:00:00 | 00:00:00 | |
| DM0DOS-11 | 2026-09-04 22:53:38 | 50.82630 | 6.50908 | 80° | 13km/h | 21621m | 5.2m/s | -52.4°C | 8.5% | 46.3hPa | 3.7V | 00:00:00 | 01:17:03 | 00:00:00 | |
| BIOWL1-15 | 2026-09-04 22:53:35 | 50.82628 | 6.50890 | 81° | 18km/h | 21605m | 5m/s | -52.4°C | 8.5% | 46.4hPa | 3.7V | 00:00:00 | 00:00:00 | 00:00:00 | |
| DL1XH1-15 | 2026-09-04 22:53:33 | 50.82627 | 6.50883 | 83° | 11km/h | 21600m | 5m/s | -52.4°C | 8.5% | 46.4hPa | 3.7V | 00:00:00 | 01:16:59 | 00:00:00 | |
| DM0DOS-11 | 2026-09-04 22:53:27 | 50.82629 | 6.50854 | 90° | 9km/h | 21571m | 5.3m/s | -52.4°C | 8.5% | 46.6hPa | 3.7V | 00:00:00 | 01:16:53 | 00:00:00 | |
| DL1XH1-15 | 2026-09-04 22:53:23 | 50.82627 | 6.50836 | 109° | 16km/h | 21545m | 5.2m/s | -52.6°C | 8.6% | 46.8hPa | 3.7V | 00:00:00 | 01:16:48 | 00:00:00 | |
| BIOWL1-15 | 2026-09-04 22:53:22 | 50.82627 | 6.50844 | 103° | 20km/h | 21550m | 5m/s | -52.5°C | 8.7% | 46.8hPa | 3.7V | 00:00:00 | 00:00:00 | 00:00:00 | |
| DM0DOS-11 | 2026-09-04 22:53:17 | 50.82640 | 6.50817 | 121° | 11km/h | 21518m | 4.9m/s | -53°C | 8.6% | 47hPa | 3.7V | 00:00:00 | 01:16:43 | 00:00:00 | |
| BIOWL1-15 | 2026-09-04 22:53:16 | 50.82650 | 6.50802 | 141° | 18km/h | 21489m | 6m/s | -53.2°C | 8.7% | 47.2hPa | 3.7V | 00:00:00 | 00:00:00 | 00:00:00 | |
| DL1XH1-15 | 2026-09-04 22:53:13 | 50.82648 | 6.50804 | 135° | 20km/h | 21493m | 5m/s | -53.2°C | 8.6% | 47.1hPa | 3.7V | 00:00:00 | 01:16:38 | 00:00:00 | |
| DM0DOS-11 | 2026-09-04 22:53:07 | 50.82664 | 6.50780 | 152° | 22km/h | 21468m | 5.1m/s | -53.5°C | 8.8% | 47.3hPa | 3.7V | 00:00:00 | 01:16:33 | 00:00:00 | |
| DL1XH1-15 | 2026-09-04 22:53:03 | 50.82685 | 6.50732 | 111° | 26km/h | 21432m | 5m/s | -53.7°C | 8.8% | 47.6hPa | 3.7V | 00:00:00 | 01:16:26 | 00:00:00 | |
| BIOWL1-15 | 2026-09-04 22:53:01 | 50.82681 | 6.50746 | 116° | 20km/h | 21442m | 5m/s | -53.7°C | 8.9% | 47.5hPa | 3.7V | 00:00:00 | 00:00:00 | 00:00:00 | |
| DM0DOS-11 | 2026-09-04 22:52:59 | 50.82692 | 6.50704 | 122° | 29km/h | 21417m | 5.1m/s | -53.7°C | 8.8% | 47.7hPa | 3.7V | 00:00:00 | 01:16:23 | 00:00:00 | |
| DL1XH-west | 2026-09-04 22:52:58 | 50.82687 | 6.50724 | 0° | 0km/h | 21427m | 0m/s | -53.7°C | 8.9% | 47.6hPa | 3.7V | 00:00:00 | 00:00:00 | 00:00:00 | |
| DL1XH1-15 | 2026-09-04 22:52:53 | 50.82705 | 6.50631 | 101° | 27km/h | 21382m | 5m/s | -53.9°C | 8.8% | 47.9hPa | 3.7V | 00:00:00 | 01:16:16 | 00:00:00 | |
| BIOWL1-15 | 2026-09-04 22:52:50 | 50.82706 | 6.50642 | 80° | 26km/h | 21387m | 5m/s | -53.9°C | 8.9% | 47.9hPa | 3.7V | 00:00:00 | 00:00:00 | 00:00:00 | |
| DM0DOS-11 | 2026-09-04 22:52:49 | 50.82710 | 6.50602 | 110° | 33km/h | 21367m | 5m/s | -53.9°C | 9% | 48hPa | 3.7V | 00:00:00 | 01:16:13 | 00:00:00 | |
| DL1XH-west | 2026-09-04 22:52:47 | 50.82707 | 6.50614 | 0° | 0km/h | 21372m | 0m/s | -53.9°C | 9% | 48hPa | 3.7V | 00:00:00 | 00:00:00 | 00:00:00 | |
| DL1XH1-15 | 2026-09-04 22:52:42 | 50.82734 | 6.50471 | 112° | 35km/h | 21312m | 5.2m/s | -53.9°C | 9% | 48.5hPa | 3.7V | 00:00:00 | 01:16:02 | 00:00:00 | |
| BIOWL1-15 | 2026-09-04 22:52:39 | 50.82721 | 6.50511 | 107° | 37km/h | 21327m | 4m/s | -54°C | 9.1% | 48.3hPa | 3.7V | 00:00:00 | 00:00:00 | 00:00:00 | |
| DM0DOS-11 | 2026-09-04 22:52:38 | 50.82729 | 6.50484 | 122° | 35km/h | 21317m | 5.1m/s | -53.9°C | 9% | 48.4hPa | 3.7V | 00:00:00 | 01:16:03 | 00:00:00 | |
| DM0DOS-11 | 2026-09-04 22:52:30 | 50.82748 | 6.50354 | 109° | 40km/h | 21266m | 5.2m/s | -54.1°C | 9.1% | 48.8hPa | 3.7V | 00:00:00 | 01:15:53 | 00:00:00 | |
| DL1XH1-15 | 2026-09-04 22:52:28 | 50.82755 | 6.50324 | 108° | 40km/h | 21255m | 4.8m/s | -54.1°C | 9.1% | 48.9hPa | 3.7V | 00:00:00 | 01:15:51 | 00:00:00 | |
| BIOWL1-15 | 2026-09-04 22:52:28 | 50.82744 | 6.50384 | 101° | 38km/h | 21276m | 5m/s | -54.1°C | 9.2% | 48.7hPa | 3.7V | 00:00:00 | 00:00:00 | 00:00:00 | |
| DL1XH1-15 | 2026-09-04 22:52:18 | 50.82771 | 6.50168 | 99° | 42km/h | 21206m | 4.8m/s | -54.1°C | 9.3% | 49.2hPa | 3.7V | 00:00:00 | 01:15:41 | 00:00:00 | |
| DM0DOS-11 | 2026-09-04 22:52:17 | 50.82767 | 6.50205 | 99° | 44km/h | 21215m | 4.7m/s | -54.2°C | 9.3% | 49.1hPa | 3.7V | 00:00:00 | 01:15:43 | 00:00:00 | |
| BIOWL1-15 | 2026-09-04 22:52:17 | 50.82771 | 6.50065 | 88° | 42km/h | 21178m | 4m/s | -54.1°C | 9.4% | 49.5hPa | 3.7V | 00:00:00 | 00:00:00 | 00:00:00 | |
| DL1XH-west | 2026-09-04 22:52:13 | 50.82773 | 6.50150 | 0° | 0km/h | 21201m | 0m/s | -54.1°C | 9.4% | 49.3hPa | 3.7V | 00:00:00 | 00:00:00 | 00:00:00 | |
| DB0UT-7 | 2026-09-04 22:52:11 | 50.82775 | 6.50134 | 93° | 40km/h | 21196m | 4.5m/s | -54.1°C | 9.3% | 49.3hPa | 3.7V | 00:00:00 | 00:00:00 | 00:00:00 | |
| DL1XH1-15 | 2026-09-04 22:52:08 | 50.82777 | 6.49907 | 87° | 40km/h | 21135m | 4.9m/s | -54.3°C | 9.3% | 49.8hPa | 3.7V | 00:00:00 | 01:15:26 | 00:00:00 | |
| DM0DOS-11 | 2026-09-04 22:52:07 | 50.82772 | 6.50035 | 110° | 42km/h | 21168m | 4.5m/s | -54.2°C | 9.3% | 49.5hPa | 3.7V | 00:00:00 | 01:15:33 | 00:00:00 | |
| DL1XH-west | 2026-09-04 22:52:03 | 50.82779 | 6.49946 | 0° | 0km/h | 21145m | 0m/s | -54.3°C | 9.4% | 49.7hPa | 3.7V | 00:00:00 | 00:00:00 | 00:00:00 | |
| DL1XH1-15 | 2026-09-04 22:52:02 | 50.82777 | 6.49809 | 92° | 40km/h | 21105m | 5m/s | -54.5°C | 9.5% | 50hPa | 3.7V | 00:00:00 | 01:15:20 | 00:00:00 | |
| BIOWL1-15 | 2026-09-04 22:52:01 | 50.82775 | 6.49858 | 88° | 42km/h | 21120m | 5m/s | -54.4°C | 9.5% | 49.9hPa | 3.7V | 00:00:00 | 00:00:00 | 00:00:00 | |
| DM0DOS-11 | 2026-09-04 22:51:57 | 50.82775 | 6.49858 | 87° | 42km/h | 21120m | 5.1m/s | -54.4°C | 9.5% | 49.9hPa | 3.7V | 00:00:00 | 01:15:23 | 00:00:00 | |
| BIOWL1-15 | 2026-09-04 22:51:48 | 50.82770 | 6.49696 | 87° | 35km/h | 21071m | 6m/s | -54.5°C | 9.6% | 50.3hPa | 3.7V | 00:00:00 | 00:00:00 | 00:00:00 | |
| DM0DOS-11 | 2026-09-04 22:51:47 | 50.82770 | 6.49696 | 87° | 35km/h | 21071m | 5.3m/s | -54.4°C | 9.5% | 50.3hPa | 3.7V | 00:00:00 | 01:15:13 | 00:00:00 | |
| DL1XH1-15 | 2026-09-04 22:51:47 | 50.82764 | 6.49652 | 76° | 33km/h | 21054m | 4.9m/s | -54.4°C | 9.5% | 50.4hPa | 3.7V | 00:00:00 | 01:15:10 | 00:00:00 | |
| DB0UT-7 | 2026-09-04 22:51:41 | 50.82762 | 6.49637 | 83° | 31km/h | 21049m | 4.8m/s | -54.3°C | 9.5% | 50.4hPa | 3.7V | 00:00:00 | 01:15:09 | 00:00:00 | |
| DM0DOS-11 | 2026-09-04 22:51:37 | 50.82747 | 6.49563 | 82° | 31km/h | 21019m | 4.7m/s | -54.2°C | 9.6% | 50.6hPa | 3.7V | 00:00:00 | 01:15:03 | 00:00:00 | |
| DL1XH1-15 | 2026-09-04 22:51:37 | 50.82745 | 6.49529 | 75° | 31km/h | 21005m | 4.9m/s | -54.2°C | 9.6% | 50.8hPa | 3.7V | 00:00:00 | 01:15:00 | 00:00:00 | |
| BIOWL1-15 | 2026-09-04 22:51:34 | 50.82746 | 6.49542 | 85° | 35km/h | 21010m | 5m/s | -54.2°C | 9.7% | 50.7hPa | 3.7V | 00:00:00 | 00:00:00 | 00:00:00 | |
| DM0DOS-11 | 2026-09-04 22:51:30 | 50.82726 | 6.49444 | 70° | 27km/h | 20970m | 4.9m/s | -54.6°C | 9.6% | 51hPa | 3.7V | 00:00:00 | 01:14:53 | 00:00:00 | |
| DL1XH1-15 | 2026-09-04 22:51:27 | 50.82721 | 6.49415 | 85° | 29km/h | 20956m | 5.2m/s | -54.8°C | 9.6% | 51.1hPa | 3.7V | 00:00:00 | 01:14:50 | 00:00:00 | |
| BIOWL1-15 | 2026-09-04 22:51:24 | 50.82722 | 6.49425 | 86° | 24km/h | 20960m | 4m/s | -54.7°C | 9.8% | 51.1hPa | 3.7V | 00:00:00 | 00:00:00 | 00:00:00 | |
| DM0DOS-11 | 2026-09-04 22:51:16 | 50.82712 | 6.49334 | 79° | 35km/h | 20920m | 5.1m/s | -54.9°C | 9.8% | 51.4hPa | 3.7V | 00:00:00 | 01:14:43 | 00:00:00 | |
| BIOWL1-15 | 2026-09-04 22:51:13 | 50.82708 | 6.49283 | 80° | 26km/h | 20905m | 5m/s | -54.9°C | 9.9% | 51.5hPa | 3.7V | 00:00:00 | 00:00:00 | 00:00:00 | |
| DL1XH1-15 | 2026-09-04 22:51:12 | 50.82705 | 6.49261 | 81° | 22km/h | 20895m | 5.3m/s | -54.8°C | 9.8% | 51.6hPa | 3.7V | 00:00:00 | 01:14:38 | 00:00:00 | |
| DB0UT-7 | 2026-09-04 22:51:11 | 50.82706 | 6.49270 | 79° | 22km/h | 20900m | 5.2m/s | -54.8°C | 9.8% | 51.5hPa | 3.7V | 00:00:00 | 00:00:00 | 00:00:00 | |
| DM0DOS-11 | 2026-09-04 22:51:10 | 50.82699 | 6.49216 | 75° | 20km/h | 20868m | 5.1m/s | -55°C | 9.8% | 51.8hPa | 3.7V | 00:00:00 | 01:14:33 | 00:00:00 | |
| DL1XH1-15 | 2026-09-04 22:51:02 | 50.82689 | 6.49156 | 68° | 16km/h | 20837m | 4.8m/s | -55.1°C | 10% | 52.1hPa | 3.7V | 00:00:00 | 01:14:27 | 00:00:00 | |
| BIOWL1-15 | 2026-09-04 22:51:02 | 50.82692 | 6.49172 | 77° | 20km/h | 20848m | 5.5m/s | -55.1°C | 9.9% | 52hPa | 3.7V | 00:00:00 | 00:00:00 | 00:00:00 | |
| DM0DOS-11 | 2026-09-04 22:51:00 | 50.82686 | 6.49132 | 79° | 20km/h | 20818m | 5.1m/s | -55°C | 10% | 52.2hPa | 3.7V | 00:00:00 | 01:14:23 | 00:00:00 | |
| BIOWL1-15 | 2026-09-04 22:50:54 | 50.82683 | 6.49104 | 96° | 31km/h | 20798m | 6m/s | -54.9°C | 10% | 52.4hPa | 3.7V | 00:00:00 | 00:00:00 | 00:00:00 | |
| DL1XH1-15 | 2026-09-04 22:50:52 | 50.82684 | 6.49079 | 90° | 22km/h | 20788m | 5.1m/s | -54.8°C | 10% | 52.5hPa | 3.7V | 00:00:00 | 01:14:17 | 00:00:00 | |
| DL1XH-west | 2026-09-04 22:50:47 | 50.82681 | 6.49057 | 0° | 0km/h | 20773m | 0m/s | -54.7°C | 10.1% | 52.6hPa | 3.7V | 00:00:00 | 00:00:00 | 00:00:00 | |
| DL1XH1-15 | 2026-09-04 22:50:44 | 50.82674 | 6.48999 | 92° | 29km/h | 20738m | 5.5m/s | -54.6°C | 10.1% | 52.8hPa | 3.7V | 00:00:00 | 01:14:07 | 00:00:00 | |
| BIOWL1-15 | 2026-09-04 22:50:41 | 50.82674 | 6.49008 | 90° | 24km/h | 20742m | 4m/s | -54.6°C | 10.2% | 52.8hPa | 3.7V | 00:00:00 | 00:00:00 | 00:00:00 | |
| DL1XH1-15 | 2026-09-04 22:50:32 | 50.82673 | 6.48896 | 107° | 33km/h | 20684m | 5.1m/s | -54.3°C | 10.1% | 53.3hPa | 3.7V | 00:00:00 | 01:13:57 | 00:00:00 | |
| BIOWL1-15 | 2026-09-04 22:50:31 | 50.82673 | 6.48906 | 97° | 26km/h | 20690m | 6m/s | -54.4°C | 10.2% | 53.3hPa | 3.7V | 00:00:00 | 00:00:00 | 00:00:00 | |
| DM0DOS-11 | 2026-09-04 22:50:30 | 50.82684 | 6.48841 | 98° | 27km/h | 20664m | 5.3m/s | -54.3°C | 10.3% | 53.5hPa | 3.7V | 00:00:00 | 01:13:53 | 00:00:00 | |
| DL1XH-west | 2026-09-04 22:50:30 | 50.82676 | 6.48884 | 0° | 0km/h | 20680m | 0m/s | -54.3°C | 10.2% | 53.3hPa | 3.7V | 00:00:00 | 00:00:00 | 00:00:00 | |
| BIOWL1-15 | 2026-09-04 22:50:21 | 50.82680 | 6.48791 | 93° | 33km/h | 20637m | 4m/s | -54.5°C | 10.3% | 53.7hPa | 3.7V | 00:00:00 | 00:00:00 | 00:00:00 | |
| DM0DOS-11 | 2026-09-04 22:50:20 | 50.82689 | 6.48724 | 94° | 35km/h | 20611m | 5.3m/s | -54.8°C | 10.3% | 53.9hPa | 3.7V | 00:00:00 | 01:13:43 | 00:00:00 | |
| DL1XH1-15 | 2026-09-04 22:50:20 | 50.82681 | 6.48778 | 103° | 35km/h | 20633m | 5.4m/s | -54.5°C | 10.3% | 53.7hPa | 3.7V | 00:00:00 | 01:13:47 | 00:00:00 | |
| DL1XH-west | 2026-09-04 22:50:19 | 50.82682 | 6.48765 | 0° | 0km/h | 20627m | 0m/s | -54.6°C | 10.3% | 53.8hPa | 3.7V | 00:00:00 | 00:00:00 | 00:00:00 | |
| DL1XH1-15 | 2026-09-04 22:50:14 | 50.82682 | 6.48640 | 87° | 35km/h | 20579m | 5.4m/s | -54.8°C | 10.3% | 54.1hPa | 3.7V | 00:00:00 | 01:13:37 | 00:00:00 | |
| BIOWL1-15 | 2026-09-04 22:50:14 | 50.82681 | 6.48570 | 86° | 42km/h | 20552m | 5m/s | -54.6°C | 10.5% | 54.4hPa | 3.7V | 00:00:00 | 00:00:00 | 00:00:00 | |
| DL1XH-west | 2026-09-04 22:50:08 | 50.82682 | 6.48611 | 0° | 0km/h | 20567m | 0m/s | -54.8°C | 10.4% | 54.2hPa | 3.7V | 00:00:00 | 00:00:00 | 00:00:00 | |
| GOEST3-10 | 2026-09-04 22:50:01 | 50.82676 | 6.48523 | 76° | 29km/h | 20536m | 5.2m/s | -54.5°C | 10.5% | 54.5hPa | 3.7V | 00:00:00 | 00:00:00 | 00:00:00 | |
| DM0DOS-11 | 2026-09-04 22:49:57 | 50.82669 | 6.48444 | 92° | 29km/h | 20507m | 5.4m/s | -54.3°C | 10.5% | 54.8hPa | 3.7V | 00:00:00 | 01:13:23 | 00:00:00 | |
| DL1XH-west | 2026-09-04 22:49:57 | 50.82669 | 6.48458 | 0° | 0km/h | 20512m | 0m/s | -54.4°C | 10.6% | 54.7hPa | 3.7V | 00:00:00 | 00:00:00 | 00:00:00 | |
| BIOWL1-15 | 2026-09-04 22:49:55 | 50.82656 | 6.48362 | 84° | 27km/h | 20469m | 5m/s | -54.1°C | 10.6% | 55.1hPa | 3.7V | 00:00:00 | 00:00:00 | 00:00:00 | |
| GOEST3-10 | 2026-09-04 22:49:53 | 50.82669 | 6.48422 | 71° | 27km/h | 20496m | 5.3m/s | -54.2°C | 10.5% | 54.8hPa | 3.7V | 00:00:00 | 01:13:21 | 00:00:00 | |
| DM0DOS-11 | 2026-09-04 22:49:50 | 50.82657 | 6.48325 | 97° | 26km/h | 20452m | 5.1m/s | -54.1°C | 10.5% | 55.2hPa | 3.7V | 00:00:00 | 01:13:13 | 00:00:00 | |
| DL1XH1-15 | 2026-09-04 22:49:50 | 50.82658 | 6.48373 | 75° | 29km/h | 20475m | 5.5m/s | -54.1°C | 10.5% | 55hPa | 3.7V | 00:00:00 | 01:13:17 | 00:00:00 | |
| BIOWL1-15 | 2026-09-04 22:49:45 | 50.82659 | 6.48301 | 80° | 16km/h | 20443m | 6m/s | -54°C | 10.7% | 55.3hPa | 3.7V | 00:00:00 | 00:00:00 | 00:00:00 | |
| DL1XH-west | 2026-09-04 22:49:45 | 50.82659 | 6.48293 | 0° | 0km/h | 20437m | 0m/s | -54°C | 10.7% | 55.3hPa | 3.7V | 00:00:00 | 00:00:00 | 00:00:00 | |
| DL1XH1-15 | 2026-09-04 22:49:44 | 50.82655 | 6.48269 | 78° | 27km/h | 20420m | 5.2m/s | -54°C | 10.8% | 55.5hPa | 3.7V | 00:00:00 | 01:13:07 | 00:00:00 | |
| DB0UT-7 | 2026-09-04 22:49:41 | 50.82658 | 6.48287 | 77° | 22km/h | 20431m | 5.3m/s | -54.0°C | 10.6% | 55.3hPa | 3.7V | 00:00:00 | 01:13:09 | 00:00:00 | |
| DM0DOS-11 | 2026-09-04 22:49:40 | 50.82651 | 6.48222 | 92° | 24km/h | 20399m | 5.2m/s | -54°C | 10.8% | 55.7hPa | 3.7V | 00:00:00 | 01:13:03 | 00:00:00 | |
| BIOWL1-15 | 2026-09-04 22:49:34 | 50.82651 | 6.48178 | 79° | 16km/h | 20368m | 5m/s | -54.1°C | 11% | 55.9hPa | 3.7V | 00:00:00 | 00:00:00 | 00:00:00 | |
| GOEST3-10 | 2026-09-04 22:49:34 | 50.82651 | 6.48210 | 93° | 18km/h | 20393m | 4.9m/s | -54.0°C | 10.8% | 55.7hPa | 3.7V | 00:00:00 | 00:00:00 | 00:00:00 | |
| DL1XH1-15 | 2026-09-04 22:49:32 | 50.82651 | 6.48178 | 79° | 24km/h | 20368m | 5.1m/s | -54.1°C | 11% | 55.9hPa | 3.7V | 00:00:00 | 01:12:57 | 00:00:00 | |
| DL1XH-west | 2026-09-04 22:49:31 | 50.82652 | 6.48181 | 0° | 0km/h | 20373m | 0m/s | -54.1°C | 11% | 55.9hPa | 3.7V | 00:00:00 | 00:00:00 | 00:00:00 | |
| DM0DOS-11 | 2026-09-04 22:49:30 | 50.82650 | 6.48133 | 90° | 18km/h | 20348m | 5.3m/s | -54.1°C | 11% | 56.1hPa | 3.7V | 00:00:00 | 01:12:53 | 00:00:00 | |
| BIOWL1-15 | 2026-09-04 22:49:23 | 50.82652 | 6.48102 | 95° | 18km/h | 20321m | 5m/s | -54°C | 11.1% | 56.3hPa | 3.7V | 00:00:00 | 00:00:00 | 00:00:00 | |
| DL1XH1-15 | 2026-09-04 22:49:21 | 50.82652 | 6.48095 | 95° | 20km/h | 20316m | 5.6m/s | -54°C | 11% | 56.4hPa | 3.7V | 00:00:00 | 01:12:47 | 00:00:00 | |
| DL1XH1-15 | 2026-09-04 22:49:14 | 50.82675 | 6.47994 | 111° | 31km/h | 20243m | 6m/s | -53.8°C | 11.3% | 57hPa | 3.7V | 00:00:00 | 01:12:34 | 00:00:00 | |
| DB0UT-7 | 2026-09-04 22:49:11 | 50.82661 | 6.48032 | 149° | 35km/h | 20271m | 5.5m/s | -53.8°C | 11.1% | 56.7hPa | 3.7V | 00:00:00 | 00:00:00 | 00:00:00 | |
| DM0DOS-11 | 2026-09-04 22:49:10 | 50.82677 | 6.47983 | 111° | 31km/h | 20238m | 5.8m/s | -53.8°C | 11.3% | 57hPa | 3.7V | 00:00:00 | 01:12:33 | 00:00:00 | |
| BIOWL1-15 | 2026-09-04 22:49:10 | 50.82673 | 6.48004 | 109° | 27km/h | 20249m | 6m/s | -53.9°C | 11.3% | 57hPa | 3.7V | 00:00:00 | 00:00:00 | 00:00:00 | |
| DL1XH-west | 2026-09-04 22:49:02 | 50.82689 | 6.47932 | 0° | 0km/h | 20215m | 0m/s | -53.7°C | 11.5% | 57.2hPa | 3.8V | 00:00:00 | 00:00:00 | 00:00:00 | |
| DM0DOS-11 | 2026-09-04 22:49:01 | 50.82712 | 6.47873 | 117° | 37km/h | 20179m | 6m/s | -53.9°C | 11.5% | 57.5hPa | 3.8V | 00:00:00 | 01:12:23 | 00:00:00 | |
| BIOWL1-15 | 2026-09-04 22:48:59 | 50.82698 | 6.47906 | 130° | 26km/h | 20196m | 6m/s | -53.8°C | 11.6% | 57.4hPa | 3.8V | 00:00:00 | 00:00:00 | 00:00:00 | |
| DL1XH-west | 2026-09-04 22:48:52 | 50.82730 | 6.47823 | 0° | 0km/h | 20155m | 0m/s | -54°C | 11.5% | 57.8hPa | 3.8V | 00:00:00 | 00:00:00 | 00:00:00 | |
| BIOWL1-15 | 2026-09-04 22:48:48 | 50.82747 | 6.47768 | 98° | 31km/h | 20133m | 5m/s | -54°C | 11.6% | 57.9hPa | 3.8V | 00:00:00 | 00:00:00 | 00:00:00 | |
| DL1XH1-15 | 2026-09-04 22:48:48 | 50.82747 | 6.47768 | 98° | 35km/h | 20133m | 5.2m/s | -54°C | 11.5% | 57.9hPa | 3.8V | 00:00:00 | 01:12:15 | 00:00:00 | |
| GOEST3-10 | 2026-09-04 22:48:47 | 50.82747 | 6.47768 | 99° | 38km/h | 20133m | 5.2m/s | -53.9°C | 11.5% | 57.9hPa | 3.8V | 00:00:00 | 01:12:15 | 00:00:00 | |
| DM0DOS-11 | 2026-09-04 22:48:46 | 50.82750 | 6.47743 | 102° | 38km/h | 20123m | 5.4m/s | -53.9°C | 11.5% | 58hPa | 3.8V | 00:00:00 | 01:12:13 | 00:00:00 | |
| DL1XH1-15 | 2026-09-04 22:48:42 | 50.82765 | 6.47625 | 97° | 40km/h | 20081m | 5.1m/s | -53.9°C | 11.8% | 58.4hPa | 3.8V | 00:00:00 | 01:12:05 | 00:00:00 | |
| DL1XH-west | 2026-09-04 22:48:42 | 50.82765 | 6.47668 | 0° | 0km/h | 20096m | 0m/s | -53.9°C | 11.7% | 58.3hPa | 3.8V | 00:00:00 | 00:00:00 | 00:00:00 | |
| DB0UT-7 | 2026-09-04 22:48:41 | 50.82763 | 6.47683 | 102° | 42km/h | 20101m | 4.9m/s | -53.8°C | 11.6% | 58.2hPa | 3.8V | 00:00:00 | 01:12:09 | 00:00:00 | |
| DM0DOS-11 | 2026-09-04 22:48:40 | 50.82771 | 6.47562 | 97° | 38km/h | 20060m | 5m/s | -54°C | 11.8% | 58.6hPa | 3.8V | 00:00:00 | 01:12:01 | 00:00:00 | |
| BIOWL1-15 | 2026-09-04 22:48:37 | 50.82767 | 6.47607 | 98° | 42km/h | 20076m | 5m/s | -53.9°C | 11.8% | 58.5hPa | 3.8V | 00:00:00 | 00:00:00 | 00:00:00 | |
| GOEST3-10 | 2026-09-04 22:48:34 | 50.82770 | 6.47575 | 98° | 42km/h | 20066m | 5.0m/s | -53.9°C | 11.8% | 58.5hPa | 3.7V | 00:00:00 | 01:12:02 | 00:00:00 | |
| DL1XH1-15 | 2026-09-04 22:48:30 | 50.82777 | 6.47471 | 73° | 44km/h | 20029m | 5m/s | -54.3°C | 11.8% | 58.9hPa | 3.8V | 00:00:00 | 01:11:55 | 00:00:00 | |
| GOEST3-10 | 2026-09-04 22:48:29 | 50.82778 | 6.47503 | 84° | 46km/h | 20041m | 5.2m/s | -54.2°C | 11.8% | 58.7hPa | 3.8V | 00:00:00 | 00:00:00 | 00:00:00 | |
| DM0DOS-11 | 2026-09-04 22:48:27 | 50.82771 | 6.47416 | 88° | 42km/h | 20014m | 5.2m/s | -54.3°C | 11.8% | 59hPa | 3.8V | 00:00:00 | 01:11:52 | 00:00:00 | |
| BIOWL1-15 | 2026-09-04 22:48:26 | 50.82772 | 6.47436 | 85° | 49km/h | 20020m | 6m/s | -54.3°C | 11.8% | 59hPa | 3.8V | 00:00:00 | 00:00:00 | 00:00:00 | |
| GOEST3-10 | 2026-09-04 22:48:24 | 50.82771 | 6.47416 | 89° | 44km/h | 20014m | 5.1m/s | -54.2°C | 11.8% | 59.0hPa | 3.8V | 00:00:00 | 01:11:52 | 00:00:00 | |
| DM0DOS-11 | 2026-09-04 22:48:19 | 50.82763 | 6.47249 | 91° | 44km/h | 19962m | 5m/s | -54.2°C | 12% | 59.5hPa | 3.8V | 00:00:00 | 01:11:42 | 00:00:00 | |
| DL1XH1-15 | 2026-09-04 22:48:18 | 50.82769 | 6.47306 | 80° | 46km/h | 19977m | 5.1m/s | -54.2°C | 11.8% | 59.3hPa | 3.8V | 00:00:00 | 01:11:45 | 00:00:00 | |
| BIOWL1-15 | 2026-09-04 22:48:15 | 50.82767 | 6.47166 | 85° | 35km/h | 19937m | 5m/s | -54.4°C | 12% | 59.7hPa | 3.8V | 00:00:00 | 00:00:00 | 00:00:00 | |
| DL1XH-west | 2026-09-04 22:48:14 | 50.82763 | 6.47228 | 0° | 0km/h | 19957m | 0m/s | -54.3°C | 12% | 59.5hPa | 3.8V | 00:00:00 | 00:00:00 | 00:00:00 | |
| DL1XH1-15 | 2026-09-04 22:48:12 | 50.82766 | 6.47136 | 93° | 47km/h | 19926m | 5.2m/s | -54.4°C | 12% | 59.8hPa | 3.8V | 00:00:00 | 01:11:35 | 00:00:00 | |
| DB0UT-7 | 2026-09-04 22:48:11 | 50.82766 | 6.47192 | 96° | 47km/h | 19947m | 5.1m/s | -54.3°C | 12.0% | 59.6hPa | 3.7V | 00:00:00 | 00:00:00 | 00:00:00 | |
| DM0DOS-11 | 2026-09-04 22:48:09 | 50.82770 | 6.47074 | 93° | 46km/h | 19910m | 5.2m/s | -54.5°C | 12% | 60hPa | 3.8V | 00:00:00 | 01:11:32 | 00:00:00 | |
| BIOWL1-15 | 2026-09-04 22:48:01 | 50.82779 | 6.46965 | 92° | 38km/h | 19879m | 5m/s | -54.9°C | 12.2% | 60.2hPa | 3.8V | 00:00:00 | 00:00:00 | 00:00:00 | |
| GOEST3-10 | 2026-09-04 22:48:00 | 50.82776 | 6.46997 | 101° | 46km/h | 19890m | 5.4m/s | -54.7°C | 12.0% | 60.1hPa | 3.8V | 00:00:00 | 01:11:28 | 00:00:00 | |
| DL1XH1-15 | 2026-09-04 22:47:55 | 50.82785 | 6.46895 | 102° | 47km/h | 19859m | 5.5m/s | -55.1°C | 12.1% | 60.4hPa | 3.8V | 00:00:00 | 01:11:22 | 00:00:00 | |
| BIOWL1-15 | 2026-09-04 22:47:49 | 50.82805 | 6.46789 | 103° | 47km/h | 19828m | 5.5m/s | -55.2°C | 12.3% | 60.7hPa | 3.8V | 00:00:00 | 00:00:00 | 00:00:00 | |
| DM0DOS-11 | 2026-09-04 22:47:49 | 50.82812 | 6.46713 | 99° | 53km/h | 19806m | 5.6m/s | -55.1°C | 12.3% | 60.9hPa | 3.8V | 00:00:00 | 01:11:12 | 00:00:00 | |
| GOEST3-10 | 2026-09-04 22:47:49 | 50.82800 | 6.46807 | 110° | 49km/h | 19832m | 5.3m/s | -55.1°C | 12.3% | 60.6hPa | 3.7V | 00:00:00 | 01:11:17 | 00:00:00 | |
| DL1XH1-15 | 2026-09-04 22:47:44 | 50.82817 | 6.46669 | 93° | 49km/h | 19795m | 5.3m/s | -55°C | 12.3% | 61hPa | 3.8V | 00:00:00 | 01:11:10 | 00:00:00 | |
| DB0UT-7 | 2026-09-04 22:47:41 | 50.82820 | 6.46648 | 97° | 49km/h | 19789m | 5.4m/s | -55.0°C | 12.3% | 61.0hPa | 3.8V | 00:00:00 | 01:11:09 | 00:00:00 | |
| DM0DOS-11 | 2026-09-04 22:47:39 | 50.82823 | 6.46513 | 90° | 51km/h | 19751m | 5.1m/s | -55°C | 12.5% | 61.4hPa | 3.8V | 00:00:00 | 01:11:02 | 00:00:00 | |
| BIOWL1-15 | 2026-09-04 22:47:37 | 50.82825 | 6.46412 | 79° | 46km/h | 19725m | 4m/s | -54.9°C | 12.6% | 61.7hPa | 3.8V | 00:00:00 | 00:00:00 | 00:00:00 | |
| GOEST3-10 | 2026-09-04 22:47:34 | 50.82823 | 6.46512 | 95° | 44km/h | 19751m | 4.9m/s | -55.0°C | 12.5% | 61.4hPa | 3.8V | 00:00:00 | 01:11:02 | 00:00:00 | |
| DL1XH1-15 | 2026-09-04 22:47:32 | 50.82823 | 6.46394 | 80° | 47km/h | 19721m | 5.4m/s | -54.8°C | 12.5% | 61.7hPa | 3.8V | 00:00:00 | 01:10:56 | 00:00:00 | |
| DM0DOS-11 | 2026-09-04 22:47:30 | 50.82817 | 6.46317 | 74° | 47km/h | 19701m | 5.4m/s | -54.7°C | 12.6% | 61.9hPa | 3.8V | 00:00:00 | 01:10:52 | 00:00:00 | |
| BIOWL1-15 | 2026-09-04 22:47:24 | 50.82814 | 6.46300 | 74° | 44km/h | 19695m | 5m/s | -54.7°C | 12.7% | 62hPa | 3.8V | 00:00:00 | 00:00:00 | 00:00:00 | |
| DL1XH-west | 2026-09-04 22:47:21 | 50.82808 | 6.46246 | 0° | 0km/h | 19679m | 0m/s | -54.6°C | 12.8% | 62.1hPa | 3.8V | 00:00:00 | 00:00:00 | 00:00:00 | |
| DL1XH1-15 | 2026-09-04 22:47:21 | 50.82804 | 6.46162 | 67° | 47km/h | 19659m | 5.5m/s | -54.6°C | 12.7% | 62.3hPa | 3.8V | 00:00:00 | 01:10:44 | 00:00:00 | |
| DM0DOS-11 | 2026-09-04 22:47:19 | 50.82794 | 6.46128 | 74° | 47km/h | 19647m | 5.2m/s | -54.6°C | 12.7% | 62.4hPa | 3.8V | 00:00:00 | 01:10:42 | 00:00:00 | |
| BIOWL1-15 | 2026-09-04 22:47:10 | 50.82769 | 6.45976 | 74° | 49km/h | 19605m | 5m/s | -55°C | 13% | 62.8hPa | 3.8V | 00:00:00 | 00:00:00 | 00:00:00 | |
| DM0DOS-11 | 2026-09-04 22:47:09 | 50.82760 | 6.45941 | 58° | 44km/h | 19594m | 5.2m/s | -55°C | 13% | 62.9hPa | 3.8V | 00:00:00 | 01:10:32 | 00:00:00 | |
| DL1XH-west | 2026-09-04 22:47:09 | 50.82773 | 6.46015 | 0° | 0km/h | 19615m | 0m/s | -55°C | 12.9% | 62.7hPa | 3.8V | 00:00:00 | 00:00:00 | 00:00:00 | |
| DL1XH1-15 | 2026-09-04 22:47:08 | 50.82769 | 6.45976 | 67° | 46km/h | 19605m | 5.2m/s | -55°C | 13% | 62.8hPa | 3.8V | 00:00:00 | 01:10:34 | 00:00:00 | |
| DL1XH1-15 | 2026-09-04 22:47:01 | 50.82719 | 6.45812 | 80° | 42km/h | 19554m | 5.2m/s | -54.9°C | 13% | 63.3hPa | 3.8V | 00:00:00 | 01:10:24 | 00:00:00 | |
| BIOWL1-15 | 2026-09-04 22:47:00 | 50.82717 | 6.45792 | 83° | 46km/h | 19548m | 5m/s | -54.9°C | 13% | 63.4hPa | 3.8V | 00:00:00 | 00:00:00 | 00:00:00 | |
| DM0DOS-11 | 2026-09-04 22:46:59 | 50.82715 | 6.45774 | 75° | 40km/h | 19543m | 5.1m/s | -54.9°C | 13% | 63.4hPa | 3.8V | 00:00:00 | 01:10:22 | 00:00:00 | |
| DL1XH-west | 2026-09-04 22:46:59 | 50.82728 | 6.45848 | 0° | 0km/h | 19564m | 0m/s | -55°C | 13% | 63.2hPa | 3.8V | 00:00:00 | 00:00:00 | 00:00:00 | |
| NBG1-10 | 2026-09-04 22:46:52 | 50.82708 | 6.45743 | 61° | 40km/h | 19532m | 4.8m/s | -54.8°C | 13.0% | 63.5hPa | 3.7V | 00:00:00 | 01:10:20 | 00:00:00 | |
| GOEST3-10 | 2026-09-04 22:46:51 | 50.82703 | 6.45731 | 70° | 42km/h | 19528m | 5.1m/s | -54.7°C | 13.0% | 63.5hPa | 3.7V | 00:00:00 | 00:00:00 | 00:00:00 | |
| DM0DOS-11 | 2026-09-04 22:46:49 | 50.82680 | 6.45622 | 71° | 40km/h | 19493m | 5.4m/s | -54.6°C | 13% | 63.9hPa | 3.8V | 00:00:00 | 01:10:12 | 00:00:00 | |
| DL1XH-west | 2026-09-04 22:46:47 | 50.82688 | 6.45655 | 0° | 0km/h | 19503m | 0m/s | -54.7°C | 13.1% | 63.8hPa | 3.8V | 00:00:00 | 00:00:00 | 00:00:00 | |
| BIOWL1-15 | 2026-09-04 22:46:45 | 50.82680 | 6.45622 | 72° | 44km/h | 19493m | 5m/s | -54.6°C | 13.1% | 63.9hPa | 3.8V | 00:00:00 | 00:00:00 | 00:00:00 | |
| DL1XH1-15 | 2026-09-04 22:46:41 | 50.82667 | 6.45497 | 86° | 44km/h | 19449m | 4.9m/s | -54.5°C | 13.2% | 64.3hPa | 3.8V | 00:00:00 | 01:10:04 | 00:00:00 | |
| DB0UT-7 | 2026-09-04 22:46:41 | 50.82674 | 6.45573 | 79° | 38km/h | 19477m | 5.5m/s | -54.5°C | 13.1% | 64.0hPa | 3.7V | 00:00:00 | 01:10:09 | 00:00:00 | |
| GOEST3-10 | 2026-09-04 22:46:40 | 50.82672 | 6.45558 | 80° | 42km/h | 19470m | 5.0m/s | -54.4°C | 13.1% | 64.1hPa | 3.8V | 00:00:00 | 00:00:00 | 00:00:00 | |
| DM0DOS-11 | 2026-09-04 22:46:39 | 50.82664 | 6.45459 | 69° | 40km/h | 19439m | 4.9m/s | -54.8°C | 13.3% | 64.4hPa | 3.8V | 00:00:00 | 01:10:02 | 00:00:00 | |
| DL1XH-west | 2026-09-04 22:46:36 | 50.82666 | 6.45478 | 0° | 0km/h | 19445m | 0m/s | -54.6°C | 13.3% | 64.4hPa | 3.8V | 00:00:00 | 00:00:00 | 00:00:00 | |
| BIOWL1-15 | 2026-09-04 22:46:34 | 50.82654 | 6.45385 | 105° | 29km/h | 19414m | 6m/s | -55.2°C | 13.4% | 64.7hPa | 3.8V | 00:00:00 | 00:00:00 | 00:00:00 | |
| DO3MHA-11 | 2026-09-04 22:46:33 | 50.82660 | 6.45441 | 66° | 38km/h | 19434m | 4.7m/s | -54.9°C | 13.3% | 64.4hPa | 3.8V | 00:00:00 | 01:10:01 | 00:00:00 | |
| DL1XH1-15 | 2026-09-04 22:46:32 | 50.82658 | 6.45347 | 100° | 40km/h | 19399m | 5.2m/s | -55.2°C | 13.5% | 64.8hPa | 3.8V | 00:00:00 | 01:09:54 | 00:00:00 | |
| DM0DOS-11 | 2026-09-04 22:46:29 | 50.82661 | 6.45313 | 90° | 37km/h | 19388m | 4.9m/s | -55.2°C | 13.5% | 64.9hPa | 3.8V | 00:00:00 | 01:09:52 | 00:00:00 | |
| DL1XH-west | 2026-09-04 22:46:25 | 50.82661 | 6.45296 | 0° | 0km/h | 19384m | 0m/s | -55.2°C | 13.5% | 65hPa | 3.8V | 00:00:00 | 00:00:00 | 00:00:00 | |
| DL1XH1-15 | 2026-09-04 22:46:21 | 50.82664 | 6.45197 | 90° | 42km/h | 19347m | 4.8m/s | -55.1°C | 13.5% | 65.3hPa | 3.8V | 00:00:00 | 01:09:44 | 00:00:00 | |
| DM0DOS-11 | 2026-09-04 22:46:20 | 50.82664 | 6.45162 | 90° | 42km/h | 19338m | 5.1m/s | -55.1°C | 13.5% | 65.4hPa | 3.8V | 00:00:00 | 01:09:42 | 00:00:00 | |
| BIOWL1-15 | 2026-09-04 22:46:19 | 50.82664 | 6.45180 | 90° | 46km/h | 19343m | 5m/s | -55.1°C | 13.5% | 65.4hPa | 3.8V | 00:00:00 | 00:00:00 | 00:00:00 | |
| DL1XH-west | 2026-09-04 22:46:12 | 50.82663 | 6.45109 | 0° | 0km/h | 19322m | 0m/s | -55.1°C | 13.7% | 65.6hPa | 3.8V | 00:00:00 | 00:00:00 | 00:00:00 | |
| BIOWL1-15 | 2026-09-04 22:46:06 | 50.82663 | 6.44952 | 90° | 40km/h | 19272m | 5m/s | -54.9°C | 13.7% | 66.1hPa | 3.8V | 00:00:00 | 00:00:00 | 00:00:00 | |
| DM0DOS-11 | 2026-09-04 22:46:05 | 50.82663 | 6.45004 | 86° | 44km/h | 19287m | 5m/s | -54.9°C | 13.6% | 65.9hPa | 3.8V | 00:00:00 | 01:09:32 | 00:00:00 | |
| DL1XH-west | 2026-09-04 22:46:01 | 50.82663 | 6.44935 | 0° | 0km/h | 19267m | 0m/s | -54.9°C | 13.8% | 66.2hPa | 3.8V | 00:00:00 | 00:00:00 | 00:00:00 | |
| DM0DOS-11 | 2026-09-04 22:45:59 | 50.82665 | 6.44810 | 86° | 53km/h | 19232m | 5m/s | -55.1°C | 13.7% | 66.5hPa | 3.8V | 00:00:00 | 01:09:21 | 00:00:00 | |
| BIOWL1-15 | 2026-09-04 22:45:54 | 50.82665 | 6.44722 | 87° | 51km/h | 19213m | 6m/s | -55.1°C | 13.8% | 66.7hPa | 3.8V | 00:00:00 | 00:00:00 | 00:00:00 | |
| DL1XH1-15 | 2026-09-04 22:45:51 | 50.82662 | 6.44666 | 90° | 46km/h | 19196m | 5.1m/s | -55.1°C | 13.7% | 66.9hPa | 3.8V | 00:00:00 | 01:09:14 | 00:00:00 | |
| DL1XH-west | 2026-09-04 22:45:51 | 50.82665 | 6.44744 | 0° | 0km/h | 19217m | 0m/s | -55.1°C | 13.9% | 66.7hPa | 3.8V | 00:00:00 | 00:00:00 | 00:00:00 | |
| GOEST3-10 | 2026-09-04 22:45:50 | 50.82665 | 6.44744 | 90° | 46km/h | 19217m | 5.1m/s | -55.0°C | 13.8% | 66.6hPa | 3.8V | 00:00:00 | 00:00:00 | 00:00:00 | |
| DM0DOS-11 | 2026-09-04 22:45:47 | 50.82663 | 6.44632 | 94° | 47km/h | 19186m | 5.1m/s | -55.2°C | 13.7% | 67hPa | 3.8V | 00:00:00 | 01:09:12 | 00:00:00 | |
| BIOWL1-15 | 2026-09-04 22:45:43 | 50.82663 | 6.44598 | 88° | 49km/h | 19176m | 5m/s | -55.5°C | 13.8% | 67.1hPa | 3.8V | 00:00:00 | 00:00:00 | 00:00:00 | |
| DL1XH1-15 | 2026-09-04 22:45:41 | 50.82663 | 6.44470 | 90° | 47km/h | 19146m | 4.9m/s | -56.1°C | 13.7% | 67.4hPa | 3.8V | 00:00:00 | 01:09:04 | 00:00:00 | |
| DL1XH-west | 2026-09-04 22:45:40 | 50.82665 | 6.44533 | 0° | 0km/h | 19160m | 0m/s | -55.8°C | 13.7% | 67.3hPa | 3.8V | 00:00:00 | 00:00:00 | 00:00:00 | |
| BIOWL1-15 | 2026-09-04 22:45:34 | 50.82665 | 6.44375 | 80° | 60km/h | 19122m | 5m/s | -56.8°C | 13.9% | 67.7hPa | 3.8V | 00:00:00 | 00:00:00 | 00:00:00 | |
| DO3MHA-11 | 2026-09-04 22:45:32 | 50.82666 | 6.44397 | 82° | 53km/h | 19128m | 4.9m/s | -56.6°C | 13.7% | 67.5hPa | 3.8V | 00:00:00 | 01:09:00 | 00:00:00 | |
| DL1XH1-15 | 2026-09-04 22:45:31 | 50.82658 | 6.44259 | 84° | 44km/h | 19099m | 5m/s | -57.1°C | 14% | 67.9hPa | 3.8V | 00:00:00 | 01:08:54 | 00:00:00 | |
| DM0DOS-11 | 2026-09-04 22:45:29 | 50.82656 | 6.44225 | 85° | 46km/h | 19089m | 4.9m/s | -57.2°C | 14% | 68hPa | 3.8V | 00:00:00 | 01:08:52 | 00:00:00 | |
| DL1XH-west | 2026-09-04 22:45:29 | 50.82658 | 6.44302 | 0° | 0km/h | 19107m | 0m/s | -57.1°C | 14% | 67.8hPa | 3.8V | 00:00:00 | 00:00:00 | 00:00:00 | |
| BIOWL1-15 | 2026-09-04 22:45:23 | 50.82656 | 6.44155 | 84° | 57km/h | 19069m | 5m/s | -57.3°C | 13.9% | 68.2hPa | 3.8V | 00:00:00 | 00:00:00 | 00:00:00 | |
| GOEST3-10 | 2026-09-04 22:45:20 | 50.82656 | 6.44155 | 89° | 51km/h | 19069m | 5.0m/s | -57.3°C | 13.8% | 68.2hPa | 3.7V | 00:00:00 | 01:08:48 | 00:00:00 | |
| DM0DOS-11 | 2026-09-04 22:45:19 | 50.82656 | 6.44030 | 92° | 46km/h | 19039m | 4.9m/s | -57.4°C | 14% | 68.5hPa | 3.8V | 00:00:00 | 01:08:42 | 00:00:00 | |
| DL1XH-west | 2026-09-04 22:45:19 | 50.82654 | 6.44085 | 0° | 0km/h | 19055m | 0m/s | -57.4°C | 14.1% | 68.4hPa | 3.8V | 00:00:00 | 00:00:00 | 00:00:00 | |
| BIOWL1-15 | 2026-09-04 22:45:13 | 50.82660 | 6.43958 | 90° | 57km/h | 19020m | 5.5m/s | -57.3°C | 14.1% | 68.8hPa | 3.8V | 00:00:00 | 00:00:00 | 00:00:00 | |
| DB0UT-7 | 2026-09-04 22:45:11 | 50.82659 | 6.43980 | 97° | 53km/h | 19024m | 4.9m/s | -57.3°C | 14.0% | 68.7hPa | 3.7V | 00:00:00 | 00:00:00 | 00:00:00 | |
| DL1XH1-15 | 2026-09-04 22:45:10 | 50.82662 | 6.43854 | 91° | 49km/h | 18993m | 5m/s | -57.2°C | 14% | 69hPa | 3.8V | 00:00:00 | 01:08:33 | 00:00:00 | |
| DL1XH-west | 2026-09-04 22:45:07 | 50.82660 | 6.43872 | 0° | 0km/h | 18998m | 0m/s | -57.2°C | 14.1% | 69hPa | 3.8V | 00:00:00 | 00:00:00 | 00:00:00 | |
| DL1XH1-15 | 2026-09-04 22:45:00 | 50.82648 | 6.43649 | 88° | 51km/h | 18941m | 4.9m/s | -57.1°C | 14.2% | 69.6hPa | 3.8V | 00:00:00 | 01:08:23 | 00:00:00 | |
| BIOWL1-15 | 2026-09-04 22:45:00 | 50.82653 | 6.43736 | 87° | 55km/h | 18963m | 6m/s | -57.1°C | 14.2% | 69.4hPa | 3.8V | 00:00:00 | 00:00:00 | 00:00:00 | |
| DM0DOS-11 | 2026-09-04 22:44:59 | 50.82648 | 6.43628 | 86° | 51km/h | 18935m | 4.5m/s | -57.1°C | 14.2% | 69.7hPa | 3.8V | 00:00:00 | 01:08:22 | 00:00:00 | |
| BIOWL1-15 | 2026-09-04 22:44:56 | 50.82637 | 6.43486 | 85° | 57km/h | 18902m | 5.5m/s | -56.8°C | 14.3% | 70hPa | 3.8V | 00:00:00 | 00:00:00 | 00:00:00 | |
| DL1XH-west | 2026-09-04 22:44:51 | 50.82640 | 6.43546 | 0° | 0km/h | 18918m | 0m/s | -56.9°C | 14.3% | 69.8hPa | 3.8V | 00:00:00 | 00:00:00 | 00:00:00 | |
| DL1XH1-15 | 2026-09-04 22:44:50 | 50.82635 | 6.43441 | 82° | 57km/h | 18891m | 5m/s | -56.7°C | 14.3% | 70.1hPa | 3.8V | 00:00:00 | 01:08:13 | 00:00:00 | |
| DM0DOS-11 | 2026-09-04 22:44:50 | 50.82633 | 6.43418 | 86° | 55km/h | 18886m | 5m/s | -56.6°C | 14.2% | 70.2hPa | 3.8V | 00:00:00 | 01:08:12 | 00:00:00 | |
| DB0UT-7 | 2026-09-04 22:44:41 | 50.82629 | 6.43351 | 78° | 55km/h | 18872m | 5.2m/s | -56.5°C | 14.3% | 70.3hPa | 3.8V | 00:00:00 | 01:08:09 | 00:00:00 | |
| DL1XH1-15 | 2026-09-04 22:44:41 | 50.82615 | 6.43224 | 85° | 55km/h | 18841m | 4.7m/s | -56.3°C | 14.5% | 70.7hPa | 3.8V | 00:00:00 | 01:08:03 | 00:00:00 | |
| DM0DOS-11 | 2026-09-04 22:44:39 | 50.82613 | 6.43202 | 79° | 55km/h | 18836m | 4.6m/s | -56.3°C | 14.5% | 70.7hPa | 3.8V | 00:00:00 | 01:08:02 | 00:00:00 | |
| DL1XH-west | 2026-09-04 22:44:37 | 50.82615 | 6.43246 | 0° | 0km/h | 18846m | 0m/s | -56.3°C | 14.5% | 70.6hPa | 3.8V | 00:00:00 | 00:00:00 | 00:00:00 | |
| BIOWL1-15 | 2026-09-04 22:44:36 | 50.82615 | 6.43224 | 82° | 57km/h | 18841m | 4.5m/s | -56.3°C | 14.5% | 70.7hPa | 3.8V | 00:00:00 | 00:00:00 | 00:00:00 | |
| NBG1-10 | 2026-09-04 22:44:30 | 50.82605 | 6.43117 | 83° | 53km/h | 18817m | 4.8m/s | -56.2°C | 14.5% | 70.9hPa | 3.7V | 00:00:00 | 01:07:58 | 00:00:00 | |
| DL1XH1-15 | 2026-09-04 22:44:29 | 50.82590 | 6.42985 | 88° | 58km/h | 18787m | 4.7m/s | -56.4°C | 14.6% | 71.2hPa | 3.8V | 00:00:00 | 01:07:52 | 00:00:00 | |
| BIOWL1-15 | 2026-09-04 22:44:25 | 50.82590 | 6.42985 | 87° | 64km/h | 18787m | 4.5m/s | -56.4°C | 14.7% | 71.2hPa | 3.8V | 00:00:00 | 00:00:00 | 00:00:00 | |
| GOEST3-10 | 2026-09-04 22:44:24 | 50.82590 | 6.42985 | 82° | 55km/h | 18787m | 5.0m/s | -56.3°C | 14.6% | 71.2hPa | 3.7V | 00:00:00 | 00:00:00 | 00:00:00 | |
| DL1XH1-15 | 2026-09-04 22:44:19 | 50.82563 | 6.42757 | 88° | 51km/h | 18739m | 5.3m/s | -56.1°C | 14.6% | 71.8hPa | 3.8V | 00:00:00 | 01:07:42 | 00:00:00 | |
| BIOWL1-15 | 2026-09-04 22:44:18 | 50.82563 | 6.42734 | 92° | 49km/h | 18732m | 4.5m/s | -56.1°C | 14.7% | 71.9hPa | 3.8V | 00:00:00 | 00:00:00 | 00:00:00 | |
| DL1XH-west | 2026-09-04 22:44:12 | 50.82564 | 6.42694 | 0° | 0km/h | 18723m | 0m/s | -56.1°C | 14.8% | 72hPa | 3.8V | 00:00:00 | 00:00:00 | 00:00:00 | |
| DB0UT-7 | 2026-09-04 22:44:11 | 50.82564 | 6.42694 | 82° | 51km/h | 18723m | 5.0m/s | -56.0°C | 14.7% | 71.9hPa | 3.8V | 00:00:00 | 00:00:00 | 00:00:00 | |
| DL1XH1-15 | 2026-09-04 22:44:10 | 50.82534 | 6.42548 | 72° | 53km/h | 18688m | 5.1m/s | -55.8°C | 14.7% | 72.3hPa | 3.8V | 00:00:00 | 01:07:32 | 00:00:00 | |
| BIOWL1-15 | 2026-09-04 22:44:02 | 50.82523 | 6.42483 | 83° | 49km/h | 18672m | 5m/s | -55.7°C | 14.8% | 72.5hPa | 3.8V | 00:00:00 | 00:00:00 | 00:00:00 | |
| DL1XH-west | 2026-09-04 22:44:01 | 50.82522 | 6.42463 | 0° | 0km/h | 18667m | 0m/s | -55.7°C | 14.8% | 72.6hPa | 3.8V | 00:00:00 | 00:00:00 | 00:00:00 | |
| DL1XH1-15 | 2026-09-04 22:43:59 | 50.82500 | 6.42350 | 85° | 51km/h | 18637m | 4.9m/s | -55.8°C | 14.8% | 72.9hPa | 3.8V | 00:00:00 | 01:07:22 | 00:00:00 | |
| DL1XH-west | 2026-09-04 22:43:50 | 50.82486 | 6.42251 | 0° | 0km/h | 18612m | 0m/s | -55.8°C | 15% | 73.2hPa | 3.8V | 00:00:00 | 00:00:00 | 00:00:00 | |
| GOEST3-10 | 2026-09-04 22:43:45 | 50.82470 | 6.42172 | 77° | 47km/h | 18592m | 4.9m/s | -55.6°C | 15.0% | 73.4hPa | 3.7V | 00:00:00 | 01:07:13 | 00:00:00 | |
| NBG1-10 | 2026-09-04 22:43:42 | 50.82460 | 6.42108 | 79° | 44km/h | 18578m | 4.8m/s | -55.5°C | 15.0% | 73.5hPa | 3.7V | 00:00:00 | 01:07:10 | 00:00:00 | |
| DB0UT-7 | 2026-09-04 22:43:41 | 50.82459 | 6.42090 | 75° | 44km/h | 18574m | 5.2m/s | -55.5°C | 15.0% | 73.6hPa | 3.7V | 00:00:00 | 01:07:09 | 00:00:00 | |
| DL1XH1-15 | 2026-09-04 22:43:39 | 50.82432 | 6.41972 | 71° | 49km/h | 18538m | 5m/s | -55.2°C | 15% | 74hPa | 3.8V | 00:00:00 | 01:07:02 | 00:00:00 | |
| DL1XH-west | 2026-09-04 22:43:39 | 50.82448 | 6.42038 | 0° | 0km/h | 18559m | 0m/s | -55.4°C | 15.2% | 73.8hPa | 3.8V | 00:00:00 | 00:00:00 | 00:00:00 | |
| BIOWL1-15 | 2026-09-04 22:43:31 | 50.82418 | 6.41854 | 71° | 38km/h | 18508m | 4.7m/s | -55.1°C | 15.4% | 74.4hPa | 3.8V | 00:00:00 | 00:00:00 | 00:00:00 | |
| DL1XH1-15 | 2026-09-04 22:43:30 | 50.82406 | 6.41795 | 71° | 46km/h | 18489m | 5.3m/s | -54.9°C | 15.2% | 74.6hPa | 3.8V | 00:00:00 | 01:06:52 | 00:00:00 | |
| DL1XH-west | 2026-09-04 22:43:28 | 50.82414 | 6.41840 | 0° | 0km/h | 18504m | 0m/s | -55°C | 15.4% | 74.4hPa | 3.8V | 00:00:00 | 00:00:00 | 00:00:00 | |
| GOEST3-10 | 2026-09-04 22:43:25 | 50.82408 | 6.41811 | 75° | 44km/h | 18494m | 5.1m/s | -54.9°C | 15.3% | 74.5hPa | 3.8V | 00:00:00 | 01:06:53 | 00:00:00 | |
| GOEST3-10 | 2026-09-04 22:43:20 | 50.82392 | 6.41721 | 80° | 38km/h | 18467m | 4.7m/s | -54.8°C | 15.1% | 74.8hPa | 3.8V | 00:00:00 | 00:00:00 | 00:00:00 | |
| DL1XH1-15 | 2026-09-04 22:43:19 | 50.82373 | 6.41631 | 75° | 40km/h | 18438m | 5.1m/s | -54.7°C | 15.2% | 75.2hPa | 3.8V | 00:00:00 | 01:06:42 | 00:00:00 | |
| DL1XH-west | 2026-09-04 22:43:17 | 50.82380 | 6.41659 | 0° | 0km/h | 18448m | 0m/s | -54.7°C | 15.2% | 75hPa | 3.8V | 00:00:00 | 00:00:00 | 00:00:00 | |
| BIOWL1-15 | 2026-09-04 22:43:15 | 50.82373 | 6.41631 | 75° | 35km/h | 18438m | 5m/s | -54.7°C | 15.3% | 75.2hPa | 3.8V | 00:00:00 | 00:00:00 | 00:00:00 | |
| DB0UT-7 | 2026-09-04 22:43:11 | 50.82365 | 6.41586 | 68° | 33km/h | 18422m | 4.9m/s | -54.7°C | 15.2% | 75.3hPa | 3.8V | 00:00:00 | 00:00:00 | 00:00:00 | |
| GOEST3-10 | 2026-09-04 22:43:10 | 50.82360 | 6.41568 | 66° | 35km/h | 18417m | 5.1m/s | -54.7°C | 15.2% | 75.4hPa | 3.8V | 00:00:00 | 00:00:00 | 00:00:00 | |
| DL1XH1-15 | 2026-09-04 22:43:09 | 50.82335 | 6.41488 | 62° | 37km/h | 18387m | 5m/s | -54.7°C | 15.3% | 75.8hPa | 3.8V | 00:00:00 | 01:06:32 | 00:00:00 | |
| BIOWL1-15 | 2026-09-04 22:43:06 | 50.82300 | 6.41371 | 66° | 29km/h | 18337m | 6m/s | -54.4°C | 15.5% | 76.4hPa | 3.8V | 00:00:00 | 00:00:00 | 00:00:00 | |
| DL1XH-west | 2026-09-04 22:43:06 | 50.82340 | 6.41500 | 0° | 0km/h | 18391m | 0m/s | -54.8°C | 15.5% | 75.7hPa | 3.8V | 00:00:00 | 00:00:00 | 00:00:00 | |
| BIOWL1-15 | 2026-09-04 22:43:04 | 50.82297 | 6.41360 | 66° | 37km/h | 18331m | 5m/s | -54.3°C | 15.5% | 76.4hPa | 3.8V | 00:00:00 | 00:00:00 | 00:00:00 | |
| DL1XH1-15 | 2026-09-04 22:42:59 | 50.82300 | 6.41371 | 65° | 35km/h | 18337m | 5.4m/s | -54.4°C | 15.5% | 76.4hPa | 3.8V | 00:00:00 | 01:06:22 | 00:00:00 | |
| DL1XH-west | 2026-09-04 22:42:56 | 50.82302 | 6.41379 | 0° | 0km/h | 18341m | 0m/s | -54.4°C | 15.5% | 76.3hPa | 3.8V | 00:00:00 | 00:00:00 | 00:00:00 | |
| GOEST3-10 | 2026-09-04 22:42:54 | 50.82300 | 6.41371 | 66° | 33km/h | 18337m | 5.3m/s | -54.3°C | 15.5% | 76.3hPa | 3.8V | 00:00:00 | 01:06:22 | 00:00:00 | |
| DL1XH1-15 | 2026-09-04 22:42:49 | 50.82264 | 6.41252 | 86° | 31km/h | 18285m | 5.2m/s | -54.1°C | 15.5% | 76.9hPa | 3.8V | 00:00:00 | 01:06:12 | 00:00:00 | |
| BIOWL1-15 | 2026-09-04 22:42:46 | 50.82264 | 6.41242 | 71° | 35km/h | 18280m | 5.5m/s | -54.1°C | 15.5% | 77hPa | 3.8V | 00:00:00 | 00:00:00 | 00:00:00 | |
| DL1XH-west | 2026-09-04 22:42:45 | 50.82264 | 6.41252 | 0° | 0km/h | 18285m | 0m/s | -54.2°C | 15.5% | 77hPa | 3.8V | 00:00:00 | 00:00:00 | 00:00:00 | |
| GOEST3-10 | 2026-09-04 22:42:44 | 50.82264 | 6.41252 | 87° | 33km/h | 18285m | 5.2m/s | -54.1°C | 15.5% | 76.9hPa | 3.7V | 00:00:00 | 01:06:12 | 00:00:00 | |
| DB0UT-7 | 2026-09-04 22:42:41 | 50.82260 | 6.41218 | 67° | 38km/h | 18269m | 5.1m/s | -54.1°C | 15.5% | 77.1hPa | 3.8V | 00:00:00 | 01:06:09 | 00:00:00 | |
| DL1XH1-15 | 2026-09-04 22:42:39 | 50.82238 | 6.41133 | 90° | 33km/h | 18234m | 5.4m/s | -54.2°C | 15.5% | 77.5hPa | 3.8V | 00:00:00 | 01:06:02 | 00:00:00 | |
| DL1XH-west | 2026-09-04 22:42:33 | 50.82240 | 6.41110 | 0° | 0km/h | 18223m | 0m/s | -54.2°C | 15.7% | 77.7hPa | 3.8V | 00:00:00 | 00:00:00 | 00:00:00 | |
| DL1XH1-15 | 2026-09-04 22:42:29 | 50.82225 | 6.41001 | 83° | 40km/h | 18182m | 5.4m/s | -54.1°C | 16% | 78.2hPa | 3.8V | 00:00:00 | 01:05:52 | 00:00:00 | |
| BIOWL1-15 | 2026-09-04 22:42:27 | 50.82228 | 6.41027 | 82° | 31km/h | 18192m | 4m/s | -54.1°C | 15.9% | 78hPa | 3.8V | 00:00:00 | 00:00:00 | 00:00:00 | |
| DL1XH-west | 2026-09-04 22:42:23 | 50.82224 | 6.40970 | 0° | 0km/h | 18171m | 0m/s | -54°C | 16% | 78.3hPa | 3.8V | 00:00:00 | 00:00:00 | 00:00:00 | |
| DL1XH1-15 | 2026-09-04 22:42:19 | 50.82215 | 6.40836 | 84° | 46km/h | 18129m | 5.3m/s | -53.9°C | 16.1% | 78.8hPa | 3.8V | 00:00:00 | 01:05:42 | 00:00:00 | |
| BIOWL1-15 | 2026-09-04 22:42:18 | 50.82217 | 6.40854 | 84° | 44km/h | 18134m | 5m/s | -53.9°C | 16.1% | 78.8hPa | 3.8V | 00:00:00 | 00:00:00 | 00:00:00 | |
| DL1XH-west | 2026-09-04 22:42:12 | 50.82212 | 6.40782 | 0° | 0km/h | 18113m | 0m/s | -53.8°C | 16.1% | 79hPa | 3.8V | 00:00:00 | 00:00:00 | 00:00:00 | |
| DB0UT-7 | 2026-09-04 22:42:11 | 50.82212 | 6.40782 | 89° | 51km/h | 18113m | 5.0m/s | -53.8°C | 16.1% | 79.0hPa | 3.7V | 00:00:00 | 00:00:00 | 00:00:00 | |
| DL1XH1-15 | 2026-09-04 22:42:09 | 50.82203 | 6.40651 | 86° | 49km/h | 18078m | 5.3m/s | -53.7°C | 16% | 79.4hPa | 3.8V | 00:00:00 | 01:05:32 | 00:00:00 | |
| BIOWL1-15 | 2026-09-04 22:42:07 | 50.82203 | 6.40672 | 89° | 51km/h | 18082m | 5m/s | -53.7°C | 16% | 79.4hPa | 3.8V | 00:00:00 | 00:00:00 | 00:00:00 | |
| DL1XH-west | 2026-09-04 22:42:01 | 50.82198 | 6.40574 | 0° | 0km/h | 18057m | 0m/s | -53.7°C | 16.1% | 79.7hPa | 3.8V | 00:00:00 | 00:00:00 | 00:00:00 | |
| DL1XH1-15 | 2026-09-04 22:41:59 | 50.82190 | 6.40455 | 91° | 53km/h | 18027m | 5.2m/s | -53.7°C | 16.2% | 80hPa | 3.8V | 00:00:00 | 01:05:22 | 00:00:00 | |
| BIOWL1-15 | 2026-09-04 22:41:56 | 50.82190 | 6.40455 | 92° | 55km/h | 18027m | 6m/s | -53.7°C | 16.3% | 80hPa | 3.8V | 00:00:00 | 00:00:00 | 00:00:00 | |
| DL1XH-west | 2026-09-04 22:41:51 | 50.82188 | 6.40372 | 0° | 0km/h | 18006m | 0m/s | -53.9°C | 16.5% | 80.3hPa | 3.8V | 00:00:00 | 00:00:00 | 00:00:00 | |
| DL1XH1-15 | 2026-09-04 22:41:49 | 50.82174 | 6.40250 | 91° | 55km/h | 17976m | 5.1m/s | -53.7°C | 16.5% | 80.7hPa | 3.8V | 00:00:00 | 01:05:12 | 00:00:00 | |
| BIOWL1-15 | 2026-09-04 22:41:44 | 50.82174 | 6.40228 | 83° | 58km/h | 17970m | 4.5m/s | -53.7°C | 16.5% | 80.7hPa | 3.8V | 00:00:00 | 00:00:00 | 00:00:00 | |
| DL1XH-west | 2026-09-04 22:41:40 | 50.82164 | 6.40141 | 0° | 0km/h | 17951m | 0m/s | -53.7°C | 16.6% | 81hPa | 3.8V | 00:00:00 | 00:00:00 | 00:00:00 | |
| DL1XH1-15 | 2026-09-04 22:41:39 | 50.82153 | 6.40036 | 90° | 55km/h | 17926m | 5m/s | -53.6°C | 16.6% | 81.3hPa | 3.8V | 00:00:00 | 01:05:02 | 00:00:00 | |
| BIOWL1-15 | 2026-09-04 22:41:33 | 50.82154 | 6.39991 | 89° | 58km/h | 17916m | 6m/s | -53.6°C | 16.8% | 81.4hPa | 3.8V | 00:00:00 | 00:00:00 | 00:00:00 | |
| DL1XH-west | 2026-09-04 22:41:29 | 50.82147 | 6.39903 | 0° | 0km/h | 17896m | 0m/s | -53.6°C | 16.6% | 81.7hPa | 3.8V | 00:00:00 | 00:00:00 | 00:00:00 | |
| DM0DOS-11 | 2026-09-04 22:41:28 | 50.82136 | 6.39793 | 91° | 57km/h | 17871m | 5.1m/s | -53.7°C | 16.5% | 82hPa | 3.8V | 00:00:00 | 01:04:51 | 00:00:00 | |
| BIOWL1-15 | 2026-09-04 22:41:24 | 50.82136 | 6.39747 | 83° | 60km/h | 17861m | 5.3m/s | -53.7°C | 16.5% | 82.1hPa | 3.8V | 00:00:00 | 00:00:00 | 00:00:00 | |
| DL1XH1-15 | 2026-09-04 22:41:19 | 50.82123 | 6.39588 | 86° | 51km/h | 17826m | 5.3m/s | -53.7°C | 16.6% | 82.5hPa | 3.8V | 00:00:00 | 01:04:42 | 00:00:00 | |
| DL1XH-west | 2026-09-04 22:41:19 | 50.82131 | 6.39676 | 0° | 0km/h | 17845m | 0m/s | -53.7°C | 16.5% | 82.3hPa | 3.8V | 00:00:00 | 00:00:00 | 00:00:00 | |
| BIOWL1-15 | 2026-09-04 22:41:14 | 50.82123 | 6.39530 | 88° | 55km/h | 17809m | 4m/s | -53.6°C | 16.7% | 82.8hPa | 3.8V | 00:00:00 | 00:00:00 | 00:00:00 | |
| DB0UT-7 | 2026-09-04 22:41:11 | 50.82123 | 6.39530 | 89° | 49km/h | 17809m | 4.7m/s | -53.6°C | 16.6% | 82.7hPa | 3.8V | 00:00:00 | 00:00:00 | 00:00:00 | |
| DL1XH1-15 | 2026-09-04 22:41:09 | 50.82117 | 6.39379 | 88° | 49km/h | 17775m | 5m/s | -53.3°C | 16.8% | 83.2hPa | 3.8V | 00:00:00 | 01:04:32 | 00:00:00 | |
| DL1XH-west | 2026-09-04 22:41:08 | 50.82122 | 6.39445 | 0° | 0km/h | 17790m | 0m/s | -53.4°C | 16.7% | 83hPa | 3.8V | 00:00:00 | 00:00:00 | 00:00:00 | |
| BIOWL1-15 | 2026-09-04 22:41:01 | 50.82121 | 6.39305 | 89° | 55km/h | 17754m | 4.5m/s | -53.2°C | 16.9% | 83.4hPa | 3.8V | 00:00:00 | 00:00:00 | 00:00:00 | |
| DL1XH1-15 | 2026-09-04 22:40:59 | 50.82117 | 6.39176 | 84° | 47km/h | 17726m | 4.8m/s | -53.1°C | 16.8% | 83.8hPa | 3.8V | 00:00:00 | 01:04:22 | 00:00:00 | |
| DM0DOS-11 | 2026-09-04 22:40:58 | 50.82116 | 6.39155 | 90° | 46km/h | 17722m | 4.9m/s | -53.1°C | 17% | 83.9hPa | 3.8V | 00:00:00 | 01:04:21 | 00:00:00 | |
| DL1XH-west | 2026-09-04 22:40:57 | 50.82119 | 6.39218 | 0° | 0km/h | 17735m | 0m/s | -53.2°C | 16.9% | 83.7hPa | 3.9V | 00:00:00 | 00:00:00 | 00:00:00 | |
| NBG1-10 | 2026-09-04 22:40:56 | 50.82119 | 6.39218 | 5° | 62km/h | 17735m | 0.0m/s | 0°C | 16.8% | 83.6hPa | 3.9V | 00:00:00 | 01:04:24 | 00:00:00 | |
| BIOWL1-15 | 2026-09-04 22:40:50 | 50.82118 | 6.39086 | 92° | 51km/h | 17701m | 4m/s | -53°C | 17.1% | 84.1hPa | 3.9V | 00:00:00 | 00:00:00 | 00:00:00 | |
| DL1XH1-15 | 2026-09-04 22:40:49 | 50.82120 | 6.38989 | 88° | 51km/h | 17678m | 4.9m/s | -52.8°C | 17.1% | 84.4hPa | 3.9V | 00:00:00 | 01:04:12 | 00:00:00 | |
| DM0DOS-11 | 2026-09-04 22:40:48 | 50.82120 | 6.38969 | 86° | 51km/h | 17673m | 4.8m/s | -52.8°C | 17.2% | 84.5hPa | 3.9V | 00:00:00 | 01:04:11 | 00:00:00 | |
| DL1XH-west | 2026-09-04 22:40:47 | 50.82119 | 6.39025 | 0° | 0km/h | 17687m | 0m/s | -52.9°C | 17% | 84.3hPa | 3.9V | 00:00:00 | 00:00:00 | 00:00:00 | |
| BIOWL1-15 | 2026-09-04 22:40:41 | 50.82123 | 6.38869 | 96° | 51km/h | 17649m | 5m/s | -52.7°C | 17.3% | 84.8hPa | 3.9V | 00:00:00 | 00:00:00 | 00:00:00 | |
| DL1XH1-15 | 2026-09-04 22:40:39 | 50.82128 | 6.38787 | 94° | 57km/h | 17629m | 4.8m/s | -52.8°C | 17.2% | 85.1hPa | 3.9V | 00:00:00 | 01:04:02 | 00:00:00 | |
| DM0DOS-11 | 2026-09-04 22:40:38 | 50.82129 | 6.38765 | 92° | 57km/h | 17624m | 4.7m/s | -52.8°C | 17.3% | 85.1hPa | 3.9V | 00:00:00 | 01:04:01 | 00:00:00 | |
| DL1XH-west | 2026-09-04 22:40:36 | 50.82127 | 6.38807 | 0° | 0km/h | 17634m | 0m/s | -52.7°C | 17.3% | 85hPa | 3.9V | 00:00:00 | 00:00:00 | 00:00:00 | |
| DL1XH1-15 | 2026-09-04 22:40:29 | 50.82146 | 6.38571 | 101° | 57km/h | 17582m | 5m/s | -52.9°C | 17.6% | 85.7hPa | 3.9V | 00:00:00 | 01:03:52 | 00:00:00 | |
| DM0DOS-11 | 2026-09-04 22:40:28 | 50.82149 | 6.38550 | 102° | 60km/h | 17576m | 4.7m/s | -52.9°C | 17.6% | 85.7hPa | 3.9V | 00:00:00 | 01:03:51 | 00:00:00 | |
| BIOWL1-15 | 2026-09-04 22:40:26 | 50.82145 | 6.38592 | 97° | 53km/h | 17587m | 5m/s | -52.9°C | 17.7% | 85.6hPa | 3.9V | 00:00:00 | 00:00:00 | 00:00:00 | |
| DL1XH-west | 2026-09-04 22:40:25 | 50.82146 | 6.38571 | 0° | 0km/h | 17582m | 0m/s | -52.9°C | 17.7% | 85.7hPa | 3.9V | 00:00:00 | 00:00:00 | 00:00:00 | |
| DL1XH1-15 | 2026-09-04 22:40:19 | 50.82185 | 6.38343 | 108° | 64km/h | 17534m | 4.8m/s | -53.1°C | 17.8% | 86.3hPa | 3.9V | 00:00:00 | 01:03:42 | 00:00:00 | |
| DM0DOS-11 | 2026-09-04 22:40:17 | 50.82194 | 6.38298 | 105° | 69km/h | 17524m | 4.7m/s | -53.1°C | 18% | 86.4hPa | 3.9V | 00:00:00 | 01:03:40 | 00:00:00 | |
| DL1XH-west | 2026-09-04 22:40:15 | 50.82185 | 6.38343 | 0° | 0km/h | 17534m | 0m/s | -53.1°C | 17.9% | 86.3hPa | 3.9V | 00:00:00 | 00:00:00 | 00:00:00 | |
| DB0UT-7 | 2026-09-04 22:40:10 | 50.82203 | 6.38248 | 109° | 71km/h | 17515m | 4.6m/s | -53.1°C | 18.1% | 86.5hPa | 3.9V | 00:00:00 | 00:00:00 | 00:00:00 | |
| DL1XH1-15 | 2026-09-04 22:40:09 | 50.82235 | 6.38092 | 108° | 66km/h | 17487m | 4.6m/s | -53.4°C | 18% | 86.9hPa | 3.9V | 00:00:00 | 01:03:32 | 00:00:00 | |
| DL1XH-west | 2026-09-04 22:40:04 | 50.82241 | 6.38068 | 0° | 0km/h | 17483m | 0m/s | -53.5°C | 17.9% | 87hPa | 3.9V | 00:00:00 | 00:00:00 | 00:00:00 | |
| DM0DOS-11 | 2026-09-04 22:40:01 | 50.82265 | 6.37887 | 98° | 75km/h | 17449m | 4.5m/s | -53.8°C | 17.7% | 87.4hPa | 3.9V | 00:00:00 | 01:03:24 | 00:00:00 | |
| DL1XH1-15 | 2026-09-04 22:39:59 | 50.82271 | 6.37834 | 103° | 71km/h | 17440m | 4.2m/s | -53.8°C | 17.8% | 87.5hPa | 3.9V | 00:00:00 | 01:03:22 | 00:00:00 | |
| DL1XH-west | 2026-09-04 22:39:55 | 50.82275 | 6.37807 | 0° | 0km/h | 17436m | 0m/s | -53.8°C | 17.9% | 87.6hPa | 3.9V | 00:00:00 | 00:00:00 | 00:00:00 | |
| BIOWL1-15 | 2026-09-04 22:39:53 | 50.82280 | 6.37780 | 97° | 69km/h | 17433m | 5m/s | -53.8°C | 17.9% | 87.7hPa | 3.9V | 00:00:00 | 00:00:00 | 00:00:00 | |
| DL1XH1-15 | 2026-09-04 22:39:50 | 50.82299 | 6.37546 | 101° | 75km/h | 17396m | 4.5m/s | -53.7°C | 18% | 88.2hPa | 3.9V | 00:00:00 | 01:03:12 | 00:00:00 | |
| DM0DOS-11 | 2026-09-04 22:39:44 | 50.82311 | 6.37397 | 92° | 77km/h | 17374m | 4.7m/s | -54°C | 18.1% | 88.4hPa | 3.9V | 00:00:00 | 01:03:07 | 00:00:00 | |
| DL1XH-west | 2026-09-04 22:39:44 | 50.82303 | 6.37516 | 0° | 0km/h | 17391m | 0m/s | -53.8°C | 18.1% | 88.2hPa | 3.9V | 00:00:00 | 00:00:00 | 00:00:00 | |
| BIOWL1-15 | 2026-09-04 22:39:42 | 50.82309 | 6.37457 | 94° | 75km/h | 17382m | 4m/s | -53.9°C | 18.2% | 88.3hPa | 3.9V | 00:00:00 | 00:00:00 | 00:00:00 | |
| DB0UT-7 | 2026-09-04 22:39:40 | 50.82310 | 6.37427 | 93° | 80km/h | 17378m | 4.5m/s | -53.9°C | 18.1% | 88.3hPa | 3.9V | 00:00:00 | 01:03:08 | 00:00:00 | |
| DL1XH1-15 | 2026-09-04 22:39:39 | 50.82319 | 6.37248 | 92° | 80km/h | 17351m | 4.7m/s | -53.9°C | 18.2% | 88.8hPa | 3.9V | 00:00:00 | 01:03:02 | 00:00:00 | |
| DM0DOS-11 | 2026-09-04 22:39:34 | 50.82322 | 6.37087 | 86° | 78km/h | 17327m | 4.2m/s | -53.8°C | 18.3% | 89hPa | 3.9V | 00:00:00 | 01:02:57 | 00:00:00 | |
| DL1XH-west | 2026-09-04 22:39:33 | 50.82321 | 6.37182 | 0° | 0km/h | 17341m | 0m/s | -53.9°C | 18.3% | 88.9hPa | 3.9V | 00:00:00 | 00:00:00 | 00:00:00 | |
| BIOWL1-15 | 2026-09-04 22:39:31 | 50.82322 | 6.37119 | 88° | 80km/h | 17332m | 5m/s | -53.8°C | 18.4% | 89hPa | 3.9V | 00:00:00 | 00:00:00 | 00:00:00 | |
| DL1XH1-15 | 2026-09-04 22:39:29 | 50.82324 | 6.36934 | 90° | 86km/h | 17306m | 4.5m/s | -53.7°C | 18.5% | 89.3hPa | 3.9V | 00:00:00 | 01:02:52 | 00:00:00 | |
| DM0DOS-11 | 2026-09-04 22:39:24 | 50.82322 | 6.36761 | 94° | 80km/h | 17283m | 4.3m/s | -53.9°C | 18.6% | 89.7hPa | 3.9V | 00:00:00 | 01:02:47 | 00:00:00 | |
| BIOWL1-15 | 2026-09-04 22:39:20 | 50.82322 | 6.36761 | 95° | 75km/h | 17283m | 4m/s | -53.9°C | 18.6% | 89.7hPa | 3.9V | 00:00:00 | 00:00:00 | 00:00:00 | |
| DL1XH1-15 | 2026-09-04 22:39:19 | 50.82326 | 6.36596 | 86° | 84km/h | 17261m | 4.5m/s | -54.1°C | 18.6% | 89.9hPa | 3.9V | 00:00:00 | 01:02:42 | 00:00:00 | |
| DM0DOS-11 | 2026-09-04 22:39:15 | 50.82315 | 6.36424 | 88° | 75km/h | 17239m | 4.8m/s | -54.1°C | 18.6% | 90.3hPa | 3.9V | 00:00:00 | 01:02:37 | 00:00:00 | |
| DB0UT-7 | 2026-09-04 22:39:10 | 50.82317 | 6.36456 | 86° | 77km/h | 17244m | 4.8m/s | -54.1°C | 18.6% | 90.2hPa | 3.9V | 00:00:00 | 00:00:00 | 00:00:00 | |
| DL1XH1-15 | 2026-09-04 22:39:09 | 50.82309 | 6.36269 | 77° | 80km/h | 17216m | 4.8m/s | -54°C | 18.6% | 90.6hPa | 3.9V | 00:00:00 | 01:02:32 | 00:00:00 | |
| DL1XH-west | 2026-09-04 22:39:09 | 50.82315 | 6.36395 | 0° | 0km/h | 17234m | 0m/s | -54.1°C | 18.6% | 90.3hPa | 3.9V | 00:00:00 | 00:00:00 | 00:00:00 | |
| DM0DOS-11 | 2026-09-04 22:39:04 | 50.82291 | 6.36107 | 86° | 75km/h | 17192m | 4.7m/s | -53.9°C | 18.8% | 90.9hPa | 3.9V | 00:00:00 | 01:02:27 | 00:00:00 | |
| DL1XH1-15 | 2026-09-04 22:38:59 | 50.82283 | 6.35957 | 81° | 77km/h | 17168m | 4.3m/s | -53.9°C | 19% | 91.2hPa | 3.9V | 00:00:00 | 01:02:22 | 00:00:00 | |
| BIOWL1-15 | 2026-09-04 22:38:57 | 50.82288 | 6.36017 | 83° | 73km/h | 17178m | 5m/s | -53.9°C | 19% | 91.1hPa | 3.9V | 00:00:00 | 00:00:00 | 00:00:00 | |
| DM0DOS-11 | 2026-09-04 22:38:55 | 50.82269 | 6.35804 | 84° | 75km/h | 17146m | 4.7m/s | -54.2°C | 18.8% | 91.5hPa | 3.9V | 00:00:00 | 01:02:17 | 00:00:00 | |
| DL1XH1-15 | 2026-09-04 22:38:49 | 50.82262 | 6.35655 | 83° | 73km/h | 17123m | 4.7m/s | -55.2°C | 18.7% | 91.9hPa | 3.9V | 00:00:00 | 01:02:12 | 00:00:00 | |
| DL1XH-west | 2026-09-04 22:38:48 | 50.82265 | 6.35712 | 0° | 0km/h | 17131m | 0m/s | -54.8°C | 18.8% | 91.8hPa | 3.9V | 00:00:00 | 00:00:00 | 00:00:00 | |
| BIOWL1-15 | 2026-09-04 22:38:46 | 50.82264 | 6.35684 | 85° | 73km/h | 17127m | 4m/s | -55°C | 18.8% | 91.8hPa | 3.9V | 00:00:00 | 00:00:00 | 00:00:00 | |
| DM0DOS-11 | 2026-09-04 22:38:44 | 50.82245 | 6.35509 | 75° | 69km/h | 17100m | 4.7m/s | -55.1°C | 18.7% | 92.2hPa | 3.9V | 00:00:00 | 01:02:07 | 00:00:00 | |
| BIOWL1-15 | 2026-09-04 22:38:40 | 50.82230 | 6.35403 | 77° | 71km/h | 17081m | 4.7m/s | -55°C | 18.9% | 92.5hPa | 3.9V | 00:00:00 | 00:00:00 | 00:00:00 | |
| DL1XH1-15 | 2026-09-04 22:38:40 | 50.82225 | 6.35376 | 76° | 71km/h | 17076m | 4.5m/s | -55°C | 18.7% | 92.5hPa | 3.9V | 00:00:00 | 01:02:02 | 00:00:00 | |
| DL1XH-west | 2026-09-04 22:38:37 | 50.82233 | 6.35429 | 0° | 0km/h | 17086m | 0m/s | -55°C | 18.9% | 92.4hPa | 3.9V | 00:00:00 | 00:00:00 | 00:00:00 | |
| DM0DOS-11 | 2026-09-04 22:38:34 | 50.82204 | 6.35237 | 76° | 68km/h | 17054m | 4.7m/s | -54.8°C | 18.7% | 92.9hPa | 3.9V | 00:00:00 | 01:01:57 | 00:00:00 | |
| DL1XH1-15 | 2026-09-04 22:38:29 | 50.82187 | 6.35104 | 78° | 69km/h | 17030m | 4.6m/s | -54.6°C | 19% | 93.2hPa | 3.9V | 00:00:00 | 01:01:52 | 00:00:00 | |
| DL1XH-west | 2026-09-04 22:38:25 | 50.82187 | 6.35104 | 0° | 0km/h | 17030m | 0m/s | -54.6°C | 19% | 93.2hPa | 3.9V | 00:00:00 | 00:00:00 | 00:00:00 | |
| DM0DOS-11 | 2026-09-04 22:38:24 | 50.82166 | 6.34965 | 70° | 68km/h | 17006m | 4.4m/s | -54.5°C | 19.1% | 93.5hPa | 3.9V | 00:00:00 | 01:01:47 | 00:00:00 | |
| BIOWL1-15 | 2026-09-04 22:38:24 | 50.82184 | 6.35077 | 77° | 73km/h | 17026m | 4.7m/s | -54.6°C | 19% | 93.3hPa | 3.9V | 00:00:00 | 00:00:00 | 00:00:00 | |
| DL1XH1-15 | 2026-09-04 22:38:19 | 50.82147 | 6.34834 | 81° | 69km/h | 16984m | 5.1m/s | -54.4°C | 19.3% | 93.9hPa | 3.9V | 00:00:00 | 01:01:42 | 00:00:00 | |
| DM0DOS-11 | 2026-09-04 22:38:14 | 50.82129 | 6.34695 | 77° | 68km/h | 16959m | 5m/s | -54.4°C | 19.2% | 94.2hPa | 3.9V | 00:00:00 | 01:01:37 | 00:00:00 | |
| DL1XH-west | 2026-09-04 22:38:11 | 50.82133 | 6.34723 | 0° | 0km/h | 16963m | 0m/s | -54.4°C | 19.3% | 94.2hPa | 3.9V | 00:00:00 | 00:00:00 | 00:00:00 | |
| DB0UT-7 | 2026-09-04 22:38:10 | 50.82133 | 6.34723 | 80° | 73km/h | 16963m | 4.9m/s | -54.3°C | 19.2% | 94.1hPa | 3.9V | 00:00:00 | 00:00:00 | 00:00:00 | |
| DM0DOS-11 | 2026-09-04 22:38:03 | 50.82100 | 6.34395 | 79° | 73km/h | 16903m | 4.8m/s | -54.3°C | 19.5% | 95hPa | 3.9V | 00:00:00 | 01:01:26 | 00:00:00 | |
| BIOWL1-15 | 2026-09-04 22:38:00 | 50.82103 | 6.34421 | 80° | 69km/h | 16909m | 5.3m/s | -54.3°C | 19.4% | 95hPa | 3.9V | 00:00:00 | 00:00:00 | 00:00:00 | |
| DL1XH1-15 | 2026-09-04 22:37:59 | 50.82088 | 6.34279 | 84° | 77km/h | 16883m | 4.8m/s | -54.5°C | 19.3% | 95.3hPa | 3.9V | 00:00:00 | 01:01:22 | 00:00:00 | |
| DL1XH-west | 2026-09-04 22:37:56 | 50.82090 | 6.34310 | 0° | 0km/h | 16888m | 0m/s | -54.5°C | 19.5% | 95.3hPa | 3.9V | 00:00:00 | 00:00:00 | 00:00:00 | |
| DM0DOS-11 | 2026-09-04 22:37:53 | 50.82080 | 6.34103 | 81° | 73km/h | 16854m | 4.6m/s | -54.7°C | 19.6% | 95.7hPa | 3.9V | 00:00:00 | 01:01:16 | 00:00:00 | |
| DL1XH1-15 | 2026-09-04 22:37:49 | 50.82069 | 6.33990 | 87° | 77km/h | 16836m | 4.9m/s | -55.2°C | 19.6% | 96hPa | 3.9V | 00:00:00 | 01:01:12 | 00:00:00 | |
| BIOWL1-15 | 2026-09-04 22:37:48 | 50.82078 | 6.34074 | 79° | 73km/h | 16850m | 5m/s | -54.8°C | 19.6% | 95.8hPa | 3.9V | 00:00:00 | 00:00:00 | 00:00:00 | |
| DM0DOS-11 | 2026-09-04 22:37:43 | 50.82064 | 6.33801 | 86° | 77km/h | 16807m | 4.8m/s | -55.2°C | 20% | 96.4hPa | 3.9V | 00:00:00 | 01:01:06 | 00:00:00 | |
| DB0UT-7 | 2026-09-04 22:37:40 | 50.82064 | 6.33863 | 92° | 75km/h | 16816m | 4.6m/s | -55.2°C | 19.8% | 96.2hPa | 3.9V | 00:00:00 | 01:01:08 | 00:00:00 | |
| DL1XH1-15 | 2026-09-04 22:37:37 | 50.82053 | 6.33619 | 87° | 75km/h | 16777m | 4.3m/s | -55.2°C | 20% | 96.8hPa | 3.9V | 00:00:00 | 01:01:00 | 00:00:00 | |
| BIOWL1-15 | 2026-09-04 22:37:37 | 50.82061 | 6.33739 | 83° | 73km/h | 16797m | 5m/s | -55.2°C | 20.1% | 96.6hPa | 3.9V | 00:00:00 | 00:00:00 | 00:00:00 | |
| DL1XH-west | 2026-09-04 22:37:36 | 50.82059 | 6.33710 | 0° | 0km/h | 16792m | 0m/s | -55.2°C | 20.1% | 96.6hPa | 3.9V | 00:00:00 | 00:00:00 | 00:00:00 | |
| DM0DOS-11 | 2026-09-04 22:37:33 | 50.82049 | 6.33499 | 83° | 73km/h | 16762m | 4.5m/s | -55.2°C | 19.8% | 97.1hPa | 3.9V | 00:00:00 | 01:00:56 | 00:00:00 | |
| DL1XH1-15 | 2026-09-04 22:37:25 | 50.82021 | 6.33266 | 79° | 73km/h | 16724m | 4.8m/s | -55.1°C | 19.6% | 97.7hPa | 3.9V | 00:00:00 | 01:00:48 | 00:00:00 | |
| BIOWL1-15 | 2026-09-04 22:37:25 | 50.82037 | 6.33380 | 77° | 73km/h | 16745m | 6m/s | -55.2°C | 19.8% | 97.4hPa | 3.9V | 00:00:00 | 00:00:00 | 00:00:00 | |
| DL1XH-west | 2026-09-04 22:37:24 | 50.82033 | 6.33351 | 0° | 0km/h | 16739m | 0m/s | -55.2°C | 19.7% | 97.5hPa | 3.9V | 00:00:00 | 00:00:00 | 00:00:00 | |
| DM0DOS-11 | 2026-09-04 22:37:23 | 50.82014 | 6.33208 | 78° | 73km/h | 16716m | 5m/s | -55.1°C | 19.6% | 97.8hPa | 3.9V | 00:00:00 | 01:00:46 | 00:00:00 | |
| BIOWL1-15 | 2026-09-04 22:37:15 | 50.82000 | 6.33093 | 81° | 78km/h | 16696m | 5m/s | -55.3°C | 19.7% | 98.1hPa | 3.9V | 00:00:00 | 00:00:00 | 00:00:00 | |
| DM0DOS-11 | 2026-09-04 22:37:13 | 50.81987 | 6.32917 | 87° | 77km/h | 16667m | 5m/s | -55.5°C | 19.7% | 98.5hPa | 3.9V | 00:00:00 | 01:00:36 | 00:00:00 | |
| BIOWL1-15 | 2026-09-04 22:37:05 | 50.81982 | 6.32791 | 86° | 84km/h | 16647m | 4m/s | -55.5°C | 19.9% | 98.8hPa | 3.9V | 00:00:00 | 00:00:00 | 00:00:00 | |
| DM0DOS-11 | 2026-09-04 22:37:03 | 50.81969 | 6.32606 | 82° | 77km/h | 16619m | 4.5m/s | -56°C | 20% | 99.3hPa | 3.9V | 00:00:00 | 01:00:26 | 00:00:00 | |
| DM0DOS-11 | 2026-09-04 22:36:53 | 50.81953 | 6.32294 | 83° | 77km/h | 16573m | 4.6m/s | -56.2°C | 20.2% | 100hPa | 3.9V | 00:00:00 | 01:00:16 | 00:00:00 | |
| BIOWL1-15 | 2026-09-04 22:36:53 | 50.81960 | 6.32418 | 88° | 78km/h | 16592m | 5m/s | -56.2°C | 20.1% | 99.7hPa | 3.9V | 00:00:00 | 00:00:00 | 00:00:00 | |
| DM0DOS-11 | 2026-09-04 22:36:43 | 50.81925 | 6.31989 | 84° | 77km/h | 16526m | 4.6m/s | -56°C | 20.1% | 100.7hPa | 3.9V | 00:00:00 | 01:00:06 | 00:00:00 | |
| BIOWL1-15 | 2026-09-04 22:36:43 | 50.81930 | 6.32048 | 83° | 75km/h | 16536m | 5m/s | -56°C | 20.2% | 100.6hPa | 3.9V | 00:00:00 | 00:00:00 | 00:00:00 | |
| DL1XH1-15 | 2026-09-04 22:36:42 | 50.81923 | 6.31959 | 84° | 77km/h | 16521m | 4.6m/s | -55.9°C | 20.1% | 100.8hPa | 3.9V | 00:00:00 | 01:00:05 | 00:00:00 | |
| BIOWL1-15 | 2026-09-04 22:36:39 | 50.81900 | 6.31745 | 77° | 68km/h | 16490m | 4m/s | -55.8°C | 20.5% | 101.3hPa | 3.9V | 00:00:00 | 00:00:00 | 00:00:00 | |
| DM0DOS-11 | 2026-09-04 22:36:33 | 50.81892 | 6.31692 | 77° | 75km/h | 16480m | 4.6m/s | -55.8°C | 20.3% | 101.5hPa | 3.9V | 00:00:00 | 00:59:56 | 00:00:00 | |
| DL1XH1-15 | 2026-09-04 22:36:31 | 50.81885 | 6.31633 | 83° | 73km/h | 16471m | 4.7m/s | -55.8°C | 20.5% | 101.6hPa | 3.9V | 00:00:00 | 00:59:54 | 00:00:00 | |
| BIOWL1-15 | 2026-09-04 22:36:24 | 50.81864 | 6.31430 | 71° | 60km/h | 16438m | 4m/s | -55.7°C | 20.6% | 102.1hPa | 3.9V | 00:00:00 | 00:00:00 | 00:00:00 | |
| DM0DOS-11 | 2026-09-04 22:36:23 | 50.81859 | 6.31407 | 69° | 69km/h | 16434m | 4.5m/s | -55.6°C | 20.6% | 102.2hPa | 3.9V | 00:00:00 | 00:59:46 | 00:00:00 | |
| DL1XH1-15 | 2026-09-04 22:36:10 | 50.81816 | 6.31054 | 85° | 71km/h | 16375m | 4.6m/s | -55.6°C | 21% | 103.1hPa | 3.9V | 00:00:00 | 00:59:33 | 00:00:00 | |
| DB0UT-7 | 2026-09-04 22:36:10 | 50.81833 | 6.31188 | 73° | 75km/h | 16398m | 4.5m/s | -55.5°C | 20.6% | 102.7hPa | 3.9V | 00:00:00 | 00:00:00 | 00:00:00 | |
| DM0DOS-11 | 2026-09-04 22:36:05 | 50.81804 | 6.30851 | 81° | 71km/h | 16343m | 4.9m/s | -56.1°C | 21.1% | 103.7hPa | 3.9V | 00:00:00 | 00:59:26 | 00:00:00 | |
| BIOWL1-15 | 2026-09-04 22:36:04 | 50.81813 | 6.30968 | 85° | 69km/h | 16361m | 4m/s | -55.9°C | 21.1% | 103.4hPa | 3.9V | 00:00:00 | 00:00:00 | 00:00:00 | |
| DL1XH1-15 | 2026-09-04 22:36:00 | 50.81799 | 6.30769 | 90° | 77km/h | 16329m | 4.9m/s | -56.3°C | 21.1% | 103.9hPa | 3.9V | 00:00:00 | 00:59:23 | 00:00:00 | |
| DL1XH-west | 2026-09-04 22:36:00 | 50.81807 | 6.30882 | 0° | 0km/h | 16347m | 0m/s | -56.1°C | 21.2% | 103.6hPa | 3.9V | 00:00:00 | 00:00:00 | 00:00:00 | |
| BIOWL1-15 | 2026-09-04 22:35:54 | 50.81797 | 6.30647 | 89° | 77km/h | 16309m | 4m/s | -56.4°C | 21.2% | 104.2hPa | 4V | 00:00:00 | 00:00:00 | 00:00:00 | |
| DM0DOS-11 | 2026-09-04 22:35:53 | 50.81796 | 6.30552 | 88° | 78km/h | 16294m | 4.7m/s | -56.3°C | 21.1% | 104.5hPa | 4V | 00:00:00 | 00:59:16 | 00:00:00 | |
| DL1XH1-15 | 2026-09-04 22:35:50 | 50.81796 | 6.30458 | 90° | 78km/h | 16280m | 4.8m/s | -56.2°C | 21.1% | 104.7hPa | 4V | 00:00:00 | 00:59:13 | 00:00:00 | |
| DM0DOS-11 | 2026-09-04 22:35:43 | 50.81796 | 6.30234 | 90° | 80km/h | 16246m | 4.7m/s | -56.1°C | 21.1% | 105.2hPa | 4V | 00:00:00 | 00:59:06 | 00:00:00 | |
| BIOWL1-15 | 2026-09-04 22:35:41 | 50.81797 | 6.30300 | 90° | 78km/h | 16256m | 4m/s | -56.1°C | 21.3% | 105.1hPa | 4V | 00:00:00 | 00:00:00 | 00:00:00 | |
| DL1XH-west | 2026-09-04 22:35:40 | 50.81797 | 6.30269 | 0° | 0km/h | 16252m | 0m/s | -56.1°C | 21.2% | 105.2hPa | 4V | 00:00:00 | 00:00:00 | 00:00:00 | |
| DM0DOS-11 | 2026-09-04 22:35:33 | 50.81805 | 6.29920 | 90° | 82km/h | 16198m | 4.8m/s | -56.3°C | 21.2% | 106hPa | 4V | 00:00:00 | 00:58:56 | 00:00:00 | |
| DL1XH1-15 | 2026-09-04 22:35:28 | 50.81814 | 6.29759 | 96° | 80km/h | 16174m | 4.6m/s | -56.3°C | 21.3% | 106.4hPa | 4V | 00:00:00 | 00:58:51 | 00:00:00 | |
| DM0DOS-11 | 2026-09-04 22:35:23 | 50.81818 | 6.29592 | 91° | 80km/h | 16151m | 4.4m/s | -56.3°C | 21.3% | 106.8hPa | 4V | 00:00:00 | 00:58:46 | 00:00:00 | |
| DL1XH-west | 2026-09-04 22:35:20 | 50.81818 | 6.29625 | 0° | 0km/h | 16156m | 0m/s | -56.3°C | 21.5% | 106.7hPa | 4V | 00:00:00 | 00:00:00 | 00:00:00 | |
| DL1XH1-15 | 2026-09-04 22:35:18 | 50.81822 | 6.29429 | 92° | 86km/h | 16129m | 4.8m/s | -56.6°C | 21.6% | 107.2hPa | 4V | 00:00:00 | 00:58:41 | 00:00:00 | |
| BIOWL1-15 | 2026-09-04 22:35:17 | 50.81819 | 6.29530 | 92° | 82km/h | 16143m | 4.7m/s | -56.4°C | 21.5% | 107hPa | 4V | 00:00:00 | 00:00:00 | 00:00:00 | |
| DM0DOS-11 | 2026-09-04 22:35:13 | 50.81825 | 6.29262 | 92° | 89km/h | 16105m | 4.6m/s | -57.3°C | 21.5% | 107.6hPa | 4V | 00:00:00 | 00:58:36 | 00:00:00 | |
| DL1XH-west | 2026-09-04 22:35:09 | 50.81825 | 6.29262 | 0° | 0km/h | 16105m | 0m/s | -57.3°C | 21.5% | 107.6hPa | 4V | 00:00:00 | 00:00:00 | 00:00:00 | |
| DL1XH1-15 | 2026-09-04 22:35:07 | 50.81831 | 6.29047 | 95° | 93km/h | 16076m | 4.5m/s | -57.4°C | 21.3% | 108.1hPa | 4V | 00:00:00 | 00:58:30 | 00:00:00 | |
| BIOWL1-15 | 2026-09-04 22:35:07 | 50.81829 | 6.29121 | 93° | 93km/h | 16086m | 5m/s | -57.4°C | 21.4% | 107.9hPa | 4V | 00:00:00 | 00:00:00 | 00:00:00 | |
| DM0DOS-11 | 2026-09-04 22:35:03 | 50.81844 | 6.28901 | 97° | 93km/h | 16058m | 4.4m/s | -57.3°C | 21.3% | 108.4hPa | 4V | 00:00:00 | 00:58:26 | 00:00:00 | |
| DL1XH1-15 | 2026-09-04 22:34:58 | 50.81859 | 6.28682 | 100° | 95km/h | 16031m | 4.3m/s | -57.4°C | 21.5% | 108.8hPa | 4V | 00:00:00 | 00:58:20 | 00:00:00 | |
| DL1XH-west | 2026-09-04 22:34:55 | 50.81854 | 6.28752 | 0° | 0km/h | 16040m | 0m/s | -57.4°C | 21.5% | 108.7hPa | 4V | 00:00:00 | 00:00:00 | 00:00:00 | |
| DM0DOS-11 | 2026-09-04 22:34:53 | 50.81876 | 6.28535 | 99° | 95km/h | 16014m | 4.5m/s | -57.5°C | 21.5% | 109.1hPa | 4V | 00:00:00 | 00:58:16 | 00:00:00 | |
| BIOWL1-15 | 2026-09-04 22:34:53 | 50.81859 | 6.28682 | 100° | 93km/h | 16031m | 4.2m/s | -57.4°C | 21.5% | 108.8hPa | 4V | 00:00:00 | 00:00:00 | 00:00:00 | |
| DL1XH1-15 | 2026-09-04 22:34:47 | 50.81898 | 6.28309 | 99° | 100km/h | 15987m | 4.8m/s | -57.5°C | 21.3% | 109.6hPa | 4V | 00:00:00 | 00:58:10 | 00:00:00 | |
| DL1XH-west | 2026-09-04 22:34:44 | 50.81894 | 6.28346 | 0° | 0km/h | 15992m | 0m/s | -57.5°C | 21.5% | 109.5hPa | 4V | 00:00:00 | 00:00:00 | 00:00:00 | |
| DM0DOS-11 | 2026-09-04 22:34:43 | 50.81913 | 6.28154 | 98° | 102km/h | 15968m | 4.8m/s | -57.6°C | 21.6% | 109.9hPa | 4V | 00:00:00 | 00:58:06 | 00:00:00 | |
| BIOWL1-15 | 2026-09-04 22:34:39 | 50.81913 | 6.28154 | 98° | 104km/h | 15968m | 5m/s | -57.6°C | 21.7% | 110hPa | 4V | 00:00:00 | 00:00:00 | 00:00:00 | |
| DL1XH1-15 | 2026-09-04 22:34:37 | 50.81931 | 6.27910 | 96° | 104km/h | 15940m | 4.7m/s | -57.8°C | 21.6% | 110.4hPa | 4V | 00:00:00 | 00:58:00 | 00:00:00 | |
| DM0DOS-11 | 2026-09-04 22:34:33 | 50.81943 | 6.27742 | 95° | 104km/h | 15921m | 4.5m/s | -57.8°C | 21.6% | 110.7hPa | 4V | 00:00:00 | 00:57:56 | 00:00:00 | |
| DL1XH-west | 2026-09-04 22:34:33 | 50.81931 | 6.27910 | 0° | 0km/h | 15940m | 0m/s | -57.8°C | 21.6% | 110.4hPa | 4V | 00:00:00 | 00:00:00 | 00:00:00 | |
| DL1XH1-15 | 2026-09-04 22:34:27 | 50.81953 | 6.27495 | 93° | 104km/h | 15893m | 4.6m/s | -57.8°C | 21.6% | 111.1hPa | 4V | 00:00:00 | 00:57:50 | 00:00:00 | |
| BIOWL1-15 | 2026-09-04 22:34:27 | 50.81948 | 6.27660 | 94° | 106km/h | 15912m | 4m/s | -57.8°C | 21.7% | 110.9hPa | 4V | 00:00:00 | 00:00:00 | 00:00:00 | |
| DM0DOS-11 | 2026-09-04 22:34:25 | 50.81961 | 6.27328 | 94° | 102km/h | 15875m | 4.6m/s | -57.7°C | 22% | 111.7hPa | 4V | 00:00:00 | 00:57:46 | 00:00:00 | |
| BIOWL1-15 | 2026-09-04 22:34:21 | 50.81965 | 6.27245 | 91° | 102km/h | 15866m | 4m/s | -57.6°C | 22% | 111.7hPa | 4V | 00:00:00 | 00:00:00 | 00:00:00 | |
| DL1XH-west | 2026-09-04 22:34:20 | 50.81959 | 6.27368 | 0° | 0km/h | 15879m | 0m/s | -57.7°C | 21.9% | 111.5hPa | 4V | 00:00:00 | 00:00:00 | 00:00:00 | |
| DM0DOS-11 | 2026-09-04 22:34:13 | 50.81963 | 6.26915 | 89° | 99km/h | 15828m | 4.5m/s | -57.4°C | 22.1% | 112.4hPa | 4V | 00:00:00 | 00:57:36 | 00:00:00 | |
| DL1XH-west | 2026-09-04 22:34:09 | 50.81963 | 6.26915 | 0° | 0km/h | 15828m | 0m/s | -57.4°C | 22.1% | 112.4hPa | 4V | 00:00:00 | 00:00:00 | 00:00:00 | |
| BIOWL1-15 | 2026-09-04 22:34:07 | 50.81962 | 6.26835 | 89° | 100km/h | 15819m | 4m/s | -57.4°C | 22.1% | 112.5hPa | 4V | 00:00:00 | 00:00:00 | 00:00:00 | |
| BIOWL1-15 | 2026-09-04 22:33:58 | 50.81947 | 6.26394 | 87° | 99km/h | 15768m | 5m/s | -57.5°C | 22.3% | 113.4hPa | 4V | 00:00:00 | 00:00:00 | 00:00:00 | |
| DL1XH-west | 2026-09-04 22:33:58 | 50.81950 | 6.26470 | 0° | 0km/h | 15777m | 0m/s | -57.5°C | 22.2% | 113.3hPa | 4V | 00:00:00 | 00:00:00 | 00:00:00 | |
| DL1XH1-15 | 2026-09-04 22:33:57 | 50.81940 | 6.26275 | 80° | 99km/h | 15753m | 4.3m/s | -57.8°C | 22.3% | 113.6hPa | 4V | 00:00:00 | 00:57:20 | 00:00:00 | |
| BIOWL1-15 | 2026-09-04 22:33:49 | 50.81910 | 6.26002 | 83° | 97km/h | 15723m | 6m/s | -57.7°C | 22.4% | 114.2hPa | 4V | 00:00:00 | 00:00:00 | 00:00:00 | |
| DL1XH1-15 | 2026-09-04 22:33:48 | 50.81902 | 6.25888 | 83° | 97km/h | 15709m | 4.4m/s | -57.7°C | 22.3% | 114.5hPa | 4V | 00:00:00 | 00:57:10 | 00:00:00 | |
| DL1XH-west | 2026-09-04 22:33:42 | 50.81900 | 6.25851 | 0° | 0km/h | 15704m | 0m/s | -57.7°C | 22.5% | 114.6hPa | 4V | 00:00:00 | 00:00:00 | 00:00:00 | |
| DB0UT-7 | 2026-09-04 22:33:40 | 50.81897 | 6.25813 | 85° | 95km/h | 15701m | 4.6m/s | -57.6°C | 22.5% | 114.6hPa | 4V | 00:00:00 | 00:57:08 | 00:00:00 | |
| DL1XH1-15 | 2026-09-04 22:33:37 | 50.81879 | 6.25494 | 87° | 95km/h | 15665m | 4.5m/s | -57.6°C | 22.6% | 115.2hPa | 4V | 00:00:00 | 00:57:00 | 00:00:00 | |
| BIOWL1-15 | 2026-09-04 22:33:35 | 50.81882 | 6.25569 | 86° | 97km/h | 15674m | 4m/s | -57.6°C | 22.6% | 115.3hPa | 4V | 00:00:00 | 00:00:00 | 00:00:00 | |
| DM0DOS-11 | 2026-09-04 22:33:33 | 50.81877 | 6.25342 | 88° | 97km/h | 15647m | 4.4m/s | -57.5°C | 22.6% | 115.5hPa | 4V | 00:00:00 | 00:56:56 | 00:00:00 | |
| DL1XH-west | 2026-09-04 22:33:32 | 50.81878 | 6.25458 | 0° | 0km/h | 15660m | 0m/s | -57.6°C | 22.5% | 115.4hPa | 4V | 00:00:00 | 00:00:00 | 00:00:00 | |
| BIOWL1-15 | 2026-09-04 22:33:27 | 50.81870 | 6.25184 | 87° | 91km/h | 15629m | 4m/s | -57.4°C | 22.7% | 115.8hPa | 4V | 00:00:00 | 00:00:00 | 00:00:00 | |
| DM0DOS-11 | 2026-09-04 22:33:23 | 50.81866 | 6.24966 | 90° | 95km/h | 15604m | 4.1m/s | -57.3°C | 22.6% | 116.5hPa | 4V | 00:00:00 | 00:56:46 | 00:00:00 | |
| DL1XH-west | 2026-09-04 22:33:22 | 50.81866 | 6.25072 | 0° | 0km/h | 15617m | 0m/s | -57.4°C | 22.7% | 116hPa | 4V | 00:00:00 | 00:00:00 | 00:00:00 | |
| DL1XH1-15 | 2026-09-04 22:33:18 | 50.81861 | 6.24736 | 86° | 89km/h | 15580m | 4.5m/s | -57.4°C | 22.8% | 116.8hPa | 4V | 00:00:00 | 00:56:40 | 00:00:00 | |
| DM0DOS-11 | 2026-09-04 22:33:14 | 50.81858 | 6.24593 | 90° | 91km/h | 15562m | 4.5m/s | -57.5°C | 22.7% | 117.1hPa | 4V | 00:00:00 | 00:56:36 | 00:00:00 | |
| DB0UT-7 | 2026-09-04 22:33:10 | 50.81858 | 6.24665 | 91° | 93km/h | 15571m | 4.5m/s | -57.4°C | 22.7% | 116.9hPa | 4.0V | 00:00:00 | 00:00:00 | 00:00:00 | |
| DL1XH1-15 | 2026-09-04 22:33:07 | 50.81858 | 6.24375 | 89° | 89km/h | 15535m | 4.3m/s | -57.5°C | 22.7% | 117.6hPa | 4V | 00:00:00 | 00:56:30 | 00:00:00 | |
| DL1XH-west | 2026-09-04 22:33:06 | 50.81858 | 6.24485 | 0° | 0km/h | 15549m | 0m/s | -57.5°C | 22.8% | 117.4hPa | 4V | 00:00:00 | 00:00:00 | 00:00:00 | |
| DM0DOS-11 | 2026-09-04 22:33:04 | 50.81857 | 6.24231 | 90° | 93km/h | 15518m | 4.4m/s | -57.5°C | 22.8% | 117.9hPa | 4V | 00:00:00 | 00:56:26 | 00:00:00 | |
| DL1XH1-15 | 2026-09-04 22:32:57 | 50.81852 | 6.24008 | 85° | 97km/h | 15491m | 4.4m/s | -57.3°C | 22.8% | 118.5hPa | 4V | 00:00:00 | 00:56:20 | 00:00:00 | |
| DL1XH-west | 2026-09-04 22:32:55 | 50.81854 | 6.24083 | 0° | 0km/h | 15500m | 0m/s | -57.4°C | 22.9% | 118.3hPa | 4V | 00:00:00 | 00:00:00 | 00:00:00 | |
| DM0DOS-11 | 2026-09-04 22:32:53 | 50.81847 | 6.23854 | 86° | 97km/h | 15474m | 4.4m/s | -57.2°C | 22.8% | 118.8hPa | 4V | 00:00:00 | 00:56:16 | 00:00:00 | |
| BIOWL1-15 | 2026-09-04 22:32:51 | 50.81848 | 6.23932 | 90° | 97km/h | 15483m | 5m/s | -57.3°C | 22.9% | 118.6hPa | 4V | 00:00:00 | 00:00:00 | 00:00:00 | |
| DL1XH1-15 | 2026-09-04 22:32:48 | 50.81834 | 6.23621 | 85° | 95km/h | 15448m | 4.3m/s | -57.1°C | 22.8% | 119.2hPa | 4V | 00:00:00 | 00:56:10 | 00:00:00 | |
| DM0DOS-11 | 2026-09-04 22:32:43 | 50.81826 | 6.23472 | 87° | 97km/h | 15431m | 4.4m/s | -57.1°C | 22.8% | 119.6hPa | 4V | 00:00:00 | 00:56:06 | 00:00:00 | |
| BIOWL1-15 | 2026-09-04 22:32:39 | 50.81826 | 6.23472 | 86° | 99km/h | 15431m | 4.4m/s | -57.1°C | 22.9% | 119.6hPa | 4V | 00:00:00 | 00:00:00 | 00:00:00 | |
| DL1XH-west | 2026-09-04 22:32:38 | 50.81824 | 6.23433 | 0° | 0km/h | 15427m | 0m/s | -57.1°C | 22.9% | 119.6hPa | 4V | 00:00:00 | 00:00:00 | 00:00:00 | |
| DL1XH1-15 | 2026-09-04 22:32:37 | 50.81816 | 6.23237 | 84° | 100km/h | 15404m | 4.3m/s | -57.2°C | 23% | 120.1hPa | 4V | 00:00:00 | 00:56:00 | 00:00:00 | |
| DM0DOS-11 | 2026-09-04 22:32:33 | 50.81805 | 6.23081 | 84° | 100km/h | 15387m | 4.4m/s | -57.4°C | 23% | 120.4hPa | 4V | 00:00:00 | 00:55:56 | 00:00:00 | |
| BIOWL1-15 | 2026-09-04 22:32:32 | 50.81802 | 6.23041 | 82° | 104km/h | 15382m | 4.2m/s | -57.5°C | 23% | 120.5hPa | 4V | 00:00:00 | 00:00:00 | 00:00:00 | |
| DL1XH-west | 2026-09-04 22:32:27 | 50.81800 | 6.23001 | 0° | 0km/h | 15378m | 0m/s | -57.6°C | 23% | 120.6hPa | 4V | 00:00:00 | 00:00:00 | 00:00:00 | |
| DL1XH1-15 | 2026-09-04 22:32:26 | 50.81782 | 6.22797 | 79° | 106km/h | 15357m | 4.4m/s | -57.6°C | 23.2% | 121hPa | 4V | 00:00:00 | 00:55:49 | 00:00:00 | |
| DM0DOS-11 | 2026-09-04 22:32:23 | 50.81767 | 6.22670 | 81° | 104km/h | 15343m | 4.2m/s | -57.5°C | 23.1% | 121.2hPa | 4V | 00:00:00 | 00:55:46 | 00:00:00 | |
| BIOWL1-15 | 2026-09-04 22:32:17 | 50.81759 | 6.22586 | 81° | 102km/h | 15335m | 4m/s | -57.5°C | 23.2% | 121.4hPa | 4V | 00:00:00 | 00:00:00 | 00:00:00 | |
| DM0DOS-11 | 2026-09-04 22:32:14 | 50.81717 | 6.22263 | 80° | 99km/h | 15300m | 4.3m/s | -57.5°C | 23.1% | 122.1hPa | 4V | 00:00:00 | 00:55:36 | 00:00:00 | |
| BIOWL1-15 | 2026-09-04 22:32:07 | 50.81710 | 6.22183 | 84° | 102km/h | 15291m | 4m/s | -57.5°C | 23.2% | 122.2hPa | 4V | 00:00:00 | 00:00:00 | 00:00:00 | |
| DM0DOS-11 | 2026-09-04 22:32:03 | 50.81673 | 6.21874 | 81° | 97km/h | 15256m | 4.3m/s | -57.7°C | 23.2% | 122.9hPa | 4.1V | 00:00:00 | 00:55:26 | 00:00:00 | |
| BIOWL1-15 | 2026-09-04 22:32:00 | 50.81663 | 6.21757 | 83° | 99km/h | 15243m | 4m/s | -57.6°C | 23.2% | 123.2hPa | 4.1V | 00:00:00 | 00:00:00 | 00:00:00 | |
| DL1XH1-15 | 2026-09-04 22:31:56 | 50.81646 | 6.21606 | 79° | 99km/h | 15227m | 4.8m/s | -57.5°C | 23.2% | 123.5hPa | 4.1V | 00:00:00 | 00:55:19 | 00:00:00 | |
| DL1XH-west | 2026-09-04 22:31:55 | 50.81660 | 6.21717 | 0° | 0km/h | 15239m | 0m/s | -57.6°C | 23.1% | 123.2hPa | 4.1V | 00:00:00 | 00:00:00 | 00:00:00 | |
| DM0DOS-11 | 2026-09-04 22:31:53 | 50.81633 | 6.21486 | 79° | 97km/h | 15213m | 4.9m/s | -57.3°C | 23.1% | 123.7hPa | 4.1V | 00:00:00 | 00:55:16 | 00:00:00 | |
| BIOWL1-15 | 2026-09-04 22:31:51 | 50.81621 | 6.21331 | 86° | 88km/h | 15193m | 5m/s | -57.2°C | 23.3% | 124.1hPa | 4.1V | 00:00:00 | 00:00:00 | 00:00:00 | |
| DM0DOS-11 | 2026-09-04 22:31:43 | 50.81604 | 6.21111 | 81° | 97km/h | 15167m | 4.6m/s | -56.9°C | 23.6% | 124.6hPa | 4.1V | 00:00:00 | 00:55:06 | 00:00:00 | |
| DB0UT-7 | 2026-09-04 22:31:40 | 50.81611 | 6.21191 | 84° | 95km/h | 15175m | 4.3m/s | -57.0°C | 23.6% | 124.4hPa | 4.0V | 00:00:00 | 00:55:08 | 00:00:00 | |
| DL1XH1-15 | 2026-09-04 22:31:36 | 50.81583 | 6.20845 | 77° | 97km/h | 15134m | 4.5m/s | -56.6°C | 23.5% | 125.2hPa | 4.1V | 00:00:00 | 00:54:59 | 00:00:00 | |
| BIOWL1-15 | 2026-09-04 22:31:34 | 50.81590 | 6.20918 | 82° | 91km/h | 15145m | 5.5m/s | -56.7°C | 23.5% | 125.1hPa | 4.1V | 00:00:00 | 00:00:00 | 00:00:00 | |
| DM0DOS-11 | 2026-09-04 22:31:33 | 50.81568 | 6.20729 | 80° | 97km/h | 15120m | 4.4m/s | -56.5°C | 23.3% | 125.5hPa | 4.1V | 00:00:00 | 00:54:56 | 00:00:00 | |
| DL1XH1-15 | 2026-09-04 22:31:26 | 50.81547 | 6.20467 | 86° | 93km/h | 15088m | 4.7m/s | -56.1°C | 23.5% | 126.1hPa | 4.1V | 00:00:00 | 00:54:49 | 00:00:00 | |
| DL1XH-west | 2026-09-04 22:31:25 | 50.81553 | 6.20574 | 0° | 0km/h | 15102m | 0m/s | -56.3°C | 23.4% | 125.9hPa | 4.1V | 00:00:00 | 00:00:00 | 00:00:00 | |
| BIOWL1-15 | 2026-09-04 22:31:23 | 50.81548 | 6.20502 | 87° | 86km/h | 15093m | 5m/s | -56.2°C | 23.5% | 126.1hPa | 4.1V | 00:00:00 | 00:00:00 | 00:00:00 | |
| DL1XH1-15 | 2026-09-04 22:31:16 | 50.81509 | 6.20084 | 83° | 93km/h | 15041m | 5.5m/s | -55.8°C | 23.6% | 127.1hPa | 4.1V | 00:00:00 | 00:54:39 | 00:00:00 | |
| DM0DOS-11 | 2026-09-04 22:31:13 | 50.81500 | 6.19974 | 84° | 93km/h | 15023m | 4.9m/s | -55.6°C | 23.6% | 127.4hPa | 4.1V | 00:00:00 | 00:54:36 | 00:00:00 | |
| BIOWL1-15 | 2026-09-04 22:31:13 | 50.81512 | 6.20122 | 83° | 93km/h | 15045m | 5.3m/s | -55.8°C | 23.7% | 127hPa | 4.1V | 00:00:00 | 00:00:00 | 00:00:00 | |
| DB0UT-7 | 2026-09-04 22:31:10 | 50.81507 | 6.20047 | 80° | 91km/h | 15035m | 5.4m/s | -55.7°C | 23.6% | 127.1hPa | 4.1V | 00:00:00 | 00:00:00 | 00:00:00 | |
| DL1XH1-15 | 2026-09-04 22:31:06 | 50.81480 | 6.19720 | 84° | 93km/h | 14988m | 5.2m/s | -55.4°C | 23.6% | 128.1hPa | 4.1V | 00:00:00 | 00:54:29 | 00:00:00 | |
| DM0DOS-11 | 2026-09-04 22:31:03 | 50.81473 | 6.19610 | 86° | 93km/h | 14973m | 5.3m/s | -55.3°C | 23.6% | 128.4hPa | 4.1V | 00:00:00 | 00:54:26 | 00:00:00 | |
| DL1XH-west | 2026-09-04 22:31:02 | 50.81480 | 6.19720 | 0° | 0km/h | 14988m | 0m/s | -55.4°C | 23.7% | 128.1hPa | 4.1V | 00:00:00 | 00:00:00 | 00:00:00 | |
| BIOWL1-15 | 2026-09-04 22:31:00 | 50.81475 | 6.19648 | 85° | 97km/h | 14978m | 5m/s | -55.4°C | 23.8% | 128.3hPa | 4.1V | 00:00:00 | 00:00:00 | 00:00:00 | |
| DL1XH1-15 | 2026-09-04 22:30:56 | 50.81456 | 6.19355 | 87° | 95km/h | 14937m | 5.5m/s | -55.3°C | 24.1% | 129.1hPa | 4.1V | 00:00:00 | 00:54:19 | 00:00:00 | |
| DM0DOS-11 | 2026-09-04 22:30:53 | 50.81453 | 6.19242 | 90° | 93km/h | 14919m | 5.7m/s | -55.1°C | 24.3% | 129.5hPa | 4.1V | 00:00:00 | 00:54:16 | 00:00:00 | |
| BIOWL1-15 | 2026-09-04 22:30:50 | 50.81454 | 6.19280 | 90° | 95km/h | 14924m | 5.5m/s | -55.2°C | 24.3% | 129.4hPa | 4.1V | 00:00:00 | 00:00:00 | 00:00:00 | |
| DL1XH1-15 | 2026-09-04 22:30:45 | 50.81462 | 6.18947 | 93° | 99km/h | 14873m | 5.2m/s | -54.9°C | 24.6% | 130.4hPa | 4.1V | 00:00:00 | 00:54:08 | 00:00:00 | |
| DM0DOS-11 | 2026-09-04 22:30:43 | 50.81465 | 6.18871 | 93° | 97km/h | 14861m | 5m/s | -54.9°C | 24.6% | 130.7hPa | 4.1V | 00:00:00 | 00:54:06 | 00:00:00 | |
| BIOWL1-15 | 2026-09-04 22:30:39 | 50.81465 | 6.18871 | 93° | 108km/h | 14861m | 4m/s | -54.9°C | 24.6% | 130.7hPa | 4.1V | 00:00:00 | 00:00:00 | 00:00:00 | |
| DM0DOS-11 | 2026-09-04 22:30:34 | 50.81475 | 6.18502 | 95° | 104km/h | 14802m | 5.6m/s | -55.8°C | 25.1% | 131.9hPa | 4.1V | 00:00:00 | 00:53:56 | 00:00:00 | |
| BIOWL1-15 | 2026-09-04 22:30:28 | 50.81478 | 6.18459 | 97° | 108km/h | 14795m | 5m/s | -55.8°C | 25% | 132hPa | 4.1V | 00:00:00 | 00:00:00 | 00:00:00 | |
| DL1XH1-15 | 2026-09-04 22:30:25 | 50.81495 | 6.18176 | 94° | 99km/h | 14759m | 5.1m/s | -55.5°C | 25.1% | 132.8hPa | 4.1V | 00:00:00 | 00:53:48 | 00:00:00 | |
| DM0DOS-11 | 2026-09-04 22:30:23 | 50.81499 | 6.18095 | 96° | 100km/h | 14749m | 5.1m/s | -55.5°C | 25.1% | 133hPa | 4.1V | 00:00:00 | 00:53:46 | 00:00:00 | |
| BIOWL1-15 | 2026-09-04 22:30:19 | 50.81505 | 6.18013 | 94° | 99km/h | 14739m | 5m/s | -55.5°C | 25.2% | 133.2hPa | 4.1V | 00:00:00 | 00:00:00 | 00:00:00 | |
| DM0DOS-11 | 2026-09-04 22:30:13 | 50.81523 | 6.17698 | 95° | 99km/h | 14697m | 5m/s | -55.4°C | 25.2% | 134.1hPa | 4.1V | 00:00:00 | 00:53:36 | 00:00:00 | |
| DB0UT-7 | 2026-09-04 22:30:10 | 50.81519 | 6.17780 | 95° | 102km/h | 14707m | 4.9m/s | -55.4°C | 25.1% | 133.8hPa | 4.0V | 00:00:00 | 00:00:00 | 00:00:00 | |
| DL1XH1-15 | 2026-09-04 22:30:09 | 50.81533 | 6.17540 | 99° | 100km/h | 14678m | 5.4m/s | -55.4°C | 25.2% | 134.5hPa | 4.1V | 00:00:00 | 00:53:32 | 00:00:00 | |
| BIOWL1-15 | 2026-09-04 22:30:07 | 50.81533 | 6.17540 | 96° | 100km/h | 14678m | 5.3m/s | -55.4°C | 25.3% | 134.5hPa | 4.1V | 00:00:00 | 00:00:00 | 00:00:00 | |
| DM0DOS-11 | 2026-09-04 22:30:03 | 50.81553 | 6.17307 | 96° | 102km/h | 14646m | 5.2m/s | -55.3°C | 25.2% | 135.2hPa | 4.1V | 00:00:00 | 00:53:26 | 00:00:00 | |
| DL1XH1-15 | 2026-09-04 22:29:58 | 50.81563 | 6.17102 | 96° | 104km/h | 14620m | 5.3m/s | -55.2°C | 25.3% | 135.7hPa | 4.1V | 00:00:00 | 00:53:21 | 00:00:00 | |
| BIOWL1-15 | 2026-09-04 22:29:54 | 50.81563 | 6.17102 | 97° | 99km/h | 14620m | 5m/s | -55.2°C | 25.4% | 135.7hPa | 4.1V | 00:00:00 | 00:00:00 | 00:00:00 | |
| DM0DOS-11 | 2026-09-04 22:29:53 | 50.81578 | 6.16903 | 100° | 104km/h | 14594m | 5m/s | -55.1°C | 25.3% | 136.3hPa | 4.1V | 00:00:00 | 00:53:16 | 00:00:00 | |
| DL1XH1-15 | 2026-09-04 22:29:48 | 50.81592 | 6.16695 | 96° | 108km/h | 14568m | 5.1m/s | -55.1°C | 25.5% | 136.8hPa | 4.1V | 00:00:00 | 00:53:11 | 00:00:00 | |
| BIOWL1-15 | 2026-09-04 22:29:46 | 50.81592 | 6.16695 | 96° | 104km/h | 14568m | 4m/s | -55.1°C | 25.5% | 136.8hPa | 4.1V | 00:00:00 | 00:00:00 | 00:00:00 | |
| DM0DOS-11 | 2026-09-04 22:29:43 | 50.81608 | 6.16484 | 99° | 108km/h | 14543m | 5.1m/s | -55.1°C | 25.5% | 137.3hPa | 4.1V | 00:00:00 | 00:53:06 | 00:00:00 | |
| DB0UT-7 | 2026-09-04 22:29:40 | 50.81601 | 6.16569 | 97° | 113km/h | 14554m | 5.2m/s | -55.0°C | 25.5% | 137.0hPa | 4.1V | 00:00:00 | 00:53:08 | 00:00:00 | |
| DL1XH1-15 | 2026-09-04 22:29:38 | 50.81628 | 6.16268 | 99° | 115km/h | 14517m | 5m/s | -55.1°C | 25.5% | 137.9hPa | 4.1V | 00:00:00 | 00:53:01 | 00:00:00 | |
| DM0DOS-11 | 2026-09-04 22:29:33 | 50.81650 | 6.16050 | 98° | 113km/h | 14491m | 4.8m/s | -55.2°C | 25.6% | 138.4hPa | 4.1V | 00:00:00 | 00:52:56 | 00:00:00 | |
| BIOWL1-15 | 2026-09-04 22:29:33 | 50.81641 | 6.16136 | 98° | 111km/h | 14502m | 5m/s | -55.2°C | 25.6% | 138.2hPa | 4.1V | 00:00:00 | 00:00:00 | 00:00:00 | |
| DM0DOS-11 | 2026-09-04 22:29:23 | 50.81701 | 6.15593 | 96° | 115km/h | 14441m | 4.8m/s | -55.3°C | 25.7% | 139.4hPa | 4.1V | 00:00:00 | 00:52:46 | 00:00:00 | |
| BIOWL1-15 | 2026-09-04 22:29:21 | 50.81692 | 6.15685 | 98° | 113km/h | 14451m | 5m/s | -55.3°C | 25.8% | 139.2hPa | 4.1V | 00:00:00 | 00:00:00 | 00:00:00 | |
| DM0DOS-11 | 2026-09-04 22:29:13 | 50.81740 | 6.15130 | 96° | 117km/h | 14392m | 4.7m/s | -55.2°C | 26% | 140.5hPa | 4.1V | 00:00:00 | 00:52:36 | 00:00:00 | |
| BIOWL1-15 | 2026-09-04 22:29:11 | 50.81731 | 6.15224 | 97° | 119km/h | 14402m | 4.8m/s | -55.2°C | 26% | 140.3hPa | 4.1V | 00:00:00 | 00:00:00 | 00:00:00 | |
| DB0UT-7 | 2026-09-04 22:29:10 | 50.81731 | 6.15224 | 99° | 120km/h | 14402m | 4.7m/s | -55.2°C | 26.0% | 140.3hPa | 4.1V | 00:00:00 | 00:00:00 | 00:00:00 | |
| DM0DOS-11 | 2026-09-04 22:29:03 | 50.81773 | 6.14655 | 96° | 119km/h | 14343m | 4.2m/s | -55.1°C | 26.1% | 141.6hPa | 4.1V | 00:00:00 | 00:52:26 | 00:00:00 | |
| DM0DOS-11 | 2026-09-04 22:28:53 | 50.81794 | 6.14173 | 94° | 122km/h | 14301m | 4.8m/s | -55.3°C | 26.3% | 142.5hPa | 4.1V | 00:00:00 | 00:52:16 | 00:00:00 | |
| BIOWL1-15 | 2026-09-04 22:28:49 | 50.81794 | 6.14173 | 95° | 120km/h | 14301m | 5m/s | -55.3°C | 26.4% | 142.5hPa | 4.1V | 00:00:00 | 00:00:00 | 00:00:00 | |
| DL1XH1-15 | 2026-09-04 22:28:47 | 50.81812 | 6.13878 | 93° | 122km/h | 14273m | 5.2m/s | -55.5°C | 26.5% | 143.1hPa | 4.1V | 00:00:00 | 00:52:10 | 00:00:00 | |
| DM0DOS-11 | 2026-09-04 22:28:43 | 50.81814 | 6.13697 | 88° | 137km/h | 14248m | 5.5m/s | -55.7°C | 26.6% | 143.7hPa | 4.1V | 00:00:00 | 00:52:06 | 00:00:00 | |
| DB0UT-7 | 2026-09-04 22:28:40 | 50.81814 | 6.13791 | 91° | 126km/h | 14259m | 5.5m/s | -55.6°C | 26.5% | 143.4hPa | 4.0V | 00:00:00 | 00:52:08 | 00:00:00 | |
| DM0DOS-11 | 2026-09-04 22:28:33 | 50.81793 | 6.13151 | 81° | 119km/h | 14189m | 3.5m/s | -56.7°C | 27% | 145.1hPa | 4.2V | 00:00:00 | 00:51:56 | 00:00:00 | |
| DL1XH1-15 | 2026-09-04 22:28:31 | 50.81786 | 6.13057 | 85° | 122km/h | 14181m | 3.4m/s | -56.6°C | 27% | 145.2hPa | 4.2V | 00:00:00 | 00:51:54 | 00:00:00 | |
| BIOWL1-15 | 2026-09-04 22:28:30 | 50.81797 | 6.13200 | 82° | 124km/h | 14193m | 4m/s | -56.7°C | 26.9% | 144.9hPa | 4.2V | 00:00:00 | 00:00:00 | 00:00:00 | |
| DL1XH-west | 2026-09-04 22:28:27 | 50.81786 | 6.13057 | 0° | 0km/h | 14181m | 0m/s | -56.6°C | 27% | 145.2hPa | 4.2V | 00:00:00 | 00:00:00 | 00:00:00 | |
| DM0DOS-11 | 2026-09-04 22:28:23 | 50.81765 | 6.12667 | 82° | 122km/h | 14155m | 4m/s | -56.4°C | 27% | 145.9hPa | 4.2V | 00:00:00 | 00:51:46 | 00:00:00 | |
| BIOWL1-15 | 2026-09-04 22:28:20 | 50.81768 | 6.12716 | 84° | 124km/h | 14159m | 4.1m/s | -56.4°C | 27.1% | 145.8hPa | 4.2V | 00:00:00 | 00:00:00 | 00:00:00 | |
| DM0DOS-11 | 2026-09-04 22:28:13 | 50.81731 | 6.12176 | 83° | 126km/h | 14114m | 4.3m/s | -56.2°C | 27.3% | 146.8hPa | 4.2V | 00:00:00 | 00:51:36 | 00:00:00 | |
| DB0UT-7 | 2026-09-04 22:28:10 | 50.81739 | 6.12279 | 83° | 128km/h | 14123m | 4.3m/s | -56.1°C | 27.3% | 146.5hPa | 4.2V | 00:00:00 | 00:00:00 | 00:00:00 | |
| DL1XH1-15 | 2026-09-04 22:28:09 | 50.81717 | 6.11976 | 84° | 130km/h | 14097m | 4.2m/s | -56.1°C | 27.3% | 147.2hPa | 4.2V | 00:00:00 | 00:51:32 | 00:00:00 | |
| DM0DOS-11 | 2026-09-04 22:28:03 | 50.81700 | 6.11667 | 85° | 126km/h | 14071m | 4.2m/s | -56°C | 27.5% | 147.7hPa | 4.2V | 00:00:00 | 00:51:26 | 00:00:00 | |
| BIOWL1-15 | 2026-09-04 22:28:00 | 50.81702 | 6.11720 | 85° | 131km/h | 14075m | 4m/s | -56.1°C | 27.5% | 147.6hPa | 4.2V | 00:00:00 | 00:00:00 | 00:00:00 | |
| DM0DOS-11 | 2026-09-04 22:27:53 | 50.81665 | 6.11159 | 80° | 130km/h | 14029m | 4.1m/s | -55.9°C | 27.6% | 148.7hPa | 4.2V | 00:00:00 | 00:51:16 | 00:00:00 | |
| BIOWL1-15 | 2026-09-04 22:27:52 | 50.81670 | 6.11213 | 82° | 135km/h | 14034m | 4.5m/s | -55.9°C | 27.6% | 148.6hPa | 4.2V | 00:00:00 | 00:00:00 | 00:00:00 | |
| DL1XH1-15 | 2026-09-04 22:27:49 | 50.81646 | 6.10952 | 84° | 130km/h | 14012m | 4.2m/s | -55.9°C | 27.6% | 149.1hPa | 4.2V | 00:00:00 | 00:51:12 | 00:00:00 | |
| DM0DOS-11 | 2026-09-04 22:27:43 | 50.81621 | 6.10646 | 81° | 133km/h | 13986m | 4.5m/s | -56.1°C | 28% | 149.7hPa | 4.2V | 00:00:00 | 00:51:06 | 00:00:00 | |
| BIOWL1-15 | 2026-09-04 22:27:42 | 50.81616 | 6.10592 | 84° | 133km/h | 13981m | 4.5m/s | -56.2°C | 28% | 149.8hPa | 4.2V | 00:00:00 | 00:00:00 | 00:00:00 | |
| DB0UT-7 | 2026-09-04 22:27:40 | 50.81630 | 6.10751 | 83° | 131km/h | 13995m | 4.5m/s | -56.1°C | 27.8% | 149.5hPa | 4.2V | 00:00:00 | 00:51:08 | 00:00:00 | |
| DL1XH1-15 | 2026-09-04 22:27:38 | 50.81602 | 6.10382 | 82° | 131km/h | 13964m | 4.5m/s | -56.2°C | 28.1% | 150.2hPa | 4.2V | 00:00:00 | 00:51:01 | 00:00:00 | |
| DM0DOS-11 | 2026-09-04 22:27:33 | 50.81578 | 6.10118 | 81° | 133km/h | 13942m | 4.3m/s | -56°C | 28% | 150.8hPa | 4.2V | 00:00:00 | 00:50:56 | 00:00:00 | |
| BIOWL1-15 | 2026-09-04 22:27:26 | 50.81566 | 6.09955 | 84° | 133km/h | 13929m | 4m/s | -55.9°C | 28.2% | 151.1hPa | 4.2V | 00:00:00 | 00:00:00 | 00:00:00 | |
| DL1XH1-15 | 2026-09-04 22:27:24 | 50.81533 | 6.09644 | 80° | 131km/h | 13903m | 4.6m/s | -55.8°C | 28.5% | 151.7hPa | 4.2V | 00:00:00 | 00:50:47 | 00:00:00 | |
| DM0DOS-11 | 2026-09-04 22:27:23 | 50.81527 | 6.09589 | 79° | 133km/h | 13899m | 4.4m/s | -55.8°C | 28.5% | 151.8hPa | 4.2V | 00:00:00 | 00:50:46 | 00:00:00 | |
| BIOWL1-15 | 2026-09-04 22:27:15 | 50.81506 | 6.09375 | 83° | 128km/h | 13882m | 4m/s | -55.9°C | 28.8% | 152.2hPa | 4.2V | 00:00:00 | 00:00:00 | 00:00:00 | |
| DM0DOS-11 | 2026-09-04 22:27:13 | 50.81475 | 6.09072 | 79° | 131km/h | 13854m | 4.5m/s | -56°C | 29% | 152.8hPa | 4.2V | 00:00:00 | 00:50:36 | 00:00:00 | |
| BIOWL1-15 | 2026-09-04 22:27:04 | 50.81448 | 6.08808 | 83° | 130km/h | 13833m | 4m/s | -56°C | 29.1% | 153.3hPa | 4.2V | 00:00:00 | 00:00:00 | 00:00:00 | |
| BIOWL1-15 | 2026-09-04 22:26:54 | 50.81405 | 6.08308 | 82° | 130km/h | 13788m | 4.3m/s | -55.9°C | 29.6% | 154.4hPa | 4.2V | 00:00:00 | 00:00:00 | 00:00:00 | |
| DL1XH1-15 | 2026-09-04 22:26:48 | 50.81371 | 6.07790 | 84° | 128km/h | 13743m | 4.2m/s | -55.7°C | 29.6% | 155.4hPa | 4.2V | 00:00:00 | 00:50:11 | 00:00:00 | |
| DM0DOS-11 | 2026-09-04 22:26:43 | 50.81358 | 6.07537 | 85° | 128km/h | 13719m | 4.1m/s | -55.9°C | 29.7% | 156hPa | 4.2V | 00:00:00 | 00:50:06 | 00:00:00 | |
| BIOWL1-15 | 2026-09-04 22:26:42 | 50.81367 | 6.07689 | 85° | 128km/h | 13734m | 6m/s | -55.8°C | 29.8% | 155.7hPa | 4.2V | 00:00:00 | 00:00:00 | 00:00:00 | |
| DB0UT-7 | 2026-09-04 22:26:40 | 50.81364 | 6.07638 | 85° | 130km/h | 13728m | 4.2m/s | -55.8°C | 29.7% | 155.8hPa | 4.2V | 00:00:00 | 00:50:08 | 00:00:00 | |
| DM0DOS-11 | 2026-09-04 22:26:33 | 50.81338 | 6.07014 | 88° | 130km/h | 13677m | 4.6m/s | -56°C | 29.8% | 157.1hPa | 4.2V | 00:00:00 | 00:49:56 | 00:00:00 | |
| BIOWL1-15 | 2026-09-04 22:26:32 | 50.81340 | 6.07177 | 89° | 133km/h | 13690m | 4.5m/s | -56.1°C | 29.9% | 156.8hPa | 4.2V | 00:00:00 | 00:00:00 | 00:00:00 | |
| DL1XH1-15 | 2026-09-04 22:26:24 | 50.81327 | 6.06544 | 87° | 106km/h | 13635m | 3.2m/s | -56.2°C | 30% | 158.1hPa | 4.2V | 00:00:00 | 00:49:47 | 00:00:00 | |
| DM0DOS-11 | 2026-09-04 22:26:23 | 50.81326 | 6.06493 | 86° | 124km/h | 13630m | 4.5m/s | -56.3°C | 30% | 158.2hPa | 4.2V | 00:00:00 | 00:49:46 | 00:00:00 | |
| BIOWL1-15 | 2026-09-04 22:26:19 | 50.81322 | 6.06393 | 88° | 126km/h | 13620m | 4.5m/s | -56.5°C | 30.2% | 158.4hPa | 4.2V | 00:00:00 | 00:00:00 | 00:00:00 | |
| DL1XH1-15 | 2026-09-04 22:26:14 | 50.81313 | 6.06041 | 4° | 62km/h | 13590m | 0m/s | -56.8°C | 30.2% | 159.2hPa | 4.2V | 00:00:00 | 00:49:37 | 00:00:00 | |
| DM0DOS-11 | 2026-09-04 22:26:13 | 50.81314 | 6.05989 | 90° | 128km/h | 13584m | 4.5m/s | -56.8°C | 30.2% | 159.3hPa | 4.2V | 00:00:00 | 00:49:36 | 00:00:00 | |
| BIOWL1-15 | 2026-09-04 22:26:04 | 50.81308 | 6.05731 | 88° | 124km/h | 13561m | 4.3m/s | -56.7°C | 30.5% | 159.9hPa | 4.2V | 00:00:00 | 00:00:00 | 00:00:00 | |
| DM0DOS-11 | 2026-09-04 22:26:03 | 50.81303 | 6.05478 | 88° | 128km/h | 13540m | 4.4m/s | -56.7°C | 30.7% | 160.4hPa | 4.2V | 00:00:00 | 00:49:26 | 00:00:00 | |
| DL1XH1-15 | 2026-09-04 22:26:02 | 50.81302 | 6.05427 | 4° | 62km/h | 13536m | 0m/s | 0°C | 0% | 0hPa | 0V | 00:00:00 | 00:00:00 | 00:00:00 | |
| BIOWL1-15 | 2026-09-04 22:25:54 | 50.81285 | 6.05019 | 88° | 124km/h | 13500m | 4m/s | -56.5°C | 30.8% | 161.5hPa | 4.2V | 00:00:00 | 00:00:00 | 00:00:00 | |
| DM0DOS-11 | 2026-09-04 22:25:53 | 50.81284 | 6.04970 | 87° | 128km/h | 13496m | 4.7m/s | -56.5°C | 30.8% | 161.6hPa | 4.2V | 00:00:00 | 00:49:16 | 00:00:00 | |
| DM0DOS-11 | 2026-09-04 22:25:43 | 50.81261 | 6.04461 | 84° | 126km/h | 13452m | 4.9m/s | -56.5°C | 31.2% | 162.7hPa | 4.2V | 00:00:00 | 00:49:06 | 00:00:00 | |
| BIOWL1-15 | 2026-09-04 22:25:42 | 50.81263 | 6.04511 | 85° | 128km/h | 13456m | 4.7m/s | -56.5°C | 31.3% | 162.6hPa | 4.2V | 00:00:00 | 00:00:00 | 00:00:00 | |
| DB0UT-7 | 2026-09-04 22:25:40 | 50.81264 | 6.04559 | 87° | 120km/h | 13459m | 4.2m/s | -56.4°C | 31.0% | 162.5hPa | 4.2V | 00:00:00 | 00:49:08 | 00:00:00 | |
| DM0DOS-11 | 2026-09-04 22:25:33 | 50.81225 | 6.03964 | 85° | 120km/h | 13405m | 4.6m/s | -56.5°C | 31.3% | 163.9hPa | 4.2V | 00:00:00 | 00:48:56 | 00:00:00 | |
| BIOWL1-15 | 2026-09-04 22:25:28 | 50.81222 | 6.03916 | 83° | 122km/h | 13400m | 4.3m/s | -56.5°C | 31.4% | 164hPa | 4.2V | 00:00:00 | 00:00:00 | 00:00:00 | |
| DM0DOS-11 | 2026-09-04 22:25:23 | 50.81193 | 6.03489 | 85° | 119km/h | 13358m | 4.7m/s | -56.3°C | 31.8% | 165.1hPa | 4.2V | 00:00:00 | 00:48:46 | 00:00:00 | |
| DM0DOS-11 | 2026-09-04 22:25:13 | 50.81174 | 6.03012 | 87° | 119km/h | 13309m | 4.6m/s | -56.1°C | 32.2% | 166.3hPa | 4.3V | 00:00:00 | 00:48:36 | 00:00:00 | |
| DB0UT-7 | 2026-09-04 22:25:10 | 50.81177 | 6.03105 | 88° | 122km/h | 13319m | 4.7m/s | -56.1°C | 32.0% | 166.0hPa | 4.3V | 00:00:00 | 00:00:00 | 00:00:00 | |
| DM0DOS-11 | 2026-09-04 22:25:04 | 50.81167 | 6.02529 | 90° | 122km/h | 13262m | 4.8m/s | -56°C | 32.5% | 167.6hPa | 4.3V | 00:00:00 | 00:48:26 | 00:00:00 | |
| BIOWL1-15 | 2026-09-04 22:25:02 | 50.81167 | 6.02578 | 90° | 122km/h | 13267m | 5m/s | -56°C | 32.5% | 167.5hPa | 4.3V | 00:00:00 | 00:00:00 | 00:00:00 | |
| DM0DOS-11 | 2026-09-04 22:24:53 | 50.81170 | 6.02039 | 89° | 122km/h | 13215m | 4.8m/s | -55.8°C | 33% | 168.8hPa | 4.3V | 00:00:00 | 00:48:16 | 00:00:00 | |
| BIOWL1-15 | 2026-09-04 22:24:46 | 50.81170 | 6.01893 | 91° | 122km/h | 13201m | 5m/s | -55.7°C | 33.2% | 169.2hPa | 4.3V | 00:00:00 | 00:00:00 | 00:00:00 | |
| DM0DOS-11 | 2026-09-04 22:24:43 | 50.81168 | 6.01550 | 89° | 120km/h | 13168m | 4.5m/s | -55.5°C | 33.2% | 170.1hPa | 4.3V | 00:00:00 | 00:48:06 | 00:00:00 | |
| BIOWL1-15 | 2026-09-04 22:24:33 | 50.81171 | 6.01255 | 91° | 124km/h | 13140m | 4m/s | -55.4°C | 33.5% | 170.8hPa | 4.3V | 00:00:00 | 00:00:00 | 00:00:00 | |
| DM0DOS-11 | 2026-09-04 22:24:23 | 50.81170 | 6.00556 | 91° | 128km/h | 13076m | 4.4m/s | -55°C | 34.2% | 172.6hPa | 4.3V | 00:00:00 | 00:47:46 | 00:00:00 | |
| BIOWL1-15 | 2026-09-04 22:24:23 | 50.81170 | 6.00756 | 90° | 122km/h | 13095m | 4m/s | -55.1°C | 33.9% | 172hPa | 4.3V | 00:00:00 | 00:00:00 | 00:00:00 | |
| DM0DOS-11 | 2026-09-04 22:24:13 | 50.81173 | 6.00046 | 91° | 130km/h | 13030m | 4.5m/s | -55.3°C | 34.3% | 173.8hPa | 4.3V | 00:00:00 | 00:47:36 | 00:00:00 | |
| BIOWL1-15 | 2026-09-04 22:24:12 | 50.81171 | 6.00199 | 92° | 130km/h | 13045m | 4.8m/s | -55.1°C | 34.3% | 173.4hPa | 4.3V | 00:00:00 | 00:00:00 | 00:00:00 | |
| DB0UT-7 | 2026-09-04 22:24:10 | 50.81171 | 6.00148 | 92° | 135km/h | 13039m | 4.4m/s | -55.1°C | 34.2% | 173.5hPa | 4.3V | 00:00:00 | 00:00:00 | 00:00:00 | |
| DM0DOS-11 | 2026-09-04 22:24:04 | 50.81191 | 5.99522 | 93° | 135km/h | 12984m | 4.3m/s | -55.5°C | 34.7% | 175hPa | 4.3V | 00:00:00 | 00:47:26 | 00:00:00 | |
| DM0DOS-11 | 2026-09-04 22:23:53 | 50.81212 | 5.98977 | 93° | 137km/h | 12940m | 4.4m/s | -55.6°C | 35% | 176.2hPa | 4.3V | 00:00:00 | 00:47:16 | 00:00:00 | |
| BIOWL1-15 | 2026-09-04 22:23:44 | 50.81224 | 5.98702 | 93° | 139km/h | 12917m | 4m/s | -55.6°C | 35.3% | 176.9hPa | 4.3V | 00:00:00 | 00:00:00 | 00:00:00 | |
| DM0DOS-11 | 2026-09-04 22:23:43 | 50.81232 | 5.98423 | 91° | 139km/h | 12896m | 4.2m/s | -55.6°C | 35.3% | 177.5hPa | 4.3V | 00:00:00 | 00:47:06 | 00:00:00 | |
| BIOWL1-15 | 2026-09-04 22:23:39 | 50.81244 | 5.97980 | 91° | 139km/h | 12863m | 5m/s | -55.7°C | 35.8% | 178.4hPa | 4.3V | 00:00:00 | 00:00:00 | 00:00:00 | |
| DM0DOS-11 | 2026-09-04 22:23:33 | 50.81245 | 5.97869 | 91° | 141km/h | 12854m | 4.3m/s | -55.7°C | 35.7% | 178.6hPa | 4.3V | 00:00:00 | 00:46:56 | 00:00:00 | |
| DM0DOS-11 | 2026-09-04 22:23:23 | 50.81247 | 5.97304 | 89° | 146km/h | 12810m | 4.3m/s | -56.2°C | 36% | 179.8hPa | 4.3V | 00:00:00 | 00:46:46 | 00:00:00 | |
| BIOWL1-15 | 2026-09-04 22:23:21 | 50.81247 | 5.97418 | 90° | 144km/h | 12819m | 4.3m/s | -56.2°C | 36% | 179.6hPa | 4.3V | 00:00:00 | 00:00:00 | 00:00:00 | |
| BIOWL1-15 | 2026-09-04 22:23:06 | 50.81244 | 5.96536 | 91° | 153km/h | 12754m | 4m/s | -56.7°C | 36.5% | 181.4hPa | 4.3V | 00:00:00 | 00:00:00 | 00:00:00 | |
| DM0DOS-11 | 2026-09-04 22:23:03 | 50.81250 | 5.96104 | 90° | 157km/h | 12726m | 4.4m/s | -56.8°C | 36.7% | 182.2hPa | 4.3V | 00:00:00 | 00:46:26 | 00:00:00 | |
| DM0DOS-11 | 2026-09-04 22:22:53 | 50.81259 | 5.95471 | 89° | 161km/h | 12683m | 4.3m/s | -56.9°C | 37% | 183.4hPa | 4.3V | 00:00:00 | 00:46:16 | 00:00:00 | |
| BIOWL1-15 | 2026-09-04 22:22:52 | 50.81257 | 5.95659 | 92° | 159km/h | 12696m | 4m/s | -56.9°C | 37% | 183hPa | 4.3V | 00:00:00 | 00:00:00 | 00:00:00 | |
| DM0DOS-11 | 2026-09-04 22:22:43 | 50.81256 | 5.94824 | 87° | 164km/h | 12640m | 4.8m/s | -57.2°C | 37.5% | 184.6hPa | 4.3V | 00:00:00 | 00:46:06 | 00:00:00 | |
| BIOWL1-15 | 2026-09-04 22:22:41 | 50.81259 | 5.94949 | 89° | 155km/h | 12649m | 4m/s | -57.2°C | 37.4% | 184.4hPa | 4.3V | 00:00:00 | 00:00:00 | 00:00:00 | |
| DB0UT-7 | 2026-09-04 22:22:40 | 50.81259 | 5.94949 | 89° | 172km/h | 12649m | 4.6m/s | -57.2°C | 37.3% | 184.3hPa | 4.3V | 00:00:00 | 00:46:08 | 00:00:00 | |
| DM0DOS-11 | 2026-09-04 22:22:33 | 50.81232 | 5.94166 | 85° | 170km/h | 12594m | 4.6m/s | -57°C | 37.7% | 185.9hPa | 4.3V | 00:00:00 | 00:45:56 | 00:00:00 | |
| DM0DOS-11 | 2026-09-04 22:22:23 | 50.81208 | 5.93481 | 83° | 179km/h | 12542m | 5.7m/s | -57.3°C | 37.7% | 187.5hPa | 4.3V | 00:00:00 | 00:45:46 | 00:00:00 | |
| DM0DOS-11 | 2026-09-04 22:22:13 | 50.81162 | 5.92767 | 80° | 183km/h | 12486m | 4.6m/s | -57.5°C | 38% | 189.1hPa | 4.4V | 00:00:00 | 00:45:36 | 00:00:00 | |
| BIOWL1-15 | 2026-09-04 22:22:05 | 50.81120 | 5.92186 | 78° | 179km/h | 12451m | 5m/s | -57.6°C | 38.1% | 190.1hPa | 4.4V | 00:00:00 | 00:00:00 | 00:00:00 | |
| DM0DOS-11 | 2026-09-04 22:22:03 | 50.81100 | 5.92046 | 77° | 184km/h | 12442m | 4.2m/s | -57.6°C | 38.2% | 190.4hPa | 4.4V | 00:00:00 | 00:45:26 | 00:00:00 | |
| DM0DOS-11 | 2026-09-04 22:21:53 | 50.81041 | 5.91320 | 78° | 183km/h | 12391m | 4.9m/s | -57.2°C | 38.5% | 191.9hPa | 4.4V | 00:00:00 | 00:45:16 | 00:00:00 | |
| BIOWL1-15 | 2026-09-04 22:21:47 | 50.81023 | 5.91177 | 82° | 183km/h | 12381m | 4.5m/s | -57.2°C | 38.7% | 192.2hPa | 4.4V | 00:00:00 | 00:00:00 | 00:00:00 | |
| DM0DOS-11 | 2026-09-04 22:21:43 | 50.80991 | 5.90603 | 81° | 179km/h | 12343m | 5.4m/s | -57.2°C | 38.8% | 193.4hPa | 4.4V | 00:00:00 | 00:45:06 | 00:00:00 | |
| DB0UT-7 | 2026-09-04 22:21:40 | 50.80999 | 5.90737 | 86° | 175km/h | 12352m | 4.9m/s | -57.1°C | 38.8% | 193.1hPa | 4.4V | 00:00:00 | 00:45:08 | 00:00:00 | |
| DM0DOS-11 | 2026-09-04 22:21:33 | 50.80934 | 5.89881 | 85° | 177km/h | 12286m | 4.4m/s | -57.5°C | 39.5% | 195.2hPa | 4.4V | 00:00:00 | 00:44:56 | 00:00:00 | |
| BIOWL1-15 | 2026-09-04 22:21:26 | 50.80926 | 5.89666 | 86° | 175km/h | 12273m | 4.5m/s | -57.6°C | 39.5% | 195.6hPa | 4.4V | 00:00:00 | 00:00:00 | 00:00:00 | |
| DM0DOS-11 | 2026-09-04 22:21:24 | 50.80905 | 5.89178 | 85° | 173km/h | 12242m | 4.4m/s | -57.8°C | 39.8% | 196.6hPa | 4.4V | 00:00:00 | 00:44:46 | 00:00:00 | |
| DM0DOS-11 | 2026-09-04 22:21:13 | 50.80867 | 5.88488 | 85° | 170km/h | 12197m | 4.6m/s | -58.6°C | 40% | 197.9hPa | 4.4V | 00:00:00 | 00:44:36 | 00:00:00 | |
| BIOWL1-15 | 2026-09-04 22:21:13 | 50.80883 | 5.88763 | 85° | 170km/h | 12215m | 4.5m/s | -58.1°C | 40% | 197.4hPa | 4.3V | 00:00:00 | 00:00:00 | 00:00:00 | |
| DB0UT-7 | 2026-09-04 22:21:10 | 50.80875 | 5.88628 | 85° | 168km/h | 12206m | 4.5m/s | -58.2°C | 40.0% | 197.6hPa | 4.3V | 00:00:00 | 00:00:00 | 00:00:00 | |
| DM0DOS-11 | 2026-09-04 22:21:03 | 50.80838 | 5.87822 | 86° | 166km/h | 12152m | 4.5m/s | -58.8°C | 40.3% | 199.3hPa | 4.4V | 00:00:00 | 00:44:26 | 00:00:00 | |
| BIOWL1-15 | 2026-09-04 22:21:03 | 50.80849 | 5.88084 | 86° | 164km/h | 12169m | 4.3m/s | -58.9°C | 40.3% | 198.8hPa | 4.4V | 00:00:00 | 00:00:00 | 00:00:00 | |
| DM0DOS-11 | 2026-09-04 22:20:53 | 50.80814 | 5.87151 | 87° | 168km/h | 12108m | 4m/s | -58.8°C | 40.7% | 200.8hPa | 4.4V | 00:00:00 | 00:44:16 | 00:00:00 | |
| BIOWL1-15 | 2026-09-04 22:20:35 | 50.80773 | 5.86210 | 87° | 170km/h | 12049m | 4.2m/s | -58.7°C | 41.5% | 202.7hPa | 4.4V | 00:00:00 | 00:00:00 | 00:00:00 | |
| DM0DOS-11 | 2026-09-04 22:20:33 | 50.80759 | 5.85804 | 87° | 170km/h | 12024m | 4m/s | -58.5°C | 41.7% | 203.5hPa | 4.4V | 00:00:00 | 00:43:56 | 00:00:00 | |
| BIOWL1-15 | 2026-09-04 22:20:24 | 50.80737 | 5.85329 | 85° | 170km/h | 11997m | 4.2m/s | -58.4°C | 42% | 204.4hPa | 4.4V | 00:00:00 | 00:00:00 | 00:00:00 | |
| DM0DOS-11 | 2026-09-04 22:20:23 | 50.80726 | 5.85125 | 85° | 168km/h | 11985m | 4.3m/s | -58.4°C | 42.2% | 204.8hPa | 4.4V | 00:00:00 | 00:43:46 | 00:00:00 | |
| DM0DOS-11 | 2026-09-04 22:20:13 | 50.80695 | 5.84451 | 84° | 170km/h | 11942m | 4.1m/s | -58.5°C | 42.8% | 206.1hPa | 4.4V | 00:00:00 | 00:43:36 | 00:00:00 | |
| BIOWL1-15 | 2026-09-04 22:20:09 | 50.80695 | 5.84451 | 84° | 172km/h | 11942m | 4.2m/s | -58.5°C | 42.9% | 206.1hPa | 4.4V | 00:00:00 | 00:00:00 | 00:00:00 | |
| DM0DOS-11 | 2026-09-04 22:20:03 | 50.80648 | 5.83769 | 81° | 172km/h | 11900m | 3.9m/s | -58.3°C | 43.7% | 207.5hPa | 4.4V | 00:00:00 | 00:43:26 | 00:00:00 | |
| BIOWL1-15 | 2026-09-04 22:19:57 | 50.80625 | 5.83495 | 84° | 170km/h | 11884m | 3.8m/s | -58.2°C | 43.9% | 208hPa | 4.4V | 00:00:00 | 00:00:00 | 00:00:00 | |
| DM0DOS-11 | 2026-09-04 22:19:53 | 50.80598 | 5.83090 | 82° | 172km/h | 11861m | 4.3m/s | -58°C | 44.2% | 208.8hPa | 4.4V | 00:00:00 | 00:43:16 | 00:00:00 | |
| BIOWL1-15 | 2026-09-04 22:19:44 | 50.80573 | 5.82750 | 83° | 173km/h | 11839m | 4.3m/s | -57.9°C | 44.5% | 209.6hPa | 4.4V | 00:00:00 | 00:00:00 | 00:00:00 | |
| DM0DOS-11 | 2026-09-04 22:19:43 | 50.80547 | 5.82404 | 82° | 177km/h | 11819m | 4.6m/s | -57.9°C | 44.5% | 210.2hPa | 4.4V | 00:00:00 | 00:43:06 | 00:00:00 | |
| DB0UT-7 | 2026-09-04 22:19:40 | 50.80558 | 5.82542 | 83° | 179km/h | 11827m | 4.3m/s | -57.8°C | 44.5% | 209.9hPa | 4.4V | 00:00:00 | 00:43:08 | 00:00:00 | |
| DM0DOS-11 | 2026-09-04 22:19:33 | 50.80481 | 5.81698 | 81° | 179km/h | 11776m | 4m/s | -57.6°C | 45% | 211.7hPa | 4.4V | 00:00:00 | 00:42:56 | 00:00:00 | |
| DM0DOS-11 | 2026-09-04 22:19:23 | 50.80412 | 5.80985 | 80° | 179km/h | 11736m | 4.1m/s | -57.5°C | 45.2% | 213.1hPa | 4.4V | 00:00:00 | 00:42:46 | 00:00:00 | |
| DM0DOS-11 | 2026-09-04 22:19:13 | 50.80344 | 5.80284 | 79° | 177km/h | 11693m | 4m/s | -57.3°C | 45.2% | 214.6hPa | 4.4V | 00:00:00 | 00:42:36 | 00:00:00 | |
| BIOWL1-15 | 2026-09-04 22:19:13 | 50.80359 | 5.80424 | 81° | 175km/h | 11701m | 4m/s | -57.4°C | 45.3% | 214.3hPa | 4.4V | 00:00:00 | 00:00:00 | 00:00:00 | |
| DB0UT-7 | 2026-09-04 22:19:10 | 50.80359 | 5.80424 | 82° | 175km/h | 11701m | 4.0m/s | -57.3°C | 45.2% | 214.3hPa | 4.4V | 00:00:00 | 00:00:00 | 00:00:00 | |
| DM0DOS-11 | 2026-09-04 22:19:03 | 50.80263 | 5.79583 | 76° | 173km/h | 11653m | 4.5m/s | -57°C | 45.2% | 216hPa | 4.4V | 00:00:00 | 00:42:26 | 00:00:00 | |
| BIOWL1-15 | 2026-09-04 22:18:56 | 50.80235 | 5.79380 | 80° | 172km/h | 11639m | 4m/s | -56.9°C | 45.3% | 216.5hPa | 4.4V | 00:00:00 | 00:00:00 | 00:00:00 | |
| DM0DOS-11 | 2026-09-04 22:18:53 | 50.80176 | 5.78893 | 77° | 173km/h | 11609m | 4.4m/s | -56.7°C | 45.2% | 217.5hPa | 4.4V | 00:00:00 | 00:42:16 | 00:00:00 | |
| BIOWL1-15 | 2026-09-04 22:18:47 | 50.80125 | 5.78487 | 78° | 177km/h | 11582m | 4.3m/s | -56.5°C | 45.3% | 218.4hPa | 4.4V | 00:00:00 | 00:00:00 | 00:00:00 | |
| DM0DOS-11 | 2026-09-04 22:18:43 | 50.80087 | 5.78211 | 76° | 173km/h | 11564m | 4.1m/s | -56.3°C | 45.3% | 218.9hPa | 4.4V | 00:00:00 | 00:42:06 | 00:00:00 | |
| DB0UT-7 | 2026-09-04 22:18:40 | 50.80107 | 5.78348 | 79° | 173km/h | 11573m | 4.2m/s | -56.3°C | 45.2% | 218.6hPa | 4.4V | 00:00:00 | 00:42:08 | 00:00:00 | |
| DM0DOS-11 | 2026-09-04 22:18:33 | 50.79998 | 5.77531 | 77° | 172km/h | 11520m | 4.2m/s | -56.2°C | 45.3% | 220.3hPa | 4.4V | 00:00:00 | 00:41:56 | 00:00:00 | |
| BIOWL1-15 | 2026-09-04 22:18:30 | 50.80008 | 5.77599 | 78° | 172km/h | 11525m | 4.3m/s | -56.2°C | 45.4% | 220.2hPa | 4.4V | 00:00:00 | 00:00:00 | 00:00:00 | |
| DM0DOS-11 | 2026-09-04 22:18:23 | 50.79906 | 5.76851 | 76° | 172km/h | 11477m | 4.6m/s | -56°C | 45.5% | 221.8hPa | 4.4V | 00:00:00 | 00:41:46 | 00:00:00 | |
| BIOWL1-15 | 2026-09-04 22:18:16 | 50.79878 | 5.76648 | 81° | 166km/h | 11463m | 4.5m/s | -55.9°C | 45.5% | 222.3hPa | 4.4V | 00:00:00 | 00:00:00 | 00:00:00 | |
| DM0DOS-11 | 2026-09-04 22:18:13 | 50.79815 | 5.76175 | 70° | 172km/h | 11431m | 5m/s | -55.7°C | 45.5% | 223.3hPa | 4.4V | 00:00:00 | 00:41:36 | 00:00:00 | |
| BIOWL1-15 | 2026-09-04 22:18:05 | 50.79776 | 5.75908 | 78° | 173km/h | 11411m | 6.6m/s | -55.5°C | 45.5% | 223.9hPa | 4.4V | 00:00:00 | 00:00:00 | 00:00:00 | |
| DM0DOS-11 | 2026-09-04 22:18:03 | 50.79716 | 5.75511 | 71° | 184km/h | 11371m | 5.9m/s | -55.1°C | 45.3% | 225.4hPa | 4.4V | 00:00:00 | 00:41:26 | 00:00:00 | |
| DM0DOS-11 | 2026-09-04 22:17:53 | 50.79628 | 5.74820 | 78° | 175km/h | 11300m | 6.7m/s | -54.6°C | 45.5% | 227.9hPa | 4.4V | 00:00:00 | 00:41:16 | 00:00:00 | |
| BIOWL1-15 | 2026-09-04 22:17:53 | 50.79646 | 5.74953 | 79° | 170km/h | 11319m | 9.5m/s | -54.7°C | 45.5% | 227.3hPa | 4.4V | 00:00:00 | 00:00:00 | 00:00:00 | |
| DM0DOS-11 | 2026-09-04 22:17:43 | 50.79553 | 5.74112 | 77° | 172km/h | 11245m | 5m/s | -54.2°C | 45.5% | 229.9hPa | 4.4V | 00:00:00 | 00:41:06 | 00:00:00 | |
| DB0UT-7 | 2026-09-04 22:17:40 | 50.79568 | 5.74257 | 82° | 179km/h | 11253m | 4.4m/s | -54.2°C | 45.5% | 229.5hPa | 4.4V | 00:00:00 | 00:41:08 | 00:00:00 | |
| DM0DOS-11 | 2026-09-04 22:17:33 | 50.79473 | 5.73412 | 78° | 173km/h | 11194m | 4.6m/s | -53.7°C | 45.7% | 231.6hPa | 4.4V | 00:00:00 | 00:40:56 | 00:00:00 | |
| BIOWL1-15 | 2026-09-04 22:17:24 | 50.79423 | 5.73078 | 84° | 175km/h | 11172m | 5.5m/s | -53.5°C | 45.7% | 232.4hPa | 4.4V | 00:00:00 | 00:00:00 | 00:00:00 | |
| DM0DOS-11 | 2026-09-04 22:17:23 | 50.79399 | 5.72717 | 75° | 181km/h | 11151m | 6.2m/s | -53.3°C | 45.7% | 233.2hPa | 4.5V | 00:00:00 | 00:40:46 | 00:00:00 | |
| BIOWL1-15 | 2026-09-04 22:17:14 | 50.79350 | 5.72375 | 84° | 175km/h | 11122m | 7.5m/s | -53.2°C | 45.9% | 234.3hPa | 4.5V | 00:00:00 | 00:00:00 | 00:00:00 | |
| DM0DOS-11 | 2026-09-04 22:17:13 | 50.79306 | 5.72011 | 75° | 181km/h | 11089m | 4.6m/s | -52.9°C | 46% | 235.5hPa | 4.5V | 00:00:00 | 00:40:36 | 00:00:00 | |
| DB0UT-7 | 2026-09-04 22:17:10 | 50.79332 | 5.72161 | 76° | 181km/h | 11099m | 4.8m/s | -52.9°C | 46.0% | 235.0hPa | 4.5V | 00:00:00 | 00:00:00 | 00:00:00 | |
| DM0DOS-11 | 2026-09-04 22:17:03 | 50.79234 | 5.71297 | 82° | 181km/h | 11039m | 3.6m/s | -52.4°C | 46.2% | 237.3hPa | 4.5V | 00:00:00 | 00:40:26 | 00:00:00 | |
| DM0DOS-11 | 2026-09-04 22:16:53 | 50.79160 | 5.70568 | 82° | 172km/h | 11006m | 3.8m/s | -52.1°C | 46.7% | 238.6hPa | 4.5V | 00:00:00 | 00:40:16 | 00:00:00 | |
| DM0DOS-11 | 2026-09-04 22:16:43 | 50.79087 | 5.69867 | 83° | 173km/h | 10964m | 4.6m/s | -51.7°C | 47.2% | 240.2hPa | 4.5V | 00:00:00 | 00:40:06 | 00:00:00 | |
| DB0UT-7 | 2026-09-04 22:16:40 | 50.79098 | 5.70007 | 83° | 177km/h | 10975m | 5.0m/s | -51.7°C | 47.2% | 239.7hPa | 4.5V | 00:00:00 | 00:40:08 | 00:00:00 | |
| DM0DOS-11 | 2026-09-04 22:16:33 | 50.79012 | 5.69169 | 79° | 179km/h | 10915m | 4.4m/s | -51.2°C | 47.2% | 242.1hPa | 4.5V | 00:00:00 | 00:39:56 | 00:00:00 | |
| BIOWL1-15 | 2026-09-04 22:16:29 | 50.79012 | 5.69169 | 81° | 177km/h | 10915m | 4.3m/s | -51.2°C | 47.3% | 242.1hPa | 4.5V | 00:00:00 | 00:00:00 | 00:00:00 | |
| DM0DOS-11 | 2026-09-04 22:16:23 | 50.78939 | 5.68474 | 77° | 181km/h | 10872m | 4.4m/s | -50.8°C | 47.7% | 243.7hPa | 4.5V | 00:00:00 | 00:39:46 | 00:00:00 | |
| DM0DOS-11 | 2026-09-04 22:16:13 | 50.78855 | 5.67769 | 80° | 177km/h | 10828m | 4.8m/s | -50.4°C | 48.2% | 245.3hPa | 4.5V | 00:00:00 | 00:39:36 | 00:00:00 | |
| BIOWL1-15 | 2026-09-04 22:16:08 | 50.78835 | 5.67556 | 83° | 172km/h | 10812m | 5m/s | -50.2°C | 48.3% | 245.8hPa | 4.5V | 00:00:00 | 00:00:00 | 00:00:00 | |
| DM0DOS-11 | 2026-09-04 22:16:02 | 50.78778 | 5.67002 | 82° | 175km/h | 10778m | 4.4m/s | -49.9°C | 48.7% | 247.1hPa | 4.5V | 00:00:00 | 00:39:25 | 00:00:00 | |
| BIOWL1-15 | 2026-09-04 22:15:54 | 50.78756 | 5.66721 | 81° | 177km/h | 10760m | 4.3m/s | -49.7°C | 48.9% | 247.8hPa | 4.5V | 00:00:00 | 00:00:00 | 00:00:00 | |
| DM0DOS-11 | 2026-09-04 22:15:51 | 50.78705 | 5.66236 | 79° | 179km/h | 10731m | 4.3m/s | -49.5°C | 49.2% | 248.9hPa | 4.5V | 00:00:00 | 00:39:14 | 00:00:00 | |
| DM0DOS-11 | 2026-09-04 22:15:41 | 50.78641 | 5.65545 | 76° | 179km/h | 10684m | 4.4m/s | -49°C | 49.7% | 250.7hPa | 4.5V | 00:00:00 | 00:39:04 | 00:00:00 | |
| BIOWL1-15 | 2026-09-04 22:15:36 | 50.78630 | 5.65475 | 79° | 179km/h | 10679m | 5m/s | -49°C | 49.8% | 250.9hPa | 4.5V | 00:00:00 | 00:00:00 | 00:00:00 | |
| DM0DOS-11 | 2026-09-04 22:15:32 | 50.78556 | 5.64840 | 76° | 179km/h | 10644m | 5.3m/s | -48.6°C | 50% | 252.3hPa | 4.5V | 00:00:00 | 00:38:54 | 00:00:00 | |
| DM0DOS-11 | 2026-09-04 22:15:21 | 50.78470 | 5.64130 | 82° | 175km/h | 10596m | 6.2m/s | -48.1°C | 50.2% | 254.1hPa | 4.5V | 00:00:00 | 00:38:44 | 00:00:00 | |
| DM0DOS-11 | 2026-09-04 22:15:11 | 50.78403 | 5.63434 | 81° | 177km/h | 10536m | 4.7m/s | -47.5°C | 51% | 256.4hPa | 4.5V | 00:00:00 | 00:38:34 | 00:00:00 | |
| BIOWL1-15 | 2026-09-04 22:15:02 | 50.78365 | 5.63084 | 79° | 177km/h | 10511m | 4.7m/s | -47.2°C | 51.7% | 257.4hPa | 4.5V | 00:00:00 | 00:00:00 | 00:00:00 | |
| DM0DOS-11 | 2026-09-04 22:15:01 | 50.78325 | 5.62733 | 78° | 177km/h | 10488m | 4.6m/s | -47°C | 52.1% | 258.4hPa | 4.5V | 00:00:00 | 00:38:24 | 00:00:00 | |
| DM0DOS-11 | 2026-09-04 22:14:41 | 50.78164 | 5.61332 | 78° | 175km/h | 10395m | 4.8m/s | -46.1°C | 52.7% | 262hPa | 4.5V | 00:00:00 | 00:38:04 | 00:00:00 | |
| DB0UT-7 | 2026-09-04 22:14:40 | 50.78190 | 5.61610 | 82° | 175km/h | 10415m | 4.9m/s | -46.2°C | 52.7% | 261.2hPa | 4.5V | 00:00:00 | 00:38:08 | 00:00:00 | |
| DM0DOS-11 | 2026-09-04 22:14:31 | 50.78071 | 5.60657 | 77° | 183km/h | 10345m | 5.2m/s | -45.6°C | 53.1% | 264hPa | 4.5V | 00:00:00 | 00:37:54 | 00:00:00 | |
| BIOWL1-15 | 2026-09-04 22:14:30 | 50.78097 | 5.60859 | 79° | 177km/h | 10361m | 5.4m/s | -45.8°C | 52.9% | 263.4hPa | 4.5V | 00:00:00 | 00:00:00 | 00:00:00 | |
| DM0DOS-11 | 2026-09-04 22:14:21 | 50.77987 | 5.59951 | 78° | 177km/h | 10293m | 5m/s | -45.1°C | 54% | 266.1hPa | 4.5V | 00:00:00 | 00:37:44 | 00:00:00 | |
| BIOWL1-15 | 2026-09-04 22:14:12 | 50.77947 | 5.59601 | 79° | 173km/h | 10267m | 4.9m/s | -44.9°C | 54.3% | 267.1hPa | 4.5V | 00:00:00 | 00:00:00 | 00:00:00 | |
| DM0DOS-11 | 2026-09-04 22:14:11 | 50.77906 | 5.59260 | 78° | 175km/h | 10243m | 4.6m/s | -44.6°C | 54.5% | 268hPa | 4.5V | 00:00:00 | 00:37:34 | 00:00:00 | |
| DB0UT-7 | 2026-09-04 22:14:10 | 50.77939 | 5.59533 | 79° | 175km/h | 10263m | 4.8m/s | -44.8°C | 54.3% | 267.2hPa | 4.5V | 00:00:00 | 00:00:00 | 00:00:00 | |
| DM0DOS-11 | 2026-09-04 22:14:01 | 50.77826 | 5.58569 | 80° | 177km/h | 10196m | 4.7m/s | -44.2°C | 54.5% | 269.9hPa | 4.5V | 00:00:00 | 00:37:24 | 00:00:00 | |
| BIOWL1-15 | 2026-09-04 22:13:53 | 50.77781 | 5.58148 | 80° | 173km/h | 10168m | 4.5m/s | -44°C | 54.6% | 271hPa | 4.5V | 00:00:00 | 00:00:00 | 00:00:00 | |
| DM0DOS-11 | 2026-09-04 22:13:51 | 50.77750 | 5.57875 | 79° | 175km/h | 10149m | 4.9m/s | -43.8°C | 54.5% | 271.7hPa | 4.5V | 00:00:00 | 00:37:14 | 00:00:00 | |
| DM0DOS-11 | 2026-09-04 22:13:41 | 50.77671 | 5.57193 | 79° | 179km/h | 10100m | 5.2m/s | -43.4°C | 55.5% | 273.7hPa | 4.5V | 00:00:00 | 00:37:04 | 00:00:00 | |
| DB0UT-7 | 2026-09-04 22:13:40 | 50.77702 | 5.57468 | 80° | 177km/h | 10118m | 4.6m/s | -43.5°C | 55.2% | 272.8hPa | 4.5V | 00:00:00 | 00:37:08 | 00:00:00 | |
| DM0DOS-11 | 2026-09-04 22:13:32 | 50.77591 | 5.56500 | 79° | 177km/h | 10049m | 5.1m/s | -42.9°C | 56% | 275.7hPa | 4.5V | 00:00:00 | 00:36:54 | 00:00:00 | |
| DM0DOS-11 | 2026-09-04 22:13:21 | 50.77512 | 5.55813 | 81° | 184km/h | 9999m | 5.3m/s | -42.4°C | 56.5% | 277.8hPa | 4.5V | 00:00:00 | 00:36:44 | 00:00:00 | |
| BIOWL1-15 | 2026-09-04 22:13:19 | 50.77522 | 5.55953 | 0° | 0km/h | 10007m | 0m/s | -42.5°C | 56.4% | 277.4hPa | 4.5V | 00:00:00 | 00:00:00 | 00:00:00 | |
| DM0DOS-11 | 2026-09-04 22:13:11 | 50.77420 | 5.55096 | 80° | 175km/h | 9945m | 5.1m/s | -41.9°C | 56.8% | 280hPa | 4.5V | 00:00:00 | 00:36:34 | 00:00:00 | |
| DB0UT-7 | 2026-09-04 22:13:10 | 50.77452 | 5.55377 | 81° | 179km/h | 9967m | 5.5m/s | -42.0°C | 56.7% | 279.0hPa | 4.5V | 00:00:00 | 00:00:00 | 00:00:00 | |
| DM0DOS-11 | 2026-09-04 22:13:01 | 50.77337 | 5.54394 | 79° | 181km/h | 9894m | 5.7m/s | -41.4°C | 57.1% | 282.1hPa | 4.5V | 00:00:00 | 00:36:24 | 00:00:00 | |
| DM0DOS-11 | 2026-09-04 22:12:51 | 50.77267 | 5.53687 | 77° | 181km/h | 9844m | 4.7m/s | -41°C | 58% | 284.2hPa | 4.6V | 00:00:00 | 00:36:14 | 00:00:00 | |
| DM0DOS-11 | 2026-09-04 22:12:41 | 50.77187 | 5.52982 | 79° | 179km/h | 9792m | 4.5m/s | -40.5°C | 58.3% | 286.3hPa | 4.5V | 00:00:00 | 00:36:04 | 00:00:00 | |
| DB0UT-7 | 2026-09-04 22:12:40 | 50.77217 | 5.53260 | 79° | 179km/h | 9813m | 5.0m/s | -40.6°C | 58.2% | 285.4hPa | 4.6V | 00:00:00 | 00:36:08 | 00:00:00 | |
| DM0DOS-11 | 2026-09-04 22:12:31 | 50.77109 | 5.52271 | 80° | 179km/h | 9747m | 4.9m/s | -40.1°C | 58.8% | 288.2hPa | 4.6V | 00:00:00 | 00:35:54 | 00:00:00 | |
| BIOWL1-15 | 2026-09-04 22:12:26 | 50.77102 | 5.52201 | 81° | 179km/h | 9742m | 4.7m/s | -40.1°C | 58.9% | 288.4hPa | 4.6V | 00:00:00 | 00:00:00 | 00:00:00 | |
| DM0DOS-11 | 2026-09-04 22:12:21 | 50.77034 | 5.51565 | 80° | 177km/h | 9701m | 4.9m/s | -39.7°C | 58.8% | 290.2hPa | 4.8V | 00:00:00 | 00:35:44 | 00:00:00 | |
| DM0DOS-11 | 2026-09-04 22:12:11 | 50.76972 | 5.50862 | 83° | 177km/h | 9654m | 4.6m/s | -39.3°C | 59.2% | 292.2hPa | 4.6V | 00:00:00 | 00:35:34 | 00:00:00 | |
| DB0UT-7 | 2026-09-04 22:12:10 | 50.76997 | 5.51139 | 80° | 177km/h | 9672m | 4.4m/s | -39.5°C | 59.0% | 291.4hPa | 4.5V | 00:00:00 | 00:00:00 | 00:00:00 | |
| DM0DOS-11 | 2026-09-04 22:12:01 | 50.76910 | 5.50157 | 83° | 179km/h | 9609m | 4.6m/s | -39°C | 59.3% | 294.2hPa | 4.6V | 00:00:00 | 00:35:24 | 00:00:00 | |
| BIOWL1-15 | 2026-09-04 22:12:01 | 50.76910 | 5.50157 | 83° | 183km/h | 9609m | 4.5m/s | -39°C | 59.4% | 294.2hPa | 4.6V | 00:00:00 | 00:00:00 | 00:00:00 | |
| BIOWL1-15 | 2026-09-04 22:11:45 | 50.76838 | 5.49306 | 83° | 175km/h | 9554m | 4.5m/s | -38.5°C | 59.5% | 296.4hPa | 4.6V | 00:00:00 | 00:00:00 | 00:00:00 | |
| DM0DOS-11 | 2026-09-04 22:11:41 | 50.76792 | 5.48746 | 83° | 177km/h | 9518m | 4.2m/s | -38.2°C | 59.7% | 298hPa | 4.6V | 00:00:00 | 00:35:04 | 00:00:00 | |
| DB0UT-7 | 2026-09-04 22:11:40 | 50.76815 | 5.49025 | 83° | 177km/h | 9536m | 4.3m/s | -38.3°C | 59.6% | 297.2hPa | 4.6V | 00:00:00 | 00:35:08 | 00:00:00 | |
| DM0DOS-11 | 2026-09-04 22:11:31 | 50.76736 | 5.48046 | 83° | 177km/h | 9474m | 4.4m/s | -37.8°C | 60% | 299.9hPa | 4.6V | 00:00:00 | 00:34:54 | 00:00:00 | |
| BIOWL1-15 | 2026-09-04 22:11:30 | 50.76752 | 5.48253 | 83° | 173km/h | 9488m | 4.7m/s | -37.9°C | 60% | 299.4hPa | 4.6V | 00:00:00 | 00:00:00 | 00:00:00 | |
| DM0DOS-11 | 2026-09-04 22:11:21 | 50.76681 | 5.47347 | 83° | 179km/h | 9430m | 4.5m/s | -37.5°C | 60.5% | 301.9hPa | 4.6V | 00:00:00 | 00:34:44 | 00:00:00 | |
| BIOWL1-15 | 2026-09-04 22:11:17 | 50.76681 | 5.47347 | 83° | 177km/h | 9430m | 4.7m/s | -37.5°C | 60.5% | 301.9hPa | 4.6V | 00:00:00 | 00:00:00 | 00:00:00 | |
| DM0DOS-11 | 2026-09-04 22:11:11 | 50.76628 | 5.46642 | 82° | 179km/h | 9384m | 5m/s | -37°C | 60.5% | 303.9hPa | 4.6V | 00:00:00 | 00:34:34 | 00:00:00 | |
| DB0UT-7 | 2026-09-04 22:11:10 | 50.76649 | 5.46918 | 84° | 179km/h | 9403m | 4.8m/s | -37.1°C | 60.5% | 303.0hPa | 4.6V | 00:00:00 | 00:00:00 | 00:00:00 | |
| DM0DOS-11 | 2026-09-04 22:11:01 | 50.76575 | 5.45923 | 81° | 177km/h | 9334m | 4.4m/s | -36.5°C | 60.5% | 306hPa | 4.6V | 00:00:00 | 00:34:24 | 00:00:00 | |
| DM0DOS-11 | 2026-09-04 22:10:51 | 50.76525 | 5.45220 | 83° | 179km/h | 9289m | 4.9m/s | -36.1°C | 60.8% | 308hPa | 4.6V | 00:00:00 | 00:34:14 | 00:00:00 | |
| BIOWL1-15 | 2026-09-04 22:10:45 | 50.76516 | 5.45076 | 85° | 179km/h | 9279m | 4.8m/s | -36.1°C | 60.9% | 308.5hPa | 4.6V | 00:00:00 | 00:00:00 | 00:00:00 | |
| DM0DOS-11 | 2026-09-04 22:10:41 | 50.76479 | 5.44509 | 84° | 177km/h | 9241m | 4.5m/s | -35.8°C | 61% | 310.2hPa | 4.9V | 00:00:00 | 00:34:04 | 00:00:00 | |
| DB0UT-7 | 2026-09-04 22:10:40 | 50.76498 | 5.44790 | 84° | 177km/h | 9260m | 4.7m/s | -35.8°C | 61.0% | 309.3hPa | 4.5V | 00:00:00 | 00:34:08 | 00:00:00 | |
| DM0DOS-11 | 2026-09-04 22:10:31 | 50.76429 | 5.43801 | 82° | 177km/h | 9196m | 4.6m/s | -35.4°C | 61.3% | 312.1hPa | 4.6V | 00:00:00 | 00:33:54 | 00:00:00 | |
| BIOWL1-15 | 2026-09-04 22:10:26 | 50.76423 | 5.43732 | 84° | 179km/h | 9191m | 4.4m/s | -35.3°C | 61.4% | 312.4hPa | 4.6V | 00:00:00 | 00:00:00 | 00:00:00 | |
| DM0DOS-11 | 2026-09-04 22:10:11 | 50.76326 | 5.42398 | 81° | 175km/h | 9105m | 4.5m/s | -34.6°C | 62.8% | 316.3hPa | 4.6V | 00:00:00 | 00:33:34 | 00:00:00 | |
| BIOWL1-15 | 2026-09-04 22:10:02 | 50.76286 | 5.41910 | 83° | 181km/h | 9074m | 4m/s | -34.3°C | 63.7% | 317.7hPa | 4.9V | 00:00:00 | 00:00:00 | 00:00:00 | |
| DM0DOS-11 | 2026-09-04 22:10:01 | 50.76269 | 5.41696 | 83° | 175km/h | 9061m | 4.6m/s | -34.2°C | 64% | 318.3hPa | 4.9V | 00:00:00 | 00:33:24 | 00:00:00 | |
| DM0DOS-11 | 2026-09-04 22:09:51 | 50.76213 | 5.40997 | 82° | 173km/h | 9015m | 4.6m/s | -33.7°C | 64.9% | 320.4hPa | 4.6V | 00:00:00 | 00:33:14 | 00:00:00 | |
| DM0DOS-11 | 2026-09-04 22:09:41 | 50.76162 | 5.40299 | 84° | 175km/h | 8969m | 4.4m/s | -33.2°C | 65.6% | 322.5hPa | 4.9V | 00:00:00 | 00:33:04 | 00:00:00 | |
| DB0UT-7 | 2026-09-04 22:09:40 | 50.76179 | 5.40581 | 85° | 177km/h | 8988m | 4.7m/s | -33.4°C | 65.4% | 321.6hPa | 4.6V | 00:00:00 | 00:33:08 | 00:00:00 | |
| DM0DOS-11 | 2026-09-04 22:09:31 | 50.76108 | 5.39601 | 82° | 173km/h | 8924m | 4.9m/s | -32.9°C | 66.2% | 324.5hPa | 4.6V | 00:00:00 | 00:32:54 | 00:00:00 | |
| DM0DOS-11 | 2026-09-04 22:09:22 | 50.76057 | 5.38901 | 82° | 177km/h | 8876m | 4.5m/s | -32.5°C | 66.7% | 326.7hPa | 4.6V | 00:00:00 | 00:32:44 | 00:00:00 | |
| BIOWL1-15 | 2026-09-04 22:09:19 | 50.76066 | 5.39041 | 84° | 175km/h | 8885m | 4.5m/s | -32.5°C | 66.7% | 326.3hPa | 4.9V | 00:00:00 | 00:00:00 | 00:00:00 | |
| DM0DOS-11 | 2026-09-04 22:09:11 | 50.76007 | 5.38195 | 83° | 175km/h | 8830m | 4.7m/s | -32.1°C | 66.9% | 328.9hPa | 4.7V | 00:00:00 | 00:32:34 | 00:00:00 | |
| BIOWL1-15 | 2026-09-04 22:09:07 | 50.76007 | 5.38195 | 84° | 177km/h | 8830m | 4.5m/s | -32.1°C | 66.9% | 328.9hPa | 4.7V | 00:00:00 | 00:00:00 | 00:00:00 | |
| DM0DOS-11 | 2026-09-04 22:08:58 | 50.75947 | 5.37284 | 84° | 173km/h | 8769m | 4.5m/s | -31.6°C | 67% | 331.7hPa | 4.6V | 00:00:00 | 00:32:21 | 00:00:00 | |
| BIOWL1-15 | 2026-09-04 22:08:56 | 50.75947 | 5.37284 | 85° | 172km/h | 8769m | 4m/s | -31.6°C | 67.1% | 331.7hPa | 4.6V | 00:00:00 | 00:00:00 | 00:00:00 | |
| DM0DOS-11 | 2026-09-04 22:08:49 | 50.75896 | 5.36589 | 83° | 175km/h | 8724m | 5m/s | -31.2°C | 67.2% | 333.8hPa | 4.9V | 00:00:00 | 00:32:11 | 00:00:00 | |
| DB0UT-7 | 2026-09-04 22:08:40 | 50.75883 | 5.36379 | 85° | 175km/h | 8709m | 4.9m/s | -31.0°C | 67.5% | 334.4hPa | 4.7V | 00:00:00 | 00:32:08 | 00:00:00 | |
| DM0DOS-11 | 2026-09-04 22:08:38 | 50.75851 | 5.35896 | 83° | 175km/h | 8674m | 4.9m/s | -30.8°C | 67.1% | 336.1hPa | 4.7V | 00:00:00 | 00:32:01 | 00:00:00 | |
| DM0DOS-11 | 2026-09-04 22:08:28 | 50.75808 | 5.35196 | 84° | 175km/h | 8623m | 4.5m/s | -30.5°C | 66.6% | 338.6hPa | 4.6V | 00:00:00 | 00:31:51 | 00:00:00 | |
| BIOWL1-15 | 2026-09-04 22:08:23 | 50.75803 | 5.35127 | 84° | 175km/h | 8619m | 4.3m/s | -30.5°C | 66.7% | 338.9hPa | 4.6V | 00:00:00 | 00:00:00 | 00:00:00 | |
| DM0DOS-11 | 2026-09-04 22:08:18 | 50.75768 | 5.34493 | 83° | 175km/h | 8577m | 5.1m/s | -30.1°C | 66.6% | 340.9hPa | 4.9V | 00:00:00 | 00:31:41 | 00:00:00 | |
| DB0UT-7 | 2026-09-04 22:08:10 | 50.75754 | 5.34283 | 87° | 175km/h | 8561m | 4.6m/s | -29.9°C | 66.5% | 341.5hPa | 4.6V | 00:00:00 | 00:00:00 | 00:00:00 | |
| DM0DOS-11 | 2026-09-04 22:08:08 | 50.75729 | 5.33792 | 84° | 173km/h | 8527m | 4.6m/s | -29.8°C | 66.6% | 343.2hPa | 4.6V | 00:00:00 | 00:31:31 | 00:00:00 | |
| DM0DOS-11 | 2026-09-04 22:07:58 | 50.75689 | 5.33097 | 85° | 175km/h | 8480m | 4.7m/s | -29.4°C | 67.4% | 345.6hPa | 4.9V | 00:00:00 | 00:31:21 | 00:00:00 | |
| BIOWL1-15 | 2026-09-04 22:07:54 | 50.75689 | 5.33097 | 85° | 175km/h | 8480m | 4.7m/s | -29.4°C | 67.4% | 345.6hPa | 4.9V | 00:00:00 | 00:00:00 | 00:00:00 | |
| DM0DOS-11 | 2026-09-04 22:07:48 | 50.75650 | 5.32398 | 85° | 175km/h | 8434m | 4.7m/s | -28.9°C | 68.5% | 347.8hPa | 4.7V | 00:00:00 | 00:31:11 | 00:00:00 | |
| BIOWL1-15 | 2026-09-04 22:07:43 | 50.75646 | 5.32329 | 86° | 173km/h | 8429m | 4.7m/s | -28.9°C | 68.6% | 348hPa | 4.7V | 00:00:00 | 00:00:00 | 00:00:00 | |
| DB0UT-7 | 2026-09-04 22:07:40 | 50.75640 | 5.32191 | 86° | 173km/h | 8420m | 4.5m/s | -28.7°C | 68.9% | 348.4hPa | 4.7V | 00:00:00 | 00:31:08 | 00:00:00 | |
| DM0DOS-11 | 2026-09-04 22:07:38 | 50.75608 | 5.31697 | 85° | 172km/h | 8388m | 4.5m/s | -28.5°C | 69.5% | 350hPa | 4.9V | 00:00:00 | 00:31:01 | 00:00:00 | |
| DM0DOS-11 | 2026-09-04 22:07:28 | 50.75567 | 5.31005 | 83° | 175km/h | 8342m | 4.4m/s | -28.1°C | 70.5% | 352.3hPa | 5V | 00:00:00 | 00:30:51 | 00:00:00 | |
| BIOWL1-15 | 2026-09-04 22:07:22 | 50.75558 | 5.30866 | 87° | 177km/h | 8334m | 5m/s | -28°C | 70.7% | 352.7hPa | 5V | 00:00:00 | 00:00:00 | 00:00:00 | |
| DM0DOS-11 | 2026-09-04 22:07:18 | 50.75528 | 5.30312 | 84° | 172km/h | 8297m | 5m/s | -27.6°C | 71.2% | 354.5hPa | 4.7V | 00:00:00 | 00:30:41 | 00:00:00 | |
| BIOWL1-15 | 2026-09-04 22:07:12 | 50.75520 | 5.30175 | 84° | 175km/h | 8287m | 5m/s | -27.6°C | 71.3% | 355hPa | 4.7V | 00:00:00 | 00:00:00 | 00:00:00 | |
| DB0UT-7 | 2026-09-04 22:07:10 | 50.75515 | 5.30105 | 85° | 170km/h | 8281m | 4.6m/s | -27.5°C | 71.1% | 355.2hPa | 5V | 00:00:00 | 00:00:00 | 00:00:00 | |
| DM0DOS-11 | 2026-09-04 22:07:08 | 50.75487 | 5.29621 | 86° | 170km/h | 8248m | 4.6m/s | -27.3°C | 71.2% | 356.9hPa | 5V | 00:00:00 | 00:30:31 | 00:00:00 | |
| BIOWL1-15 | 2026-09-04 22:06:59 | 50.75467 | 5.29284 | 84° | 170km/h | 8225m | 4.7m/s | -27.1°C | 71.4% | 358.1hPa | 4.6V | 00:00:00 | 00:00:00 | 00:00:00 | |
| DM0DOS-11 | 2026-09-04 22:06:58 | 50.75445 | 5.28941 | 84° | 168km/h | 8200m | 4.6m/s | -26.9°C | 71.7% | 359.3hPa | 4.7V | 00:00:00 | 00:30:21 | 00:00:00 | |
| DM0DOS-11 | 2026-09-04 22:06:47 | 50.75395 | 5.28203 | 83° | 166km/h | 8150m | 4.7m/s | -26.4°C | 72.4% | 361.8hPa | 4.9V | 00:00:00 | 00:30:10 | 00:00:00 | |
| BIOWL1-15 | 2026-09-04 22:06:41 | 50.75378 | 5.27939 | 0° | 0km/h | 8131m | 0m/s | -26.3°C | 72.7% | 362.7hPa | 4.7V | 00:00:00 | 00:00:00 | 00:00:00 | |
| DM0DOS-11 | 2026-09-04 22:06:37 | 50.75351 | 5.27533 | 82° | 168km/h | 8104m | 4.7m/s | -26.2°C | 72.6% | 364hPa | 5V | 00:00:00 | 00:30:00 | 00:00:00 | |
| DM0DOS-11 | 2026-09-04 22:06:27 | 50.75308 | 5.26860 | 83° | 168km/h | 8056m | 5.5m/s | -26°C | 73.1% | 366.2hPa | 4.7V | 00:00:00 | 00:29:50 | 00:00:00 | |
| DM0DOS-11 | 2026-09-04 22:06:17 | 50.75270 | 5.26192 | 83° | 170km/h | 8001m | 5.2m/s | -25.6°C | 73.2% | 369hPa | 5V | 00:00:00 | 00:29:40 | 00:00:00 | |
| DB0UT-7 | 2026-09-04 22:06:10 | 50.75260 | 5.26056 | 84° | 170km/h | 7990m | 5.0m/s | -25.4°C | 73.2% | 369.5hPa | 5.0V | 00:00:00 | 00:00:00 | 00:00:00 | |
| DM0DOS-11 | 2026-09-04 22:06:07 | 50.75225 | 5.25521 | 85° | 172km/h | 7950m | 5.3m/s | -25.2°C | 73.5% | 371.4hPa | 4.7V | 00:00:00 | 00:29:30 | 00:00:00 | |
| DM0DOS-11 | 2026-09-04 22:05:57 | 50.75178 | 5.24836 | 84° | 162km/h | 7899m | 5.1m/s | -24.9°C | 74.4% | 374.1hPa | 5V | 00:00:00 | 00:29:20 | 00:00:00 | |
| DM0DOS-11 | 2026-09-04 22:05:47 | 50.75151 | 5.24167 | 84° | 170km/h | 7842m | 6.5m/s | -24.4°C | 75.1% | 377hPa | 4.7V | 00:00:00 | 00:29:10 | 00:00:00 | |
| DB0UT-7 | 2026-09-04 22:05:40 | 50.75145 | 5.24033 | 88° | 173km/h | 7828m | 6.1m/s | -24.3°C | 75.5% | 377.8hPa | 5V | 00:00:00 | 00:29:08 | 00:00:00 | |
| DM0DOS-11 | 2026-09-04 22:05:37 | 50.75120 | 5.23485 | 84° | 175km/h | 7780m | 5.6m/s | -23.9°C | 76.2% | 380.3hPa | 5V | 00:00:00 | 00:29:00 | 00:00:00 | |
| DM0DOS-11 | 2026-09-04 22:05:27 | 50.75079 | 5.22781 | 83° | 164km/h | 7723m | 5.3m/s | -23.5°C | 75.9% | 383.3hPa | 5V | 00:00:00 | 00:28:50 | 00:00:00 | |
| DM0DOS-11 | 2026-09-04 22:05:17 | 50.75039 | 5.22105 | 84° | 175km/h | 7663m | 6.1m/s | -23°C | 74.6% | 386.3hPa | 4.7V | 00:00:00 | 00:28:40 | 00:00:00 | |
| DB0UT-7 | 2026-09-04 22:05:10 | 50.75032 | 5.21962 | 86° | 170km/h | 7650m | 5.6m/s | -22.9°C | 74.5% | 387.0hPa | 5V | 00:00:00 | 00:00:00 | 00:00:00 | |
| DM0DOS-11 | 2026-09-04 22:05:07 | 50.74994 | 5.21426 | 87° | 177km/h | 7606m | 6.2m/s | -22.6°C | 74.2% | 389.4hPa | 5V | 00:00:00 | 00:28:30 | 00:00:00 | |
| DM0DOS-11 | 2026-09-04 22:04:57 | 50.74941 | 5.20753 | 87° | 173km/h | 7547m | 6.2m/s | -22.7°C | 73.9% | 392.4hPa | 4.7V | 00:00:00 | 00:28:20 | 00:00:00 | |
| DM0DOS-11 | 2026-09-04 22:04:47 | 50.74883 | 5.20071 | 76° | 166km/h | 7485m | 5.4m/s | -22.3°C | 73.4% | 395.8hPa | 5V | 00:00:00 | 00:28:10 | 00:00:00 | |
| DB0UT-7 | 2026-09-04 22:04:40 | 50.74864 | 5.19937 | 81° | 161km/h | 7475m | 5.8m/s | -22.1°C | 73.4% | 396.4hPa | 5.0V | 00:00:00 | 00:28:08 | 00:00:00 | |
| DM0DOS-11 | 2026-09-04 22:04:37 | 50.74826 | 5.19432 | 85° | 166km/h | 7429m | 6.3m/s | -22°C | 73.5% | 398.8hPa | 4.7V | 00:00:00 | 00:28:00 | 00:00:00 | |
| DM0DOS-11 | 2026-09-04 22:04:27 | 50.74752 | 5.18790 | 79° | 159km/h | 7361m | 6m/s | -21.6°C | 73.9% | 402.4hPa | 5V | 00:00:00 | 00:27:50 | 00:00:00 | |
| DM0DOS-11 | 2026-09-04 22:04:17 | 50.74670 | 5.18165 | 73° | 157km/h | 7301m | 6.8m/s | -21.2°C | 74.2% | 405.8hPa | 5V | 00:00:00 | 00:27:40 | 00:00:00 | |
| DB0UT-7 | 2026-09-04 22:04:10 | 50.74648 | 5.18046 | 77° | 157km/h | 7285m | 6.2m/s | -21.1°C | 74.4% | 406.5hPa | 5V | 00:00:00 | 00:00:00 | 00:00:00 | |
| DM0DOS-11 | 2026-09-04 22:04:06 | 50.74581 | 5.17492 | 79° | 159km/h | 7229m | 6.1m/s | -20.8°C | 74.2% | 409.6hPa | 5V | 00:00:00 | 00:27:29 | 00:00:00 | |
| DM0DOS-11 | 2026-09-04 22:03:56 | 50.74493 | 5.16863 | 74° | 153km/h | 7169m | 5.9m/s | -20.4°C | 74% | 412.8hPa | 5V | 00:00:00 | 00:27:19 | 00:00:00 | |
| DM0DOS-11 | 2026-09-04 22:03:46 | 50.74401 | 5.16251 | 78° | 155km/h | 7110m | 7.1m/s | -20.1°C | 73.7% | 416.1hPa | 4.7V | 00:00:00 | 00:27:09 | 00:00:00 | |
| DB0UT-7 | 2026-09-04 22:03:40 | 50.74393 | 5.16193 | 78° | 155km/h | 7105m | 7.8m/s | -20.0°C | 73.7% | 416.4hPa | 5V | 00:00:00 | 00:27:08 | 00:00:00 | |
| DM0DOS-11 | 2026-09-04 22:03:36 | 50.74329 | 5.15644 | 79° | 159km/h | 7043m | 6.5m/s | -19.8°C | 73.9% | 419.9hPa | 5V | 00:00:00 | 00:26:59 | 00:00:00 | |
| DM0DOS-11 | 2026-09-04 22:03:26 | 50.74252 | 5.15030 | 76° | 155km/h | 6980m | 6.2m/s | -19.5°C | 74% | 423.5hPa | 4.8V | 00:00:00 | 00:26:49 | 00:00:00 | |
| BIOWL1-15 | 2026-09-04 22:03:21 | 50.74232 | 5.14837 | 83° | 153km/h | 6962m | 6.3m/s | -19.6°C | 74.1% | 424.4hPa | 4.8V | 00:00:00 | 00:00:00 | 00:00:00 | |
| DM0DOS-11 | 2026-09-04 22:03:16 | 50.74195 | 5.14406 | 86° | 153km/h | 6918m | 6.6m/s | -19.6°C | 74.5% | 426.9hPa | 5V | 00:00:00 | 00:26:39 | 00:00:00 | |
| DB0UT-7 | 2026-09-04 22:03:10 | 50.74192 | 5.14350 | 87° | 150km/h | 6913m | 6.7m/s | -19.5°C | 74.6% | 427.2hPa | 5.0V | 00:00:00 | 00:00:00 | 00:00:00 | |
| DM0DOS-11 | 2026-09-04 22:03:05 | 50.74152 | 5.13753 | 80° | 159km/h | 6848m | 6.2m/s | -19.1°C | 75.2% | 430.9hPa | 4.8V | 00:00:00 | 00:26:28 | 00:00:00 | |
| DM0DOS-11 | 2026-09-04 22:02:55 | 50.74102 | 5.13127 | 83° | 144km/h | 6785m | 6.1m/s | -18.7°C | 75.4% | 434.6hPa | 5V | 00:00:00 | 00:26:18 | 00:00:00 | |
| BIOWL1-15 | 2026-09-04 22:02:48 | 50.74090 | 5.12960 | 79° | 137km/h | 6766m | 5.5m/s | -18.6°C | 75.4% | 435.7hPa | 5V | 00:00:00 | 00:00:00 | 00:00:00 | |
| DM0DOS-11 | 2026-09-04 22:02:45 | 50.74057 | 5.12535 | 83° | 142km/h | 6726m | 6.7m/s | -18.3°C | 75.9% | 437.8hPa | 4.8V | 00:00:00 | 00:26:08 | 00:00:00 | |
| BIOWL1-15 | 2026-09-04 22:02:36 | 50.74030 | 5.12251 | 86° | 166km/h | 6691m | 5m/s | -18.1°C | 76.4% | 439.8hPa | 5V | 00:00:00 | 00:00:00 | 00:00:00 | |
| DM0DOS-11 | 2026-09-04 22:02:35 | 50.74008 | 5.11951 | 81° | 150km/h | 6662m | 6.5m/s | -18°C | 76.2% | 441.6hPa | 5.1V | 00:00:00 | 00:25:58 | 00:00:00 | |
| DM0DOS-11 | 2026-09-04 22:02:25 | 50.73959 | 5.11360 | 84° | 151km/h | 6601m | 6.7m/s | -17.6°C | 76.1% | 445hPa | 4.8V | 00:00:00 | 00:25:48 | 00:00:00 | |
| BIOWL1-15 | 2026-09-04 22:02:23 | 50.73960 | 5.11474 | 84° | 146km/h | 6614m | 6.8m/s | -17.7°C | 76.2% | 444.4hPa | 4.8V | 00:00:00 | 00:00:00 | 00:00:00 | |
| DM0DOS-11 | 2026-09-04 22:02:15 | 50.73908 | 5.10775 | 75° | 146km/h | 6535m | 5.8m/s | -17.1°C | 76% | 449.2hPa | 5.1V | 00:00:00 | 00:25:38 | 00:00:00 | |
| BIOWL1-15 | 2026-09-04 22:02:10 | 50.73882 | 5.10604 | 83° | 146km/h | 6518m | 5.7m/s | -17°C | 76.1% | 450.2hPa | 5.1V | 00:00:00 | 00:00:00 | 00:00:00 | |
| DM0DOS-11 | 2026-09-04 22:02:05 | 50.73850 | 5.10200 | 81° | 146km/h | 6478m | 5.3m/s | -16.8°C | 76.5% | 452.6hPa | 5V | 00:00:00 | 00:25:28 | 00:00:00 | |
| DM0DOS-11 | 2026-09-04 22:01:55 | 50.73812 | 5.09624 | 89° | 151km/h | 6425m | 5.5m/s | -16.4°C | 76.5% | 455.8hPa | 5.1V | 00:00:00 | 00:25:18 | 00:00:00 | |
| DM0DOS-11 | 2026-09-04 22:01:45 | 50.73774 | 5.09022 | 85° | 151km/h | 6370m | 5.3m/s | -16°C | 77.1% | 459.3hPa | 5.1V | 00:00:00 | 00:25:08 | 00:00:00 | |
| BIOWL1-15 | 2026-09-04 22:01:45 | 50.73786 | 5.09259 | 80° | 141km/h | 6392m | 5m/s | -16.1°C | 76.9% | 457.9hPa | 5.1V | 00:00:00 | 00:00:00 | 00:00:00 | |
| BIOWL1-15 | 2026-09-04 22:01:37 | 50.73738 | 5.08676 | 82° | 144km/h | 6338m | 6m/s | -16.1°C | 77% | 461.4hPa | 4.8V | 00:00:00 | 00:00:00 | 00:00:00 | |
| DM0DOS-11 | 2026-09-04 22:01:35 | 50.73728 | 5.08434 | 85° | 148km/h | 6315m | 5.5m/s | -16°C | 76.9% | 462.8hPa | 5.1V | 00:00:00 | 00:24:58 | 00:00:00 | |
| DM0DOS-11 | 2026-09-04 22:01:25 | 50.73704 | 5.07871 | 81° | 144km/h | 6260m | 6m/s | -15.9°C | 77% | 466.3hPa | 5.1V | 00:00:00 | 00:24:48 | 00:00:00 | |
| DM0DOS-11 | 2026-09-04 22:01:15 | 50.73686 | 5.07319 | 87° | 135km/h | 6196m | 7.2m/s | -15.4°C | 77.5% | 470hPa | 5.1V | 00:00:00 | 00:24:38 | 00:00:00 | |
| DB0UT-7 | 2026-09-04 22:01:10 | 50.73686 | 5.07319 | 88° | 139km/h | 6196m | 7.2m/s | -15.3°C | 77.5% | 469.9hPa | 5.1V | 00:00:00 | 00:00:00 | 00:00:00 | |
| DM0DOS-11 | 2026-09-04 22:01:05 | 50.73655 | 5.06749 | 85° | 137km/h | 6126m | 6.3m/s | -14.9°C | 77.7% | 474.2hPa | 5.1V | 00:00:00 | 00:24:28 | 00:00:00 | |
| DM0DOS-11 | 2026-09-04 22:00:55 | 50.73623 | 5.06208 | 83° | 137km/h | 6066m | 5.6m/s | -14.4°C | 77.9% | 478hPa | 5.1V | 00:00:00 | 00:24:18 | 00:00:00 | |
| DM0DOS-11 | 2026-09-04 22:00:45 | 50.73598 | 5.05649 | 79° | 137km/h | 6009m | 5.4m/s | -14.4°C | 77.7% | 481.4hPa | 5.1V | 00:00:00 | 00:24:08 | 00:00:00 | |
| DB0UT-7 | 2026-09-04 22:00:40 | 50.73598 | 5.05649 | 80° | 124km/h | 6009m | 5.4m/s | -14.4°C | 77.7% | 481.4hPa | 5.1V | 00:00:00 | 00:24:08 | 00:00:00 | |
| DM0DOS-11 | 2026-09-04 22:00:35 | 50.73550 | 5.05132 | 76° | 128km/h | 5950m | 5.4m/s | -14.4°C | 77.5% | 485.1hPa | 5.1V | 00:00:00 | 00:23:58 | 00:00:00 | |
| DM0DOS-11 | 2026-09-04 22:00:25 | 50.73499 | 5.04639 | 73° | 122km/h | 5891m | 4.8m/s | -14.2°C | 77.6% | 489.2hPa | 5.1V | 00:00:00 | 00:23:48 | 00:00:00 | |
| DM0DOS-11 | 2026-09-04 22:00:15 | 50.73444 | 5.04146 | 82° | 113km/h | 5835m | 5.4m/s | -14°C | 77.6% | 492.8hPa | 5.1V | 00:00:00 | 00:23:38 | 00:00:00 | |
| DB0UT-7 | 2026-09-04 22:00:10 | 50.73444 | 5.04146 | 85° | 113km/h | 5835m | 5.2m/s | -14.0°C | 77.6% | 492.7hPa | 5.0V | 00:00:00 | 00:00:00 | 00:00:00 | |
| DM0DOS-11 | 2026-09-04 21:59:59 | 50.73386 | 5.03422 | 79° | 113km/h | 5749m | 5.3m/s | -13.6°C | 77.7% | 498.3hPa | 5.1V | 00:00:00 | 00:23:22 | 00:00:00 | |
| DM0DOS-11 | 2026-09-04 21:59:45 | 50.73331 | 5.02795 | 79° | 119km/h | 5675m | 5.4m/s | -13.2°C | 77.7% | 503hPa | 5.1V | 00:00:00 | 00:23:08 | 00:00:00 | |
| DB0UT-7 | 2026-09-04 21:59:40 | 50.73331 | 5.02795 | 80° | 119km/h | 5675m | 5.0m/s | -13.1°C | 77.7% | 503.0hPa | 5.1V | 00:00:00 | 00:23:08 | 00:00:00 | |
| DM0DOS-11 | 2026-09-04 21:59:35 | 50.73298 | 5.02332 | 91° | 120km/h | 5615m | 6.1m/s | -12.7°C | 77.5% | 507hPa | 5.1V | 00:00:00 | 00:22:58 | 00:00:00 | |
| DM0DOS-11 | 2026-09-04 21:59:25 | 50.73289 | 5.01842 | 96° | 113km/h | 5554m | 5.4m/s | -12.6°C | 77.9% | 511.1hPa | 5.1V | 00:00:00 | 00:22:48 | 00:00:00 | |
| DM0DOS-11 | 2026-09-04 21:59:15 | 50.73280 | 5.01366 | 97° | 111km/h | 5496m | 5.2m/s | -12.6°C | 76.9% | 514.9hPa | 5.1V | 00:00:00 | 00:22:38 | 00:00:00 | |
| DB0UT-7 | 2026-09-04 21:59:10 | 50.73280 | 5.01366 | 98° | 111km/h | 5496m | 5.3m/s | -12.5°C | 76.9% | 514.8hPa | 5.1V | 00:00:00 | 00:00:00 | 00:00:00 | |
| DM0DOS-11 | 2026-09-04 21:59:05 | 50.73290 | 5.00891 | 93° | 111km/h | 5442m | 5.8m/s | -12.3°C | 76.1% | 518.5hPa | 5.1V | 00:00:00 | 00:22:28 | 00:00:00 | |
| DM0DOS-11 | 2026-09-04 21:58:52 | 50.73309 | 5.00326 | 96° | 110km/h | 5364m | 5.1m/s | -12.3°C | 73.6% | 523.9hPa | 5.1V | 00:00:00 | 00:22:15 | 00:00:00 | |
| DM0DOS-11 | 2026-09-04 21:58:42 | 50.73335 | 4.99907 | 99° | 99km/h | 5313m | 6m/s | -12.3°C | 72.1% | 527.5hPa | 5.1V | 00:00:00 | 00:22:05 | 00:00:00 | |
| DB0UT-7 | 2026-09-04 21:58:40 | 50.73326 | 5.00013 | 93° | 93km/h | 5329m | 5.5m/s | -12.4°C | 72.4% | 526.3hPa | 5.0V | 00:00:00 | 00:22:08 | 00:00:00 | |
| DM0DOS-11 | 2026-09-04 21:58:32 | 50.73375 | 4.99532 | 90° | 91km/h | 5250m | 5.5m/s | -12.2°C | 73% | 531.8hPa | 5.1V | 00:00:00 | 00:21:55 | 00:00:00 | |
| DM0DOS-11 | 2026-09-04 21:58:22 | 50.73420 | 4.99175 | 97° | 78km/h | 5195m | 5.9m/s | -11.7°C | 74.6% | 535.6hPa | 5.1V | 00:00:00 | 00:21:45 | 00:00:00 | |
| BIOWL1-15 | 2026-09-04 21:58:08 | 50.73463 | 4.98796 | 101° | 93km/h | 5136m | 5.8m/s | -11.5°C | 76.8% | 539.6hPa | 5.1V | 00:00:00 | 00:00:00 | 00:00:00 | |
| DM0DOS-11 | 2026-09-04 21:57:44 | 50.73538 | 4.97848 | 92° | 77km/h | 4983m | 6m/s | -10.5°C | 79% | 550.7hPa | 5.1V | 00:00:00 | 00:21:07 | 00:00:00 | |
| DB0UT-7 | 2026-09-04 21:57:40 | 50.73536 | 4.97876 | 99° | 78km/h | 4989m | 5.9m/s | -10.5°C | 79.0% | 550.2hPa | 5.1V | 00:00:00 | 00:21:08 | 00:00:00 | |
| DM0DOS-11 | 2026-09-04 21:57:34 | 50.73544 | 4.97541 | 86° | 78km/h | 4922m | 5.6m/s | -10.2°C | 78.9% | 554.9hPa | 5.1V | 00:00:00 | 00:20:57 | 00:00:00 | |
| DM0DOS-11 | 2026-09-04 21:57:29 | 50.73547 | 4.97381 | 91° | 73km/h | 4893m | 5.7m/s | -10°C | 78.1% | 557hPa | 5.1V | 00:00:00 | 00:20:52 | 00:00:00 | |
| DM0DOS-11 | 2026-09-04 21:57:24 | 50.73555 | 4.97231 | 94° | 75km/h | 4865m | 6m/s | -9.9°C | 77.4% | 559hPa | 5.1V | 00:00:00 | 00:20:47 | 00:00:00 | |
| DM0DOS-11 | 2026-09-04 21:57:19 | 50.73560 | 4.97080 | 94° | 69km/h | 4835m | 4.8m/s | -9.7°C | 76.5% | 561.2hPa | 5.1V | 00:00:00 | 00:20:42 | 00:00:00 | |
| DB0UT-7 | 2026-09-04 21:57:10 | 50.73571 | 4.96946 | 85° | 71km/h | 4813m | 5.4m/s | -9.5°C | 75.9% | 562.7hPa | 5.0V | 00:00:00 | 00:00:00 | 00:00:00 | |
| DB0UT-7 | 2026-09-04 21:56:40 | 50.73656 | 4.96091 | 114° | 66km/h | 4640m | 5.8m/s | -8.6°C | 71.2% | 575.4hPa | 5.2V | 00:00:00 | 00:20:08 | 00:00:00 | |
| DB0UT-7 | 2026-09-04 21:56:10 | 50.73824 | 4.95343 | 111° | 64km/h | 4495m | 5.4m/s | -8.2°C | 64.9% | 586.6hPa | 5.2V | 00:00:00 | 00:00:00 | 00:00:00 | |
| DM0DOS-11 | 2026-09-04 21:56:01 | 50.73919 | 4.95009 | 112° | 64km/h | 4425m | 4.5m/s | -7.9°C | 62.7% | 592hPa | 5.2V | 00:00:00 | 00:19:24 | 00:00:00 | |
| DM0DOS-11 | 2026-09-04 21:55:54 | 50.73977 | 4.94854 | 135° | 64km/h | 4393m | 4.3m/s | -7.8°C | 63% | 594.4hPa | 5.2V | 00:00:00 | 00:19:17 | 00:00:00 | |
| DM0DOS-11 | 2026-09-04 21:55:49 | 50.74024 | 4.94755 | 118° | 60km/h | 4371m | 4.8m/s | -7.8°C | 62% | 596hPa | 5.2V | 00:00:00 | 00:19:12 | 00:00:00 | |
| DM0DOS-11 | 2026-09-04 21:55:40 | 50.74090 | 4.94575 | 134° | 68km/h | 4327m | 5.1m/s | -9.3°C | 53.2% | 599.4hPa | 5.2V | 00:00:00 | 00:19:03 | 00:00:00 | |
| DB0UT-7 | 2026-09-04 21:55:40 | 50.74053 | 4.94664 | 124° | 64km/h | 4350m | 4.9m/s | -8.5°C | 57.8% | 597.6hPa | 5.2V | 00:00:00 | 00:19:08 | 00:00:00 | |
| DM0DOS-11 | 2026-09-04 21:55:34 | 50.74157 | 4.94454 | 113° | 68km/h | 4295m | 4.4m/s | -9°C | 51.7% | 602hPa | 5.2V | 00:00:00 | 00:18:57 | 00:00:00 | |
| DM0DOS-11 | 2026-09-04 21:55:29 | 50.74194 | 4.94335 | 123° | 68km/h | 4275m | 4.8m/s | -8.9°C | 51.1% | 603.5hPa | 5.2V | 00:00:00 | 00:18:52 | 00:00:00 | |
| DB0UT-7 | 2026-09-04 21:55:10 | 50.74325 | 4.94057 | 123° | 66km/h | 4203m | 4.5m/s | -8.1°C | 49.3% | 609.2hPa | 5.2V | 00:00:00 | 00:00:00 | 00:00:00 | |
| DM0DOS-11 | 2026-09-04 21:54:45 | 50.74588 | 4.93386 | 120° | 64km/h | 4060m | 5m/s | -6.9°C | 48.2% | 620.5hPa | 5.2V | 00:00:00 | 00:18:08 | 00:00:00 | |
| DB0UT-7 | 2026-09-04 21:54:40 | 50.74588 | 4.93386 | 126° | 68km/h | 4060m | 5.0m/s | -6.9°C | 48.2% | 620.4hPa | 5.2V | 00:00:00 | 00:18:08 | 00:00:00 | |
| DM0DOS-11 | 2026-09-04 21:54:33 | 50.74694 | 4.93139 | 124° | 64km/h | 4000m | 5.7m/s | -6.4°C | 47.8% | 625.2hPa | 5.2V | 00:00:00 | 00:17:56 | 00:00:00 | |
| DM0DOS-11 | 2026-09-04 21:54:28 | 50.74742 | 4.93028 | 118° | 68km/h | 3971m | 4.8m/s | -6.2°C | 47.7% | 627.6hPa | 5.2V | 00:00:00 | 00:17:51 | 00:00:00 | |
| DM0DOS-11 | 2026-09-04 21:54:23 | 50.74785 | 4.92921 | 112° | 69km/h | 3948m | 4.7m/s | -6°C | 47.7% | 629.5hPa | 5.2V | 00:00:00 | 00:17:46 | 00:00:00 | |
| DM0DOS-11 | 2026-09-04 21:54:18 | 50.74842 | 4.92775 | 126° | 75km/h | 3921m | 5m/s | -5.8°C | 48% | 631.7hPa | 5.2V | 00:00:00 | 00:17:40 | 00:00:00 | |
| BIOWL1-15 | 2026-09-04 21:54:17 | 50.74797 | 4.92874 | 126° | 77km/h | 3939m | 4.5m/s | -5.9°C | 47.8% | 630.2hPa | 5.2V | 00:00:00 | 00:00:00 | 00:00:00 | |
| DM0DOS-11 | 2026-09-04 21:54:13 | 50.74883 | 4.92635 | 112° | 62km/h | 3897m | 6.5m/s | -5.6°C | 47.2% | 633.5hPa | 5.2V | 00:00:00 | 00:17:35 | 00:00:00 | |
| DB0UT-7 | 2026-09-04 21:54:10 | 50.74866 | 4.92720 | 113° | 64km/h | 3913m | 5.4m/s | -5.7°C | 47.7% | 632.2hPa | 5.2V | 00:00:00 | 00:00:00 | 00:00:00 | |
| DM0DOS-11 | 2026-09-04 21:54:00 | 50.74936 | 4.92478 | 128° | 58km/h | 3850m | 5.4m/s | -5.2°C | 46.7% | 637.3hPa | 5.2V | 00:00:00 | 00:17:28 | 00:00:00 | |
| DM0DOS-11 | 2026-09-04 21:54:00 | 50.74961 | 4.92370 | 112° | 71km/h | 3824m | 5.5m/s | -5°C | 46.5% | 639.5hPa | 5.2V | 00:00:00 | 00:17:23 | 00:00:00 | |
| DM0DOS-11 | 2026-09-04 21:53:55 | 50.75007 | 4.92249 | 118° | 60km/h | 3794m | 4.3m/s | -4.7°C | 46.2% | 641.9hPa | 5.2V | 00:00:00 | 00:17:18 | 00:00:00 | |
| DM0DOS-11 | 2026-09-04 21:53:50 | 50.75039 | 4.92139 | 122° | 69km/h | 3771m | 4.7m/s | -4.5°C | 46% | 643.8hPa | 5.2V | 00:00:00 | 00:17:13 | 00:00:00 | |
| DM0DOS-11 | 2026-09-04 21:53:45 | 50.75077 | 4.92018 | 112° | 68km/h | 3747m | 4m/s | -4.3°C | 45.8% | 645.8hPa | 5.2V | 00:00:00 | 00:17:08 | 00:00:00 | |
| DM0DOS-11 | 2026-09-04 21:53:40 | 50.75119 | 4.91889 | 112° | 60km/h | 3726m | 4.1m/s | -4.2°C | 45.5% | 647.6hPa | 5.2V | 00:00:00 | 00:17:03 | 00:00:00 | |
| DB0UT-7 | 2026-09-04 21:53:40 | 50.75077 | 4.92018 | 113° | 68km/h | 3747m | 4.1m/s | -4.3°C | 45.8% | 645.8hPa | 5.2V | 00:00:00 | 00:17:08 | 00:00:00 | |
| DM0DOS-11 | 2026-09-04 21:53:35 | 50.75145 | 4.91779 | 112° | 73km/h | 3706m | 4.9m/s | -4°C | 45% | 649.3hPa | 5.2V | 00:00:00 | 00:16:58 | 00:00:00 | |
| DM0DOS-11 | 2026-09-04 21:53:25 | 50.75183 | 4.91646 | 120° | 60km/h | 3680m | 4.6m/s | -3.8°C | 44.5% | 651.2hPa | 5.2V | 00:00:00 | 00:16:53 | 00:00:00 | |
| DM0DOS-11 | 2026-09-04 21:53:25 | 50.75222 | 4.91539 | 115° | 66km/h | 3656m | 4.9m/s | -3.5°C | 44.2% | 653.3hPa | 5.2V | 00:00:00 | 00:16:48 | 00:00:00 | |
| DM0DOS-11 | 2026-09-04 21:53:16 | 50.75259 | 4.91419 | 105° | 64km/h | 3631m | 4.5m/s | -3.3°C | 43.7% | 655.4hPa | 5.2V | 00:00:00 | 00:16:43 | 00:00:00 | |
| DM0DOS-11 | 2026-09-04 21:53:16 | 50.75281 | 4.91295 | 119° | 69km/h | 3609m | 5.5m/s | -3.1°C | 43.3% | 657.1hPa | 5.2V | 00:00:00 | 00:16:38 | 00:00:00 | |
| DM0DOS-11 | 2026-09-04 21:53:10 | 50.75317 | 4.91168 | 102° | 64km/h | 3582m | 4.9m/s | -2.9°C | 43% | 659.5hPa | 5.2V | 00:00:00 | 00:16:33 | 00:00:00 | |
| DM0DOS-11 | 2026-09-04 21:53:05 | 50.75353 | 4.91035 | 114° | 55km/h | 3557m | 5.3m/s | -2.6°C | 42.7% | 661.5hPa | 5.2V | 00:00:00 | 00:16:28 | 00:00:00 | |
| DB0UT-7 | 2026-09-04 21:53:00 | 50.75353 | 4.91035 | 120° | 64km/h | 3557m | 5.1m/s | -2.6°C | 42.7% | 661.5hPa | 5.2V | 00:00:00 | 00:00:00 | 00:00:00 | |
| DB0UT-7 | 2026-09-04 21:52:30 | 50.75532 | 4.90335 | 113° | 57km/h | 3408m | 4.8m/s | -1.4°C | 41.3% | 673.9hPa | 5.2V | 00:00:00 | 00:15:58 | 00:00:00 | |
| DB0UT-7 | 2026-09-04 21:52:00 | 50.75694 | 4.89673 | 102° | 55km/h | 3252m | 5.0m/s | -0.5°C | 42.0% | 687.2hPa | 5.2V | 00:00:00 | 00:00:00 | 00:00:00 | |
| DM0DOS-11 | 2026-09-04 21:51:31 | 50.75757 | 4.88925 | 94° | 57km/h | 3070m | 4.7m/s | 0.8°C | 41.2% | 703hPa | 5.2V | 00:00:00 | 00:14:54 | 00:00:00 | |
| DB0UT-7 | 2026-09-04 21:51:30 | 50.75749 | 4.89042 | 96° | 58km/h | 3090m | 5.3m/s | 0.7°C | 41.2% | 701.1hPa | 5.2V | 00:00:00 | 00:14:58 | 00:00:00 | |
| DM0DOS-11 | 2026-09-04 21:51:15 | 50.75772 | 4.88552 | 81° | 60km/h | 2994m | 5.2m/s | 1.6°C | 39.7% | 709.7hPa | 5.2V | 00:00:00 | 00:14:37 | 00:00:00 | |
| DM0DOS-11 | 2026-09-04 21:51:04 | 50.75777 | 4.88440 | 86° | 60km/h | 2962m | 4.7m/s | 1.8°C | 39.3% | 712.4hPa | 5.2V | 00:00:00 | 00:14:32 | 00:00:00 | |
| DM0DOS-11 | 2026-09-04 21:51:04 | 50.75776 | 4.88310 | 83° | 58km/h | 2940m | 4.8m/s | 2°C | 39% | 714.3hPa | 5.2V | 00:00:00 | 00:14:27 | 00:00:00 | |
| DB0UT-7 | 2026-09-04 21:51:00 | 50.75777 | 4.88340 | 88° | 55km/h | 2944m | 4.6m/s | 1.9°C | 39.0% | 714.0hPa | 5.2V | 00:00:00 | 00:00:00 | 00:00:00 | |
| DM0DOS-11 | 2026-09-04 21:50:59 | 50.75782 | 4.88201 | 110° | 62km/h | 2915m | 4.5m/s | 2.2°C | 38.5% | 716.6hPa | 5.2V | 00:00:00 | 00:14:22 | 00:00:00 | |
| DM0DOS-11 | 2026-09-04 21:50:54 | 50.75793 | 4.88069 | 81° | 49km/h | 2892m | 5.7m/s | 2.5°C | 38.2% | 718.5hPa | 5.2V | 00:00:00 | 00:14:17 | 00:00:00 | |
| DM0DOS-11 | 2026-09-04 21:50:48 | 50.75795 | 4.87954 | 107° | 55km/h | 2856m | 4.7m/s | 2.7°C | 38% | 721.8hPa | 5.2V | 00:00:00 | 00:14:11 | 00:00:00 | |
| DM0DOS-11 | 2026-09-04 21:50:43 | 50.75806 | 4.87855 | 93° | 53km/h | 2833m | 5.2m/s | 2.9°C | 37.5% | 723.8hPa | 5.2V | 00:00:00 | 00:14:06 | 00:00:00 | |
| DM0DOS-11 | 2026-09-04 21:50:38 | 50.75815 | 4.87736 | 91° | 46km/h | 2806m | 5.1m/s | 3.1°C | 37.2% | 726.3hPa | 5.2V | 00:00:00 | 00:14:01 | 00:00:00 | |
| DM0DOS-11 | 2026-09-04 21:50:33 | 50.75806 | 4.87655 | 101° | 57km/h | 2784m | 6m/s | 3.3°C | 36.8% | 728.3hPa | 5.2V | 00:00:00 | 00:13:56 | 00:00:00 | |
| DB0UT-7 | 2026-09-04 21:50:30 | 50.75810 | 4.87684 | 71° | 49km/h | 2790m | 4.6m/s | 3.2°C | 37.0% | 727.7hPa | 5.2V | 00:00:00 | 00:13:58 | 00:00:00 | |
| DM0DOS-11 | 2026-09-04 21:50:28 | 50.75815 | 4.87533 | 74° | 46km/h | 2754m | 5m/s | 3.5°C | 36.5% | 730.8hPa | 5.2V | 00:00:00 | 00:13:51 | 00:00:00 | |
| DM0DOS-11 | 2026-09-04 21:50:23 | 50.75806 | 4.87444 | 87° | 38km/h | 2729m | 4.8m/s | 3.8°C | 36% | 733.1hPa | 5.2V | 00:00:00 | 00:13:46 | 00:00:00 | |
| DM0DOS-11 | 2026-09-04 21:50:14 | 50.75804 | 4.87367 | 83° | 44km/h | 2703m | 5.3m/s | 4.1°C | 35.5% | 735.3hPa | 5.2V | 00:00:00 | 00:13:41 | 00:00:00 | |
| DM0DOS-11 | 2026-09-04 21:50:14 | 50.75808 | 4.87288 | 88° | 51km/h | 2673m | 3.6m/s | 4.3°C | 35.5% | 738.1hPa | 5.2V | 00:00:00 | 00:13:36 | 00:00:00 | |
| DM0DOS-11 | 2026-09-04 21:50:04 | 50.75801 | 4.87096 | 83° | 57km/h | 2641m | 3.8m/s | 4.5°C | 35.3% | 741.2hPa | 5.2V | 00:00:00 | 00:13:27 | 00:00:00 | |
| DB0UT-7 | 2026-09-04 21:50:00 | 50.75805 | 4.87107 | 66° | 57km/h | 2644m | 5.1m/s | 4.5°C | 35.3% | 740.8hPa | 5.2V | 00:00:00 | 00:00:00 | 00:00:00 | |
| DM0DOS-11 | 2026-09-04 21:49:57 | 50.75787 | 4.86950 | 3° | 64km/h | 2596m | 0m/s | 4.7°C | 35.2% | 745.2hPa | 5.2V | 00:00:00 | 00:13:20 | 00:00:00 | |
| DB0UT-7 | 2026-09-04 21:49:30 | 50.75726 | 4.86464 | 87° | 62km/h | 2490m | 4.4m/s | 5.1°C | 35.0% | 754.7hPa | 5.2V | 00:00:00 | 00:12:58 | 00:00:00 | |
| DB0UT-7 | 2026-09-04 21:49:00 | 50.75572 | 4.85760 | 84° | 62km/h | 2329m | 5.7m/s | 6.7°C | 33.2% | 769.6hPa | 5.2V | 00:00:00 | 00:00:00 | 00:00:00 | |
| DB0UT-7 | 2026-09-04 21:48:30 | 50.75427 | 4.85062 | 94° | 53km/h | 2161m | 6.1m/s | 6.9°C | 47.3% | 785.8hPa | 5.2V | 00:00:00 | 00:11:58 | 00:00:00 | |
| DB0UT-7 | 2026-09-04 21:48:00 | 50.75363 | 4.84447 | 87° | 51km/h | 1978m | 6.3m/s | 6.3°C | 46.3% | 803.8hPa | 5.2V | 00:00:00 | 00:00:00 | 00:00:00 | |
| DB0UT-7 | 2026-09-04 21:47:31 | 50.75455 | 4.83262 | 106° | 49km/h | 1631m | 5.5m/s | 7.9°C | 79.1% | 837.9hPa | 5.2V | 00:00:00 | 00:00:00 | 00:00:00 | |
| DB0UT-7 | 2026-09-04 21:47:09 | 50.75455 | 4.82684 | 102° | 60km/h | 1463m | 3.7m/s | 8.8°C | 80.5% | 855.2hPa | 5.2V | 00:00:00 | 00:09:58 | 00:00:00 |